<?xml version="1.0" encoding="utf-8"?>
<gpx xmlns:xsi="http://www.w3.org/2001/XMLSchema-instance" xmlns:xsd="http://www.w3.org/2001/XMLSchema" version="1.1" creator="Shapelink.com" xmlns="http://www.topografix.com/GPX/1/1" xmlns:gpxtpx="http://www.garmin.com/xmlschemas/TrackPointExtension/v1">
  <metadata>
    <name>Löpning 12.22 km, 2017-12-21</name>
    <desc></desc>
    <author><name>Bengt-Åke Forslund</name></author> 
    <time>2017-12-21T19:00:28Z</time>
  </metadata>
  <trk>
    <name>Löpning 12.22 km, 2017-12-21</name>
    <trkseg>
      <trkpt lat="62.635874070392" lon="17.967754239241">
        <ele>51.2</ele>
        <time>2017-12-21T19:00:28Z</time>
      </trkpt>
      <trkpt lat="62.635972054803" lon="17.968068057577">
        <ele>51.8</ele>
        <time>2017-12-21T19:01:29Z</time>
      </trkpt>
      <trkpt lat="62.635985130567" lon="17.968116672597">
        <ele>51.8</ele>
        <time>2017-12-21T19:01:30Z</time>
      </trkpt>
      <trkpt lat="62.635984208558" lon="17.968094376743">
        <ele>51.8</ele>
        <time>2017-12-21T19:01:31Z</time>
      </trkpt>
      <trkpt lat="62.635994602114" lon="17.96813318494">
        <ele>51.8</ele>
        <time>2017-12-21T19:01:32Z</time>
      </trkpt>
      <trkpt lat="62.636010611543" lon="17.968176519363">
        <ele>51.8</ele>
        <time>2017-12-21T19:01:33Z</time>
      </trkpt>
      <trkpt lat="62.636039110003" lon="17.968269223177">
        <ele>51.8</ele>
        <time>2017-12-21T19:01:34Z</time>
      </trkpt>
      <trkpt lat="62.636050425568" lon="17.968298727465">
        <ele>52</ele>
        <time>2017-12-21T19:01:35Z</time>
      </trkpt>
      <trkpt lat="62.636062495504" lon="17.968330327228">
        <ele>52</ele>
        <time>2017-12-21T19:01:36Z</time>
      </trkpt>
      <trkpt lat="62.636069117205" lon="17.968353377453">
        <ele>52</ele>
        <time>2017-12-21T19:01:37Z</time>
      </trkpt>
      <trkpt lat="62.636096106923" lon="17.968402411568">
        <ele>52</ele>
        <time>2017-12-21T19:01:38Z</time>
      </trkpt>
      <trkpt lat="62.636119576243" lon="17.968426048526">
        <ele>52.2</ele>
        <time>2017-12-21T19:01:39Z</time>
      </trkpt>
      <trkpt lat="62.63613994426" lon="17.96845253533">
        <ele>52.6</ele>
        <time>2017-12-21T19:01:40Z</time>
      </trkpt>
      <trkpt lat="62.636159977001" lon="17.968466197827">
        <ele>52.6</ele>
        <time>2017-12-21T19:01:41Z</time>
      </trkpt>
      <trkpt lat="62.636185038882" lon="17.96848606293">
        <ele>53</ele>
        <time>2017-12-21T19:01:42Z</time>
      </trkpt>
      <trkpt lat="62.636200796854" lon="17.968463180343">
        <ele>53</ele>
        <time>2017-12-21T19:01:43Z</time>
      </trkpt>
      <trkpt lat="62.636233486264" lon="17.968484218912">
        <ele>53</ele>
        <time>2017-12-21T19:01:44Z</time>
      </trkpt>
      <trkpt lat="62.636261565629" lon="17.968511879182">
        <ele>53.2</ele>
        <time>2017-12-21T19:01:45Z</time>
      </trkpt>
      <trkpt lat="62.636290147908" lon="17.96854054528">
        <ele>53.2</ele>
        <time>2017-12-21T19:01:46Z</time>
      </trkpt>
      <trkpt lat="62.636318227273" lon="17.968574491975">
        <ele>53</ele>
        <time>2017-12-21T19:01:47Z</time>
      </trkpt>
      <trkpt lat="62.636341026041" lon="17.968605840281">
        <ele>53.2</ele>
        <time>2017-12-21T19:01:48Z</time>
      </trkpt>
      <trkpt lat="62.636368602492" lon="17.968657388966">
        <ele>53</ele>
        <time>2017-12-21T19:01:49Z</time>
      </trkpt>
      <trkpt lat="62.636386204482" lon="17.968700723389">
        <ele>53.2</ele>
        <time>2017-12-21T19:01:50Z</time>
      </trkpt>
      <trkpt lat="62.636405399033" lon="17.968750847151">
        <ele>53.2</ele>
        <time>2017-12-21T19:01:51Z</time>
      </trkpt>
      <trkpt lat="62.636422833385" lon="17.968781692543">
        <ele>53.2</ele>
        <time>2017-12-21T19:01:52Z</time>
      </trkpt>
      <trkpt lat="62.636441441203" lon="17.96884480825">
        <ele>53.4</ele>
        <time>2017-12-21T19:01:53Z</time>
      </trkpt>
      <trkpt lat="62.636447057076" lon="17.968856123815">
        <ele>53.4</ele>
        <time>2017-12-21T19:01:54Z</time>
      </trkpt>
      <trkpt lat="62.636475974631" lon="17.968930638906">
        <ele>53.4</ele>
        <time>2017-12-21T19:01:55Z</time>
      </trkpt>
      <trkpt lat="62.636492570793" lon="17.968973386596">
        <ele>53.4</ele>
        <time>2017-12-21T19:01:56Z</time>
      </trkpt>
      <trkpt lat="62.636510675697" lon="17.969020576693">
        <ele>53.6</ele>
        <time>2017-12-21T19:01:57Z</time>
      </trkpt>
      <trkpt lat="62.636530037886" lon="17.969066844781">
        <ele>53.6</ele>
        <time>2017-12-21T19:01:58Z</time>
      </trkpt>
      <trkpt lat="62.636542946012" lon="17.969106742625">
        <ele>53.6</ele>
        <time>2017-12-21T19:01:59Z</time>
      </trkpt>
      <trkpt lat="62.636532720094" lon="17.969183017915">
        <ele>53.8</ele>
        <time>2017-12-21T19:02:00Z</time>
      </trkpt>
      <trkpt lat="62.636551411731" lon="17.969228783089">
        <ele>53.8</ele>
        <time>2017-12-21T19:02:01Z</time>
      </trkpt>
      <trkpt lat="62.636566666789" lon="17.969267591286">
        <ele>54</ele>
        <time>2017-12-21T19:02:02Z</time>
      </trkpt>
      <trkpt lat="62.636580496924" lon="17.969322828007">
        <ele>53.8</ele>
        <time>2017-12-21T19:02:03Z</time>
      </trkpt>
      <trkpt lat="62.636588878824" lon="17.969361887661">
        <ele>53.8</ele>
        <time>2017-12-21T19:02:04Z</time>
      </trkpt>
      <trkpt lat="62.636604636796" lon="17.969430283965">
        <ele>53.8</ele>
        <time>2017-12-21T19:02:05Z</time>
      </trkpt>
      <trkpt lat="62.63662022713" lon="17.969471522913">
        <ele>53.8</ele>
        <time>2017-12-21T19:02:06Z</time>
      </trkpt>
      <trkpt lat="62.636634560179" lon="17.969523071598">
        <ele>53.8</ele>
        <time>2017-12-21T19:02:07Z</time>
      </trkpt>
      <trkpt lat="62.636650737246" lon="17.969573362998">
        <ele>53.8</ele>
        <time>2017-12-21T19:02:08Z</time>
      </trkpt>
      <trkpt lat="62.63666129844" lon="17.969605717132">
        <ele>53.8</ele>
        <time>2017-12-21T19:02:09Z</time>
      </trkpt>
      <trkpt lat="62.63667387129" lon="17.969665312441">
        <ele>54</ele>
        <time>2017-12-21T19:02:10Z</time>
      </trkpt>
      <trkpt lat="62.63668560595" lon="17.969703953">
        <ele>54</ele>
        <time>2017-12-21T19:02:11Z</time>
      </trkpt>
      <trkpt lat="62.636698681714" lon="17.969750472545">
        <ele>54.2</ele>
        <time>2017-12-21T19:02:12Z</time>
      </trkpt>
      <trkpt lat="62.636715696971" lon="17.969801350678">
        <ele>54.4</ele>
        <time>2017-12-21T19:02:13Z</time>
      </trkpt>
      <trkpt lat="62.636729778563" lon="17.969839655961">
        <ele>54.6</ele>
        <time>2017-12-21T19:02:14Z</time>
      </trkpt>
      <trkpt lat="62.636747799648" lon="17.969901933478">
        <ele>54.6</ele>
        <time>2017-12-21T19:02:15Z</time>
      </trkpt>
      <trkpt lat="62.636764731086" lon="17.969932862689">
        <ele>54.6</ele>
        <time>2017-12-21T19:02:16Z</time>
      </trkpt>
      <trkpt lat="62.636790631157" lon="17.969997738595">
        <ele>54.6</ele>
        <time>2017-12-21T19:02:17Z</time>
      </trkpt>
      <trkpt lat="62.636807562595" lon="17.970010311445">
        <ele>54.6</ele>
        <time>2017-12-21T19:02:18Z</time>
      </trkpt>
      <trkpt lat="62.636839413815" lon="17.970057417723">
        <ele>54.6</ele>
        <time>2017-12-21T19:02:19Z</time>
      </trkpt>
      <trkpt lat="62.636868918103" lon="17.970093376074">
        <ele>54.6</ele>
        <time>2017-12-21T19:02:20Z</time>
      </trkpt>
      <trkpt lat="62.636892219785" lon="17.97011550429">
        <ele>54.4</ele>
        <time>2017-12-21T19:02:21Z</time>
      </trkpt>
      <trkpt lat="62.636925579747" lon="17.970155318315">
        <ele>54.6</ele>
        <time>2017-12-21T19:02:22Z</time>
      </trkpt>
      <trkpt lat="62.636952904741" lon="17.970162359111">
        <ele>54.4</ele>
        <time>2017-12-21T19:02:23Z</time>
      </trkpt>
      <trkpt lat="62.636986767617" lon="17.970178536178">
        <ele>54.6</ele>
        <time>2017-12-21T19:02:24Z</time>
      </trkpt>
      <trkpt lat="62.637025156719" lon="17.970189600286">
        <ele>54.6</ele>
        <time>2017-12-21T19:02:25Z</time>
      </trkpt>
      <trkpt lat="62.637058684319" lon="17.97018926501">
        <ele>54.6</ele>
        <time>2017-12-21T19:02:26Z</time>
      </trkpt>
      <trkpt lat="62.637103443665" lon="17.970178200902">
        <ele>54.4</ele>
        <time>2017-12-21T19:02:27Z</time>
      </trkpt>
      <trkpt lat="62.637142251862" lon="17.970160095998">
        <ele>54.4</ele>
        <time>2017-12-21T19:02:28Z</time>
      </trkpt>
      <trkpt lat="62.637184077543" lon="17.970140733809">
        <ele>54.2</ele>
        <time>2017-12-21T19:02:29Z</time>
      </trkpt>
      <trkpt lat="62.637225484129" lon="17.970114414643">
        <ele>53.6</ele>
        <time>2017-12-21T19:02:30Z</time>
      </trkpt>
      <trkpt lat="62.637272422769" lon="17.970089604219">
        <ele>53.2</ele>
        <time>2017-12-21T19:02:31Z</time>
      </trkpt>
      <trkpt lat="62.637320870151" lon="17.970059094103">
        <ele>53</ele>
        <time>2017-12-21T19:02:32Z</time>
      </trkpt>
      <trkpt lat="62.637367808791" lon="17.970039312819">
        <ele>52.6</ele>
        <time>2017-12-21T19:02:33Z</time>
      </trkpt>
      <trkpt lat="62.637416591449" lon="17.970024895951">
        <ele>52.2</ele>
        <time>2017-12-21T19:02:34Z</time>
      </trkpt>
      <trkpt lat="62.637464871193" lon="17.970027997254">
        <ele>52</ele>
        <time>2017-12-21T19:02:35Z</time>
      </trkpt>
      <trkpt lat="62.637506361598" lon="17.970053226773">
        <ele>51.8</ele>
        <time>2017-12-21T19:02:36Z</time>
      </trkpt>
      <trkpt lat="62.637554473704" lon="17.970098405214">
        <ele>51.6</ele>
        <time>2017-12-21T19:02:37Z</time>
      </trkpt>
      <trkpt lat="62.637590264417" lon="17.970153139021">
        <ele>51.4</ele>
        <time>2017-12-21T19:02:38Z</time>
      </trkpt>
      <trkpt lat="62.637620774533" lon="17.97021860166">
        <ele>51.2</ele>
        <time>2017-12-21T19:02:39Z</time>
      </trkpt>
      <trkpt lat="62.637649272993" lon="17.970284148118">
        <ele>51.2</ele>
        <time>2017-12-21T19:02:40Z</time>
      </trkpt>
      <trkpt lat="62.637666791164" lon="17.970337121726">
        <ele>51</ele>
        <time>2017-12-21T19:02:41Z</time>
      </trkpt>
      <trkpt lat="62.637691936864" lon="17.970402332908">
        <ele>51</ele>
        <time>2017-12-21T19:02:42Z</time>
      </trkpt>
      <trkpt lat="62.637715406184" lon="17.970460587113">
        <ele>51</ele>
        <time>2017-12-21T19:02:43Z</time>
      </trkpt>
      <trkpt lat="62.637734852192" lon="17.970532000901">
        <ele>51</ele>
        <time>2017-12-21T19:02:44Z</time>
      </trkpt>
      <trkpt lat="62.637753962924" lon="17.970599559015">
        <ele>51.2</ele>
        <time>2017-12-21T19:02:45Z</time>
      </trkpt>
      <trkpt lat="62.637766368136" lon="17.970660998342">
        <ele>51.4</ele>
        <time>2017-12-21T19:02:46Z</time>
      </trkpt>
      <trkpt lat="62.63778112028" lon="17.970735513433">
        <ele>51.6</ele>
        <time>2017-12-21T19:02:47Z</time>
      </trkpt>
      <trkpt lat="62.63779369313" lon="17.970794354371">
        <ele>51.8</ele>
        <time>2017-12-21T19:02:48Z</time>
      </trkpt>
      <trkpt lat="62.637808864369" lon="17.970875407344">
        <ele>52</ele>
        <time>2017-12-21T19:02:49Z</time>
      </trkpt>
      <trkpt lat="62.637822945961" lon="17.970927123667">
        <ele>52.2</ele>
        <time>2017-12-21T19:02:50Z</time>
      </trkpt>
      <trkpt lat="62.637833590974" lon="17.97098470732">
        <ele>52.2</ele>
        <time>2017-12-21T19:02:51Z</time>
      </trkpt>
      <trkpt lat="62.637846750557" lon="17.971057713669">
        <ele>52.2</ele>
        <time>2017-12-21T19:02:52Z</time>
      </trkpt>
      <trkpt lat="62.637854713362" lon="17.971111357829">
        <ele>52.2</ele>
        <time>2017-12-21T19:02:53Z</time>
      </trkpt>
      <trkpt lat="62.637864352547" lon="17.971188806585">
        <ele>52.2</ele>
        <time>2017-12-21T19:02:54Z</time>
      </trkpt>
      <trkpt lat="62.637882038356" lon="17.971244630039">
        <ele>52.4</ele>
        <time>2017-12-21T19:02:55Z</time>
      </trkpt>
      <trkpt lat="62.637888911514" lon="17.971308081022">
        <ele>52.4</ele>
        <time>2017-12-21T19:02:56Z</time>
      </trkpt>
      <trkpt lat="62.637900562355" lon="17.971363820657">
        <ele>52.2</ele>
        <time>2017-12-21T19:02:57Z</time>
      </trkpt>
      <trkpt lat="62.637909028074" lon="17.971406233071">
        <ele>52.4</ele>
        <time>2017-12-21T19:02:58Z</time>
      </trkpt>
      <trkpt lat="62.637916739422" lon="17.971476557212">
        <ele>52.4</ele>
        <time>2017-12-21T19:02:59Z</time>
      </trkpt>
      <trkpt lat="62.63792864172" lon="17.971516455056">
        <ele>52.4</ele>
        <time>2017-12-21T19:03:00Z</time>
      </trkpt>
      <trkpt lat="62.637934006136" lon="17.971582588247">
        <ele>52.4</ele>
        <time>2017-12-21T19:03:01Z</time>
      </trkpt>
      <trkpt lat="62.637943142407" lon="17.97164101009">
        <ele>52.6</ele>
        <time>2017-12-21T19:03:02Z</time>
      </trkpt>
      <trkpt lat="62.63794792009" lon="17.971693396965">
        <ele>52.6</ele>
        <time>2017-12-21T19:03:03Z</time>
      </trkpt>
      <trkpt lat="62.637952530135" lon="17.97176003307">
        <ele>52.8</ele>
        <time>2017-12-21T19:03:04Z</time>
      </trkpt>
      <trkpt lat="62.63795881656" lon="17.97181200085">
        <ele>52.8</ele>
        <time>2017-12-21T19:03:05Z</time>
      </trkpt>
      <trkpt lat="62.637956721085" lon="17.971879978059">
        <ele>53</ele>
        <time>2017-12-21T19:03:06Z</time>
      </trkpt>
      <trkpt lat="62.637966527908" lon="17.971940076282">
        <ele>53</ele>
        <time>2017-12-21T19:03:07Z</time>
      </trkpt>
      <trkpt lat="62.6379638457" lon="17.972011154794">
        <ele>53.2</ele>
        <time>2017-12-21T19:03:08Z</time>
      </trkpt>
      <trkpt lat="62.637967869012" lon="17.972074270501">
        <ele>53.2</ele>
        <time>2017-12-21T19:03:09Z</time>
      </trkpt>
      <trkpt lat="62.637971054134" lon="17.972133195258">
        <ele>53.4</ele>
        <time>2017-12-21T19:03:10Z</time>
      </trkpt>
      <trkpt lat="62.637974239256" lon="17.972196981517">
        <ele>53.4</ele>
        <time>2017-12-21T19:03:11Z</time>
      </trkpt>
      <trkpt lat="62.637973652523" lon="17.972246099451">
        <ele>53.4</ele>
        <time>2017-12-21T19:03:12Z</time>
      </trkpt>
      <trkpt lat="62.63797474217" lon="17.972318183791">
        <ele>53.4</ele>
        <time>2017-12-21T19:03:13Z</time>
      </trkpt>
      <trkpt lat="62.637981950604" lon="17.972365709164">
        <ele>53.4</ele>
        <time>2017-12-21T19:03:14Z</time>
      </trkpt>
      <trkpt lat="62.637986393011" lon="17.97241549765">
        <ele>53.6</ele>
        <time>2017-12-21T19:03:15Z</time>
      </trkpt>
      <trkpt lat="62.637989661952" lon="17.972463106842">
        <ele>53.6</ele>
        <time>2017-12-21T19:03:16Z</time>
      </trkpt>
      <trkpt lat="62.637998462947" lon="17.972502166496">
        <ele>53.6</ele>
        <time>2017-12-21T19:03:17Z</time>
      </trkpt>
      <trkpt lat="62.638000642241" lon="17.972550027145">
        <ele>53.6</ele>
        <time>2017-12-21T19:03:18Z</time>
      </trkpt>
      <trkpt lat="62.638010029969" lon="17.972608951902">
        <ele>53.8</ele>
        <time>2017-12-21T19:03:19Z</time>
      </trkpt>
      <trkpt lat="62.638008102132" lon="17.972675588007">
        <ele>53.8</ele>
        <time>2017-12-21T19:03:20Z</time>
      </trkpt>
      <trkpt lat="62.638010029969" lon="17.972717916602">
        <ele>53.8</ele>
        <time>2017-12-21T19:03:21Z</time>
      </trkpt>
      <trkpt lat="62.638011873987" lon="17.972763178862">
        <ele>54</ele>
        <time>2017-12-21T19:03:22Z</time>
      </trkpt>
      <trkpt lat="62.638009778512" lon="17.9728220198">
        <ele>54</ele>
        <time>2017-12-21T19:03:23Z</time>
      </trkpt>
      <trkpt lat="62.638010449064" lon="17.972852027002">
        <ele>54.4</ele>
        <time>2017-12-21T19:03:24Z</time>
      </trkpt>
      <trkpt lat="62.638010532883" lon="17.972913885424">
        <ele>54.6</ele>
        <time>2017-12-21T19:03:25Z</time>
      </trkpt>
      <trkpt lat="62.638011706349" lon="17.972950095232">
        <ele>54.6</ele>
        <time>2017-12-21T19:03:26Z</time>
      </trkpt>
      <trkpt lat="62.638014220919" lon="17.972990998904">
        <ele>54.8</ele>
        <time>2017-12-21T19:03:27Z</time>
      </trkpt>
      <trkpt lat="62.638016064937" lon="17.973040871209">
        <ele>55</ele>
        <time>2017-12-21T19:03:28Z</time>
      </trkpt>
      <trkpt lat="62.638027883416" lon="17.973090492057">
        <ele>55</ele>
        <time>2017-12-21T19:03:29Z</time>
      </trkpt>
      <trkpt lat="62.638030397986" lon="17.973137346878">
        <ele>55.2</ele>
        <time>2017-12-21T19:03:30Z</time>
      </trkpt>
      <trkpt lat="62.638029308339" lon="17.973191829228">
        <ele>55.4</ele>
        <time>2017-12-21T19:03:31Z</time>
      </trkpt>
      <trkpt lat="62.638027799597" lon="17.973243377913">
        <ele>55.4</ele>
        <time>2017-12-21T19:03:32Z</time>
      </trkpt>
      <trkpt lat="62.638032074366" lon="17.973284197766">
        <ele>55.6</ele>
        <time>2017-12-21T19:03:33Z</time>
      </trkpt>
      <trkpt lat="62.638028218692" lon="17.973345720912">
        <ele>55.6</ele>
        <time>2017-12-21T19:03:34Z</time>
      </trkpt>
      <trkpt lat="62.638029559796" lon="17.973391905181">
        <ele>55.8</ele>
        <time>2017-12-21T19:03:35Z</time>
      </trkpt>
      <trkpt lat="62.638028805425" lon="17.973430210464">
        <ele>56</ele>
        <time>2017-12-21T19:03:36Z</time>
      </trkpt>
      <trkpt lat="62.638024614475" lon="17.973481256235">
        <ele>56</ele>
        <time>2017-12-21T19:03:37Z</time>
      </trkpt>
      <trkpt lat="62.638027631959" lon="17.973518136595">
        <ele>56.2</ele>
        <time>2017-12-21T19:03:38Z</time>
      </trkpt>
      <trkpt lat="62.638024363018" lon="17.973582090492">
        <ele>56.4</ele>
        <time>2017-12-21T19:03:39Z</time>
      </trkpt>
      <trkpt lat="62.638030397986" lon="17.973626514562">
        <ele>56.4</ele>
        <time>2017-12-21T19:03:40Z</time>
      </trkpt>
      <trkpt lat="62.638029978891" lon="17.973681667464">
        <ele>56.6</ele>
        <time>2017-12-21T19:03:41Z</time>
      </trkpt>
      <trkpt lat="62.638024865932" lon="17.973731623588">
        <ele>56.6</ele>
        <time>2017-12-21T19:03:42Z</time>
      </trkpt>
      <trkpt lat="62.638029643615" lon="17.973793565829">
        <ele>56.6</ele>
        <time>2017-12-21T19:03:43Z</time>
      </trkpt>
      <trkpt lat="62.638026374674" lon="17.973845785066">
        <ele>56.6</ele>
        <time>2017-12-21T19:03:44Z</time>
      </trkpt>
      <trkpt lat="62.638025787941" lon="17.973914097551">
        <ele>56.6</ele>
        <time>2017-12-21T19:03:45Z</time>
      </trkpt>
      <trkpt lat="62.638035343307" lon="17.97396866372">
        <ele>56.6</ele>
        <time>2017-12-21T19:03:46Z</time>
      </trkpt>
      <trkpt lat="62.638035259488" lon="17.974046447752">
        <ele>56.6</ele>
        <time>2017-12-21T19:03:47Z</time>
      </trkpt>
      <trkpt lat="62.638043809026" lon="17.97407259928">
        <ele>56.6</ele>
        <time>2017-12-21T19:03:48Z</time>
      </trkpt>
      <trkpt lat="62.638050263089" lon="17.974170583691">
        <ele>56.6</ele>
        <time>2017-12-21T19:03:49Z</time>
      </trkpt>
      <trkpt lat="62.63806359031" lon="17.97424191366">
        <ele>56.8</ele>
        <time>2017-12-21T19:03:50Z</time>
      </trkpt>
      <trkpt lat="62.638063338853" lon="17.974305783738">
        <ele>56.8</ele>
        <time>2017-12-21T19:03:51Z</time>
      </trkpt>
      <trkpt lat="62.638064763776" lon="17.974378454811">
        <ele>56.8</ele>
        <time>2017-12-21T19:03:52Z</time>
      </trkpt>
      <trkpt lat="62.638062416844" lon="17.974435032636">
        <ele>57</ele>
        <time>2017-12-21T19:03:53Z</time>
      </trkpt>
      <trkpt lat="62.638056549514" lon="17.974510553555">
        <ele>56.8</ele>
        <time>2017-12-21T19:03:54Z</time>
      </trkpt>
      <trkpt lat="62.638056633333" lon="17.9745738369">
        <ele>56.8</ele>
        <time>2017-12-21T19:03:55Z</time>
      </trkpt>
      <trkpt lat="62.638042384103" lon="17.974641395014">
        <ele>56.8</ele>
        <time>2017-12-21T19:03:56Z</time>
      </trkpt>
      <trkpt lat="62.638035678583" lon="17.974717251209">
        <ele>56.8</ele>
        <time>2017-12-21T19:03:57Z</time>
      </trkpt>
      <trkpt lat="62.638014304738" lon="17.974767542609">
        <ele>56.8</ele>
        <time>2017-12-21T19:03:58Z</time>
      </trkpt>
      <trkpt lat="62.637999468775" lon="17.974824874805">
        <ele>56.8</ele>
        <time>2017-12-21T19:03:59Z</time>
      </trkpt>
      <trkpt lat="62.637985554821" lon="17.97485965969">
        <ele>56.8</ele>
        <time>2017-12-21T19:04:00Z</time>
      </trkpt>
      <trkpt lat="62.637966863184" lon="17.974902155923">
        <ele>57</ele>
        <time>2017-12-21T19:04:01Z</time>
      </trkpt>
      <trkpt lat="62.637952697773" lon="17.974947502002">
        <ele>57</ele>
        <time>2017-12-21T19:04:02Z</time>
      </trkpt>
      <trkpt lat="62.637936436887" lon="17.974976335738">
        <ele>57.2</ele>
        <time>2017-12-21T19:04:03Z</time>
      </trkpt>
      <trkpt lat="62.637917409974" lon="17.975011036804">
        <ele>57.2</ele>
        <time>2017-12-21T19:04:04Z</time>
      </trkpt>
      <trkpt lat="62.637906178228" lon="17.975044145309">
        <ele>57.6</ele>
        <time>2017-12-21T19:04:05Z</time>
      </trkpt>
      <trkpt lat="62.637897209595" lon="17.975058226901">
        <ele>57.6</ele>
        <time>2017-12-21T19:04:06Z</time>
      </trkpt>
      <trkpt lat="62.637879691424" lon="17.975099717306">
        <ele>57.8</ele>
        <time>2017-12-21T19:04:07Z</time>
      </trkpt>
      <trkpt lat="62.637856305923" lon="17.975133496363">
        <ele>58</ele>
        <time>2017-12-21T19:04:08Z</time>
      </trkpt>
      <trkpt lat="62.637850187136" lon="17.975160905176">
        <ele>58</ele>
        <time>2017-12-21T19:04:09Z</time>
      </trkpt>
      <trkpt lat="62.637826214902" lon="17.97519074474">
        <ele>58.2</ele>
        <time>2017-12-21T19:04:10Z</time>
      </trkpt>
      <trkpt lat="62.637816408079" lon="17.975207005626">
        <ele>58.2</ele>
        <time>2017-12-21T19:04:11Z</time>
      </trkpt>
      <trkpt lat="62.637798638451" lon="17.975242963977">
        <ele>58.4</ele>
        <time>2017-12-21T19:04:12Z</time>
      </trkpt>
      <trkpt lat="62.637779276262" lon="17.975274312283">
        <ele>58.6</ele>
        <time>2017-12-21T19:04:13Z</time>
      </trkpt>
      <trkpt lat="62.637763099195" lon="17.975292920101">
        <ele>58.6</ele>
        <time>2017-12-21T19:04:14Z</time>
      </trkpt>
      <trkpt lat="62.637750861621" lon="17.975322843484">
        <ele>58.8</ele>
        <time>2017-12-21T19:04:15Z</time>
      </trkpt>
      <trkpt lat="62.637736193296" lon="17.975345642252">
        <ele>58.8</ele>
        <time>2017-12-21T19:04:16Z</time>
      </trkpt>
      <trkpt lat="62.637718842763" lon="17.975365674993">
        <ele>59</ele>
        <time>2017-12-21T19:04:17Z</time>
      </trkpt>
      <trkpt lat="62.637705347904" lon="17.975374643626">
        <ele>59.2</ele>
        <time>2017-12-21T19:04:18Z</time>
      </trkpt>
      <trkpt lat="62.637691685407" lon="17.975391742702">
        <ele>59.2</ele>
        <time>2017-12-21T19:04:19Z</time>
      </trkpt>
      <trkpt lat="62.637673999598" lon="17.97541286509">
        <ele>59.4</ele>
        <time>2017-12-21T19:04:20Z</time>
      </trkpt>
      <trkpt lat="62.637657990169" lon="17.975419738248">
        <ele>59.6</ele>
        <time>2017-12-21T19:04:21Z</time>
      </trkpt>
      <trkpt lat="62.637641561645" lon="17.975444632491">
        <ele>59.8</ele>
        <time>2017-12-21T19:04:22Z</time>
      </trkpt>
      <trkpt lat="62.637617505592" lon="17.975455528961">
        <ele>60</ele>
        <time>2017-12-21T19:04:23Z</time>
      </trkpt>
      <trkpt lat="62.637601412344" lon="17.975461731567">
        <ele>60.4</ele>
        <time>2017-12-21T19:04:24Z</time>
      </trkpt>
      <trkpt lat="62.637582050155" lon="17.97547405296">
        <ele>60.6</ele>
        <time>2017-12-21T19:04:25Z</time>
      </trkpt>
      <trkpt lat="62.637560927767" lon="17.975485033249">
        <ele>60.8</ele>
        <time>2017-12-21T19:04:26Z</time>
      </trkpt>
      <trkpt lat="62.637540140655" lon="17.975501964687">
        <ele>61</ele>
        <time>2017-12-21T19:04:27Z</time>
      </trkpt>
      <trkpt lat="62.637526226701" lon="17.97551512427">
        <ele>61.2</ele>
        <time>2017-12-21T19:04:28Z</time>
      </trkpt>
      <trkpt lat="62.637507199788" lon="17.975525769283">
        <ele>61.4</ele>
        <time>2017-12-21T19:04:29Z</time>
      </trkpt>
      <trkpt lat="62.637498566431" lon="17.975533312993">
        <ele>61.6</ele>
        <time>2017-12-21T19:04:30Z</time>
      </trkpt>
      <trkpt lat="62.637471744351" lon="17.97555787196">
        <ele>61.6</ele>
        <time>2017-12-21T19:04:31Z</time>
      </trkpt>
      <trkpt lat="62.637448107393" lon="17.975578072339">
        <ele>61.8</ele>
        <time>2017-12-21T19:04:32Z</time>
      </trkpt>
      <trkpt lat="62.637436791828" lon="17.975600032917">
        <ele>61.8</ele>
        <time>2017-12-21T19:04:33Z</time>
      </trkpt>
      <trkpt lat="62.637415334164" lon="17.975613611595">
        <ele>62.2</ele>
        <time>2017-12-21T19:04:34Z</time>
      </trkpt>
      <trkpt lat="62.637397061622" lon="17.975623334599">
        <ele>62.4</ele>
        <time>2017-12-21T19:04:35Z</time>
      </trkpt>
      <trkpt lat="62.637382309478" lon="17.975644540806">
        <ele>62.6</ele>
        <time>2017-12-21T19:04:36Z</time>
      </trkpt>
      <trkpt lat="62.637356074131" lon="17.975660214959">
        <ele>62.6</ele>
        <time>2017-12-21T19:04:37Z</time>
      </trkpt>
      <trkpt lat="62.637335035562" lon="17.975678738958">
        <ele>62.8</ele>
        <time>2017-12-21T19:04:38Z</time>
      </trkpt>
      <trkpt lat="62.637319780504" lon="17.975698101147">
        <ele>62.8</ele>
        <time>2017-12-21T19:04:39Z</time>
      </trkpt>
      <trkpt lat="62.637304609265" lon="17.975710506359">
        <ele>63</ele>
        <time>2017-12-21T19:04:40Z</time>
      </trkpt>
      <trkpt lat="62.637290443854" lon="17.975733640403">
        <ele>63</ele>
        <time>2017-12-21T19:04:41Z</time>
      </trkpt>
      <trkpt lat="62.637278960651" lon="17.975751996764">
        <ele>63.2</ele>
        <time>2017-12-21T19:04:42Z</time>
      </trkpt>
      <trkpt lat="62.637265549611" lon="17.975776471912">
        <ele>63.4</ele>
        <time>2017-12-21T19:04:43Z</time>
      </trkpt>
      <trkpt lat="62.637251970933" lon="17.975799186861">
        <ele>63.6</ele>
        <time>2017-12-21T19:04:44Z</time>
      </trkpt>
      <trkpt lat="62.637243672852" lon="17.975820979801">
        <ele>63.8</ele>
        <time>2017-12-21T19:04:45Z</time>
      </trkpt>
      <trkpt lat="62.637231770554" lon="17.975855848505">
        <ele>64</ele>
        <time>2017-12-21T19:04:46Z</time>
      </trkpt>
      <trkpt lat="62.637215425849" lon="17.975888705553">
        <ele>64.2</ele>
        <time>2017-12-21T19:04:47Z</time>
      </trkpt>
      <trkpt lat="62.637204864655" lon="17.975918209841">
        <ele>64.4</ele>
        <time>2017-12-21T19:04:48Z</time>
      </trkpt>
      <trkpt lat="62.637200925162" lon="17.975957940047">
        <ele>64.6</ele>
        <time>2017-12-21T19:04:49Z</time>
      </trkpt>
      <trkpt lat="62.637183826086" lon="17.975995993873">
        <ele>64.8</ele>
        <time>2017-12-21T19:04:50Z</time>
      </trkpt>
      <trkpt lat="62.637176030919" lon="17.976034718251">
        <ele>65</ele>
        <time>2017-12-21T19:04:51Z</time>
      </trkpt>
      <trkpt lat="62.637160943499" lon="17.976088110954">
        <ele>65</ele>
        <time>2017-12-21T19:04:52Z</time>
      </trkpt>
      <trkpt lat="62.637151723409" lon="17.976138486173">
        <ele>65.2</ele>
        <time>2017-12-21T19:04:53Z</time>
      </trkpt>
      <trkpt lat="62.63714493407" lon="17.976176875275">
        <ele>65.6</ele>
        <time>2017-12-21T19:04:54Z</time>
      </trkpt>
      <trkpt lat="62.637133283229" lon="17.976231441444">
        <ele>65.6</ele>
        <time>2017-12-21T19:04:55Z</time>
      </trkpt>
      <trkpt lat="62.637132696496" lon="17.976266896881">
        <ele>65.8</ele>
        <time>2017-12-21T19:04:56Z</time>
      </trkpt>
      <trkpt lat="62.637118782542" lon="17.976312578236">
        <ele>65.8</ele>
        <time>2017-12-21T19:04:57Z</time>
      </trkpt>
      <trkpt lat="62.637122219121" lon="17.976361947627">
        <ele>65.8</ele>
        <time>2017-12-21T19:04:58Z</time>
      </trkpt>
      <trkpt lat="62.637109310995" lon="17.976412993398">
        <ele>66</ele>
        <time>2017-12-21T19:04:59Z</time>
      </trkpt>
      <trkpt lat="62.637102689294" lon="17.976450460491">
        <ele>66.2</ele>
        <time>2017-12-21T19:05:00Z</time>
      </trkpt>
      <trkpt lat="62.637092882471" lon="17.976501087167">
        <ele>66.2</ele>
        <time>2017-12-21T19:05:01Z</time>
      </trkpt>
      <trkpt lat="62.637089278254" lon="17.976553222585">
        <ele>66.4</ele>
        <time>2017-12-21T19:05:02Z</time>
      </trkpt>
      <trkpt lat="62.637087350417" lon="17.976604268356">
        <ele>66.6</ele>
        <time>2017-12-21T19:05:03Z</time>
      </trkpt>
      <trkpt lat="62.637081818363" lon="17.976651290815">
        <ele>66.4</ele>
        <time>2017-12-21T19:05:04Z</time>
      </trkpt>
      <trkpt lat="62.637081734544" lon="17.976714741798">
        <ele>66.4</ele>
        <time>2017-12-21T19:05:05Z</time>
      </trkpt>
      <trkpt lat="62.637085003485" lon="17.97675648366">
        <ele>66.4</ele>
        <time>2017-12-21T19:05:06Z</time>
      </trkpt>
      <trkpt lat="62.637081566906" lon="17.976830663475">
        <ele>66.4</ele>
        <time>2017-12-21T19:05:07Z</time>
      </trkpt>
      <trkpt lat="62.637082991829" lon="17.976876177192">
        <ele>66.4</ele>
        <time>2017-12-21T19:05:08Z</time>
      </trkpt>
      <trkpt lat="62.637078549422" lon="17.976949183541">
        <ele>66.6</ele>
        <time>2017-12-21T19:05:09Z</time>
      </trkpt>
      <trkpt lat="62.637083662381" lon="17.977001318959">
        <ele>66.6</ele>
        <time>2017-12-21T19:05:10Z</time>
      </trkpt>
      <trkpt lat="62.637079639069" lon="17.977069463806">
        <ele>66.6</ele>
        <time>2017-12-21T19:05:11Z</time>
      </trkpt>
      <trkpt lat="62.637079722888" lon="17.97713199278">
        <ele>66.6</ele>
        <time>2017-12-21T19:05:12Z</time>
      </trkpt>
      <trkpt lat="62.637074274653" lon="17.977198293609">
        <ele>66.6</ele>
        <time>2017-12-21T19:05:13Z</time>
      </trkpt>
      <trkpt lat="62.637069664608" lon="17.977259732936">
        <ele>66.6</ele>
        <time>2017-12-21T19:05:14Z</time>
      </trkpt>
      <trkpt lat="62.637062372355" lon="17.977308683232">
        <ele>66.6</ele>
        <time>2017-12-21T19:05:15Z</time>
      </trkpt>
      <trkpt lat="62.637051392066" lon="17.97735746589">
        <ele>66.6</ele>
        <time>2017-12-21T19:05:16Z</time>
      </trkpt>
      <trkpt lat="62.637040579415" lon="17.977411193869">
        <ele>66.6</ele>
        <time>2017-12-21T19:05:17Z</time>
      </trkpt>
      <trkpt lat="62.637024737624" lon="17.977468777522">
        <ele>66.6</ele>
        <time>2017-12-21T19:05:18Z</time>
      </trkpt>
      <trkpt lat="62.63701501462" lon="17.977528372831">
        <ele>66.6</ele>
        <time>2017-12-21T19:05:19Z</time>
      </trkpt>
      <trkpt lat="62.636997328811" lon="17.977590817986">
        <ele>66.6</ele>
        <time>2017-12-21T19:05:20Z</time>
      </trkpt>
      <trkpt lat="62.636987521988" lon="17.97763909773">
        <ele>66.4</ele>
        <time>2017-12-21T19:05:21Z</time>
      </trkpt>
      <trkpt lat="62.636975368233" lon="17.977698441582">
        <ele>66.4</ele>
        <time>2017-12-21T19:05:22Z</time>
      </trkpt>
      <trkpt lat="62.636966315781" lon="17.977766670248">
        <ele>66.4</ele>
        <time>2017-12-21T19:05:23Z</time>
      </trkpt>
      <trkpt lat="62.636961286641" lon="17.977810172309">
        <ele>66.6</ele>
        <time>2017-12-21T19:05:24Z</time>
      </trkpt>
      <trkpt lat="62.636952234189" lon="17.9778846874">
        <ele>66.6</ele>
        <time>2017-12-21T19:05:25Z</time>
      </trkpt>
      <trkpt lat="62.636950138714" lon="17.977928021823">
        <ele>66.6</ele>
        <time>2017-12-21T19:05:26Z</time>
      </trkpt>
      <trkpt lat="62.636943433194" lon="17.977999100335">
        <ele>66.6</ele>
        <time>2017-12-21T19:05:27Z</time>
      </trkpt>
      <trkpt lat="62.63694209209" lon="17.978046625708">
        <ele>66.6</ele>
        <time>2017-12-21T19:05:28Z</time>
      </trkpt>
      <trkpt lat="62.636929770697" lon="17.97811770422">
        <ele>66.6</ele>
        <time>2017-12-21T19:05:29Z</time>
      </trkpt>
      <trkpt lat="62.636926585575" lon="17.978160032815">
        <ele>66.6</ele>
        <time>2017-12-21T19:05:30Z</time>
      </trkpt>
      <trkpt lat="62.636912671621" lon="17.978220717771">
        <ele>66.6</ele>
        <time>2017-12-21T19:05:31Z</time>
      </trkpt>
      <trkpt lat="62.636904205902" lon="17.978279055795">
        <ele>66.8</ele>
        <time>2017-12-21T19:05:32Z</time>
      </trkpt>
      <trkpt lat="62.636887777378" lon="17.978324820969">
        <ele>66.8</ele>
        <time>2017-12-21T19:05:33Z</time>
      </trkpt>
      <trkpt lat="62.636873109053" lon="17.978389445418">
        <ele>66.8</ele>
        <time>2017-12-21T19:05:34Z</time>
      </trkpt>
      <trkpt lat="62.636857602538" lon="17.978429762357">
        <ele>66.8</ele>
        <time>2017-12-21T19:05:35Z</time>
      </trkpt>
      <trkpt lat="62.636838324168" lon="17.978482065413">
        <ele>67</ele>
        <time>2017-12-21T19:05:36Z</time>
      </trkpt>
      <trkpt lat="62.636822733834" lon="17.978530680433">
        <ele>67.2</ele>
        <time>2017-12-21T19:05:37Z</time>
      </trkpt>
      <trkpt lat="62.636799013057" lon="17.97857367958">
        <ele>67.4</ele>
        <time>2017-12-21T19:05:38Z</time>
      </trkpt>
      <trkpt lat="62.636779818506" lon="17.978615672899">
        <ele>67.4</ele>
        <time>2017-12-21T19:05:39Z</time>
      </trkpt>
      <trkpt lat="62.63676271943" lon="17.97863570564">
        <ele>67.4</ele>
        <time>2017-12-21T19:05:40Z</time>
      </trkpt>
      <trkpt lat="62.636743357241" lon="17.978661354254">
        <ele>67.4</ele>
        <time>2017-12-21T19:05:41Z</time>
      </trkpt>
      <trkpt lat="62.636727431631" lon="17.978679962072">
        <ele>67.4</ele>
        <time>2017-12-21T19:05:42Z</time>
      </trkpt>
      <trkpt lat="62.636697592067" lon="17.978695133311">
        <ele>67.4</ele>
        <time>2017-12-21T19:05:43Z</time>
      </trkpt>
      <trkpt lat="62.636682839923" lon="17.978713238215">
        <ele>67.4</ele>
        <time>2017-12-21T19:05:44Z</time>
      </trkpt>
      <trkpt lat="62.636662807182" lon="17.978731846033">
        <ele>67.8</ele>
        <time>2017-12-21T19:05:45Z</time>
      </trkpt>
      <trkpt lat="62.636642187708" lon="17.978747771643">
        <ele>67.8</ele>
        <time>2017-12-21T19:05:46Z</time>
      </trkpt>
      <trkpt lat="62.636621400596" lon="17.978764283986">
        <ele>67.8</ele>
        <time>2017-12-21T19:05:47Z</time>
      </trkpt>
      <trkpt lat="62.636599775294" lon="17.978769480764">
        <ele>68</ele>
        <time>2017-12-21T19:05:48Z</time>
      </trkpt>
      <trkpt lat="62.63657496487" lon="17.978768642574">
        <ele>68.2</ele>
        <time>2017-12-21T19:05:49Z</time>
      </trkpt>
      <trkpt lat="62.636554429215" lon="17.978776102465">
        <ele>68.4</ele>
        <time>2017-12-21T19:05:50Z</time>
      </trkpt>
      <trkpt lat="62.636532384818" lon="17.978764116348">
        <ele>68.4</ele>
        <time>2017-12-21T19:05:51Z</time>
      </trkpt>
      <trkpt lat="62.636510256602" lon="17.978773504076">
        <ele>68.6</ele>
        <time>2017-12-21T19:05:52Z</time>
      </trkpt>
      <trkpt lat="62.636490140042" lon="17.97876646328">
        <ele>68.8</ele>
        <time>2017-12-21T19:05:53Z</time>
      </trkpt>
      <trkpt lat="62.636470526396" lon="17.978762942882">
        <ele>68.8</ele>
        <time>2017-12-21T19:05:54Z</time>
      </trkpt>
      <trkpt lat="62.636449152551" lon="17.978775096637">
        <ele>68.8</ele>
        <time>2017-12-21T19:05:55Z</time>
      </trkpt>
      <trkpt lat="62.636425515593" lon="17.978771576239">
        <ele>68.8</ele>
        <time>2017-12-21T19:05:56Z</time>
      </trkpt>
      <trkpt lat="62.63640397411" lon="17.978777192112">
        <ele>69.2</ele>
        <time>2017-12-21T19:05:57Z</time>
      </trkpt>
      <trkpt lat="62.636386288301" lon="17.978784735822">
        <ele>69.4</ele>
        <time>2017-12-21T19:05:58Z</time>
      </trkpt>
      <trkpt lat="62.636368686311" lon="17.978790267876">
        <ele>69.6</ele>
        <time>2017-12-21T19:05:59Z</time>
      </trkpt>
      <trkpt lat="62.636354604719" lon="17.978798733595">
        <ele>69.8</ele>
        <time>2017-12-21T19:06:00Z</time>
      </trkpt>
      <trkpt lat="62.636335829263" lon="17.978799907061">
        <ele>70</ele>
        <time>2017-12-21T19:06:01Z</time>
      </trkpt>
      <trkpt lat="62.636316299436" lon="17.978804433287">
        <ele>69.8</ele>
        <time>2017-12-21T19:06:02Z</time>
      </trkpt>
      <trkpt lat="62.636304564776" lon="17.978812647549">
        <ele>70.2</ele>
        <time>2017-12-21T19:06:03Z</time>
      </trkpt>
      <trkpt lat="62.636289812632" lon="17.978831506824">
        <ele>70.4</ele>
        <time>2017-12-21T19:06:04Z</time>
      </trkpt>
      <trkpt lat="62.636273048832" lon="17.978846678063">
        <ele>70.6</ele>
        <time>2017-12-21T19:06:05Z</time>
      </trkpt>
      <trkpt lat="62.636258799602" lon="17.978858077447">
        <ele>70.8</ele>
        <time>2017-12-21T19:06:06Z</time>
      </trkpt>
      <trkpt lat="62.636241281431" lon="17.978877774912">
        <ele>71</ele>
        <time>2017-12-21T19:06:07Z</time>
      </trkpt>
      <trkpt lat="62.636222170699" lon="17.978881798224">
        <ele>71.2</ele>
        <time>2017-12-21T19:06:08Z</time>
      </trkpt>
      <trkpt lat="62.63621035222" lon="17.978903255888">
        <ele>71.4</ele>
        <time>2017-12-21T19:06:09Z</time>
      </trkpt>
      <trkpt lat="62.63619945575" lon="17.978922785715">
        <ele>71.6</ele>
        <time>2017-12-21T19:06:10Z</time>
      </trkpt>
      <trkpt lat="62.636187469633" lon="17.97893745404">
        <ele>72</ele>
        <time>2017-12-21T19:06:11Z</time>
      </trkpt>
      <trkpt lat="62.63617766281" lon="17.978954469297">
        <ele>72.2</ele>
        <time>2017-12-21T19:06:12Z</time>
      </trkpt>
      <trkpt lat="62.636170286738" lon="17.978966287776">
        <ele>72.2</ele>
        <time>2017-12-21T19:06:13Z</time>
      </trkpt>
      <trkpt lat="62.636154361128" lon="17.978993445132">
        <ele>72.4</ele>
        <time>2017-12-21T19:06:14Z</time>
      </trkpt>
      <trkpt lat="62.636144721943" lon="17.979000569747">
        <ele>72.6</ele>
        <time>2017-12-21T19:06:15Z</time>
      </trkpt>
      <trkpt lat="62.636138519337" lon="17.979010879484">
        <ele>72.8</ele>
        <time>2017-12-21T19:06:16Z</time>
      </trkpt>
      <trkpt lat="62.636126449401" lon="17.979035689908">
        <ele>73.2</ele>
        <time>2017-12-21T19:06:17Z</time>
      </trkpt>
      <trkpt lat="62.636118067501" lon="17.979048178939">
        <ele>73.4</ele>
        <time>2017-12-21T19:06:18Z</time>
      </trkpt>
      <trkpt lat="62.636104069728" lon="17.979075839209">
        <ele>73.6</ele>
        <time>2017-12-21T19:06:19Z</time>
      </trkpt>
      <trkpt lat="62.636092921801" lon="17.979096542502">
        <ele>73.8</ele>
        <time>2017-12-21T19:06:20Z</time>
      </trkpt>
      <trkpt lat="62.636084372263" lon="17.979108947714">
        <ele>74.2</ele>
        <time>2017-12-21T19:06:21Z</time>
      </trkpt>
      <trkpt lat="62.636074984535" lon="17.979137110898">
        <ele>74.4</ele>
        <time>2017-12-21T19:06:22Z</time>
      </trkpt>
      <trkpt lat="62.636065848264" lon="17.979170806136">
        <ele>74.6</ele>
        <time>2017-12-21T19:06:23Z</time>
      </trkpt>
      <trkpt lat="62.636054532699" lon="17.979194610732">
        <ele>74.8</ele>
        <time>2017-12-21T19:06:24Z</time>
      </trkpt>
      <trkpt lat="62.636041205478" lon="17.979216822767">
        <ele>75</ele>
        <time>2017-12-21T19:06:25Z</time>
      </trkpt>
      <trkpt lat="62.636032320664" lon="17.979237190784">
        <ele>75.2</ele>
        <time>2017-12-21T19:06:26Z</time>
      </trkpt>
      <trkpt lat="62.636030560465" lon="17.9792425552">
        <ele>75.2</ele>
        <time>2017-12-21T19:06:27Z</time>
      </trkpt>
      <trkpt lat="62.636026872429" lon="17.979254457498">
        <ele>75.4</ele>
        <time>2017-12-21T19:06:28Z</time>
      </trkpt>
      <trkpt lat="62.636023771126" lon="17.979259319">
        <ele>75.6</ele>
        <time>2017-12-21T19:06:30Z</time>
      </trkpt>
      <trkpt lat="62.635982783635" lon="17.979598869769">
        <ele>75.6</ele>
        <time>2017-12-21T19:06:40Z</time>
      </trkpt>
      <trkpt lat="62.635976748667" lon="17.979704984623">
        <ele>75.4</ele>
        <time>2017-12-21T19:06:41Z</time>
      </trkpt>
      <trkpt lat="62.635969540233" lon="17.979861726153">
        <ele>74.8</ele>
        <time>2017-12-21T19:06:42Z</time>
      </trkpt>
      <trkpt lat="62.635969707871" lon="17.980019389692">
        <ele>74.2</ele>
        <time>2017-12-21T19:06:43Z</time>
      </trkpt>
      <trkpt lat="62.635972390079" lon="17.980158110137">
        <ele>73.2</ele>
        <time>2017-12-21T19:06:44Z</time>
      </trkpt>
      <trkpt lat="62.635978341228" lon="17.980304877206">
        <ele>72</ele>
        <time>2017-12-21T19:06:45Z</time>
      </trkpt>
      <trkpt lat="62.635993596286" lon="17.980442424185">
        <ele>71.4</ele>
        <time>2017-12-21T19:06:46Z</time>
      </trkpt>
      <trkpt lat="62.636012874656" lon="17.980590867634">
        <ele>70.8</ele>
        <time>2017-12-21T19:06:47Z</time>
      </trkpt>
      <trkpt lat="62.636028129714" lon="17.980708298053">
        <ele>70.2</ele>
        <time>2017-12-21T19:06:48Z</time>
      </trkpt>
      <trkpt lat="62.636053107776" lon="17.980862692651">
        <ele>69.8</ele>
        <time>2017-12-21T19:06:49Z</time>
      </trkpt>
      <trkpt lat="62.636080097494" lon="17.981009292082">
        <ele>69.6</ele>
        <time>2017-12-21T19:06:50Z</time>
      </trkpt>
      <trkpt lat="62.636100800787" lon="17.981125716673">
        <ele>69.4</ele>
        <time>2017-12-21T19:06:51Z</time>
      </trkpt>
      <trkpt lat="62.636125443573" lon="17.981304334962">
        <ele>69</ele>
        <time>2017-12-21T19:06:52Z</time>
      </trkpt>
      <trkpt lat="62.63613323874" lon="17.981444899425">
        <ele>68.6</ele>
        <time>2017-12-21T19:06:53Z</time>
      </trkpt>
      <trkpt lat="62.636141872097" lon="17.981561156378">
        <ele>68.4</ele>
        <time>2017-12-21T19:06:54Z</time>
      </trkpt>
      <trkpt lat="62.63615000254" lon="17.981664421386">
        <ele>68.2</ele>
        <time>2017-12-21T19:06:55Z</time>
      </trkpt>
      <trkpt lat="62.636166431064" lon="17.981764920367">
        <ele>68</ele>
        <time>2017-12-21T19:06:56Z</time>
      </trkpt>
      <trkpt lat="62.636178165724" lon="17.981894504541">
        <ele>67.8</ele>
        <time>2017-12-21T19:06:57Z</time>
      </trkpt>
      <trkpt lat="62.636193001687" lon="17.982006235268">
        <ele>67.8</ele>
        <time>2017-12-21T19:06:58Z</time>
      </trkpt>
      <trkpt lat="62.636200796854" lon="17.982094580494">
        <ele>67.6</ele>
        <time>2017-12-21T19:06:59Z</time>
      </trkpt>
      <trkpt lat="62.636205825994" lon="17.98219885133">
        <ele>67.4</ele>
        <time>2017-12-21T19:07:00Z</time>
      </trkpt>
      <trkpt lat="62.636208256745" lon="17.982309660048">
        <ele>67.4</ele>
        <time>2017-12-21T19:07:01Z</time>
      </trkpt>
      <trkpt lat="62.636215465179" lon="17.982417786558">
        <ele>67.4</ele>
        <time>2017-12-21T19:07:02Z</time>
      </trkpt>
      <trkpt lat="62.636209849306" lon="17.982498001341">
        <ele>67.6</ele>
        <time>2017-12-21T19:07:03Z</time>
      </trkpt>
      <trkpt lat="62.636210855134" lon="17.982589028775">
        <ele>68</ele>
        <time>2017-12-21T19:07:04Z</time>
      </trkpt>
      <trkpt lat="62.636214040256" lon="17.982681984046">
        <ele>68.4</ele>
        <time>2017-12-21T19:07:05Z</time>
      </trkpt>
      <trkpt lat="62.636210855134" lon="17.982773095299">
        <ele>68.6</ele>
        <time>2017-12-21T19:07:06Z</time>
      </trkpt>
      <trkpt lat="62.636211944781" lon="17.982859261231">
        <ele>68.8</ele>
        <time>2017-12-21T19:07:07Z</time>
      </trkpt>
      <trkpt lat="62.636206915641" lon="17.982933524865">
        <ele>69.2</ele>
        <time>2017-12-21T19:07:08Z</time>
      </trkpt>
      <trkpt lat="62.636212699152" lon="17.983004100463">
        <ele>68.8</ele>
        <time>2017-12-21T19:07:09Z</time>
      </trkpt>
      <trkpt lat="62.636214710808" lon="17.983065707428">
        <ele>69</ele>
        <time>2017-12-21T19:07:10Z</time>
      </trkpt>
      <trkpt lat="62.636217728292" lon="17.983149777885">
        <ele>69</ele>
        <time>2017-12-21T19:07:11Z</time>
      </trkpt>
      <trkpt lat="62.63620616127" lon="17.983246169735">
        <ele>69</ele>
        <time>2017-12-21T19:07:12Z</time>
      </trkpt>
      <trkpt lat="62.636209765487" lon="17.983310794184">
        <ele>69.2</ele>
        <time>2017-12-21T19:07:13Z</time>
      </trkpt>
      <trkpt lat="62.636209597849" lon="17.983369048389">
        <ele>69.2</ele>
        <time>2017-12-21T19:07:14Z</time>
      </trkpt>
      <trkpt lat="62.63620280851" lon="17.983448844077">
        <ele>69.2</ele>
        <time>2017-12-21T19:07:15Z</time>
      </trkpt>
      <trkpt lat="62.636197527913" lon="17.983505086626">
        <ele>69.4</ele>
        <time>2017-12-21T19:07:16Z</time>
      </trkpt>
      <trkpt lat="62.636189816565" lon="17.983578176794">
        <ele>69.4</ele>
        <time>2017-12-21T19:07:17Z</time>
      </trkpt>
      <trkpt lat="62.636179003914" lon="17.983631904773">
        <ele>69.6</ele>
        <time>2017-12-21T19:07:18Z</time>
      </trkpt>
      <trkpt lat="62.636174812964" lon="17.983685465114">
        <ele>69.8</ele>
        <time>2017-12-21T19:07:19Z</time>
      </trkpt>
      <trkpt lat="62.636165760512" lon="17.983746485346">
        <ele>70</ele>
        <time>2017-12-21T19:07:20Z</time>
      </trkpt>
      <trkpt lat="62.63616508996" lon="17.983799961868">
        <ele>70</ele>
        <time>2017-12-21T19:07:21Z</time>
      </trkpt>
      <trkpt lat="62.636155199318" lon="17.983867436163">
        <ele>70</ele>
        <time>2017-12-21T19:07:22Z</time>
      </trkpt>
      <trkpt lat="62.636158049164" lon="17.983922421427">
        <ele>70</ele>
        <time>2017-12-21T19:07:23Z</time>
      </trkpt>
      <trkpt lat="62.6361533553" lon="17.983967767506">
        <ele>70.2</ele>
        <time>2017-12-21T19:07:24Z</time>
      </trkpt>
      <trkpt lat="62.636146565961" lon="17.984022668951">
        <ele>70.2</ele>
        <time>2017-12-21T19:07:25Z</time>
      </trkpt>
      <trkpt lat="62.636147320332" lon="17.984064997546">
        <ele>70.4</ele>
        <time>2017-12-21T19:07:26Z</time>
      </trkpt>
      <trkpt lat="62.636128041962" lon="17.98413842299">
        <ele>70.4</ele>
        <time>2017-12-21T19:07:27Z</time>
      </trkpt>
      <trkpt lat="62.636123264279" lon="17.984188798209">
        <ele>70.6</ele>
        <time>2017-12-21T19:07:28Z</time>
      </trkpt>
      <trkpt lat="62.636122929003" lon="17.98423146208">
        <ele>70.8</ele>
        <time>2017-12-21T19:07:29Z</time>
      </trkpt>
      <trkpt lat="62.636116307302" lon="17.984302456773">
        <ele>70.8</ele>
        <time>2017-12-21T19:07:30Z</time>
      </trkpt>
      <trkpt lat="62.636104824099" lon="17.984344533911">
        <ele>70.8</ele>
        <time>2017-12-21T19:07:31Z</time>
      </trkpt>
      <trkpt lat="62.636092083611" lon="17.984407901075">
        <ele>70.8</ele>
        <time>2017-12-21T19:07:32Z</time>
      </trkpt>
      <trkpt lat="62.636087557385" lon="17.984471938791">
        <ele>71</ele>
        <time>2017-12-21T19:07:33Z</time>
      </trkpt>
      <trkpt lat="62.636088060299" lon="17.9845231522">
        <ele>71</ele>
        <time>2017-12-21T19:07:34Z</time>
      </trkpt>
      <trkpt lat="62.636092335068" lon="17.984593141065">
        <ele>71</ele>
        <time>2017-12-21T19:07:35Z</time>
      </trkpt>
      <trkpt lat="62.63609552019" lon="17.984630021425">
        <ele>71</ele>
        <time>2017-12-21T19:07:36Z</time>
      </trkpt>
      <trkpt lat="62.636086635376" lon="17.984704871792">
        <ele>71.2</ele>
        <time>2017-12-21T19:07:37Z</time>
      </trkpt>
      <trkpt lat="62.636101890434" lon="17.984759437961">
        <ele>71.4</ele>
        <time>2017-12-21T19:07:38Z</time>
      </trkpt>
      <trkpt lat="62.63609971114" lon="17.984800425452">
        <ele>71.4</ele>
        <time>2017-12-21T19:07:39Z</time>
      </trkpt>
      <trkpt lat="62.63608127096" lon="17.984858176743">
        <ele>71.4</ele>
        <time>2017-12-21T19:07:40Z</time>
      </trkpt>
      <trkpt lat="62.636088144118" lon="17.984898912777">
        <ele>71.4</ele>
        <time>2017-12-21T19:07:41Z</time>
      </trkpt>
      <trkpt lat="62.636083198797" lon="17.984967141443">
        <ele>71.6</ele>
        <time>2017-12-21T19:07:42Z</time>
      </trkpt>
      <trkpt lat="62.636075319811" lon="17.985013996264">
        <ele>71.6</ele>
        <time>2017-12-21T19:07:43Z</time>
      </trkpt>
      <trkpt lat="62.63607708001" lon="17.985061018723">
        <ele>71.8</ele>
        <time>2017-12-21T19:07:44Z</time>
      </trkpt>
      <trkpt lat="62.636067189368" lon="17.98511323796">
        <ele>71.8</ele>
        <time>2017-12-21T19:07:45Z</time>
      </trkpt>
      <trkpt lat="62.636073643431" lon="17.985155650374">
        <ele>72.2</ele>
        <time>2017-12-21T19:07:46Z</time>
      </trkpt>
      <trkpt lat="62.636080600408" lon="17.985215161864">
        <ele>72.2</ele>
        <time>2017-12-21T19:07:47Z</time>
      </trkpt>
      <trkpt lat="62.636074397802" lon="17.985263357789">
        <ele>72.2</ele>
        <time>2017-12-21T19:07:48Z</time>
      </trkpt>
      <trkpt lat="62.636069871576" lon="17.985335609767">
        <ele>72.4</ele>
        <time>2017-12-21T19:07:49Z</time>
      </trkpt>
      <trkpt lat="62.636063752789" lon="17.985429487047">
        <ele>72.6</ele>
        <time>2017-12-21T19:07:50Z</time>
      </trkpt>
      <trkpt lat="62.636065848264" lon="17.985420350776">
        <ele>72.6</ele>
        <time>2017-12-21T19:07:51Z</time>
      </trkpt>
      <trkpt lat="62.636055119432" lon="17.985511545848">
        <ele>72.8</ele>
        <time>2017-12-21T19:07:52Z</time>
      </trkpt>
      <trkpt lat="62.636052185767" lon="17.985562004886">
        <ele>72.8</ele>
        <time>2017-12-21T19:07:53Z</time>
      </trkpt>
      <trkpt lat="62.636044222962" lon="17.985621348738">
        <ele>73</ele>
        <time>2017-12-21T19:07:54Z</time>
      </trkpt>
      <trkpt lat="62.636035589605" lon="17.985670718129">
        <ele>73</ele>
        <time>2017-12-21T19:07:55Z</time>
      </trkpt>
      <trkpt lat="62.636011785009" lon="17.985722434452">
        <ele>73</ele>
        <time>2017-12-21T19:07:56Z</time>
      </trkpt>
      <trkpt lat="62.635999882711" lon="17.985758979536">
        <ele>73</ele>
        <time>2017-12-21T19:07:57Z</time>
      </trkpt>
      <trkpt lat="62.635987561318" lon="17.985794267335">
        <ele>73</ele>
        <time>2017-12-21T19:07:58Z</time>
      </trkpt>
      <trkpt lat="62.635975239925" lon="17.985818658664">
        <ele>73.2</ele>
        <time>2017-12-21T19:07:59Z</time>
      </trkpt>
      <trkpt lat="62.635954201356" lon="17.985849420237">
        <ele>73.2</ele>
        <time>2017-12-21T19:08:00Z</time>
      </trkpt>
      <trkpt lat="62.635936012633" lon="17.985879259801">
        <ele>73.4</ele>
        <time>2017-12-21T19:08:01Z</time>
      </trkpt>
      <trkpt lat="62.635919919385" lon="17.985898957266">
        <ele>73.6</ele>
        <time>2017-12-21T19:08:02Z</time>
      </trkpt>
      <trkpt lat="62.635895863332" lon="17.985932568685">
        <ele>73.6</ele>
        <time>2017-12-21T19:08:03Z</time>
      </trkpt>
      <trkpt lat="62.635868789795" lon="17.985964922819">
        <ele>73.6</ele>
        <time>2017-12-21T19:08:04Z</time>
      </trkpt>
      <trkpt lat="62.635848421778" lon="17.985985374655">
        <ele>73.6</ele>
        <time>2017-12-21T19:08:05Z</time>
      </trkpt>
      <trkpt lat="62.635829730141" lon="17.98600339574">
        <ele>73.6</ele>
        <time>2017-12-21T19:08:06Z</time>
      </trkpt>
      <trkpt lat="62.635815229454" lon="17.986014543667">
        <ele>73.8</ele>
        <time>2017-12-21T19:08:07Z</time>
      </trkpt>
      <trkpt lat="62.63579880093" lon="17.986027535612">
        <ele>74</ele>
        <time>2017-12-21T19:08:08Z</time>
      </trkpt>
      <trkpt lat="62.635780779845" lon="17.986040862833">
        <ele>74</ele>
        <time>2017-12-21T19:08:09Z</time>
      </trkpt>
      <trkpt lat="62.635766446796" lon="17.986057794271">
        <ele>74.2</ele>
        <time>2017-12-21T19:08:10Z</time>
      </trkpt>
      <trkpt lat="62.635752616661" lon="17.986078329926">
        <ele>74.2</ele>
        <time>2017-12-21T19:08:11Z</time>
      </trkpt>
      <trkpt lat="62.635737026327" lon="17.986122502539">
        <ele>74.4</ele>
        <time>2017-12-21T19:08:12Z</time>
      </trkpt>
      <trkpt lat="62.635722190364" lon="17.986160891641">
        <ele>74.6</ele>
        <time>2017-12-21T19:08:13Z</time>
      </trkpt>
      <trkpt lat="62.635705342745" lon="17.986193497232">
        <ele>74.6</ele>
        <time>2017-12-21T19:08:14Z</time>
      </trkpt>
      <trkpt lat="62.635690003868" lon="17.986225683728">
        <ele>74.8</ele>
        <time>2017-12-21T19:08:15Z</time>
      </trkpt>
      <trkpt lat="62.635674832629" lon="17.986267760866">
        <ele>75</ele>
        <time>2017-12-21T19:08:16Z</time>
      </trkpt>
      <trkpt lat="62.635658236467" lon="17.986301875199">
        <ele>75</ele>
        <time>2017-12-21T19:08:17Z</time>
      </trkpt>
      <trkpt lat="62.635640215382" lon="17.986348562382">
        <ele>75.2</ele>
        <time>2017-12-21T19:08:18Z</time>
      </trkpt>
      <trkpt lat="62.635623116306" lon="17.986394411375">
        <ele>75.4</ele>
        <time>2017-12-21T19:08:19Z</time>
      </trkpt>
      <trkpt lat="62.635606436325" lon="17.986436656151">
        <ele>75.4</ele>
        <time>2017-12-21T19:08:20Z</time>
      </trkpt>
      <trkpt lat="62.635586235946" lon="17.986482086049">
        <ele>75.6</ele>
        <time>2017-12-21T19:08:21Z</time>
      </trkpt>
      <trkpt lat="62.635567209033" lon="17.986525923386">
        <ele>75.6</ele>
        <time>2017-12-21T19:08:22Z</time>
      </trkpt>
      <trkpt lat="62.63555488764" lon="17.986568084343">
        <ele>76</ele>
        <time>2017-12-21T19:08:23Z</time>
      </trkpt>
      <trkpt lat="62.63553896203" lon="17.986618962476">
        <ele>76</ele>
        <time>2017-12-21T19:08:24Z</time>
      </trkpt>
      <trkpt lat="62.635527311189" lon="17.986662129261">
        <ele>76.2</ele>
        <time>2017-12-21T19:08:25Z</time>
      </trkpt>
      <trkpt lat="62.635511217941" lon="17.986706553331">
        <ele>76.2</ele>
        <time>2017-12-21T19:08:26Z</time>
      </trkpt>
      <trkpt lat="62.635495543788" lon="17.986742511682">
        <ele>76.4</ele>
        <time>2017-12-21T19:08:27Z</time>
      </trkpt>
      <trkpt lat="62.635483892947" lon="17.986790120874">
        <ele>76.4</ele>
        <time>2017-12-21T19:08:28Z</time>
      </trkpt>
      <trkpt lat="62.635469643717" lon="17.986829264347">
        <ele>76.4</ele>
        <time>2017-12-21T19:08:29Z</time>
      </trkpt>
      <trkpt lat="62.635449862433" lon="17.986878801376">
        <ele>76.4</ele>
        <time>2017-12-21T19:08:30Z</time>
      </trkpt>
      <trkpt lat="62.635434439737" lon="17.986926075292">
        <ele>76.6</ele>
        <time>2017-12-21T19:08:31Z</time>
      </trkpt>
      <trkpt lat="62.635420358145" lon="17.986961530729">
        <ele>76.6</ele>
        <time>2017-12-21T19:08:32Z</time>
      </trkpt>
      <trkpt lat="62.635402169422" lon="17.987008637007">
        <ele>76.8</ele>
        <time>2017-12-21T19:08:33Z</time>
      </trkpt>
      <trkpt lat="62.635386495269" lon="17.987047948118">
        <ele>76.8</ele>
        <time>2017-12-21T19:08:34Z</time>
      </trkpt>
      <trkpt lat="62.635371659306" lon="17.987076865673">
        <ele>76.8</ele>
        <time>2017-12-21T19:08:35Z</time>
      </trkpt>
      <trkpt lat="62.635355146963" lon="17.987115757689">
        <ele>77</ele>
        <time>2017-12-21T19:08:36Z</time>
      </trkpt>
      <trkpt lat="62.635335784774" lon="17.98714752509">
        <ele>77</ele>
        <time>2017-12-21T19:08:37Z</time>
      </trkpt>
      <trkpt lat="62.635314243291" lon="17.987174095713">
        <ele>77.2</ele>
        <time>2017-12-21T19:08:38Z</time>
      </trkpt>
      <trkpt lat="62.63529253417" lon="17.987204354372">
        <ele>77.2</ele>
        <time>2017-12-21T19:08:39Z</time>
      </trkpt>
      <trkpt lat="62.635275015999" lon="17.987243749302">
        <ele>77.2</ele>
        <time>2017-12-21T19:08:40Z</time>
      </trkpt>
      <trkpt lat="62.635251630498" lon="17.987278869463">
        <ele>77.4</ele>
        <time>2017-12-21T19:08:41Z</time>
      </trkpt>
      <trkpt lat="62.635229837558" lon="17.987324466999">
        <ele>77.6</ele>
        <time>2017-12-21T19:08:42Z</time>
      </trkpt>
      <trkpt lat="62.635211062102" lon="17.987360928264">
        <ele>77.6</ele>
        <time>2017-12-21T19:08:43Z</time>
      </trkpt>
      <trkpt lat="62.635194549759" lon="17.987394036769">
        <ele>77.8</ele>
        <time>2017-12-21T19:08:44Z</time>
      </trkpt>
      <trkpt lat="62.635182060728" lon="17.98741742227">
        <ele>78</ele>
        <time>2017-12-21T19:08:45Z</time>
      </trkpt>
      <trkpt lat="62.635165548385" lon="17.987459415589">
        <ele>78</ele>
        <time>2017-12-21T19:08:46Z</time>
      </trkpt>
      <trkpt lat="62.635149874232" lon="17.987489758067">
        <ele>78.2</ele>
        <time>2017-12-21T19:08:47Z</time>
      </trkpt>
      <trkpt lat="62.635133445708" lon="17.987530494101">
        <ele>78.4</ele>
        <time>2017-12-21T19:08:48Z</time>
      </trkpt>
      <trkpt lat="62.635116262813" lon="17.987559830751">
        <ele>78.4</ele>
        <time>2017-12-21T19:08:49Z</time>
      </trkpt>
      <trkpt lat="62.635102684135" lon="17.987587239564">
        <ele>78.6</ele>
        <time>2017-12-21T19:08:50Z</time>
      </trkpt>
      <trkpt lat="62.635080975014" lon="17.987619761336">
        <ele>78.8</ele>
        <time>2017-12-21T19:08:51Z</time>
      </trkpt>
      <trkpt lat="62.635065803775" lon="17.987654378583">
        <ele>78.8</ele>
        <time>2017-12-21T19:08:52Z</time>
      </trkpt>
      <trkpt lat="62.635048956156" lon="17.98768061393">
        <ele>79</ele>
        <time>2017-12-21T19:08:53Z</time>
      </trkpt>
      <trkpt lat="62.635029258691" lon="17.987723110163">
        <ele>79</ele>
        <time>2017-12-21T19:08:54Z</time>
      </trkpt>
      <trkpt lat="62.635009309769" lon="17.987753704098">
        <ele>79</ele>
        <time>2017-12-21T19:08:55Z</time>
      </trkpt>
      <trkpt lat="62.634979134929" lon="17.98778790225">
        <ele>79.2</ele>
        <time>2017-12-21T19:08:56Z</time>
      </trkpt>
      <trkpt lat="62.634957928722" lon="17.987819502013">
        <ele>79.2</ele>
        <time>2017-12-21T19:08:57Z</time>
      </trkpt>
      <trkpt lat="62.634938566533" lon="17.987849425396">
        <ele>79.2</ele>
        <time>2017-12-21T19:08:58Z</time>
      </trkpt>
      <trkpt lat="62.634923562932" lon="17.987874152001">
        <ele>79.4</ele>
        <time>2017-12-21T19:08:59Z</time>
      </trkpt>
      <trkpt lat="62.634903111096" lon="17.98789854333">
        <ele>79.6</ele>
        <time>2017-12-21T19:09:00Z</time>
      </trkpt>
      <trkpt lat="62.634882323984" lon="17.987927712342">
        <ele>79.8</ele>
        <time>2017-12-21T19:09:01Z</time>
      </trkpt>
      <trkpt lat="62.634865727822" lon="17.98794799654">
        <ele>80</ele>
        <time>2017-12-21T19:09:02Z</time>
      </trkpt>
      <trkpt lat="62.6348457789" lon="17.987983954891">
        <ele>80.4</ele>
        <time>2017-12-21T19:09:03Z</time>
      </trkpt>
      <trkpt lat="62.634823399227" lon="17.988000131958">
        <ele>80.4</ele>
        <time>2017-12-21T19:09:04Z</time>
      </trkpt>
      <trkpt lat="62.634804456133" lon="17.988017650129">
        <ele>80.4</ele>
        <time>2017-12-21T19:09:05Z</time>
      </trkpt>
      <trkpt lat="62.634774784207" lon="17.988039443069">
        <ele>80.6</ele>
        <time>2017-12-21T19:09:06Z</time>
      </trkpt>
      <trkpt lat="62.634754248552" lon="17.988057883249">
        <ele>80.8</ele>
        <time>2017-12-21T19:09:07Z</time>
      </trkpt>
      <trkpt lat="62.634732790888" lon="17.988062325656">
        <ele>80.6</ele>
        <time>2017-12-21T19:09:08Z</time>
      </trkpt>
      <trkpt lat="62.634714685984" lon="17.988069366452">
        <ele>80.8</ele>
        <time>2017-12-21T19:09:09Z</time>
      </trkpt>
      <trkpt lat="62.634693982691" lon="17.988067773891">
        <ele>80.8</ele>
        <time>2017-12-21T19:09:10Z</time>
      </trkpt>
      <trkpt lat="62.634670513371" lon="17.988068360624">
        <ele>81</ele>
        <time>2017-12-21T19:09:11Z</time>
      </trkpt>
      <trkpt lat="62.634643188377" lon="17.988073976497">
        <ele>81</ele>
        <time>2017-12-21T19:09:12Z</time>
      </trkpt>
      <trkpt lat="62.634615863383" lon="17.988085292062">
        <ele>81</ele>
        <time>2017-12-21T19:09:13Z</time>
      </trkpt>
      <trkpt lat="62.634591472054" lon="17.988096272351">
        <ele>81.2</ele>
        <time>2017-12-21T19:09:14Z</time>
      </trkpt>
      <trkpt lat="62.634573450969" lon="17.988098703102">
        <ele>81.2</ele>
        <time>2017-12-21T19:09:15Z</time>
      </trkpt>
      <trkpt lat="62.634549730192" lon="17.988102726414">
        <ele>81.4</ele>
        <time>2017-12-21T19:09:16Z</time>
      </trkpt>
      <trkpt lat="62.634530284184" lon="17.988108509925">
        <ele>81.6</ele>
        <time>2017-12-21T19:09:17Z</time>
      </trkpt>
      <trkpt lat="62.634511508728" lon="17.988111108314">
        <ele>81.6</ele>
        <time>2017-12-21T19:09:18Z</time>
      </trkpt>
      <trkpt lat="62.634478316404" lon="17.988112197961">
        <ele>81.6</ele>
        <time>2017-12-21T19:09:19Z</time>
      </trkpt>
      <trkpt lat="62.634456439645" lon="17.988112952332">
        <ele>81.6</ele>
        <time>2017-12-21T19:09:20Z</time>
      </trkpt>
      <trkpt lat="62.634425929529" lon="17.988117981472">
        <ele>81.8</ele>
        <time>2017-12-21T19:09:21Z</time>
      </trkpt>
      <trkpt lat="62.634403466037" lon="17.98812234006">
        <ele>82</ele>
        <time>2017-12-21T19:09:22Z</time>
      </trkpt>
      <trkpt lat="62.634385277314" lon="17.988123345888">
        <ele>82</ele>
        <time>2017-12-21T19:09:23Z</time>
      </trkpt>
      <trkpt lat="62.634362730003" lon="17.988130973417">
        <ele>82.2</ele>
        <time>2017-12-21T19:09:24Z</time>
      </trkpt>
      <trkpt lat="62.634343619271" lon="17.9881357511">
        <ele>82.4</ele>
        <time>2017-12-21T19:09:25Z</time>
      </trkpt>
      <trkpt lat="62.6343177192" lon="17.988133655625">
        <ele>82.6</ele>
        <time>2017-12-21T19:09:26Z</time>
      </trkpt>
      <trkpt lat="62.634294417518" lon="17.988141366973">
        <ele>82.6</ele>
        <time>2017-12-21T19:09:27Z</time>
      </trkpt>
      <trkpt lat="62.63426994237" lon="17.988147821036">
        <ele>82.8</ele>
        <time>2017-12-21T19:09:29Z</time>
      </trkpt>
      <trkpt lat="62.634222081721" lon="17.988152095805">
        <ele>82.8</ele>
        <time>2017-12-21T19:09:30Z</time>
      </trkpt>
      <trkpt lat="62.634197355116" lon="17.988141869887">
        <ele>82.8</ele>
        <time>2017-12-21T19:09:31Z</time>
      </trkpt>
      <trkpt lat="62.63416768319" lon="17.9881273692">
        <ele>83</ele>
        <time>2017-12-21T19:09:32Z</time>
      </trkpt>
      <trkpt lat="62.634139771463" lon="17.988130638141">
        <ele>83</ele>
        <time>2017-12-21T19:09:33Z</time>
      </trkpt>
      <trkpt lat="62.634111189184" lon="17.988130219046">
        <ele>83.2</ele>
        <time>2017-12-21T19:09:34Z</time>
      </trkpt>
      <trkpt lat="62.634076823394" lon="17.988113706703">
        <ele>83</ele>
        <time>2017-12-21T19:09:35Z</time>
      </trkpt>
      <trkpt lat="62.634058383214" lon="17.988120076947">
        <ele>83</ele>
        <time>2017-12-21T19:09:36Z</time>
      </trkpt>
      <trkpt lat="62.634029298021" lon="17.988112197961">
        <ele>83</ele>
        <time>2017-12-21T19:09:37Z</time>
      </trkpt>
      <trkpt lat="62.63400339795" lon="17.988109264296">
        <ele>83</ele>
        <time>2017-12-21T19:09:38Z</time>
      </trkpt>
      <trkpt lat="62.633977665517" lon="17.988089147736">
        <ele>83</ele>
        <time>2017-12-21T19:09:39Z</time>
      </trkpt>
      <trkpt lat="62.633943970279" lon="17.988071797203">
        <ele>83</ele>
        <time>2017-12-21T19:09:40Z</time>
      </trkpt>
      <trkpt lat="62.633921674425" lon="17.988057883249">
        <ele>83</ele>
        <time>2017-12-21T19:09:41Z</time>
      </trkpt>
      <trkpt lat="62.6338902423" lon="17.988039275431">
        <ele>83.2</ele>
        <time>2017-12-21T19:09:42Z</time>
      </trkpt>
      <trkpt lat="62.633866856799" lon="17.988023517459">
        <ele>83.4</ele>
        <time>2017-12-21T19:09:43Z</time>
      </trkpt>
      <trkpt lat="62.633851098827" lon="17.988001221605">
        <ele>83.6</ele>
        <time>2017-12-21T19:09:44Z</time>
      </trkpt>
      <trkpt lat="62.633815224295" lon="17.988003233261">
        <ele>83.6</ele>
        <time>2017-12-21T19:09:45Z</time>
      </trkpt>
      <trkpt lat="62.633800723608" lon="17.987987475289">
        <ele>83.8</ele>
        <time>2017-12-21T19:09:46Z</time>
      </trkpt>
      <trkpt lat="62.633768369474" lon="17.98795637844">
        <ele>83.8</ele>
        <time>2017-12-21T19:09:47Z</time>
      </trkpt>
      <trkpt lat="62.633740290109" lon="17.987970795308">
        <ele>84</ele>
        <time>2017-12-21T19:09:48Z</time>
      </trkpt>
      <trkpt lat="62.633712043106" lon="17.987935088414">
        <ele>84.2</ele>
        <time>2017-12-21T19:09:49Z</time>
      </trkpt>
      <trkpt lat="62.633684969569" lon="17.987924024306">
        <ele>84.2</ele>
        <time>2017-12-21T19:09:50Z</time>
      </trkpt>
      <trkpt lat="62.63366812195" lon="17.98788932324">
        <ele>84.4</ele>
        <time>2017-12-21T19:09:51Z</time>
      </trkpt>
      <trkpt lat="62.633635935454" lon="17.987868536128">
        <ele>84.4</ele>
        <time>2017-12-21T19:09:52Z</time>
      </trkpt>
      <trkpt lat="62.63362118331" lon="17.987849006301">
        <ele>84.4</ele>
        <time>2017-12-21T19:09:53Z</time>
      </trkpt>
      <trkpt lat="62.633602575492" lon="17.987813383226">
        <ele>84.2</ele>
        <time>2017-12-21T19:09:54Z</time>
      </trkpt>
      <trkpt lat="62.633584386769" lon="17.98778874044">
        <ele>84.2</ele>
        <time>2017-12-21T19:09:55Z</time>
      </trkpt>
      <trkpt lat="62.633568125883" lon="17.98778203492">
        <ele>84.2</ele>
        <time>2017-12-21T19:09:56Z</time>
      </trkpt>
      <trkpt lat="62.63354742259" lon="17.987739622506">
        <ele>84.2</ele>
        <time>2017-12-21T19:09:57Z</time>
      </trkpt>
      <trkpt lat="62.633527222211" lon="17.987722355792">
        <ele>84.4</ele>
        <time>2017-12-21T19:09:58Z</time>
      </trkpt>
      <trkpt lat="62.633509955497" lon="17.987699305567">
        <ele>84.8</ele>
        <time>2017-12-21T19:09:59Z</time>
      </trkpt>
      <trkpt lat="62.633492688783" lon="17.987668208718">
        <ele>85.2</ele>
        <time>2017-12-21T19:10:00Z</time>
      </trkpt>
      <trkpt lat="62.633467962178" lon="17.987651361099">
        <ele>85.4</ele>
        <time>2017-12-21T19:10:01Z</time>
      </trkpt>
      <trkpt lat="62.633443654668" lon="17.987599728595">
        <ele>85.4</ele>
        <time>2017-12-21T19:10:02Z</time>
      </trkpt>
      <trkpt lat="62.63341917952" lon="17.987581036958">
        <ele>85.4</ele>
        <time>2017-12-21T19:10:03Z</time>
      </trkpt>
      <trkpt lat="62.633400487883" lon="17.987544491874">
        <ele>85.4</ele>
        <time>2017-12-21T19:10:04Z</time>
      </trkpt>
      <trkpt lat="62.633385316644" lon="17.987513227387">
        <ele>85.6</ele>
        <time>2017-12-21T19:10:05Z</time>
      </trkpt>
      <trkpt lat="62.633365702998" lon="17.987489003696">
        <ele>85.8</ele>
        <time>2017-12-21T19:10:06Z</time>
      </trkpt>
      <trkpt lat="62.633352627234" lon="17.987467965127">
        <ele>85.8</ele>
        <time>2017-12-21T19:10:07Z</time>
      </trkpt>
      <trkpt lat="62.633335109063" lon="17.987423038143">
        <ele>86</ele>
        <time>2017-12-21T19:10:08Z</time>
      </trkpt>
      <trkpt lat="62.633326056611" lon="17.987381883014">
        <ele>86.4</ele>
        <time>2017-12-21T19:10:09Z</time>
      </trkpt>
      <trkpt lat="62.633308789897" lon="17.987333519451">
        <ele>86.4</ele>
        <time>2017-12-21T19:10:10Z</time>
      </trkpt>
      <trkpt lat="62.633284817663" lon="17.98728247368">
        <ele>86.6</ele>
        <time>2017-12-21T19:10:11Z</time>
      </trkpt>
      <trkpt lat="62.633258498497" lon="17.987208629141">
        <ele>86.8</ele>
        <time>2017-12-21T19:10:12Z</time>
      </trkpt>
      <trkpt lat="62.633234693901" lon="17.987115087137">
        <ele>86.8</ele>
        <time>2017-12-21T19:10:13Z</time>
      </trkpt>
      <trkpt lat="62.633212398047" lon="17.987007212084">
        <ele>86.8</ele>
        <time>2017-12-21T19:10:14Z</time>
      </trkpt>
      <trkpt lat="62.633193790229" lon="17.986906042551">
        <ele>86.6</ele>
        <time>2017-12-21T19:10:15Z</time>
      </trkpt>
      <trkpt lat="62.63317861899" lon="17.986813841651">
        <ele>85.8</ele>
        <time>2017-12-21T19:10:16Z</time>
      </trkpt>
      <trkpt lat="62.633167135787" lon="17.986725664063">
        <ele>85.4</ele>
        <time>2017-12-21T19:10:17Z</time>
      </trkpt>
      <trkpt lat="62.633163112475" lon="17.986623572521">
        <ele>84.2</ele>
        <time>2017-12-21T19:10:18Z</time>
      </trkpt>
      <trkpt lat="62.633157580421" lon="17.986520307513">
        <ele>83.2</ele>
        <time>2017-12-21T19:10:19Z</time>
      </trkpt>
      <trkpt lat="62.633154143842" lon="17.986430788821">
        <ele>82.6</ele>
        <time>2017-12-21T19:10:20Z</time>
      </trkpt>
      <trkpt lat="62.633152048367" lon="17.986318974275">
        <ele>82.4</ele>
        <time>2017-12-21T19:10:21Z</time>
      </trkpt>
      <trkpt lat="62.633151545453" lon="17.986204896616">
        <ele>82.2</ele>
        <time>2017-12-21T19:10:22Z</time>
      </trkpt>
      <trkpt lat="62.633152467462" lon="17.986098697943">
        <ele>82</ele>
        <time>2017-12-21T19:10:23Z</time>
      </trkpt>
      <trkpt lat="62.633158334792" lon="17.985972215072">
        <ele>81.8</ele>
        <time>2017-12-21T19:10:24Z</time>
      </trkpt>
      <trkpt lat="62.633165962321" lon="17.985874901213">
        <ele>81.6</ele>
        <time>2017-12-21T19:10:25Z</time>
      </trkpt>
      <trkpt lat="62.633167806339" lon="17.985739449709">
        <ele>81</ele>
        <time>2017-12-21T19:10:26Z</time>
      </trkpt>
      <trkpt lat="62.633170320909" lon="17.985618415073">
        <ele>80.8</ele>
        <time>2017-12-21T19:10:27Z</time>
      </trkpt>
      <trkpt lat="62.63317526623" lon="17.98550048174">
        <ele>80.6</ele>
        <time>2017-12-21T19:10:28Z</time>
      </trkpt>
      <trkpt lat="62.633183061397" lon="17.98539403161">
        <ele>80.6</ele>
        <time>2017-12-21T19:10:29Z</time>
      </trkpt>
      <trkpt lat="62.633194041686" lon="17.985262519599">
        <ele>80.6</ele>
        <time>2017-12-21T19:10:30Z</time>
      </trkpt>
      <trkpt lat="62.633210386391" lon="17.985087673165">
        <ele>80.4</ele>
        <time>2017-12-21T19:10:31Z</time>
      </trkpt>
      <trkpt lat="62.633231844055" lon="17.984955155326">
        <ele>80.2</ele>
        <time>2017-12-21T19:10:32Z</time>
      </trkpt>
      <trkpt lat="62.633254307547" lon="17.984800257814">
        <ele>79.8</ele>
        <time>2017-12-21T19:10:33Z</time>
      </trkpt>
      <trkpt lat="62.633282135455" lon="17.984668326708">
        <ele>79</ele>
        <time>2017-12-21T19:10:34Z</time>
      </trkpt>
      <trkpt lat="62.633312561752" lon="17.984550728651">
        <ele>78.8</ele>
        <time>2017-12-21T19:10:35Z</time>
      </trkpt>
      <trkpt lat="62.633334354692" lon="17.984429023463">
        <ele>78.2</ele>
        <time>2017-12-21T19:10:36Z</time>
      </trkpt>
      <trkpt lat="62.633353633062" lon="17.984317376555">
        <ele>77.8</ele>
        <time>2017-12-21T19:10:37Z</time>
      </trkpt>
      <trkpt lat="62.633363439885" lon="17.984202041611">
        <ele>77.6</ele>
        <time>2017-12-21T19:10:38Z</time>
      </trkpt>
      <trkpt lat="62.633371486509" lon="17.984096094395">
        <ele>77.4</ele>
        <time>2017-12-21T19:10:39Z</time>
      </trkpt>
      <trkpt lat="62.633389675232" lon="17.984028955376">
        <ele>77.4</ele>
        <time>2017-12-21T19:10:40Z</time>
      </trkpt>
      <trkpt lat="62.633395794019" lon="17.983925774187">
        <ele>77.4</ele>
        <time>2017-12-21T19:10:41Z</time>
      </trkpt>
      <trkpt lat="62.633401493711" lon="17.983807589397">
        <ele>78</ele>
        <time>2017-12-21T19:10:42Z</time>
      </trkpt>
      <trkpt lat="62.633408199231" lon="17.983723854216">
        <ele>78.4</ele>
        <time>2017-12-21T19:10:43Z</time>
      </trkpt>
      <trkpt lat="62.633419430977" lon="17.983642382148">
        <ele>78.6</ele>
        <time>2017-12-21T19:10:44Z</time>
      </trkpt>
      <trkpt lat="62.633437703519" lon="17.98356258646">
        <ele>78.8</ele>
        <time>2017-12-21T19:10:45Z</time>
      </trkpt>
      <trkpt lat="62.633441894469" lon="17.983484048057">
        <ele>79</ele>
        <time>2017-12-21T19:10:46Z</time>
      </trkpt>
      <trkpt lat="62.633448264713" lon="17.983422860187">
        <ele>79</ele>
        <time>2017-12-21T19:10:47Z</time>
      </trkpt>
      <trkpt lat="62.633463771228" lon="17.983328647631">
        <ele>79</ele>
        <time>2017-12-21T19:10:48Z</time>
      </trkpt>
      <trkpt lat="62.633470560567" lon="17.983261424793">
        <ele>79</ele>
        <time>2017-12-21T19:10:49Z</time>
      </trkpt>
      <trkpt lat="62.633478020458" lon="17.983197051801">
        <ele>79</ele>
        <time>2017-12-21T19:10:50Z</time>
      </trkpt>
      <trkpt lat="62.633484809797" lon="17.983119435407">
        <ele>79.2</ele>
        <time>2017-12-21T19:10:51Z</time>
      </trkpt>
      <trkpt lat="62.633488916928" lon="17.983055565329">
        <ele>79.4</ele>
        <time>2017-12-21T19:10:52Z</time>
      </trkpt>
      <trkpt lat="62.633498472294" lon="17.982990857061">
        <ele>79.4</ele>
        <time>2017-12-21T19:10:53Z</time>
      </trkpt>
      <trkpt lat="62.633498053199" lon="17.982925729698">
        <ele>79.4</ele>
        <time>2017-12-21T19:10:54Z</time>
      </trkpt>
      <trkpt lat="62.63350718947" lon="17.982850208779">
        <ele>79.4</ele>
        <time>2017-12-21T19:10:55Z</time>
      </trkpt>
      <trkpt lat="62.633519259406" lon="17.982762031191">
        <ele>79.6</ele>
        <time>2017-12-21T19:10:56Z</time>
      </trkpt>
      <trkpt lat="62.633534765921" lon="17.982686594091">
        <ele>79.4</ele>
        <time>2017-12-21T19:10:57Z</time>
      </trkpt>
      <trkpt lat="62.633549182789" lon="17.982604786747">
        <ele>79.4</ele>
        <time>2017-12-21T19:10:58Z</time>
      </trkpt>
      <trkpt lat="62.63355831906" lon="17.982530942208">
        <ele>79.4</ele>
        <time>2017-12-21T19:10:59Z</time>
      </trkpt>
      <trkpt lat="62.633566868598" lon="17.982474196745">
        <ele>79.6</ele>
        <time>2017-12-21T19:11:00Z</time>
      </trkpt>
      <trkpt lat="62.633581956018" lon="17.982380822379">
        <ele>79.8</ele>
        <time>2017-12-21T19:11:01Z</time>
      </trkpt>
      <trkpt lat="62.63359268485" lon="17.982326004753">
        <ele>79.8</ele>
        <time>2017-12-21T19:11:02Z</time>
      </trkpt>
      <trkpt lat="62.633600396198" lon="17.982228355618">
        <ele>79.8</ele>
        <time>2017-12-21T19:11:03Z</time>
      </trkpt>
      <trkpt lat="62.633605006243" lon="17.982159624038">
        <ele>79.8</ele>
        <time>2017-12-21T19:11:04Z</time>
      </trkpt>
      <trkpt lat="62.63360693408" lon="17.982101537471">
        <ele>79.6</ele>
        <time>2017-12-21T19:11:05Z</time>
      </trkpt>
      <trkpt lat="62.633623865518" lon="17.982019143394">
        <ele>79.6</ele>
        <time>2017-12-21T19:11:06Z</time>
      </trkpt>
      <trkpt lat="62.633630487219" lon="17.981949825081">
        <ele>79.6</ele>
        <time>2017-12-21T19:11:07Z</time>
      </trkpt>
      <trkpt lat="62.633639539671" lon="17.981881009682">
        <ele>79.4</ele>
        <time>2017-12-21T19:11:08Z</time>
      </trkpt>
      <trkpt lat="62.633646496648" lon="17.981822252563">
        <ele>79.6</ele>
        <time>2017-12-21T19:11:09Z</time>
      </trkpt>
      <trkpt lat="62.633648508304" lon="17.981775816837">
        <ele>79.6</ele>
        <time>2017-12-21T19:11:10Z</time>
      </trkpt>
      <trkpt lat="62.633660997335" lon="17.981685376136">
        <ele>79.8</ele>
        <time>2017-12-21T19:11:11Z</time>
      </trkpt>
      <trkpt lat="62.633663428086" lon="17.981615303452">
        <ele>79.8</ele>
        <time>2017-12-21T19:11:12Z</time>
      </trkpt>
      <trkpt lat="62.633674324556" lon="17.981541961827">
        <ele>79.8</ele>
        <time>2017-12-21T19:11:13Z</time>
      </trkpt>
      <trkpt lat="62.633685807759" lon="17.981479516672">
        <ele>79.6</ele>
        <time>2017-12-21T19:11:14Z</time>
      </trkpt>
      <trkpt lat="62.633696452772" lon="17.98142436377">
        <ele>79.8</ele>
        <time>2017-12-21T19:11:15Z</time>
      </trkpt>
      <trkpt lat="62.633729393639" lon="17.981366025746">
        <ele>79.8</ele>
        <time>2017-12-21T19:11:16Z</time>
      </trkpt>
      <trkpt lat="62.633741631213" lon="17.981312633043">
        <ele>79.8</ele>
        <time>2017-12-21T19:11:17Z</time>
      </trkpt>
      <trkpt lat="62.633781864333" lon="17.981204003619">
        <ele>80</ele>
        <time>2017-12-21T19:11:18Z</time>
      </trkpt>
      <trkpt lat="62.63380139416" lon="17.981139546808">
        <ele>80</ele>
        <time>2017-12-21T19:11:19Z</time>
      </trkpt>
      <trkpt lat="62.633820253435" lon="17.981093781634">
        <ele>80</ele>
        <time>2017-12-21T19:11:20Z</time>
      </trkpt>
      <trkpt lat="62.633836095226" lon="17.981041897673">
        <ele>80</ele>
        <time>2017-12-21T19:11:21Z</time>
      </trkpt>
      <trkpt lat="62.633849841542" lon="17.980992947377">
        <ele>80</ele>
        <time>2017-12-21T19:11:22Z</time>
      </trkpt>
      <trkpt lat="62.633866940618" lon="17.980951121696">
        <ele>80</ele>
        <time>2017-12-21T19:11:23Z</time>
      </trkpt>
      <trkpt lat="62.633885967531" lon="17.980930334584">
        <ele>80</ele>
        <time>2017-12-21T19:11:24Z</time>
      </trkpt>
      <trkpt lat="62.633899546209" lon="17.980884317953">
        <ele>80.2</ele>
        <time>2017-12-21T19:11:25Z</time>
      </trkpt>
      <trkpt lat="62.6339237699" lon="17.980830170879">
        <ele>80.4</ele>
        <time>2017-12-21T19:11:26Z</time>
      </trkpt>
      <trkpt lat="62.633940952795" lon="17.980785830628">
        <ele>80.4</ele>
        <time>2017-12-21T19:11:27Z</time>
      </trkpt>
      <trkpt lat="62.633954950568" lon="17.980734365762">
        <ele>80.6</ele>
        <time>2017-12-21T19:11:28Z</time>
      </trkpt>
      <trkpt lat="62.633964170658" lon="17.980686505113">
        <ele>80.8</ele>
        <time>2017-12-21T19:11:29Z</time>
      </trkpt>
      <trkpt lat="62.633975905318" lon="17.980640488482">
        <ele>81</ele>
        <time>2017-12-21T19:11:30Z</time>
      </trkpt>
      <trkpt lat="62.633999458457" lon="17.980575109662">
        <ele>81</ele>
        <time>2017-12-21T19:11:31Z</time>
      </trkpt>
      <trkpt lat="62.634004068502" lon="17.980531775239">
        <ele>81.2</ele>
        <time>2017-12-21T19:11:32Z</time>
      </trkpt>
      <trkpt lat="62.634032399324" lon="17.980476119423">
        <ele>81.2</ele>
        <time>2017-12-21T19:11:33Z</time>
      </trkpt>
      <trkpt lat="62.634053437893" lon="17.980434964294">
        <ele>81.2</ele>
        <time>2017-12-21T19:11:34Z</time>
      </trkpt>
      <trkpt lat="62.634073051539" lon="17.980408309852">
        <ele>81.2</ele>
        <time>2017-12-21T19:11:35Z</time>
      </trkpt>
      <trkpt lat="62.634093587194" lon="17.980362879954">
        <ele>81.2</ele>
        <time>2017-12-21T19:11:36Z</time>
      </trkpt>
      <trkpt lat="62.634114458125" lon="17.980299177514">
        <ele>81</ele>
        <time>2017-12-21T19:11:37Z</time>
      </trkpt>
      <trkpt lat="62.634129713183" lon="17.980243186422">
        <ele>81.2</ele>
        <time>2017-12-21T19:11:38Z</time>
      </trkpt>
      <trkpt lat="62.634140777291" lon="17.980196834515">
        <ele>81.2</ele>
        <time>2017-12-21T19:11:39Z</time>
      </trkpt>
      <trkpt lat="62.634169611027" lon="17.980138747948">
        <ele>81.2</ele>
        <time>2017-12-21T19:11:40Z</time>
      </trkpt>
      <trkpt lat="62.634191487786" lon="17.980089630014">
        <ele>81.2</ele>
        <time>2017-12-21T19:11:41Z</time>
      </trkpt>
      <trkpt lat="62.634218561323" lon="17.980040009166">
        <ele>81.4</ele>
        <time>2017-12-21T19:11:42Z</time>
      </trkpt>
      <trkpt lat="62.634241192453" lon="17.979989969223">
        <ele>81.4</ele>
        <time>2017-12-21T19:11:43Z</time>
      </trkpt>
      <trkpt lat="62.634260303185" lon="17.979931882656">
        <ele>81.4</ele>
        <time>2017-12-21T19:11:44Z</time>
      </trkpt>
      <trkpt lat="62.634278911003" lon="17.979875137193">
        <ele>81.4</ele>
        <time>2017-12-21T19:11:45Z</time>
      </trkpt>
      <trkpt lat="62.634287376722" lon="17.979795173867">
        <ele>81.2</ele>
        <time>2017-12-21T19:11:46Z</time>
      </trkpt>
      <trkpt lat="62.634296932088" lon="17.979737422576">
        <ele>81.2</ele>
        <time>2017-12-21T19:11:47Z</time>
      </trkpt>
      <trkpt lat="62.634318138295" lon="17.979648071522">
        <ele>81.2</ele>
        <time>2017-12-21T19:11:48Z</time>
      </trkpt>
      <trkpt lat="62.634326184919" lon="17.979580597227">
        <ele>81.2</ele>
        <time>2017-12-21T19:11:49Z</time>
      </trkpt>
      <trkpt lat="62.634337332846" lon="17.979512955294">
        <ele>81.2</ele>
        <time>2017-12-21T19:11:50Z</time>
      </trkpt>
      <trkpt lat="62.634356611216" lon="17.979461993342">
        <ele>81</ele>
        <time>2017-12-21T19:11:51Z</time>
      </trkpt>
      <trkpt lat="62.634360718347" lon="17.979408935915">
        <ele>80.8</ele>
        <time>2017-12-21T19:11:52Z</time>
      </trkpt>
      <trkpt lat="62.634371447179" lon="17.979360237076">
        <ele>80.8</ele>
        <time>2017-12-21T19:11:53Z</time>
      </trkpt>
      <trkpt lat="62.634381254002" lon="17.979295528808">
        <ele>80.8</ele>
        <time>2017-12-21T19:11:54Z</time>
      </trkpt>
      <trkpt lat="62.634397766345" lon="17.979223360649">
        <ele>80.6</ele>
        <time>2017-12-21T19:11:55Z</time>
      </trkpt>
      <trkpt lat="62.634409249548" lon="17.979165106444">
        <ele>80.6</ele>
        <time>2017-12-21T19:11:56Z</time>
      </trkpt>
      <trkpt lat="62.634420229837" lon="17.979098554158">
        <ele>80.6</ele>
        <time>2017-12-21T19:11:57Z</time>
      </trkpt>
      <trkpt lat="62.634436239266" lon="17.979031666596">
        <ele>80.6</ele>
        <time>2017-12-21T19:11:58Z</time>
      </trkpt>
      <trkpt lat="62.63444931503" lon="17.978970562545">
        <ele>80.6</ele>
        <time>2017-12-21T19:11:59Z</time>
      </trkpt>
      <trkpt lat="62.634480998612" lon="17.978861933121">
        <ele>80.6</ele>
        <time>2017-12-21T19:12:01Z</time>
      </trkpt>
      <trkpt lat="62.63449541548" lon="17.978812982825">
        <ele>80.8</ele>
        <time>2017-12-21T19:12:02Z</time>
      </trkpt>
      <trkpt lat="62.634532631116" lon="17.978792028075">
        <ele>80.6</ele>
        <time>2017-12-21T19:12:03Z</time>
      </trkpt>
      <trkpt lat="62.634556938626" lon="17.978769313126">
        <ele>80.6</ele>
        <time>2017-12-21T19:12:04Z</time>
      </trkpt>
      <trkpt lat="62.634575965539" lon="17.978751459679">
        <ele>80.8</ele>
        <time>2017-12-21T19:12:05Z</time>
      </trkpt>
      <trkpt lat="62.634606391836" lon="17.978758668113">
        <ele>80.8</ele>
        <time>2017-12-21T19:12:06Z</time>
      </trkpt>
      <trkpt lat="62.634636399038" lon="17.978768894031">
        <ele>80.6</ele>
        <time>2017-12-21T19:12:07Z</time>
      </trkpt>
      <trkpt lat="62.634668250258" lon="17.978782305071">
        <ele>80.8</ele>
        <time>2017-12-21T19:12:08Z</time>
      </trkpt>
      <trkpt lat="62.634702029315" lon="17.978798482138">
        <ele>80.6</ele>
        <time>2017-12-21T19:12:09Z</time>
      </trkpt>
      <trkpt lat="62.634736478924" lon="17.978817341413">
        <ele>80.6</ele>
        <time>2017-12-21T19:12:10Z</time>
      </trkpt>
      <trkpt lat="62.634768413963" lon="17.978832428833">
        <ele>80.4</ele>
        <time>2017-12-21T19:12:11Z</time>
      </trkpt>
      <trkpt lat="62.634812586576" lon="17.978848354443">
        <ele>80.2</ele>
        <time>2017-12-21T19:12:12Z</time>
      </trkpt>
      <trkpt lat="62.634850137488" lon="17.978864447691">
        <ele>80.4</ele>
        <time>2017-12-21T19:12:13Z</time>
      </trkpt>
      <trkpt lat="62.634886179658" lon="17.978878194007">
        <ele>80.4</ele>
        <time>2017-12-21T19:12:14Z</time>
      </trkpt>
      <trkpt lat="62.634920126353" lon="17.978890766857">
        <ele>80.4</ele>
        <time>2017-12-21T19:12:15Z</time>
      </trkpt>
      <trkpt lat="62.63495055265" lon="17.978905770458">
        <ele>80.4</ele>
        <time>2017-12-21T19:12:16Z</time>
      </trkpt>
      <trkpt lat="62.634975782169" lon="17.978912811254">
        <ele>80.4</ele>
        <time>2017-12-21T19:12:17Z</time>
      </trkpt>
      <trkpt lat="62.635012746348" lon="17.978927311941">
        <ele>80.2</ele>
        <time>2017-12-21T19:12:18Z</time>
      </trkpt>
      <trkpt lat="62.635044094654" lon="17.97893829223">
        <ele>80.2</ele>
        <time>2017-12-21T19:12:19Z</time>
      </trkpt>
      <trkpt lat="62.635076532607" lon="17.978952290003">
        <ele>80.2</ele>
        <time>2017-12-21T19:12:20Z</time>
      </trkpt>
      <trkpt lat="62.635117771555" lon="17.978963102654">
        <ele>80</ele>
        <time>2017-12-21T19:12:21Z</time>
      </trkpt>
      <trkpt lat="62.635155741562" lon="17.97897181983">
        <ele>80</ele>
        <time>2017-12-21T19:12:22Z</time>
      </trkpt>
      <trkpt lat="62.635192370465" lon="17.978979950273">
        <ele>79.8</ele>
        <time>2017-12-21T19:12:23Z</time>
      </trkpt>
      <trkpt lat="62.635232938861" lon="17.978984811775">
        <ele>79.6</ele>
        <time>2017-12-21T19:12:24Z</time>
      </trkpt>
      <trkpt lat="62.635270657411" lon="17.978989589458">
        <ele>79.4</ele>
        <time>2017-12-21T19:12:25Z</time>
      </trkpt>
      <trkpt lat="62.635309633246" lon="17.978996462616">
        <ele>79.2</ele>
        <time>2017-12-21T19:12:26Z</time>
      </trkpt>
      <trkpt lat="62.635349950185" lon="17.979007191448">
        <ele>79</ele>
        <time>2017-12-21T19:12:27Z</time>
      </trkpt>
      <trkpt lat="62.635393200789" lon="17.979013394054">
        <ele>78.8</ele>
        <time>2017-12-21T19:12:28Z</time>
      </trkpt>
      <trkpt lat="62.635435445565" lon="17.979016327719">
        <ele>78.6</ele>
        <time>2017-12-21T19:12:29Z</time>
      </trkpt>
      <trkpt lat="62.635471990649" lon="17.979018004099">
        <ele>78.4</ele>
        <time>2017-12-21T19:12:30Z</time>
      </trkpt>
      <trkpt lat="62.635522533506" lon="17.979005598887">
        <ele>78.2</ele>
        <time>2017-12-21T19:12:31Z</time>
      </trkpt>
      <trkpt lat="62.635568550137" lon="17.978997887539">
        <ele>78.2</ele>
        <time>2017-12-21T19:12:32Z</time>
      </trkpt>
      <trkpt lat="62.635615991691" lon="17.978997133168">
        <ele>78</ele>
        <time>2017-12-21T19:12:33Z</time>
      </trkpt>
      <trkpt lat="62.635662595055" lon="17.978990511467">
        <ele>77.6</ele>
        <time>2017-12-21T19:12:34Z</time>
      </trkpt>
      <trkpt lat="62.635708192591" lon="17.978985482327">
        <ele>77.4</ele>
        <time>2017-12-21T19:12:35Z</time>
      </trkpt>
      <trkpt lat="62.635752951937" lon="17.978986152879">
        <ele>77.2</ele>
        <time>2017-12-21T19:12:36Z</time>
      </trkpt>
      <trkpt lat="62.63579377179" lon="17.97899361277">
        <ele>76.8</ele>
        <time>2017-12-21T19:12:37Z</time>
      </trkpt>
      <trkpt lat="62.635832915263" lon="17.979003838688">
        <ele>76.6</ele>
        <time>2017-12-21T19:12:38Z</time>
      </trkpt>
      <trkpt lat="62.635866442863" lon="17.97901792028">
        <ele>76.6</ele>
        <time>2017-12-21T19:12:39Z</time>
      </trkpt>
      <trkpt lat="62.635894941323" lon="17.97903803684">
        <ele>76.6</ele>
        <time>2017-12-21T19:12:40Z</time>
      </trkpt>
      <trkpt lat="62.635915057883" lon="17.97904306598">
        <ele>76.4</ele>
        <time>2017-12-21T19:12:41Z</time>
      </trkpt>
      <trkpt lat="62.635936431728" lon="17.979043149799">
        <ele>76.6</ele>
        <time>2017-12-21T19:12:42Z</time>
      </trkpt>
      <trkpt lat="62.635955961555" lon="17.97904641874">
        <ele>76.6</ele>
        <time>2017-12-21T19:12:43Z</time>
      </trkpt>
      <trkpt lat="62.635975826658" lon="17.979053291898">
        <ele>76.6</ele>
        <time>2017-12-21T19:12:44Z</time>
      </trkpt>
      <trkpt lat="62.635994015381" lon="17.979063769273">
        <ele>76.8</ele>
        <time>2017-12-21T19:12:45Z</time>
      </trkpt>
      <trkpt lat="62.63599745196" lon="17.979094530846">
        <ele>76.8</ele>
        <time>2017-12-21T19:12:46Z</time>
      </trkpt>
      <trkpt lat="62.636001475272" lon="17.979119425089">
        <ele>77</ele>
        <time>2017-12-21T19:12:47Z</time>
      </trkpt>
      <trkpt lat="62.635997368141" lon="17.979155970173">
        <ele>77</ele>
        <time>2017-12-21T19:12:48Z</time>
      </trkpt>
      <trkpt lat="62.635992087544" lon="17.979181199692">
        <ele>77</ele>
        <time>2017-12-21T19:12:49Z</time>
      </trkpt>
      <trkpt lat="62.635981358712" lon="17.979215062568">
        <ele>77</ele>
        <time>2017-12-21T19:12:51Z</time>
      </trkpt>
      <trkpt lat="62.635980939617" lon="17.979234592395">
        <ele>77</ele>
        <time>2017-12-21T19:12:52Z</time>
      </trkpt>
      <trkpt lat="62.635980939617" lon="17.979259151362">
        <ele>76.6</ele>
        <time>2017-12-21T19:12:53Z</time>
      </trkpt>
      <trkpt lat="62.635973060631" lon="17.97932050687">
        <ele>76.6</ele>
        <time>2017-12-21T19:12:54Z</time>
      </trkpt>
      <trkpt lat="62.635968199129" lon="17.979361494361">
        <ele>76.6</ele>
        <time>2017-12-21T19:12:55Z</time>
      </trkpt>
      <trkpt lat="62.635958476125" lon="17.97947389564">
        <ele>76.4</ele>
        <time>2017-12-21T19:12:56Z</time>
      </trkpt>
      <trkpt lat="62.635948166388" lon="17.979576741553">
        <ele>76.4</ele>
        <time>2017-12-21T19:12:57Z</time>
      </trkpt>
      <trkpt lat="62.635938191927" lon="17.979714707627">
        <ele>76.2</ele>
        <time>2017-12-21T19:12:58Z</time>
      </trkpt>
      <trkpt lat="62.635942634334" lon="17.979867509664">
        <ele>76</ele>
        <time>2017-12-21T19:12:59Z</time>
      </trkpt>
      <trkpt lat="62.635945735637" lon="17.980015282561">
        <ele>75.8</ele>
        <time>2017-12-21T19:13:00Z</time>
      </trkpt>
      <trkpt lat="62.635958140849" lon="17.980170599168">
        <ele>74.8</ele>
        <time>2017-12-21T19:13:01Z</time>
      </trkpt>
      <trkpt lat="62.63597901178" lon="17.980312756192">
        <ele>74.2</ele>
        <time>2017-12-21T19:13:02Z</time>
      </trkpt>
      <trkpt lat="62.636001726729" lon="17.980488608454">
        <ele>73.6</ele>
        <time>2017-12-21T19:13:03Z</time>
      </trkpt>
      <trkpt lat="62.636030309008" lon="17.980635459342">
        <ele>72.8</ele>
        <time>2017-12-21T19:13:04Z</time>
      </trkpt>
      <trkpt lat="62.636062411685" lon="17.980774850339">
        <ele>71.4</ele>
        <time>2017-12-21T19:13:05Z</time>
      </trkpt>
      <trkpt lat="62.636084288444" lon="17.980900327382">
        <ele>70.8</ele>
        <time>2017-12-21T19:13:06Z</time>
      </trkpt>
      <trkpt lat="62.636104824099" lon="17.981070396133">
        <ele>70.2</ele>
        <time>2017-12-21T19:13:07Z</time>
      </trkpt>
      <trkpt lat="62.636116558759" lon="17.981217163202">
        <ele>69.8</ele>
        <time>2017-12-21T19:13:08Z</time>
      </trkpt>
      <trkpt lat="62.636133741654" lon="17.981366947755">
        <ele>69.4</ele>
        <time>2017-12-21T19:13:09Z</time>
      </trkpt>
      <trkpt lat="62.636143380839" lon="17.981487730934">
        <ele>69.2</ele>
        <time>2017-12-21T19:13:10Z</time>
      </trkpt>
      <trkpt lat="62.636152684748" lon="17.981634162727">
        <ele>68.8</ele>
        <time>2017-12-21T19:13:11Z</time>
      </trkpt>
      <trkpt lat="62.636166598702" lon="17.981775649199">
        <ele>68.6</ele>
        <time>2017-12-21T19:13:12Z</time>
      </trkpt>
      <trkpt lat="62.636183278683" lon="17.981907245029">
        <ele>68.6</ele>
        <time>2017-12-21T19:13:13Z</time>
      </trkpt>
      <trkpt lat="62.636196270628" lon="17.98202953695">
        <ele>68.4</ele>
        <time>2017-12-21T19:13:14Z</time>
      </trkpt>
      <trkpt lat="62.636201886501" lon="17.98215023631">
        <ele>68.4</ele>
        <time>2017-12-21T19:13:15Z</time>
      </trkpt>
      <trkpt lat="62.63620783765" lon="17.982224667582">
        <ele>68.4</ele>
        <time>2017-12-21T19:13:16Z</time>
      </trkpt>
      <trkpt lat="62.636213202066" lon="17.98234050544">
        <ele>68.4</ele>
        <time>2017-12-21T19:13:17Z</time>
      </trkpt>
      <trkpt lat="62.636215884274" lon="17.982427425743">
        <ele>68.4</ele>
        <time>2017-12-21T19:13:18Z</time>
      </trkpt>
      <trkpt lat="62.636219488491" lon="17.982497414608">
        <ele>68.4</ele>
        <time>2017-12-21T19:13:19Z</time>
      </trkpt>
      <trkpt lat="62.636223595622" lon="17.982599338512">
        <ele>68.4</ele>
        <time>2017-12-21T19:13:20Z</time>
      </trkpt>
      <trkpt lat="62.636230552599" lon="17.982693131973">
        <ele>68.4</ele>
        <time>2017-12-21T19:13:21Z</time>
      </trkpt>
      <trkpt lat="62.636243460725" lon="17.982785835787">
        <ele>68.4</ele>
        <time>2017-12-21T19:13:22Z</time>
      </trkpt>
      <trkpt lat="62.636233067169" lon="17.982890609537">
        <ele>68.6</ele>
        <time>2017-12-21T19:13:23Z</time>
      </trkpt>
      <trkpt lat="62.636242538716" lon="17.982954228158">
        <ele>68.8</ele>
        <time>2017-12-21T19:13:24Z</time>
      </trkpt>
      <trkpt lat="62.636242538716" lon="17.983040142633">
        <ele>68.8</ele>
        <time>2017-12-21T19:13:25Z</time>
      </trkpt>
      <trkpt lat="62.63624304163" lon="17.983128236402">
        <ele>69</ele>
        <time>2017-12-21T19:13:26Z</time>
      </trkpt>
      <trkpt lat="62.636257039403" lon="17.98319378286">
        <ele>69.6</ele>
        <time>2017-12-21T19:13:27Z</time>
      </trkpt>
      <trkpt lat="62.636254608652" lon="17.983272153625">
        <ele>69.8</ele>
        <time>2017-12-21T19:13:28Z</time>
      </trkpt>
      <trkpt lat="62.636239018318" lon="17.983367372009">
        <ele>70</ele>
        <time>2017-12-21T19:13:29Z</time>
      </trkpt>
      <trkpt lat="62.636239018318" lon="17.983423614558">
        <ele>70.2</ele>
        <time>2017-12-21T19:13:30Z</time>
      </trkpt>
      <trkpt lat="62.636232396617" lon="17.983491675586">
        <ele>70.2</ele>
        <time>2017-12-21T19:13:31Z</time>
      </trkpt>
      <trkpt lat="62.636221751604" lon="17.983552025266">
        <ele>70.2</ele>
        <time>2017-12-21T19:13:32Z</time>
      </trkpt>
      <trkpt lat="62.636214710808" lon="17.983608267815">
        <ele>70.4</ele>
        <time>2017-12-21T19:13:33Z</time>
      </trkpt>
      <trkpt lat="62.636195851533" lon="17.983670880608">
        <ele>70.6</ele>
        <time>2017-12-21T19:13:34Z</time>
      </trkpt>
      <trkpt lat="62.636200629216" lon="17.983728967175">
        <ele>70.6</ele>
        <time>2017-12-21T19:13:35Z</time>
      </trkpt>
      <trkpt lat="62.636193085506" lon="17.983770876675">
        <ele>70.8</ele>
        <time>2017-12-21T19:13:36Z</time>
      </trkpt>
      <trkpt lat="62.636179003914" lon="17.983845643223">
        <ele>71</ele>
        <time>2017-12-21T19:13:37Z</time>
      </trkpt>
      <trkpt lat="62.636178836276" lon="17.983896269899">
        <ele>71</ele>
        <time>2017-12-21T19:13:38Z</time>
      </trkpt>
      <trkpt lat="62.636164587046" lon="17.983951087525">
        <ele>71.2</ele>
        <time>2017-12-21T19:13:39Z</time>
      </trkpt>
      <trkpt lat="62.636143716115" lon="17.984000708373">
        <ele>71.2</ele>
        <time>2017-12-21T19:13:40Z</time>
      </trkpt>
      <trkpt lat="62.636147739427" lon="17.984052508515">
        <ele>71.2</ele>
        <time>2017-12-21T19:13:41Z</time>
      </trkpt>
      <trkpt lat="62.63613323874" lon="17.984134734954">
        <ele>71.4</ele>
        <time>2017-12-21T19:13:42Z</time>
      </trkpt>
      <trkpt lat="62.636134579844" lon="17.984199107946">
        <ele>71.2</ele>
        <time>2017-12-21T19:13:43Z</time>
      </trkpt>
      <trkpt lat="62.636126952315" lon="17.984251830097">
        <ele>71.4</ele>
        <time>2017-12-21T19:13:44Z</time>
      </trkpt>
      <trkpt lat="62.636109937058" lon="17.984306312447">
        <ele>71.4</ele>
        <time>2017-12-21T19:13:45Z</time>
      </trkpt>
      <trkpt lat="62.636112535447" lon="17.98435886696">
        <ele>71.4</ele>
        <time>2017-12-21T19:13:46Z</time>
      </trkpt>
      <trkpt lat="62.636110775248" lon="17.984436902449">
        <ele>71.6</ele>
        <time>2017-12-21T19:13:47Z</time>
      </trkpt>
      <trkpt lat="62.636114547103" lon="17.984479901596">
        <ele>71.8</ele>
        <time>2017-12-21T19:13:48Z</time>
      </trkpt>
      <trkpt lat="62.636112870723" lon="17.984536982335">
        <ele>71.8</ele>
        <time>2017-12-21T19:13:49Z</time>
      </trkpt>
      <trkpt lat="62.636109601782" lon="17.984595990911">
        <ele>71.6</ele>
        <time>2017-12-21T19:13:50Z</time>
      </trkpt>
      <trkpt lat="62.636110859067" lon="17.984633206547">
        <ele>71.8</ele>
        <time>2017-12-21T19:13:51Z</time>
      </trkpt>
      <trkpt lat="62.636105997565" lon="17.984716271176">
        <ele>72</ele>
        <time>2017-12-21T19:13:52Z</time>
      </trkpt>
      <trkpt lat="62.636112870723" lon="17.984753067717">
        <ele>72</ele>
        <time>2017-12-21T19:13:53Z</time>
      </trkpt>
      <trkpt lat="62.636106500479" lon="17.984809980818">
        <ele>72.2</ele>
        <time>2017-12-21T19:13:54Z</time>
      </trkpt>
      <trkpt lat="62.636094933457" lon="17.984849291929">
        <ele>72.6</ele>
        <time>2017-12-21T19:13:55Z</time>
      </trkpt>
      <trkpt lat="62.636093927629" lon="17.984897404035">
        <ele>72.6</ele>
        <time>2017-12-21T19:13:56Z</time>
      </trkpt>
      <trkpt lat="62.636086048643" lon="17.984961441751">
        <ele>72.6</ele>
        <time>2017-12-21T19:13:57Z</time>
      </trkpt>
      <trkpt lat="62.636088563213" lon="17.985016678472">
        <ele>72.4</ele>
        <time>2017-12-21T19:13:58Z</time>
      </trkpt>
      <trkpt lat="62.636082779702" lon="17.985068897709">
        <ele>72.6</ele>
        <time>2017-12-21T19:13:59Z</time>
      </trkpt>
      <trkpt lat="62.636073894888" lon="17.985124218249">
        <ele>72.6</ele>
        <time>2017-12-21T19:14:00Z</time>
      </trkpt>
      <trkpt lat="62.63607205087" lon="17.98517023488">
        <ele>72.6</ele>
        <time>2017-12-21T19:14:01Z</time>
      </trkpt>
      <trkpt lat="62.636060819124" lon="17.985250617301">
        <ele>72.6</ele>
        <time>2017-12-21T19:14:02Z</time>
      </trkpt>
      <trkpt lat="62.636066937911" lon="17.985297807398">
        <ele>72.8</ele>
        <time>2017-12-21T19:14:03Z</time>
      </trkpt>
      <trkpt lat="62.636057634002" lon="17.985362599485">
        <ele>72.8</ele>
        <time>2017-12-21T19:14:04Z</time>
      </trkpt>
      <trkpt lat="62.636044893514" lon="17.985416327464">
        <ele>73</ele>
        <time>2017-12-21T19:14:05Z</time>
      </trkpt>
      <trkpt lat="62.636045731704" lon="17.985457566412">
        <ele>73</ele>
        <time>2017-12-21T19:14:06Z</time>
      </trkpt>
      <trkpt lat="62.636029135542" lon="17.985540128127">
        <ele>73.2</ele>
        <time>2017-12-21T19:14:07Z</time>
      </trkpt>
      <trkpt lat="62.636032823578" lon="17.985579606876">
        <ele>73.2</ele>
        <time>2017-12-21T19:14:08Z</time>
      </trkpt>
      <trkpt lat="62.636014886312" lon="17.985653954329">
        <ele>73.2</ele>
        <time>2017-12-21T19:14:09Z</time>
      </trkpt>
      <trkpt lat="62.636003654566" lon="17.985699048951">
        <ele>73.4</ele>
        <time>2017-12-21T19:14:10Z</time>
      </trkpt>
      <trkpt lat="62.635996194675" lon="17.985734169112">
        <ele>73.4</ele>
        <time>2017-12-21T19:14:11Z</time>
      </trkpt>
      <trkpt lat="62.63597817359" lon="17.985773647861">
        <ele>73.4</ele>
        <time>2017-12-21T19:14:12Z</time>
      </trkpt>
      <trkpt lat="62.635959481953" lon="17.985794267335">
        <ele>73.6</ele>
        <time>2017-12-21T19:14:13Z</time>
      </trkpt>
      <trkpt lat="62.63593961685" lon="17.985834835731">
        <ele>73.6</ele>
        <time>2017-12-21T19:14:14Z</time>
      </trkpt>
      <trkpt lat="62.635923775059" lon="17.98586341801">
        <ele>73.6</ele>
        <time>2017-12-21T19:14:15Z</time>
      </trkpt>
      <trkpt lat="62.635912375675" lon="17.985876996688">
        <ele>73.8</ele>
        <time>2017-12-21T19:14:16Z</time>
      </trkpt>
      <trkpt lat="62.635883961034" lon="17.985901304198">
        <ele>74</ele>
        <time>2017-12-21T19:14:17Z</time>
      </trkpt>
      <trkpt lat="62.635859318248" lon="17.985920247292">
        <ele>74</ele>
        <time>2017-12-21T19:14:18Z</time>
      </trkpt>
      <trkpt lat="62.635841632439" lon="17.985943129879">
        <ele>74</ele>
        <time>2017-12-21T19:14:19Z</time>
      </trkpt>
      <trkpt lat="62.635819252766" lon="17.985968275579">
        <ele>74</ele>
        <time>2017-12-21T19:14:20Z</time>
      </trkpt>
      <trkpt lat="62.635805254993" lon="17.98598327918">
        <ele>74.2</ele>
        <time>2017-12-21T19:14:21Z</time>
      </trkpt>
      <trkpt lat="62.635774912515" lon="17.986011945278">
        <ele>74.2</ele>
        <time>2017-12-21T19:14:22Z</time>
      </trkpt>
      <trkpt lat="62.63575018591" lon="17.986035498417">
        <ele>74.2</ele>
        <time>2017-12-21T19:14:23Z</time>
      </trkpt>
      <trkpt lat="62.635729985531" lon="17.986073971338">
        <ele>74.2</ele>
        <time>2017-12-21T19:14:24Z</time>
      </trkpt>
      <trkpt lat="62.635713808464" lon="17.986104565273">
        <ele>74.4</ele>
        <time>2017-12-21T19:14:25Z</time>
      </trkpt>
      <trkpt lat="62.63569654175" lon="17.986130381525">
        <ele>74.4</ele>
        <time>2017-12-21T19:14:26Z</time>
      </trkpt>
      <trkpt lat="62.635675503181" lon="17.986158712347">
        <ele>74.4</ele>
        <time>2017-12-21T19:14:27Z</time>
      </trkpt>
      <trkpt lat="62.635668797661" lon="17.986180924382">
        <ele>74.4</ele>
        <time>2017-12-21T19:14:28Z</time>
      </trkpt>
      <trkpt lat="62.635660667218" lon="17.98620037039">
        <ele>74.4</ele>
        <time>2017-12-21T19:14:29Z</time>
      </trkpt>
      <trkpt lat="62.635632084939" lon="17.986252170532">
        <ele>74.6</ele>
        <time>2017-12-21T19:14:30Z</time>
      </trkpt>
      <trkpt lat="62.635616494605" lon="17.986287709788">
        <ele>75</ele>
        <time>2017-12-21T19:14:31Z</time>
      </trkpt>
      <trkpt lat="62.635598641158" lon="17.986332469134">
        <ele>75.2</ele>
        <time>2017-12-21T19:14:32Z</time>
      </trkpt>
      <trkpt lat="62.635582296453" lon="17.986374378634">
        <ele>75.4</ele>
        <time>2017-12-21T19:14:33Z</time>
      </trkpt>
      <trkpt lat="62.635563940092" lon="17.986427184604">
        <ele>75.6</ele>
        <time>2017-12-21T19:14:34Z</time>
      </trkpt>
      <trkpt lat="62.635547679206" lon="17.986469848475">
        <ele>75.8</ele>
        <time>2017-12-21T19:14:35Z</time>
      </trkpt>
      <trkpt lat="62.63553058013" lon="17.986520475151">
        <ele>75.8</ele>
        <time>2017-12-21T19:14:36Z</time>
      </trkpt>
      <trkpt lat="62.635510715027" lon="17.986563725755">
        <ele>75.8</ele>
        <time>2017-12-21T19:14:37Z</time>
      </trkpt>
      <trkpt lat="62.635497555444" lon="17.986604210332">
        <ele>75.8</ele>
        <time>2017-12-21T19:14:38Z</time>
      </trkpt>
      <trkpt lat="62.63547777416" lon="17.986644108176">
        <ele>76.2</ele>
        <time>2017-12-21T19:14:39Z</time>
      </trkpt>
      <trkpt lat="62.635463692568" lon="17.986684341296">
        <ele>76.2</ele>
        <time>2017-12-21T19:14:40Z</time>
      </trkpt>
      <trkpt lat="62.635455562125" lon="17.986721473113">
        <ele>76.2</ele>
        <time>2017-12-21T19:14:41Z</time>
      </trkpt>
      <trkpt lat="62.635445839121" lon="17.986759107844">
        <ele>76.4</ele>
        <time>2017-12-21T19:14:42Z</time>
      </trkpt>
      <trkpt lat="62.635433098633" lon="17.986802106991">
        <ele>76.6</ele>
        <time>2017-12-21T19:14:43Z</time>
      </trkpt>
      <trkpt lat="62.635417089204" lon="17.986843932672">
        <ele>76.8</ele>
        <time>2017-12-21T19:14:44Z</time>
      </trkpt>
      <trkpt lat="62.63540233706" lon="17.986890368398">
        <ele>76.8</ele>
        <time>2017-12-21T19:14:45Z</time>
      </trkpt>
      <trkpt lat="62.635384315975" lon="17.986931858803">
        <ele>76.8</ele>
        <time>2017-12-21T19:14:46Z</time>
      </trkpt>
      <trkpt lat="62.635373084229" lon="17.986963290928">
        <ele>77</ele>
        <time>2017-12-21T19:14:47Z</time>
      </trkpt>
      <trkpt lat="62.635360511379" lon="17.987004026962">
        <ele>77</ele>
        <time>2017-12-21T19:14:48Z</time>
      </trkpt>
      <trkpt lat="62.63534953109" lon="17.987033615069">
        <ele>76.8</ele>
        <time>2017-12-21T19:14:49Z</time>
      </trkpt>
      <trkpt lat="62.635338299344" lon="17.987064963375">
        <ele>77</ele>
        <time>2017-12-21T19:14:50Z</time>
      </trkpt>
      <trkpt lat="62.635318937155" lon="17.98710561559">
        <ele>77</ele>
        <time>2017-12-21T19:14:51Z</time>
      </trkpt>
      <trkpt lat="62.635305023201" lon="17.987148111823">
        <ele>77</ele>
        <time>2017-12-21T19:14:52Z</time>
      </trkpt>
      <trkpt lat="62.63528834322" lon="17.987184908364">
        <ele>77.4</ele>
        <time>2017-12-21T19:14:53Z</time>
      </trkpt>
      <trkpt lat="62.635270154497" lon="17.987217430136">
        <ele>77.4</ele>
        <time>2017-12-21T19:14:54Z</time>
      </trkpt>
      <trkpt lat="62.635256911095" lon="17.987251544469">
        <ele>77.4</ele>
        <time>2017-12-21T19:14:55Z</time>
      </trkpt>
      <trkpt lat="62.635240231114" lon="17.987298734566">
        <ele>77.6</ele>
        <time>2017-12-21T19:14:56Z</time>
      </trkpt>
      <trkpt lat="62.635221790934" lon="17.987338548591">
        <ele>77.6</ele>
        <time>2017-12-21T19:14:57Z</time>
      </trkpt>
      <trkpt lat="62.635205865324" lon="17.987371573277">
        <ele>77.6</ele>
        <time>2017-12-21T19:14:58Z</time>
      </trkpt>
      <trkpt lat="62.635193543931" lon="17.987409375646">
        <ele>77.8</ele>
        <time>2017-12-21T19:14:59Z</time>
      </trkpt>
      <trkpt lat="62.635181222538" lon="17.987454973182">
        <ele>77.8</ele>
        <time>2017-12-21T19:15:00Z</time>
      </trkpt>
      <trkpt lat="62.635168984964" lon="17.987496044492">
        <ele>78</ele>
        <time>2017-12-21T19:15:01Z</time>
      </trkpt>
      <trkpt lat="62.635151215336" lon="17.987533679223">
        <ele>78</ele>
        <time>2017-12-21T19:15:02Z</time>
      </trkpt>
      <trkpt lat="62.635135708821" lon="17.987575504904">
        <ele>78.2</ele>
        <time>2017-12-21T19:15:03Z</time>
      </trkpt>
      <trkpt lat="62.635118274469" lon="17.987606601753">
        <ele>78.4</ele>
        <time>2017-12-21T19:15:04Z</time>
      </trkpt>
      <trkpt lat="62.63510226504" lon="17.987634178204">
        <ele>78.4</ele>
        <time>2017-12-21T19:15:05Z</time>
      </trkpt>
      <trkpt lat="62.635083992498" lon="17.987667035252">
        <ele>78.6</ele>
        <time>2017-12-21T19:15:06Z</time>
      </trkpt>
      <trkpt lat="62.635065803775" lon="17.987697461549">
        <ele>78.8</ele>
        <time>2017-12-21T19:15:07Z</time>
      </trkpt>
      <trkpt lat="62.635049710527" lon="17.987733000805">
        <ele>78.8</ele>
        <time>2017-12-21T19:15:08Z</time>
      </trkpt>
      <trkpt lat="62.635032779089" lon="17.987763678559">
        <ele>78.8</ele>
        <time>2017-12-21T19:15:09Z</time>
      </trkpt>
      <trkpt lat="62.635013752176" lon="17.987796367969">
        <ele>79</ele>
        <time>2017-12-21T19:15:10Z</time>
      </trkpt>
      <trkpt lat="62.634995311996" lon="17.987828470646">
        <ele>79</ele>
        <time>2017-12-21T19:15:11Z</time>
      </trkpt>
      <trkpt lat="62.634975865988" lon="17.987848168111">
        <ele>79.2</ele>
        <time>2017-12-21T19:15:12Z</time>
      </trkpt>
      <trkpt lat="62.634960862387" lon="17.987877001847">
        <ele>79.2</ele>
        <time>2017-12-21T19:15:13Z</time>
      </trkpt>
      <trkpt lat="62.634940829646" lon="17.987905165031">
        <ele>79.4</ele>
        <time>2017-12-21T19:15:14Z</time>
      </trkpt>
      <trkpt lat="62.634919874896" lon="17.987928382894">
        <ele>79.4</ele>
        <time>2017-12-21T19:15:15Z</time>
      </trkpt>
      <trkpt lat="62.634900009793" lon="17.987957551906">
        <ele>79.6</ele>
        <time>2017-12-21T19:15:16Z</time>
      </trkpt>
      <trkpt lat="62.634883078355" lon="17.98797817138">
        <ele>79.8</ele>
        <time>2017-12-21T19:15:17Z</time>
      </trkpt>
      <trkpt lat="62.634863967623" lon="17.987994432266">
        <ele>80</ele>
        <time>2017-12-21T19:15:18Z</time>
      </trkpt>
      <trkpt lat="62.634841923226" lon="17.988005412555">
        <ele>80.2</ele>
        <time>2017-12-21T19:15:19Z</time>
      </trkpt>
      <trkpt lat="62.63481811863" lon="17.988028546599">
        <ele>80.4</ele>
        <time>2017-12-21T19:15:20Z</time>
      </trkpt>
      <trkpt lat="62.634792470016" lon="17.988047824969">
        <ele>80.6</ele>
        <time>2017-12-21T19:15:21Z</time>
      </trkpt>
      <trkpt lat="62.634770677076" lon="17.988064421131">
        <ele>80.8</ele>
        <time>2017-12-21T19:15:22Z</time>
      </trkpt>
      <trkpt lat="62.634750811973" lon="17.988071797203">
        <ele>80.8</ele>
        <time>2017-12-21T19:15:23Z</time>
      </trkpt>
      <trkpt lat="62.634733293802" lon="17.988075904334">
        <ele>80.8</ele>
        <time>2017-12-21T19:15:24Z</time>
      </trkpt>
      <trkpt lat="62.634712087595" lon="17.988081101112">
        <ele>81</ele>
        <time>2017-12-21T19:15:25Z</time>
      </trkpt>
      <trkpt lat="62.63468568461" lon="17.988094344514">
        <ele>81</ele>
        <time>2017-12-21T19:15:26Z</time>
      </trkpt>
      <trkpt lat="62.634657102331" lon="17.988103313147">
        <ele>81.2</ele>
        <time>2017-12-21T19:15:27Z</time>
      </trkpt>
      <trkpt lat="62.634625167292" lon="17.988115299264">
        <ele>81.4</ele>
        <time>2017-12-21T19:15:28Z</time>
      </trkpt>
      <trkpt lat="62.634598680488" lon="17.988125022268">
        <ele>81.4</ele>
        <time>2017-12-21T19:15:29Z</time>
      </trkpt>
      <trkpt lat="62.634570768761" lon="17.988129464675">
        <ele>81.6</ele>
        <time>2017-12-21T19:15:30Z</time>
      </trkpt>
      <trkpt lat="62.634544617233" lon="17.988133152711">
        <ele>81.8</ele>
        <time>2017-12-21T19:15:31Z</time>
      </trkpt>
      <trkpt lat="62.634513352746" lon="17.988117730015">
        <ele>81.6</ele>
        <time>2017-12-21T19:15:32Z</time>
      </trkpt>
      <trkpt lat="62.634486111571" lon="17.988115047807">
        <ele>81.8</ele>
        <time>2017-12-21T19:15:33Z</time>
      </trkpt>
      <trkpt lat="62.634458451301" lon="17.988122088603">
        <ele>81.6</ele>
        <time>2017-12-21T19:15:34Z</time>
      </trkpt>
      <trkpt lat="62.634432383592" lon="17.988130805779">
        <ele>81.8</ele>
        <time>2017-12-21T19:15:35Z</time>
      </trkpt>
      <trkpt lat="62.63440572915" lon="17.988133404168">
        <ele>82</ele>
        <time>2017-12-21T19:15:36Z</time>
      </trkpt>
      <trkpt lat="62.634380918726" lon="17.988126447191">
        <ele>82</ele>
        <time>2017-12-21T19:15:37Z</time>
      </trkpt>
      <trkpt lat="62.634351749714" lon="17.988132733616">
        <ele>82.2</ele>
        <time>2017-12-21T19:15:38Z</time>
      </trkpt>
      <trkpt lat="62.634325598186" lon="17.988134745272">
        <ele>82.4</ele>
        <time>2017-12-21T19:15:39Z</time>
      </trkpt>
      <trkpt lat="62.634304140522" lon="17.988141534611">
        <ele>82.4</ele>
        <time>2017-12-21T19:15:40Z</time>
      </trkpt>
      <trkpt lat="62.634279078641" lon="17.988144803552">
        <ele>82.4</ele>
        <time>2017-12-21T19:15:41Z</time>
      </trkpt>
      <trkpt lat="62.634248484706" lon="17.988150084149">
        <ele>82.4</ele>
        <time>2017-12-21T19:15:42Z</time>
      </trkpt>
      <trkpt lat="62.634216382029" lon="17.988144133">
        <ele>82.2</ele>
        <time>2017-12-21T19:15:43Z</time>
      </trkpt>
      <trkpt lat="62.634182351515" lon="17.988159555696">
        <ele>82.2</ele>
        <time>2017-12-21T19:15:44Z</time>
      </trkpt>
      <trkpt lat="62.634150835571" lon="17.988157879316">
        <ele>82.2</ele>
        <time>2017-12-21T19:15:45Z</time>
      </trkpt>
      <trkpt lat="62.634113536116" lon="17.988158130773">
        <ele>82.2</ele>
        <time>2017-12-21T19:15:46Z</time>
      </trkpt>
      <trkpt lat="62.634084283285" lon="17.988146815208">
        <ele>82</ele>
        <time>2017-12-21T19:15:47Z</time>
      </trkpt>
      <trkpt lat="62.634056706834" lon="17.988134242358">
        <ele>82.2</ele>
        <time>2017-12-21T19:15:48Z</time>
      </trkpt>
      <trkpt lat="62.634028627469" lon="17.988118903481">
        <ele>82.2</ele>
        <time>2017-12-21T19:15:49Z</time>
      </trkpt>
      <trkpt lat="62.633999877552" lon="17.988109431934">
        <ele>82.2</ele>
        <time>2017-12-21T19:15:50Z</time>
      </trkpt>
      <trkpt lat="62.63396065026" lon="17.988098954559">
        <ele>82.2</ele>
        <time>2017-12-21T19:15:52Z</time>
      </trkpt>
      <trkpt lat="62.633934414913" lon="17.98808462151">
        <ele>82.2</ele>
        <time>2017-12-21T19:15:53Z</time>
      </trkpt>
      <trkpt lat="62.633911448507" lon="17.988062074199">
        <ele>82.4</ele>
        <time>2017-12-21T19:15:54Z</time>
      </trkpt>
      <trkpt lat="62.633880854572" lon="17.988068863538">
        <ele>82.6</ele>
        <time>2017-12-21T19:15:55Z</time>
      </trkpt>
      <trkpt lat="62.633854283949" lon="17.98803852106">
        <ele>82.8</ele>
        <time>2017-12-21T19:15:56Z</time>
      </trkpt>
      <trkpt lat="62.633824779661" lon="17.988027792228">
        <ele>83</ele>
        <time>2017-12-21T19:15:57Z</time>
      </trkpt>
      <trkpt lat="62.633798795771" lon="17.988007005116">
        <ele>83.2</ele>
        <time>2017-12-21T19:15:58Z</time>
      </trkpt>
      <trkpt lat="62.63378043941" lon="17.987988062022">
        <ele>83.2</ele>
        <time>2017-12-21T19:15:59Z</time>
      </trkpt>
      <trkpt lat="62.633759987574" lon="17.987965263254">
        <ele>83.4</ele>
        <time>2017-12-21T19:16:00Z</time>
      </trkpt>
      <trkpt lat="62.63373266258" lon="17.987939782278">
        <ele>83.4</ele>
        <time>2017-12-21T19:16:01Z</time>
      </trkpt>
      <trkpt lat="62.633707600699" lon="17.987925952143">
        <ele>83.6</ele>
        <time>2017-12-21T19:16:02Z</time>
      </trkpt>
      <trkpt lat="62.633678515506" lon="17.987893011276">
        <ele>83.6</ele>
        <time>2017-12-21T19:16:03Z</time>
      </trkpt>
      <trkpt lat="62.633652112521" lon="17.987875660743">
        <ele>83.6</ele>
        <time>2017-12-21T19:16:04Z</time>
      </trkpt>
      <trkpt lat="62.633634342893" lon="17.98784070822">
        <ele>83.6</ele>
        <time>2017-12-21T19:16:05Z</time>
      </trkpt>
      <trkpt lat="62.633613974876" lon="17.987825788438">
        <ele>83.6</ele>
        <time>2017-12-21T19:16:06Z</time>
      </trkpt>
      <trkpt lat="62.633597630171" lon="17.98781220976">
        <ele>83.6</ele>
        <time>2017-12-21T19:16:07Z</time>
      </trkpt>
      <trkpt lat="62.633573490299" lon="17.987791087372">
        <ele>83.8</ele>
        <time>2017-12-21T19:16:08Z</time>
      </trkpt>
      <trkpt lat="62.633555972128" lon="17.987768540061">
        <ele>83.8</ele>
        <time>2017-12-21T19:16:09Z</time>
      </trkpt>
      <trkpt lat="62.63353736431" lon="17.987751692442">
        <ele>84.2</ele>
        <time>2017-12-21T19:16:10Z</time>
      </trkpt>
      <trkpt lat="62.63351138042" lon="17.987713722435">
        <ele>84.4</ele>
        <time>2017-12-21T19:16:11Z</time>
      </trkpt>
      <trkpt lat="62.633484055426" lon="17.98769570135">
        <ele>84.8</ele>
        <time>2017-12-21T19:16:12Z</time>
      </trkpt>
      <trkpt lat="62.633463435952" lon="17.987645493769">
        <ele>85</ele>
        <time>2017-12-21T19:16:13Z</time>
      </trkpt>
      <trkpt lat="62.633438876985" lon="17.987635184032">
        <ele>85</ele>
        <time>2017-12-21T19:16:14Z</time>
      </trkpt>
      <trkpt lat="62.63342001771" lon="17.987592687799">
        <ele>85</ele>
        <time>2017-12-21T19:16:15Z</time>
      </trkpt>
      <trkpt lat="62.633397805675" lon="17.987567961194">
        <ele>85.2</ele>
        <time>2017-12-21T19:16:16Z</time>
      </trkpt>
      <trkpt lat="62.633378611124" lon="17.987546252073">
        <ele>85.2</ele>
        <time>2017-12-21T19:16:17Z</time>
      </trkpt>
      <trkpt lat="62.633362769333" lon="17.987513981758">
        <ele>85.2</ele>
        <time>2017-12-21T19:16:18Z</time>
      </trkpt>
      <trkpt lat="62.633345334981" lon="17.987469725326">
        <ele>85.4</ele>
        <time>2017-12-21T19:16:19Z</time>
      </trkpt>
      <trkpt lat="62.633331421027" lon="17.987432928785">
        <ele>85.6</ele>
        <time>2017-12-21T19:16:20Z</time>
      </trkpt>
      <trkpt lat="62.633318177625" lon="17.987392528027">
        <ele>85.8</ele>
        <time>2017-12-21T19:16:21Z</time>
      </trkpt>
      <trkpt lat="62.633303844576" lon="17.987342655722">
        <ele>86.2</ele>
        <time>2017-12-21T19:16:22Z</time>
      </trkpt>
      <trkpt lat="62.63328339274" lon="17.987300746222">
        <ele>86.4</ele>
        <time>2017-12-21T19:16:23Z</time>
      </trkpt>
      <trkpt lat="62.633260845429" lon="17.9872388878">
        <ele>86.6</ele>
        <time>2017-12-21T19:16:24Z</time>
      </trkpt>
      <trkpt lat="62.633235196815" lon="17.987159595026">
        <ele>86.6</ele>
        <time>2017-12-21T19:16:25Z</time>
      </trkpt>
      <trkpt lat="62.633209045287" lon="17.987043757168">
        <ele>86.6</ele>
        <time>2017-12-21T19:16:26Z</time>
      </trkpt>
      <trkpt lat="62.633186581795" lon="17.98691786103">
        <ele>86.6</ele>
        <time>2017-12-21T19:16:27Z</time>
      </trkpt>
      <trkpt lat="62.633178786628" lon="17.986826163044">
        <ele>85.6</ele>
        <time>2017-12-21T19:16:28Z</time>
      </trkpt>
      <trkpt lat="62.633165040312" lon="17.986702781476">
        <ele>84.8</ele>
        <time>2017-12-21T19:16:29Z</time>
      </trkpt>
      <trkpt lat="62.633157915697" lon="17.986589374369">
        <ele>84.2</ele>
        <time>2017-12-21T19:16:30Z</time>
      </trkpt>
      <trkpt lat="62.633144504657" lon="17.986458449091">
        <ele>83.6</ele>
        <time>2017-12-21T19:16:31Z</time>
      </trkpt>
      <trkpt lat="62.633135619843" lon="17.986341353948">
        <ele>83</ele>
        <time>2017-12-21T19:16:32Z</time>
      </trkpt>
      <trkpt lat="62.633123382269" lon="17.986225935185">
        <ele>82.2</ele>
        <time>2017-12-21T19:16:33Z</time>
      </trkpt>
      <trkpt lat="62.63312162207" lon="17.986089142577">
        <ele>81.8</ele>
        <time>2017-12-21T19:16:34Z</time>
      </trkpt>
      <trkpt lat="62.633125226287" lon="17.985951847055">
        <ele>81.6</ele>
        <time>2017-12-21T19:16:35Z</time>
      </trkpt>
      <trkpt lat="62.633129417237" lon="17.985836344473">
        <ele>81.2</ele>
        <time>2017-12-21T19:16:36Z</time>
      </trkpt>
      <trkpt lat="62.633133943463" lon="17.985693433078">
        <ele>80.8</ele>
        <time>2017-12-21T19:16:37Z</time>
      </trkpt>
      <trkpt lat="62.633139140241" lon="17.985571644071">
        <ele>80.2</ele>
        <time>2017-12-21T19:16:38Z</time>
      </trkpt>
      <trkpt lat="62.633145007571" lon="17.98544097025">
        <ele>79.8</ele>
        <time>2017-12-21T19:16:39Z</time>
      </trkpt>
      <trkpt lat="62.633154143842" lon="17.985321779632">
        <ele>79.6</ele>
        <time>2017-12-21T19:16:40Z</time>
      </trkpt>
      <trkpt lat="62.633168979805" lon="17.985168474681">
        <ele>79.4</ele>
        <time>2017-12-21T19:16:41Z</time>
      </trkpt>
      <trkpt lat="62.633185743605" lon="17.985005446726">
        <ele>79.2</ele>
        <time>2017-12-21T19:16:42Z</time>
      </trkpt>
      <trkpt lat="62.633203261776" lon="17.984840407115">
        <ele>78.6</ele>
        <time>2017-12-21T19:16:43Z</time>
      </trkpt>
      <trkpt lat="62.633231676417" lon="17.984706045258">
        <ele>78.2</ele>
        <time>2017-12-21T19:16:44Z</time>
      </trkpt>
      <trkpt lat="62.633257576488" lon="17.984570174659">
        <ele>77.8</ele>
        <time>2017-12-21T19:16:45Z</time>
      </trkpt>
      <trkpt lat="62.633287835147" lon="17.984458695389">
        <ele>77.4</ele>
        <time>2017-12-21T19:16:46Z</time>
      </trkpt>
      <trkpt lat="62.633315746874" lon="17.984339085676">
        <ele>77</ele>
        <time>2017-12-21T19:16:47Z</time>
      </trkpt>
      <trkpt lat="62.633329241733" lon="17.98423565303">
        <ele>76.8</ele>
        <time>2017-12-21T19:16:48Z</time>
      </trkpt>
      <trkpt lat="62.633345670257" lon="17.984112187643">
        <ele>76.8</ele>
        <time>2017-12-21T19:16:49Z</time>
      </trkpt>
      <trkpt lat="62.633360003306" lon="17.984001043649">
        <ele>76.6</ele>
        <time>2017-12-21T19:16:50Z</time>
      </trkpt>
      <trkpt lat="62.633368636663" lon="17.983896605175">
        <ele>76.6</ele>
        <time>2017-12-21T19:16:51Z</time>
      </trkpt>
      <trkpt lat="62.633382131522" lon="17.983800380963">
        <ele>76.6</ele>
        <time>2017-12-21T19:16:52Z</time>
      </trkpt>
      <trkpt lat="62.633392776535" lon="17.983717819248">
        <ele>76.8</ele>
        <time>2017-12-21T19:16:53Z</time>
      </trkpt>
      <trkpt lat="62.633411803448" lon="17.983623439054">
        <ele>77</ele>
        <time>2017-12-21T19:16:54Z</time>
      </trkpt>
      <trkpt lat="62.63343007599" lon="17.983530567602">
        <ele>77.4</ele>
        <time>2017-12-21T19:16:55Z</time>
      </trkpt>
      <trkpt lat="62.633435272768" lon="17.9834670328">
        <ele>77.8</ele>
        <time>2017-12-21T19:16:56Z</time>
      </trkpt>
      <trkpt lat="62.633447175066" lon="17.983391847157">
        <ele>78.2</ele>
        <time>2017-12-21T19:16:57Z</time>
      </trkpt>
      <trkpt lat="62.633454970233" lon="17.983319176084">
        <ele>78.6</ele>
        <time>2017-12-21T19:16:58Z</time>
      </trkpt>
      <trkpt lat="62.63347533825" lon="17.983224712071">
        <ele>78.8</ele>
        <time>2017-12-21T19:16:59Z</time>
      </trkpt>
      <trkpt lat="62.633481289399" lon="17.983150699894">
        <ele>78.8</ele>
        <time>2017-12-21T19:17:00Z</time>
      </trkpt>
      <trkpt lat="62.633485815625" lon="17.983075178975">
        <ele>79</ele>
        <time>2017-12-21T19:17:01Z</time>
      </trkpt>
      <trkpt lat="62.633504088167" lon="17.982992784898">
        <ele>79</ele>
        <time>2017-12-21T19:17:02Z</time>
      </trkpt>
      <trkpt lat="62.633513811171" lon="17.982927741354">
        <ele>78.8</ele>
        <time>2017-12-21T19:17:03Z</time>
      </trkpt>
      <trkpt lat="62.633532418989" lon="17.982837635929">
        <ele>78.8</ele>
        <time>2017-12-21T19:17:04Z</time>
      </trkpt>
      <trkpt lat="62.633549601884" lon="17.98276462958">
        <ele>78.8</ele>
        <time>2017-12-21T19:17:05Z</time>
      </trkpt>
      <trkpt lat="62.633557648508" lon="17.982719786415">
        <ele>78.8</ele>
        <time>2017-12-21T19:17:06Z</time>
      </trkpt>
      <trkpt lat="62.633575669593" lon="17.982636554148">
        <ele>78.4</ele>
        <time>2017-12-21T19:17:07Z</time>
      </trkpt>
      <trkpt lat="62.633576675421" lon="17.982557764288">
        <ele>78.4</ele>
        <time>2017-12-21T19:17:08Z</time>
      </trkpt>
      <trkpt lat="62.633589751185" lon="17.982474532021">
        <ele>78.6</ele>
        <time>2017-12-21T19:17:09Z</time>
      </trkpt>
      <trkpt lat="62.63359939037" lon="17.982405548984">
        <ele>78.6</ele>
        <time>2017-12-21T19:17:10Z</time>
      </trkpt>
      <trkpt lat="62.633602072578" lon="17.982336230671">
        <ele>78.6</ele>
        <time>2017-12-21T19:17:11Z</time>
      </trkpt>
      <trkpt lat="62.633619255473" lon="17.982252746947">
        <ele>78.6</ele>
        <time>2017-12-21T19:17:12Z</time>
      </trkpt>
      <trkpt lat="62.633626380088" lon="17.982189044507">
        <ele>78.6</ele>
        <time>2017-12-21T19:17:13Z</time>
      </trkpt>
      <trkpt lat="62.633638366205" lon="17.982103968222">
        <ele>78.6</ele>
        <time>2017-12-21T19:17:14Z</time>
      </trkpt>
      <trkpt lat="62.633647753933" lon="17.982037332117">
        <ele>78.6</ele>
        <time>2017-12-21T19:17:15Z</time>
      </trkpt>
      <trkpt lat="62.633653788901" lon="17.981972707668">
        <ele>78.8</ele>
        <time>2017-12-21T19:17:16Z</time>
      </trkpt>
      <trkpt lat="62.633664853009" lon="17.981889475401">
        <ele>79</ele>
        <time>2017-12-21T19:17:17Z</time>
      </trkpt>
      <trkpt lat="62.633664014819" lon="17.981838094354">
        <ele>79.2</ele>
        <time>2017-12-21T19:17:18Z</time>
      </trkpt>
      <trkpt lat="62.633675414203" lon="17.981770117145">
        <ele>79.2</ele>
        <time>2017-12-21T19:17:19Z</time>
      </trkpt>
      <trkpt lat="62.633683879922" lon="17.98170348104">
        <ele>79.4</ele>
        <time>2017-12-21T19:17:20Z</time>
      </trkpt>
      <trkpt lat="62.633690333985" lon="17.981632318709">
        <ele>79.2</ele>
        <time>2017-12-21T19:17:21Z</time>
      </trkpt>
      <trkpt lat="62.633682706456" lon="17.981540536904">
        <ele>79.2</ele>
        <time>2017-12-21T19:17:22Z</time>
      </trkpt>
      <trkpt lat="62.633687316501" lon="17.981483372346">
        <ele>79.2</ele>
        <time>2017-12-21T19:17:23Z</time>
      </trkpt>
      <trkpt lat="62.633701230455" lon="17.981405588314">
        <ele>79.2</ele>
        <time>2017-12-21T19:17:24Z</time>
      </trkpt>
      <trkpt lat="62.633704499396" lon="17.981350100136">
        <ele>79.2</ele>
        <time>2017-12-21T19:17:25Z</time>
      </trkpt>
      <trkpt lat="62.633718832445" lon="17.981280278909">
        <ele>79.4</ele>
        <time>2017-12-21T19:17:26Z</time>
      </trkpt>
      <trkpt lat="62.633733165494" lon="17.981214061899">
        <ele>79.4</ele>
        <time>2017-12-21T19:17:27Z</time>
      </trkpt>
      <trkpt lat="62.633749761656" lon="17.981151532925">
        <ele>79.4</ele>
        <time>2017-12-21T19:17:28Z</time>
      </trkpt>
      <trkpt lat="62.633763424153" lon="17.9810949551">
        <ele>79.4</ele>
        <time>2017-12-21T19:17:29Z</time>
      </trkpt>
      <trkpt lat="62.633769710578" lon="17.981057739464">
        <ele>79.4</ele>
        <time>2017-12-21T19:17:30Z</time>
      </trkpt>
      <trkpt lat="62.633791922613" lon="17.98100359239">
        <ele>79.4</ele>
        <time>2017-12-21T19:17:31Z</time>
      </trkpt>
      <trkpt lat="62.633814553743" lon="17.980974171921">
        <ele>79.6</ele>
        <time>2017-12-21T19:17:32Z</time>
      </trkpt>
      <trkpt lat="62.633825366394" lon="17.980934441715">
        <ele>79.6</ele>
        <time>2017-12-21T19:17:33Z</time>
      </trkpt>
      <trkpt lat="62.633845399135" lon="17.980889347093">
        <ele>79.6</ele>
        <time>2017-12-21T19:17:34Z</time>
      </trkpt>
      <trkpt lat="62.633860570374" lon="17.980849197792">
        <ele>79.8</ele>
        <time>2017-12-21T19:17:35Z</time>
      </trkpt>
      <trkpt lat="62.6338818604" lon="17.980814664364">
        <ele>79.8</ele>
        <time>2017-12-21T19:17:36Z</time>
      </trkpt>
      <trkpt lat="62.633899378571" lon="17.980769066828">
        <ele>79.8</ele>
        <time>2017-12-21T19:17:37Z</time>
      </trkpt>
      <trkpt lat="62.633914968905" lon="17.980734114305">
        <ele>80</ele>
        <time>2017-12-21T19:17:38Z</time>
      </trkpt>
      <trkpt lat="62.633934163456" lon="17.980696898669">
        <ele>80</ele>
        <time>2017-12-21T19:17:39Z</time>
      </trkpt>
      <trkpt lat="62.633944473193" lon="17.980641829586">
        <ele>80</ele>
        <time>2017-12-21T19:17:40Z</time>
      </trkpt>
      <trkpt lat="62.63396484121" lon="17.980581396087">
        <ele>80</ele>
        <time>2017-12-21T19:17:41Z</time>
      </trkpt>
      <trkpt lat="62.633966349952" lon="17.980521130226">
        <ele>80.2</ele>
        <time>2017-12-21T19:17:42Z</time>
      </trkpt>
      <trkpt lat="62.633986717969" lon="17.980456338139">
        <ele>80.2</ele>
        <time>2017-12-21T19:17:43Z</time>
      </trkpt>
      <trkpt lat="62.63400842709" lon="17.980400766142">
        <ele>80.2</ele>
        <time>2017-12-21T19:17:44Z</time>
      </trkpt>
      <trkpt lat="62.634028459831" lon="17.980346702887">
        <ele>80.2</ele>
        <time>2017-12-21T19:17:45Z</time>
      </trkpt>
      <trkpt lat="62.63405704211" lon="17.980298842238">
        <ele>80.2</ele>
        <time>2017-12-21T19:17:46Z</time>
      </trkpt>
      <trkpt lat="62.634079170326" lon="17.980263889715">
        <ele>80.2</ele>
        <time>2017-12-21T19:17:47Z</time>
      </trkpt>
      <trkpt lat="62.634106327682" lon="17.980209407365">
        <ele>80.2</ele>
        <time>2017-12-21T19:17:48Z</time>
      </trkpt>
      <trkpt lat="62.634139352368" lon="17.980152494264">
        <ele>80.2</ele>
        <time>2017-12-21T19:17:49Z</time>
      </trkpt>
      <trkpt lat="62.634163827516" lon="17.980109076022">
        <ele>80.2</ele>
        <time>2017-12-21T19:17:50Z</time>
      </trkpt>
      <trkpt lat="62.634184111714" lon="17.980058616984">
        <ele>80.2</ele>
        <time>2017-12-21T19:17:51Z</time>
      </trkpt>
      <trkpt lat="62.634201965161" lon="17.980007152118">
        <ele>80.4</ele>
        <time>2017-12-21T19:17:52Z</time>
      </trkpt>
      <trkpt lat="62.634235492761" lon="17.979940180737">
        <ele>80.4</ele>
        <time>2017-12-21T19:17:53Z</time>
      </trkpt>
      <trkpt lat="62.634257201882" lon="17.979903216558">
        <ele>80.4</ele>
        <time>2017-12-21T19:17:54Z</time>
      </trkpt>
      <trkpt lat="62.634273043673" lon="17.979827528001">
        <ele>80.4</ele>
        <time>2017-12-21T19:17:55Z</time>
      </trkpt>
      <trkpt lat="62.634290310387" lon="17.979754354014">
        <ele>80.4</ele>
        <time>2017-12-21T19:17:56Z</time>
      </trkpt>
      <trkpt lat="62.634304559617" lon="17.979678246362">
        <ele>80.4</ele>
        <time>2017-12-21T19:17:57Z</time>
      </trkpt>
      <trkpt lat="62.634324508539" lon="17.979589482041">
        <ele>80.4</ele>
        <time>2017-12-21T19:17:58Z</time>
      </trkpt>
      <trkpt lat="62.634330459688" lon="17.979521504832">
        <ele>80.2</ele>
        <time>2017-12-21T19:17:59Z</time>
      </trkpt>
      <trkpt lat="62.634342697262" lon="17.979448833759">
        <ele>80</ele>
        <time>2017-12-21T19:18:00Z</time>
      </trkpt>
      <trkpt lat="62.634349402782" lon="17.979381946197">
        <ele>80.2</ele>
        <time>2017-12-21T19:18:01Z</time>
      </trkpt>
      <trkpt lat="62.634355773026" lon="17.979316735015">
        <ele>80.2</ele>
        <time>2017-12-21T19:18:02Z</time>
      </trkpt>
      <trkpt lat="62.63437136336" lon="17.979242974295">
        <ele>80.2</ele>
        <time>2017-12-21T19:18:03Z</time>
      </trkpt>
      <trkpt lat="62.634385025857" lon="17.979179858588">
        <ele>80.4</ele>
        <time>2017-12-21T19:18:04Z</time>
      </trkpt>
      <trkpt lat="62.634396006146" lon="17.979115820872">
        <ele>80.4</ele>
        <time>2017-12-21T19:18:05Z</time>
      </trkpt>
      <trkpt lat="62.634407824625" lon="17.979057566667">
        <ele>80.4</ele>
        <time>2017-12-21T19:18:06Z</time>
      </trkpt>
      <trkpt lat="62.634426264805" lon="17.97898187811">
        <ele>80.6</ele>
        <time>2017-12-21T19:18:07Z</time>
      </trkpt>
      <trkpt lat="62.634443866795" lon="17.978912140702">
        <ele>80.6</ele>
        <time>2017-12-21T19:18:08Z</time>
      </trkpt>
      <trkpt lat="62.634475131282" lon="17.978813653377">
        <ele>80.4</ele>
        <time>2017-12-21T19:18:10Z</time>
      </trkpt>
      <trkpt lat="62.634503126828" lon="17.978780293415">
        <ele>80.4</ele>
        <time>2017-12-21T19:18:11Z</time>
      </trkpt>
      <trkpt lat="62.63452559032" lon="17.978759003389">
        <ele>80.4</ele>
        <time>2017-12-21T19:18:12Z</time>
      </trkpt>
      <trkpt lat="62.634557944454" lon="17.978734695879">
        <ele>79.8</ele>
        <time>2017-12-21T19:18:13Z</time>
      </trkpt>
      <trkpt lat="62.634588622208" lon="17.978732265128">
        <ele>79.8</ele>
        <time>2017-12-21T19:18:14Z</time>
      </trkpt>
      <trkpt lat="62.634617875039" lon="17.978741904313">
        <ele>79.8</ele>
        <time>2017-12-21T19:18:15Z</time>
      </trkpt>
      <trkpt lat="62.634648888069" lon="17.978762104692">
        <ele>80</ele>
        <time>2017-12-21T19:18:16Z</time>
      </trkpt>
      <trkpt lat="62.634686606619" lon="17.978780544872">
        <ele>80</ele>
        <time>2017-12-21T19:18:17Z</time>
      </trkpt>
      <trkpt lat="62.634714685984" lon="17.978796973396">
        <ele>80</ele>
        <time>2017-12-21T19:18:18Z</time>
      </trkpt>
      <trkpt lat="62.63475860714" lon="17.978820777992">
        <ele>80.4</ele>
        <time>2017-12-21T19:18:19Z</time>
      </trkpt>
      <trkpt lat="62.634806048694" lon="17.978840391638">
        <ele>80.2</ele>
        <time>2017-12-21T19:18:20Z</time>
      </trkpt>
      <trkpt lat="62.634841085036" lon="17.978855143782">
        <ele>80</ele>
        <time>2017-12-21T19:18:21Z</time>
      </trkpt>
      <trkpt lat="62.634883581269" lon="17.978870566478">
        <ele>79.8</ele>
        <time>2017-12-21T19:18:22Z</time>
      </trkpt>
      <trkpt lat="62.634917108869" lon="17.978895041626">
        <ele>79.8</ele>
        <time>2017-12-21T19:18:23Z</time>
      </trkpt>
      <trkpt lat="62.634936973972" lon="17.978899819309">
        <ele>79.6</ele>
        <time>2017-12-21T19:18:24Z</time>
      </trkpt>
      <trkpt lat="62.634981733318" lon="17.97891985205">
        <ele>79.6</ele>
        <time>2017-12-21T19:18:25Z</time>
      </trkpt>
      <trkpt lat="62.635010567054" lon="17.978928820683">
        <ele>79.4</ele>
        <time>2017-12-21T19:18:26Z</time>
      </trkpt>
      <trkpt lat="62.635046273948" lon="17.978943740465">
        <ele>79.4</ele>
        <time>2017-12-21T19:18:27Z</time>
      </trkpt>
      <trkpt lat="62.635082567575" lon="17.978955642763">
        <ele>79.2</ele>
        <time>2017-12-21T19:18:28Z</time>
      </trkpt>
      <trkpt lat="62.635119950849" lon="17.978968215613">
        <ele>79.2</ele>
        <time>2017-12-21T19:18:29Z</time>
      </trkpt>
      <trkpt lat="62.635141743789" lon="17.978974250581">
        <ele>79.2</ele>
        <time>2017-12-21T19:18:30Z</time>
      </trkpt>
      <trkpt lat="62.635193963026" lon="17.978986488155">
        <ele>79</ele>
        <time>2017-12-21T19:18:31Z</time>
      </trkpt>
      <trkpt lat="62.635236962173" lon="17.978994618598">
        <ele>78.8</ele>
        <time>2017-12-21T19:18:32Z</time>
      </trkpt>
      <trkpt lat="62.635274680723" lon="17.978998055177">
        <ele>78.6</ele>
        <time>2017-12-21T19:18:33Z</time>
      </trkpt>
      <trkpt lat="62.635314830024" lon="17.979002078489">
        <ele>78.4</ele>
        <time>2017-12-21T19:18:34Z</time>
      </trkpt>
      <trkpt lat="62.635354644049" lon="17.979004173964">
        <ele>78.2</ele>
        <time>2017-12-21T19:18:35Z</time>
      </trkpt>
      <trkpt lat="62.635391105314" lon="17.978997552263">
        <ele>78.2</ele>
        <time>2017-12-21T19:18:36Z</time>
      </trkpt>
      <trkpt lat="62.6354408938" lon="17.978992020209">
        <ele>78</ele>
        <time>2017-12-21T19:18:37Z</time>
      </trkpt>
      <trkpt lat="62.635483138576" lon="17.978992439304">
        <ele>77.8</ele>
        <time>2017-12-21T19:18:38Z</time>
      </trkpt>
      <trkpt lat="62.635523204058" lon="17.978979950273">
        <ele>77.8</ele>
        <time>2017-12-21T19:18:39Z</time>
      </trkpt>
      <trkpt lat="62.635565365015" lon="17.978977100427">
        <ele>77.6</ele>
        <time>2017-12-21T19:18:40Z</time>
      </trkpt>
      <trkpt lat="62.635612052198" lon="17.978969472898">
        <ele>77.2</ele>
        <time>2017-12-21T19:18:41Z</time>
      </trkpt>
      <trkpt lat="62.63565463225" lon="17.978969053803">
        <ele>76.8</ele>
        <time>2017-12-21T19:18:42Z</time>
      </trkpt>
      <trkpt lat="62.635701487071" lon="17.978969472898">
        <ele>76.4</ele>
        <time>2017-12-21T19:18:43Z</time>
      </trkpt>
      <trkpt lat="62.635745324408" lon="17.978964192301">
        <ele>76</ele>
        <time>2017-12-21T19:18:44Z</time>
      </trkpt>
      <trkpt lat="62.635789664659" lon="17.978971484554">
        <ele>75.8</ele>
        <time>2017-12-21T19:18:45Z</time>
      </trkpt>
      <trkpt lat="62.635827969942" lon="17.9789827163">
        <ele>75.6</ele>
        <time>2017-12-21T19:18:46Z</time>
      </trkpt>
      <trkpt lat="62.635863676836" lon="17.978987996897">
        <ele>75.6</ele>
        <time>2017-12-21T19:18:47Z</time>
      </trkpt>
      <trkpt lat="62.635891923839" lon="17.97900283286">
        <ele>75.8</ele>
        <time>2017-12-21T19:18:48Z</time>
      </trkpt>
      <trkpt lat="62.63591950029" lon="17.979019848117">
        <ele>75.8</ele>
        <time>2017-12-21T19:18:49Z</time>
      </trkpt>
      <trkpt lat="62.635937689013" lon="17.979023284696">
        <ele>76</ele>
        <time>2017-12-21T19:18:50Z</time>
      </trkpt>
      <trkpt lat="62.635955123365" lon="17.979027056551">
        <ele>76.2</ele>
        <time>2017-12-21T19:18:51Z</time>
      </trkpt>
      <trkpt lat="62.635977922133" lon="17.979037869202">
        <ele>76.2</ele>
        <time>2017-12-21T19:18:52Z</time>
      </trkpt>
      <trkpt lat="62.635995021209" lon="17.979048346577">
        <ele>76.4</ele>
        <time>2017-12-21T19:18:53Z</time>
      </trkpt>
      <trkpt lat="62.636012623199" lon="17.979058823952">
        <ele>76.4</ele>
        <time>2017-12-21T19:18:54Z</time>
      </trkpt>
      <trkpt lat="62.636022346203" lon="17.979090423715">
        <ele>76.6</ele>
        <time>2017-12-21T19:18:55Z</time>
      </trkpt>
      <trkpt lat="62.636025531325" lon="17.979132081758">
        <ele>76.4</ele>
        <time>2017-12-21T19:18:56Z</time>
      </trkpt>
      <trkpt lat="62.636019831633" lon="17.979180612959">
        <ele>76.6</ele>
        <time>2017-12-21T19:18:57Z</time>
      </trkpt>
      <trkpt lat="62.636010779181" lon="17.979214727292">
        <ele>76.6</ele>
        <time>2017-12-21T19:18:58Z</time>
      </trkpt>
      <trkpt lat="62.636002229643" lon="17.979260492466">
        <ele>76.2</ele>
        <time>2017-12-21T19:19:00Z</time>
      </trkpt>
      <trkpt lat="62.63599745196" lon="17.979296702274">
        <ele>76.2</ele>
        <time>2017-12-21T19:19:01Z</time>
      </trkpt>
      <trkpt lat="62.635994434476" lon="17.979333666453">
        <ele>76.2</ele>
        <time>2017-12-21T19:19:02Z</time>
      </trkpt>
      <trkpt lat="62.63599158463" lon="17.979367026415">
        <ele>76.2</ele>
        <time>2017-12-21T19:19:03Z</time>
      </trkpt>
      <trkpt lat="62.635987226042" lon="17.979459562591">
        <ele>76.2</ele>
        <time>2017-12-21T19:19:04Z</time>
      </trkpt>
      <trkpt lat="62.635996194675" lon="17.979567102368">
        <ele>76.2</ele>
        <time>2017-12-21T19:19:05Z</time>
      </trkpt>
      <trkpt lat="62.635996027037" lon="17.979672043756">
        <ele>76</ele>
        <time>2017-12-21T19:19:06Z</time>
      </trkpt>
      <trkpt lat="62.635996949046" lon="17.979843705068">
        <ele>76</ele>
        <time>2017-12-21T19:19:07Z</time>
      </trkpt>
      <trkpt lat="62.636003906023" lon="17.979995668915">
        <ele>75</ele>
        <time>2017-12-21T19:19:08Z</time>
      </trkpt>
      <trkpt lat="62.636020753642" lon="17.980164396562">
        <ele>74.2</ele>
        <time>2017-12-21T19:19:09Z</time>
      </trkpt>
      <trkpt lat="62.636039948193" lon="17.980273109805">
        <ele>73.6</ele>
        <time>2017-12-21T19:19:10Z</time>
      </trkpt>
      <trkpt lat="62.636069703938" lon="17.980475197414">
        <ele>72</ele>
        <time>2017-12-21T19:19:11Z</time>
      </trkpt>
      <trkpt lat="62.636091161602" lon="17.980595310041">
        <ele>71.2</ele>
        <time>2017-12-21T19:19:12Z</time>
      </trkpt>
      <trkpt lat="62.636121420261" lon="17.980783483696">
        <ele>70.2</ele>
        <time>2017-12-21T19:19:13Z</time>
      </trkpt>
      <trkpt lat="62.636147823246" lon="17.980911056214">
        <ele>70</ele>
        <time>2017-12-21T19:19:14Z</time>
      </trkpt>
      <trkpt lat="62.636168358901" lon="17.981075341454">
        <ele>69.6</ele>
        <time>2017-12-21T19:19:15Z</time>
      </trkpt>
      <trkpt lat="62.63618436833" lon="17.981206853465">
        <ele>69.4</ele>
        <time>2017-12-21T19:19:16Z</time>
      </trkpt>
      <trkpt lat="62.63619861756" lon="17.981346915014">
        <ele>69.2</ele>
        <time>2017-12-21T19:19:17Z</time>
      </trkpt>
      <trkpt lat="62.63621454317" lon="17.981477924111">
        <ele>69</ele>
        <time>2017-12-21T19:19:18Z</time>
      </trkpt>
      <trkpt lat="62.636232480436" lon="17.981629385044">
        <ele>68.8</ele>
        <time>2017-12-21T19:19:19Z</time>
      </trkpt>
      <trkpt lat="62.63624387982" lon="17.981766848204">
        <ele>68.6</ele>
        <time>2017-12-21T19:19:20Z</time>
      </trkpt>
      <trkpt lat="62.636246981123" lon="17.981869107384">
        <ele>68.4</ele>
        <time>2017-12-21T19:19:21Z</time>
      </trkpt>
      <trkpt lat="62.636257458498" lon="17.981959548085">
        <ele>68.2</ele>
        <time>2017-12-21T19:19:22Z</time>
      </trkpt>
      <trkpt lat="62.636265840398" lon="17.982042864171">
        <ele>68</ele>
        <time>2017-12-21T19:19:23Z</time>
      </trkpt>
      <trkpt lat="62.636262571457" lon="17.982128275732">
        <ele>68</ele>
        <time>2017-12-21T19:19:24Z</time>
      </trkpt>
      <trkpt lat="62.636261900905" lon="17.982228858532">
        <ele>68</ele>
        <time>2017-12-21T19:19:25Z</time>
      </trkpt>
      <trkpt lat="62.636256620308" lon="17.982340170164">
        <ele>68</ele>
        <time>2017-12-21T19:19:26Z</time>
      </trkpt>
      <trkpt lat="62.636252345539" lon="17.982446871751">
        <ele>68</ele>
        <time>2017-12-21T19:19:27Z</time>
      </trkpt>
      <trkpt lat="62.636243125449" lon="17.982560027401">
        <ele>68</ele>
        <time>2017-12-21T19:19:28Z</time>
      </trkpt>
      <trkpt lat="62.636246310571" lon="17.982637643795">
        <ele>68</ele>
        <time>2017-12-21T19:19:29Z</time>
      </trkpt>
      <trkpt lat="62.636246897304" lon="17.982705453366">
        <ele>68</ele>
        <time>2017-12-21T19:19:30Z</time>
      </trkpt>
      <trkpt lat="62.636250250064" lon="17.982784410864">
        <ele>68.4</ele>
        <time>2017-12-21T19:19:31Z</time>
      </trkpt>
      <trkpt lat="62.636255949756" lon="17.982875103022">
        <ele>68.8</ele>
        <time>2017-12-21T19:19:32Z</time>
      </trkpt>
      <trkpt lat="62.63625477629" lon="17.982962945334">
        <ele>69</ele>
        <time>2017-12-21T19:19:33Z</time>
      </trkpt>
      <trkpt lat="62.636266846226" lon="17.983048692171">
        <ele>69.2</ele>
        <time>2017-12-21T19:19:34Z</time>
      </trkpt>
      <trkpt lat="62.636266594769" lon="17.983143826736">
        <ele>69.4</ele>
        <time>2017-12-21T19:19:35Z</time>
      </trkpt>
      <trkpt lat="62.636252429358" lon="17.983228567745">
        <ele>69.6</ele>
        <time>2017-12-21T19:19:36Z</time>
      </trkpt>
      <trkpt lat="62.63626064362" lon="17.983314901315">
        <ele>69.8</ele>
        <time>2017-12-21T19:19:37Z</time>
      </trkpt>
      <trkpt lat="62.636255446842" lon="17.983402073075">
        <ele>69.8</ele>
        <time>2017-12-21T19:19:38Z</time>
      </trkpt>
      <trkpt lat="62.636244885648" lon="17.983472481035">
        <ele>69.8</ele>
        <time>2017-12-21T19:19:39Z</time>
      </trkpt>
      <trkpt lat="62.636243628363" lon="17.983520425503">
        <ele>69.8</ele>
        <time>2017-12-21T19:19:40Z</time>
      </trkpt>
      <trkpt lat="62.636231893703" lon="17.983582870658">
        <ele>70</ele>
        <time>2017-12-21T19:19:41Z</time>
      </trkpt>
      <trkpt lat="62.636223260346" lon="17.983647998021">
        <ele>70</ele>
        <time>2017-12-21T19:19:42Z</time>
      </trkpt>
      <trkpt lat="62.636213788799" lon="17.983714885583">
        <ele>70</ele>
        <time>2017-12-21T19:19:43Z</time>
      </trkpt>
      <trkpt lat="62.636202724691" lon="17.98378638319">
        <ele>70.2</ele>
        <time>2017-12-21T19:19:44Z</time>
      </trkpt>
      <trkpt lat="62.636204233433" lon="17.983832316002">
        <ele>70.4</ele>
        <time>2017-12-21T19:19:45Z</time>
      </trkpt>
      <trkpt lat="62.636194175153" lon="17.983892665682">
        <ele>70.6</ele>
        <time>2017-12-21T19:19:46Z</time>
      </trkpt>
      <trkpt lat="62.636192163497" lon="17.983956451941">
        <ele>70.6</ele>
        <time>2017-12-21T19:19:47Z</time>
      </trkpt>
      <trkpt lat="62.636186715262" lon="17.984010515196">
        <ele>70.8</ele>
        <time>2017-12-21T19:19:48Z</time>
      </trkpt>
      <trkpt lat="62.636181518484" lon="17.984071954523">
        <ele>71</ele>
        <time>2017-12-21T19:19:49Z</time>
      </trkpt>
      <trkpt lat="62.636178668638" lon="17.984128448529">
        <ele>71</ele>
        <time>2017-12-21T19:19:50Z</time>
      </trkpt>
      <trkpt lat="62.636173136584" lon="17.984180667766">
        <ele>71</ele>
        <time>2017-12-21T19:19:51Z</time>
      </trkpt>
      <trkpt lat="62.636161904838" lon="17.984229869519">
        <ele>71.2</ele>
        <time>2017-12-21T19:19:52Z</time>
      </trkpt>
      <trkpt lat="62.636156791879" lon="17.984279574186">
        <ele>71.2</ele>
        <time>2017-12-21T19:19:53Z</time>
      </trkpt>
      <trkpt lat="62.636148912893" lon="17.984341935522">
        <ele>71.4</ele>
        <time>2017-12-21T19:19:54Z</time>
      </trkpt>
      <trkpt lat="62.636146733599" lon="17.984390550542">
        <ele>71.4</ele>
        <time>2017-12-21T19:19:55Z</time>
      </trkpt>
      <trkpt lat="62.636143632296" lon="17.984462467244">
        <ele>71.2</ele>
        <time>2017-12-21T19:19:56Z</time>
      </trkpt>
      <trkpt lat="62.636152684748" lon="17.984528935711">
        <ele>71.4</ele>
        <time>2017-12-21T19:19:57Z</time>
      </trkpt>
      <trkpt lat="62.636147571789" lon="17.984579478568">
        <ele>71.4</ele>
        <time>2017-12-21T19:19:58Z</time>
      </trkpt>
      <trkpt lat="62.636145643952" lon="17.984650640899">
        <ele>71.4</ele>
        <time>2017-12-21T19:19:59Z</time>
      </trkpt>
      <trkpt lat="62.636149499626" lon="17.984692885675">
        <ele>71.6</ele>
        <time>2017-12-21T19:20:00Z</time>
      </trkpt>
      <trkpt lat="62.636143799934" lon="17.984759437961">
        <ele>71.6</ele>
        <time>2017-12-21T19:20:01Z</time>
      </trkpt>
      <trkpt lat="62.636135920948" lon="17.984809142628">
        <ele>71.8</ele>
        <time>2017-12-21T19:20:02Z</time>
      </trkpt>
      <trkpt lat="62.636134412206" lon="17.984869240851">
        <ele>71.8</ele>
        <time>2017-12-21T19:20:03Z</time>
      </trkpt>
      <trkpt lat="62.636122174632" lon="17.984928584703">
        <ele>72</ele>
        <time>2017-12-21T19:20:04Z</time>
      </trkpt>
      <trkpt lat="62.636124437745" lon="17.984975104248">
        <ele>72.2</ele>
        <time>2017-12-21T19:20:05Z</time>
      </trkpt>
      <trkpt lat="62.636117396949" lon="17.985033777548">
        <ele>72.2</ele>
        <time>2017-12-21T19:20:06Z</time>
      </trkpt>
      <trkpt lat="62.636114295646" lon="17.98508893045">
        <ele>72.4</ele>
        <time>2017-12-21T19:20:07Z</time>
      </trkpt>
      <trkpt lat="62.636109098868" lon="17.985151291786">
        <ele>72.4</ele>
        <time>2017-12-21T19:20:08Z</time>
      </trkpt>
      <trkpt lat="62.636105662289" lon="17.985208456344">
        <ele>72.6</ele>
        <time>2017-12-21T19:20:09Z</time>
      </trkpt>
      <trkpt lat="62.636105410832" lon="17.985253299509">
        <ele>72.6</ele>
        <time>2017-12-21T19:20:10Z</time>
      </trkpt>
      <trkpt lat="62.636103482995" lon="17.985312308085">
        <ele>72.6</ele>
        <time>2017-12-21T19:20:11Z</time>
      </trkpt>
      <trkpt lat="62.63610222571" lon="17.98535547487">
        <ele>72.8</ele>
        <time>2017-12-21T19:20:12Z</time>
      </trkpt>
      <trkpt lat="62.636096609837" lon="17.985422613889">
        <ele>72.8</ele>
        <time>2017-12-21T19:20:13Z</time>
      </trkpt>
      <trkpt lat="62.636088060299" lon="17.985471815642">
        <ele>73</ele>
        <time>2017-12-21T19:20:14Z</time>
      </trkpt>
      <trkpt lat="62.636077666743" lon="17.985541888326">
        <ele>73</ele>
        <time>2017-12-21T19:20:15Z</time>
      </trkpt>
      <trkpt lat="62.636072134689" lon="17.985594442839">
        <ele>73</ele>
        <time>2017-12-21T19:20:16Z</time>
      </trkpt>
      <trkpt lat="62.636060483848" lon="17.98564381223">
        <ele>73.2</ele>
        <time>2017-12-21T19:20:17Z</time>
      </trkpt>
      <trkpt lat="62.636045899342" lon="17.985685805549">
        <ele>73.2</ele>
        <time>2017-12-21T19:20:18Z</time>
      </trkpt>
      <trkpt lat="62.636037517442" lon="17.985718830235">
        <ele>73.2</ele>
        <time>2017-12-21T19:20:19Z</time>
      </trkpt>
      <trkpt lat="62.636019412538" lon="17.985766104151">
        <ele>73.2</ele>
        <time>2017-12-21T19:20:20Z</time>
      </trkpt>
      <trkpt lat="62.636008935163" lon="17.9858055829">
        <ele>73.2</ele>
        <time>2017-12-21T19:20:21Z</time>
      </trkpt>
      <trkpt lat="62.635994350657" lon="17.985831902066">
        <ele>73.2</ele>
        <time>2017-12-21T19:20:22Z</time>
      </trkpt>
      <trkpt lat="62.635981693988" lon="17.985868698607">
        <ele>73.4</ele>
        <time>2017-12-21T19:20:23Z</time>
      </trkpt>
      <trkpt lat="62.635965684559" lon="17.985885630045">
        <ele>73.6</ele>
        <time>2017-12-21T19:20:24Z</time>
      </trkpt>
      <trkpt lat="62.635939449212" lon="17.985908261175">
        <ele>73.6</ele>
        <time>2017-12-21T19:20:25Z</time>
      </trkpt>
      <trkpt lat="62.635915057883" lon="17.985931981952">
        <ele>73.8</ele>
        <time>2017-12-21T19:20:26Z</time>
      </trkpt>
      <trkpt lat="62.635897120617" lon="17.985958720213">
        <ele>74</ele>
        <time>2017-12-21T19:20:27Z</time>
      </trkpt>
      <trkpt lat="62.635866359044" lon="17.985986045207">
        <ele>74.2</ele>
        <time>2017-12-21T19:20:28Z</time>
      </trkpt>
      <trkpt lat="62.635856133126" lon="17.98600339574">
        <ele>74.2</ele>
        <time>2017-12-21T19:20:29Z</time>
      </trkpt>
      <trkpt lat="62.635837106213" lon="17.986022171196">
        <ele>74.4</ele>
        <time>2017-12-21T19:20:30Z</time>
      </trkpt>
      <trkpt lat="62.635812798703" lon="17.986045975792">
        <ele>74.6</ele>
        <time>2017-12-21T19:20:31Z</time>
      </trkpt>
      <trkpt lat="62.635781366578" lon="17.986080425401">
        <ele>74.6</ele>
        <time>2017-12-21T19:20:32Z</time>
      </trkpt>
      <trkpt lat="62.635759573638" lon="17.986116970485">
        <ele>74.8</ele>
        <time>2017-12-21T19:20:33Z</time>
      </trkpt>
      <trkpt lat="62.635739373259" lon="17.986159634356">
        <ele>74.8</ele>
        <time>2017-12-21T19:20:34Z</time>
      </trkpt>
      <trkpt lat="62.635726213676" lon="17.986185953522">
        <ele>75</ele>
        <time>2017-12-21T19:20:35Z</time>
      </trkpt>
      <trkpt lat="62.635731578092" lon="17.986235993465">
        <ele>75</ele>
        <time>2017-12-21T19:20:36Z</time>
      </trkpt>
      <trkpt lat="62.635714898111" lon="17.986275220757">
        <ele>75</ele>
        <time>2017-12-21T19:20:37Z</time>
      </trkpt>
      <trkpt lat="62.635701738528" lon="17.986295588774">
        <ele>75.2</ele>
        <time>2017-12-21T19:20:38Z</time>
      </trkpt>
      <trkpt lat="62.635687489298" lon="17.986323081406">
        <ele>75.2</ele>
        <time>2017-12-21T19:20:39Z</time>
      </trkpt>
      <trkpt lat="62.635676592828" lon="17.986355184083">
        <ele>75.4</ele>
        <time>2017-12-21T19:20:40Z</time>
      </trkpt>
      <trkpt lat="62.635659409933" lon="17.986379072498">
        <ele>75.6</ele>
        <time>2017-12-21T19:20:41Z</time>
      </trkpt>
      <trkpt lat="62.635646417988" lon="17.986414360297">
        <ele>75.8</ele>
        <time>2017-12-21T19:20:42Z</time>
      </trkpt>
      <trkpt lat="62.635619763546" lon="17.986465908982">
        <ele>75.8</ele>
        <time>2017-12-21T19:20:43Z</time>
      </trkpt>
      <trkpt lat="62.635613225664" lon="17.98650630974">
        <ele>76</ele>
        <time>2017-12-21T19:20:44Z</time>
      </trkpt>
      <trkpt lat="62.635594617846" lon="17.986553416018">
        <ele>76.2</ele>
        <time>2017-12-21T19:20:45Z</time>
      </trkpt>
      <trkpt lat="62.635580955349" lon="17.986586273066">
        <ele>76.4</ele>
        <time>2017-12-21T19:20:46Z</time>
      </trkpt>
      <trkpt lat="62.63555907859" lon="17.986626925281">
        <ele>76.2</ele>
        <time>2017-12-21T19:20:47Z</time>
      </trkpt>
      <trkpt lat="62.635547092473" lon="17.986651148972">
        <ele>76.2</ele>
        <time>2017-12-21T19:20:48Z</time>
      </trkpt>
      <trkpt lat="62.635538040021" lon="17.9866856824">
        <ele>76.4</ele>
        <time>2017-12-21T19:20:49Z</time>
      </trkpt>
      <trkpt lat="62.635519935117" lon="17.986724658235">
        <ele>76.4</ele>
        <time>2017-12-21T19:20:50Z</time>
      </trkpt>
      <trkpt lat="62.635503171317" lon="17.98675357579">
        <ele>76.4</ele>
        <time>2017-12-21T19:20:51Z</time>
      </trkpt>
      <trkpt lat="62.635489257363" lon="17.986795150014">
        <ele>76.4</ele>
        <time>2017-12-21T19:20:52Z</time>
      </trkpt>
      <trkpt lat="62.635478360893" lon="17.986860109739">
        <ele>76.6</ele>
        <time>2017-12-21T19:20:53Z</time>
      </trkpt>
      <trkpt lat="62.63546184855" lon="17.986888440561">
        <ele>76.6</ele>
        <time>2017-12-21T19:20:54Z</time>
      </trkpt>
      <trkpt lat="62.635448018415" lon="17.986933367545">
        <ele>76.8</ele>
        <time>2017-12-21T19:20:55Z</time>
      </trkpt>
      <trkpt lat="62.63543167371" lon="17.986982150203">
        <ele>76.8</ele>
        <time>2017-12-21T19:20:56Z</time>
      </trkpt>
      <trkpt lat="62.635412982073" lon="17.987008888464">
        <ele>77</ele>
        <time>2017-12-21T19:20:57Z</time>
      </trkpt>
      <trkpt lat="62.635387836373" lon="17.987050714145">
        <ele>77.2</ele>
        <time>2017-12-21T19:20:58Z</time>
      </trkpt>
      <trkpt lat="62.635365791976" lon="17.98706957342">
        <ele>77.4</ele>
        <time>2017-12-21T19:20:59Z</time>
      </trkpt>
      <trkpt lat="62.635357158619" lon="17.987094802939">
        <ele>77.4</ele>
        <time>2017-12-21T19:21:00Z</time>
      </trkpt>
      <trkpt lat="62.635341065371" lon="17.987136460982">
        <ele>77.4</ele>
        <time>2017-12-21T19:21:01Z</time>
      </trkpt>
      <trkpt lat="62.635325307399" lon="17.987171245867">
        <ele>77.4</ele>
        <time>2017-12-21T19:21:02Z</time>
      </trkpt>
      <trkpt lat="62.63531013616" lon="17.987207288037">
        <ele>77.6</ele>
        <time>2017-12-21T19:21:03Z</time>
      </trkpt>
      <trkpt lat="62.635290438695" lon="17.98724559332">
        <ele>77.6</ele>
        <time>2017-12-21T19:21:04Z</time>
      </trkpt>
      <trkpt lat="62.635278117302" lon="17.987278869463">
        <ele>77.6</ele>
        <time>2017-12-21T19:21:05Z</time>
      </trkpt>
      <trkpt lat="62.635262024054" lon="17.987317258565">
        <ele>77.8</ele>
        <time>2017-12-21T19:21:06Z</time>
      </trkpt>
      <trkpt lat="62.635230256653" lon="17.987351121441">
        <ele>77.8</ele>
        <time>2017-12-21T19:21:07Z</time>
      </trkpt>
      <trkpt lat="62.63522128802" lon="17.987376937693">
        <ele>77.8</ele>
        <time>2017-12-21T19:21:08Z</time>
      </trkpt>
      <trkpt lat="62.635202931659" lon="17.987397138072">
        <ele>78.2</ele>
        <time>2017-12-21T19:21:09Z</time>
      </trkpt>
      <trkpt lat="62.635193711569" lon="17.987419853021">
        <ele>78.2</ele>
        <time>2017-12-21T19:21:10Z</time>
      </trkpt>
      <trkpt lat="62.635185413488" lon="17.987449357309">
        <ele>78.4</ele>
        <time>2017-12-21T19:21:11Z</time>
      </trkpt>
      <trkpt lat="62.635171499534" lon="17.98749118299">
        <ele>78.4</ele>
        <time>2017-12-21T19:21:12Z</time>
      </trkpt>
      <trkpt lat="62.63515507101" lon="17.987521525468">
        <ele>78.4</ele>
        <time>2017-12-21T19:21:13Z</time>
      </trkpt>
      <trkpt lat="62.635144258359" lon="17.987553292869">
        <ele>78.4</ele>
        <time>2017-12-21T19:21:14Z</time>
      </trkpt>
      <trkpt lat="62.635131853147" lon="17.987593861265">
        <ele>78.4</ele>
        <time>2017-12-21T19:21:15Z</time>
      </trkpt>
      <trkpt lat="62.635117101003" lon="17.987628143236">
        <ele>78.4</ele>
        <time>2017-12-21T19:21:16Z</time>
      </trkpt>
      <trkpt lat="62.635104276696" lon="17.987658569533">
        <ele>78.6</ele>
        <time>2017-12-21T19:21:17Z</time>
      </trkpt>
      <trkpt lat="62.635087680534" lon="17.98768480488">
        <ele>78.8</ele>
        <time>2017-12-21T19:21:18Z</time>
      </trkpt>
      <trkpt lat="62.63507125201" lon="17.987729564226">
        <ele>79</ele>
        <time>2017-12-21T19:21:19Z</time>
      </trkpt>
      <trkpt lat="62.635061026092" lon="17.987758062686">
        <ele>79</ele>
        <time>2017-12-21T19:21:20Z</time>
      </trkpt>
      <trkpt lat="62.635043256464" lon="17.987791003553">
        <ele>79.2</ele>
        <time>2017-12-21T19:21:21Z</time>
      </trkpt>
      <trkpt lat="62.635030599795" lon="17.987831739587">
        <ele>79.2</ele>
        <time>2017-12-21T19:21:22Z</time>
      </trkpt>
      <trkpt lat="62.6350134169" lon="17.987864931911">
        <ele>79.2</ele>
        <time>2017-12-21T19:21:23Z</time>
      </trkpt>
      <trkpt lat="62.635002939525" lon="17.987890412887">
        <ele>79.2</ele>
        <time>2017-12-21T19:21:24Z</time>
      </trkpt>
      <trkpt lat="62.634986259544" lon="17.987933579672">
        <ele>79.4</ele>
        <time>2017-12-21T19:21:25Z</time>
      </trkpt>
      <trkpt lat="62.634961868215" lon="17.987963335417">
        <ele>79.4</ele>
        <time>2017-12-21T19:21:26Z</time>
      </trkpt>
      <trkpt lat="62.634939739999" lon="17.988000048139">
        <ele>79.6</ele>
        <time>2017-12-21T19:21:27Z</time>
      </trkpt>
      <trkpt lat="62.634927753882" lon="17.988016225206">
        <ele>79.6</ele>
        <time>2017-12-21T19:21:28Z</time>
      </trkpt>
      <trkpt lat="62.634911660634" lon="17.988029552427">
        <ele>79.6</ele>
        <time>2017-12-21T19:21:29Z</time>
      </trkpt>
      <trkpt lat="62.634901015621" lon="17.988033156644">
        <ele>79.8</ele>
        <time>2017-12-21T19:21:30Z</time>
      </trkpt>
      <trkpt lat="62.634869080582" lon="17.988061571285">
        <ele>80</ele>
        <time>2017-12-21T19:21:31Z</time>
      </trkpt>
      <trkpt lat="62.634852232963" lon="17.988081436388">
        <ele>80.2</ele>
        <time>2017-12-21T19:21:32Z</time>
      </trkpt>
      <trkpt lat="62.634826751987" lon="17.988098116369">
        <ele>80.6</ele>
        <time>2017-12-21T19:21:33Z</time>
      </trkpt>
      <trkpt lat="62.634808479445" lon="17.988111192133">
        <ele>80.8</ele>
        <time>2017-12-21T19:21:34Z</time>
      </trkpt>
      <trkpt lat="62.634785848315" lon="17.988113287608">
        <ele>81</ele>
        <time>2017-12-21T19:21:35Z</time>
      </trkpt>
      <trkpt lat="62.634760451158" lon="17.988125357544">
        <ele>81</ele>
        <time>2017-12-21T19:21:36Z</time>
      </trkpt>
      <trkpt lat="62.634739915503" lon="17.988135834919">
        <ele>81.2</ele>
        <time>2017-12-21T19:21:37Z</time>
      </trkpt>
      <trkpt lat="62.634714937441" lon="17.988133990901">
        <ele>81</ele>
        <time>2017-12-21T19:21:38Z</time>
      </trkpt>
      <trkpt lat="62.634692976863" lon="17.988150587063">
        <ele>81</ele>
        <time>2017-12-21T19:21:39Z</time>
      </trkpt>
      <trkpt lat="62.634671100104" lon="17.988147737217">
        <ele>81.2</ele>
        <time>2017-12-21T19:21:40Z</time>
      </trkpt>
      <trkpt lat="62.634646708775" lon="17.988151844348">
        <ele>81.2</ele>
        <time>2017-12-21T19:21:41Z</time>
      </trkpt>
      <trkpt lat="62.634624245283" lon="17.98815838223">
        <ele>81.2</ele>
        <time>2017-12-21T19:21:42Z</time>
      </trkpt>
      <trkpt lat="62.634601446515" lon="17.988159136601">
        <ele>81.4</ele>
        <time>2017-12-21T19:21:43Z</time>
      </trkpt>
      <trkpt lat="62.634581497593" lon="17.988173553469">
        <ele>81.4</ele>
        <time>2017-12-21T19:21:44Z</time>
      </trkpt>
      <trkpt lat="62.634558112092" lon="17.988188389432">
        <ele>81.6</ele>
        <time>2017-12-21T19:21:45Z</time>
      </trkpt>
      <trkpt lat="62.634541767387" lon="17.988202471024">
        <ele>81.6</ele>
        <time>2017-12-21T19:21:46Z</time>
      </trkpt>
      <trkpt lat="62.634520477361" lon="17.9882028063">
        <ele>81.8</ele>
        <time>2017-12-21T19:21:47Z</time>
      </trkpt>
      <trkpt lat="62.634497175679" lon="17.988229544561">
        <ele>81.8</ele>
        <time>2017-12-21T19:21:48Z</time>
      </trkpt>
      <trkpt lat="62.634479992784" lon="17.988235830986">
        <ele>81.8</ele>
        <time>2017-12-21T19:21:49Z</time>
      </trkpt>
      <trkpt lat="62.634456188188" lon="17.988226778534">
        <ele>82</ele>
        <time>2017-12-21T19:21:50Z</time>
      </trkpt>
      <trkpt lat="62.634434311429" lon="17.988247314189">
        <ele>82.2</ele>
        <time>2017-12-21T19:21:51Z</time>
      </trkpt>
      <trkpt lat="62.634412602308" lon="17.988249912578">
        <ele>82.2</ele>
        <time>2017-12-21T19:21:52Z</time>
      </trkpt>
      <trkpt lat="62.634394329766" lon="17.988255193175">
        <ele>82.4</ele>
        <time>2017-12-21T19:21:53Z</time>
      </trkpt>
      <trkpt lat="62.634374632301" lon="17.988254187347">
        <ele>82.4</ele>
        <time>2017-12-21T19:21:54Z</time>
      </trkpt>
      <trkpt lat="62.634348983687" lon="17.988249577302">
        <ele>82.6</ele>
        <time>2017-12-21T19:21:55Z</time>
      </trkpt>
      <trkpt lat="62.634325011453" lon="17.988251086044">
        <ele>82.6</ele>
        <time>2017-12-21T19:21:56Z</time>
      </trkpt>
      <trkpt lat="62.634301877409" lon="17.988252846243">
        <ele>82.6</ele>
        <time>2017-12-21T19:21:57Z</time>
      </trkpt>
      <trkpt lat="62.634278240451" lon="17.988250834587">
        <ele>82.6</ele>
        <time>2017-12-21T19:21:58Z</time>
      </trkpt>
      <trkpt lat="62.634261644289" lon="17.988264999998">
        <ele>82.6</ele>
        <time>2017-12-21T19:21:59Z</time>
      </trkpt>
      <trkpt lat="62.634232810553" lon="17.988266341102">
        <ele>82.6</ele>
        <time>2017-12-21T19:22:00Z</time>
      </trkpt>
      <trkpt lat="62.634216717305" lon="17.988263407437">
        <ele>82.8</ele>
        <time>2017-12-21T19:22:01Z</time>
      </trkpt>
      <trkpt lat="62.634190901053" lon="17.988249996397">
        <ele>82.8</ele>
        <time>2017-12-21T19:22:02Z</time>
      </trkpt>
      <trkpt lat="62.634170533036" lon="17.988242117411">
        <ele>82.8</ele>
        <time>2017-12-21T19:22:03Z</time>
      </trkpt>
      <trkpt lat="62.634147398992" lon="17.988236417719">
        <ele>82.8</ele>
        <time>2017-12-21T19:22:04Z</time>
      </trkpt>
      <trkpt lat="62.634129713183" lon="17.988228957828">
        <ele>82.8</ele>
        <time>2017-12-21T19:22:05Z</time>
      </trkpt>
      <trkpt lat="62.634105908587" lon="17.988230634208">
        <ele>83</ele>
        <time>2017-12-21T19:22:06Z</time>
      </trkpt>
      <trkpt lat="62.634069782598" lon="17.98822124648">
        <ele>83</ele>
        <time>2017-12-21T19:22:07Z</time>
      </trkpt>
      <trkpt lat="62.634048073477" lon="17.988206913431">
        <ele>83.2</ele>
        <time>2017-12-21T19:22:08Z</time>
      </trkpt>
      <trkpt lat="62.634021251397" lon="17.98819023345">
        <ele>83.2</ele>
        <time>2017-12-21T19:22:09Z</time>
      </trkpt>
      <trkpt lat="62.634004403778" lon="17.988176570953">
        <ele>83</ele>
        <time>2017-12-21T19:22:10Z</time>
      </trkpt>
      <trkpt lat="62.63398579596" lon="17.988161399714">
        <ele>83.2</ele>
        <time>2017-12-21T19:22:11Z</time>
      </trkpt>
      <trkpt lat="62.633957465138" lon="17.988143043353">
        <ele>83.4</ele>
        <time>2017-12-21T19:22:12Z</time>
      </trkpt>
      <trkpt lat="62.63393298999" lon="17.988128375028">
        <ele>83.4</ele>
        <time>2017-12-21T19:22:13Z</time>
      </trkpt>
      <trkpt lat="62.633910526498" lon="17.988109012839">
        <ele>83.4</ele>
        <time>2017-12-21T19:22:14Z</time>
      </trkpt>
      <trkpt lat="62.633887140997" lon="17.988100798577">
        <ele>83.6</ele>
        <time>2017-12-21T19:22:15Z</time>
      </trkpt>
      <trkpt lat="62.633867024437" lon="17.988083699501">
        <ele>83.8</ele>
        <time>2017-12-21T19:22:16Z</time>
      </trkpt>
      <trkpt lat="62.633835592312" lon="17.988062660932">
        <ele>83.8</ele>
        <time>2017-12-21T19:22:17Z</time>
      </trkpt>
      <trkpt lat="62.633814889019" lon="17.988033408101">
        <ele>83.8</ele>
        <time>2017-12-21T19:22:18Z</time>
      </trkpt>
      <trkpt lat="62.633790832966" lon="17.988018320681">
        <ele>83.8</ele>
        <time>2017-12-21T19:22:19Z</time>
      </trkpt>
      <trkpt lat="62.633762083049" lon="17.987989738402">
        <ele>83.8</ele>
        <time>2017-12-21T19:22:20Z</time>
      </trkpt>
      <trkpt lat="62.633738446091" lon="17.987972052593">
        <ele>84</ele>
        <time>2017-12-21T19:22:21Z</time>
      </trkpt>
      <trkpt lat="62.63371506059" lon="17.987946068703">
        <ele>84</ele>
        <time>2017-12-21T19:22:22Z</time>
      </trkpt>
      <trkpt lat="62.633692261822" lon="17.987923018478">
        <ele>84.2</ele>
        <time>2017-12-21T19:22:23Z</time>
      </trkpt>
      <trkpt lat="62.633672731995" lon="17.987890580525">
        <ele>84.2</ele>
        <time>2017-12-21T19:22:24Z</time>
      </trkpt>
      <trkpt lat="62.633649514132" lon="17.987868703766">
        <ele>84.2</ele>
        <time>2017-12-21T19:22:25Z</time>
      </trkpt>
      <trkpt lat="62.63361615417" lon="17.987834254157">
        <ele>84.4</ele>
        <time>2017-12-21T19:22:26Z</time>
      </trkpt>
      <trkpt lat="62.633597965447" lon="17.98781891528">
        <ele>84.2</ele>
        <time>2017-12-21T19:22:27Z</time>
      </trkpt>
      <trkpt lat="62.633581117828" lon="17.98780215148">
        <ele>84.2</ele>
        <time>2017-12-21T19:22:28Z</time>
      </trkpt>
      <trkpt lat="62.63357089191" lon="17.987789075716">
        <ele>84.4</ele>
        <time>2017-12-21T19:22:29Z</time>
      </trkpt>
      <trkpt lat="62.63355580449" lon="17.98776610931">
        <ele>84.4</ele>
        <time>2017-12-21T19:22:30Z</time>
      </trkpt>
      <trkpt lat="62.633544488925" lon="17.987745825112">
        <ele>84.4</ele>
        <time>2017-12-21T19:22:31Z</time>
      </trkpt>
      <trkpt lat="62.633528479496" lon="17.987720260317">
        <ele>84.6</ele>
        <time>2017-12-21T19:22:32Z</time>
      </trkpt>
      <trkpt lat="62.633511715696" lon="17.987696623359">
        <ele>84.4</ele>
        <time>2017-12-21T19:22:33Z</time>
      </trkpt>
      <trkpt lat="62.633489503661" lon="17.987665861786">
        <ele>84.8</ele>
        <time>2017-12-21T19:22:34Z</time>
      </trkpt>
      <trkpt lat="62.633468381273" lon="17.987628813788">
        <ele>85</ele>
        <time>2017-12-21T19:22:35Z</time>
      </trkpt>
      <trkpt lat="62.633449521998" lon="17.987599560957">
        <ele>85.2</ele>
        <time>2017-12-21T19:22:36Z</time>
      </trkpt>
      <trkpt lat="62.633422029366" lon="17.987571565411">
        <ele>85.4</ele>
        <time>2017-12-21T19:22:37Z</time>
      </trkpt>
      <trkpt lat="62.633404511195" lon="17.987548850462">
        <ele>85.6</ele>
        <time>2017-12-21T19:22:38Z</time>
      </trkpt>
      <trkpt lat="62.633389591413" lon="17.987532841033">
        <ele>85.6</ele>
        <time>2017-12-21T19:22:39Z</time>
      </trkpt>
      <trkpt lat="62.633378359667" lon="17.98751213774">
        <ele>85.8</ele>
        <time>2017-12-21T19:22:40Z</time>
      </trkpt>
      <trkpt lat="62.633362769333" lon="17.987480202701">
        <ele>85.8</ele>
        <time>2017-12-21T19:22:41Z</time>
      </trkpt>
      <trkpt lat="62.633347514275" lon="17.987460002322">
        <ele>86</ele>
        <time>2017-12-21T19:22:42Z</time>
      </trkpt>
      <trkpt lat="62.633333516502" lon="17.987441562142">
        <ele>86.2</ele>
        <time>2017-12-21T19:22:43Z</time>
      </trkpt>
      <trkpt lat="62.633309795725" lon="17.987382302109">
        <ele>86.4</ele>
        <time>2017-12-21T19:22:44Z</time>
      </trkpt>
      <trkpt lat="62.633296300866" lon="17.987331759252">
        <ele>86.4</ele>
        <time>2017-12-21T19:22:45Z</time>
      </trkpt>
      <trkpt lat="62.633273837374" lon="17.987261770387">
        <ele>86.4</ele>
        <time>2017-12-21T19:22:46Z</time>
      </trkpt>
      <trkpt lat="62.633254139909" lon="17.987178957215">
        <ele>86.6</ele>
        <time>2017-12-21T19:22:47Z</time>
      </trkpt>
      <trkpt lat="62.633233771892" lon="17.987082062451">
        <ele>86.6</ele>
        <time>2017-12-21T19:22:48Z</time>
      </trkpt>
      <trkpt lat="62.633216086083" lon="17.986978965081">
        <ele>86.6</ele>
        <time>2017-12-21T19:22:49Z</time>
      </trkpt>
      <trkpt lat="62.633199070826" lon="17.986879136652">
        <ele>86</ele>
        <time>2017-12-21T19:22:50Z</time>
      </trkpt>
      <trkpt lat="62.633189431641" lon="17.986771429237">
        <ele>85.4</ele>
        <time>2017-12-21T19:22:51Z</time>
      </trkpt>
      <trkpt lat="62.633179038085" lon="17.986653914999">
        <ele>84.8</ele>
        <time>2017-12-21T19:22:52Z</time>
      </trkpt>
      <trkpt lat="62.633173925126" lon="17.986536400761">
        <ele>84</ele>
        <time>2017-12-21T19:22:53Z</time>
      </trkpt>
      <trkpt lat="62.633169734176" lon="17.986466160439">
        <ele>83.8</ele>
        <time>2017-12-21T19:22:54Z</time>
      </trkpt>
      <trkpt lat="62.633162944837" lon="17.986332972048">
        <ele>83</ele>
        <time>2017-12-21T19:22:55Z</time>
      </trkpt>
      <trkpt lat="62.633162944837" lon="17.9862079141">
        <ele>82.4</ele>
        <time>2017-12-21T19:22:56Z</time>
      </trkpt>
      <trkpt lat="62.633164034484" lon="17.986069193655">
        <ele>82.2</ele>
        <time>2017-12-21T19:22:57Z</time>
      </trkpt>
      <trkpt lat="62.633167554882" lon="17.985942291689">
        <ele>81.8</ele>
        <time>2017-12-21T19:22:58Z</time>
      </trkpt>
      <trkpt lat="62.63317275166" lon="17.985819915949">
        <ele>81.4</ele>
        <time>2017-12-21T19:22:59Z</time>
      </trkpt>
      <trkpt lat="62.633173254574" lon="17.985691756698">
        <ele>81</ele>
        <time>2017-12-21T19:23:00Z</time>
      </trkpt>
      <trkpt lat="62.633177948438" lon="17.985574996831">
        <ele>80.6</ele>
        <time>2017-12-21T19:23:01Z</time>
      </trkpt>
      <trkpt lat="62.633182307026" lon="17.985442730449">
        <ele>80.4</ele>
        <time>2017-12-21T19:23:02Z</time>
      </trkpt>
      <trkpt lat="62.633188928727" lon="17.985307865678">
        <ele>80.2</ele>
        <time>2017-12-21T19:23:03Z</time>
      </trkpt>
      <trkpt lat="62.63320208831" lon="17.985156153288">
        <ele>79.8</ele>
        <time>2017-12-21T19:23:04Z</time>
      </trkpt>
      <trkpt lat="62.633214577341" lon="17.984991951867">
        <ele>79.6</ele>
        <time>2017-12-21T19:23:05Z</time>
      </trkpt>
      <trkpt lat="62.633233436616" lon="17.984866893919">
        <ele>79.2</ele>
        <time>2017-12-21T19:23:06Z</time>
      </trkpt>
      <trkpt lat="62.633261683619" lon="17.984707889276">
        <ele>78.6</ele>
        <time>2017-12-21T19:23:07Z</time>
      </trkpt>
      <trkpt lat="62.633288338061" lon="17.984575706713">
        <ele>78</ele>
        <time>2017-12-21T19:23:08Z</time>
      </trkpt>
      <trkpt lat="62.633313316123" lon="17.984463221615">
        <ele>77.6</ele>
        <time>2017-12-21T19:23:09Z</time>
      </trkpt>
      <trkpt lat="62.633337539814" lon="17.984366159213">
        <ele>77.4</ele>
        <time>2017-12-21T19:23:10Z</time>
      </trkpt>
      <trkpt lat="62.633355560899" lon="17.984268007164">
        <ele>77.2</ele>
        <time>2017-12-21T19:23:11Z</time>
      </trkpt>
      <trkpt lat="62.633364613351" lon="17.984155354428">
        <ele>77</ele>
        <time>2017-12-21T19:23:12Z</time>
      </trkpt>
      <trkpt lat="62.633374336355" lon="17.984037002">
        <ele>76.8</ele>
        <time>2017-12-21T19:23:13Z</time>
      </trkpt>
      <trkpt lat="62.633390429603" lon="17.983940693969">
        <ele>76.8</ele>
        <time>2017-12-21T19:23:14Z</time>
      </trkpt>
      <trkpt lat="62.633406271394" lon="17.983859808634">
        <ele>77</ele>
        <time>2017-12-21T19:23:15Z</time>
      </trkpt>
      <trkpt lat="62.633415910579" lon="17.983767021001">
        <ele>77</ele>
        <time>2017-12-21T19:23:16Z</time>
      </trkpt>
      <trkpt lat="62.633436530053" lon="17.983691919177">
        <ele>77.4</ele>
        <time>2017-12-21T19:23:17Z</time>
      </trkpt>
      <trkpt lat="62.633432506741" lon="17.983613548412">
        <ele>77.6</ele>
        <time>2017-12-21T19:23:18Z</time>
      </trkpt>
      <trkpt lat="62.633450527826" lon="17.983509948128">
        <ele>78.2</ele>
        <time>2017-12-21T19:23:19Z</time>
      </trkpt>
      <trkpt lat="62.633464609418" lon="17.983440713634">
        <ele>78.6</ele>
        <time>2017-12-21T19:23:20Z</time>
      </trkpt>
      <trkpt lat="62.63346947092" lon="17.9833748319">
        <ele>79</ele>
        <time>2017-12-21T19:23:21Z</time>
      </trkpt>
      <trkpt lat="62.633482714322" lon="17.983295706764">
        <ele>79</ele>
        <time>2017-12-21T19:23:22Z</time>
      </trkpt>
      <trkpt lat="62.63348288196" lon="17.983226975184">
        <ele>79</ele>
        <time>2017-12-21T19:23:23Z</time>
      </trkpt>
      <trkpt lat="62.633502747063" lon="17.983147095677">
        <ele>79</ele>
        <time>2017-12-21T19:23:24Z</time>
      </trkpt>
      <trkpt lat="62.633513308257" lon="17.98306637798">
        <ele>79</ele>
        <time>2017-12-21T19:23:25Z</time>
      </trkpt>
      <trkpt lat="62.633508111479" lon="17.983011392716">
        <ele>78.8</ele>
        <time>2017-12-21T19:23:26Z</time>
      </trkpt>
      <trkpt lat="62.633511296601" lon="17.982944924249">
        <ele>79</ele>
        <time>2017-12-21T19:23:27Z</time>
      </trkpt>
      <trkpt lat="62.633521187243" lon="17.982873259004">
        <ele>79</ele>
        <time>2017-12-21T19:23:28Z</time>
      </trkpt>
      <trkpt lat="62.633536609939" lon="17.982799582103">
        <ele>79</ele>
        <time>2017-12-21T19:23:29Z</time>
      </trkpt>
      <trkpt lat="62.633550356255" lon="17.982748787789">
        <ele>79</ele>
        <time>2017-12-21T19:23:30Z</time>
      </trkpt>
      <trkpt lat="62.633567958245" lon="17.98269254524">
        <ele>79</ele>
        <time>2017-12-21T19:23:31Z</time>
      </trkpt>
      <trkpt lat="62.63359017028" lon="17.982609145335">
        <ele>79.2</ele>
        <time>2017-12-21T19:23:32Z</time>
      </trkpt>
      <trkpt lat="62.6336052577" lon="17.982548879474">
        <ele>79</ele>
        <time>2017-12-21T19:23:33Z</time>
      </trkpt>
      <trkpt lat="62.633612214677" lon="17.982480315532">
        <ele>79</ele>
        <time>2017-12-21T19:23:34Z</time>
      </trkpt>
      <trkpt lat="62.633612382315" lon="17.982404124061">
        <ele>79.2</ele>
        <time>2017-12-21T19:23:35Z</time>
      </trkpt>
      <trkpt lat="62.633616405627" lon="17.98233463811">
        <ele>79.2</ele>
        <time>2017-12-21T19:23:36Z</time>
      </trkpt>
      <trkpt lat="62.633632834151" lon="17.982238497717">
        <ele>79.2</ele>
        <time>2017-12-21T19:23:37Z</time>
      </trkpt>
      <trkpt lat="62.633636019273" lon="17.982157528563">
        <ele>79.2</ele>
        <time>2017-12-21T19:23:38Z</time>
      </trkpt>
      <trkpt lat="62.633641383689" lon="17.982092485019">
        <ele>79.2</ele>
        <time>2017-12-21T19:23:39Z</time>
      </trkpt>
      <trkpt lat="62.633651106693" lon="17.98201947867">
        <ele>79.4</ele>
        <time>2017-12-21T19:23:40Z</time>
      </trkpt>
      <trkpt lat="62.633659488593" lon="17.981955189497">
        <ele>79.4</ele>
        <time>2017-12-21T19:23:41Z</time>
      </trkpt>
      <trkpt lat="62.633667535217" lon="17.981881093501">
        <ele>79.6</ele>
        <time>2017-12-21T19:23:42Z</time>
      </trkpt>
      <trkpt lat="62.633664182457" lon="17.981808087152">
        <ele>79.6</ele>
        <time>2017-12-21T19:23:43Z</time>
      </trkpt>
      <trkpt lat="62.633664014819" lon="17.9817571252">
        <ele>79.6</ele>
        <time>2017-12-21T19:23:44Z</time>
      </trkpt>
      <trkpt lat="62.633671390891" lon="17.981682358652">
        <ele>79.6</ele>
        <time>2017-12-21T19:23:45Z</time>
      </trkpt>
      <trkpt lat="62.633675749479" lon="17.981631983433">
        <ele>79.6</ele>
        <time>2017-12-21T19:23:46Z</time>
      </trkpt>
      <trkpt lat="62.633689244338" lon="17.98155847417">
        <ele>79.6</ele>
        <time>2017-12-21T19:23:47Z</time>
      </trkpt>
      <trkpt lat="62.633694189659" lon="17.981486808925">
        <ele>79.4</ele>
        <time>2017-12-21T19:23:48Z</time>
      </trkpt>
      <trkpt lat="62.63369997317" lon="17.981425872512">
        <ele>79.4</ele>
        <time>2017-12-21T19:23:49Z</time>
      </trkpt>
      <trkpt lat="62.633711540192" lon="17.981361080425">
        <ele>79.4</ele>
        <time>2017-12-21T19:23:50Z</time>
      </trkpt>
      <trkpt lat="62.63371925154" lon="17.981317243088">
        <ele>79.4</ele>
        <time>2017-12-21T19:23:51Z</time>
      </trkpt>
      <trkpt lat="62.633741966489" lon="17.981246499852">
        <ele>79.4</ele>
        <time>2017-12-21T19:23:52Z</time>
      </trkpt>
      <trkpt lat="62.633763005058" lon="17.981197717194">
        <ele>79.4</ele>
        <time>2017-12-21T19:23:53Z</time>
      </trkpt>
      <trkpt lat="62.633785971464" lon="17.98114943745">
        <ele>79.6</ele>
        <time>2017-12-21T19:23:54Z</time>
      </trkpt>
      <trkpt lat="62.633810278974" lon="17.981094200729">
        <ele>79.6</ele>
        <time>2017-12-21T19:23:55Z</time>
      </trkpt>
      <trkpt lat="62.63382737805" lon="17.981061595138">
        <ele>79.6</ele>
        <time>2017-12-21T19:23:56Z</time>
      </trkpt>
      <trkpt lat="62.633847829886" lon="17.981030749746">
        <ele>79.6</ele>
        <time>2017-12-21T19:23:57Z</time>
      </trkpt>
      <trkpt lat="62.633871215387" lon="17.980978195233">
        <ele>79.6</ele>
        <time>2017-12-21T19:23:58Z</time>
      </trkpt>
      <trkpt lat="62.63389108049" lon="17.980924048159">
        <ele>79.6</ele>
        <time>2017-12-21T19:23:59Z</time>
      </trkpt>
      <trkpt lat="62.633909017756" lon="17.980879791727">
        <ele>79.8</ele>
        <time>2017-12-21T19:24:00Z</time>
      </trkpt>
      <trkpt lat="62.633930223963" lon="17.980826399024">
        <ele>80</ele>
        <time>2017-12-21T19:24:01Z</time>
      </trkpt>
      <trkpt lat="62.633951765446" lon="17.980790273035">
        <ele>80</ele>
        <time>2017-12-21T19:24:02Z</time>
      </trkpt>
      <trkpt lat="62.633965344124" lon="17.980745681327">
        <ele>80.4</ele>
        <time>2017-12-21T19:24:03Z</time>
      </trkpt>
      <trkpt lat="62.633977078784" lon="17.980682230344">
        <ele>80.4</ele>
        <time>2017-12-21T19:24:04Z</time>
      </trkpt>
      <trkpt lat="62.63399166329" lon="17.98064065612">
        <ele>80.4</ele>
        <time>2017-12-21T19:24:05Z</time>
      </trkpt>
      <trkpt lat="62.634011612212" lon="17.980583323924">
        <ele>80.4</ele>
        <time>2017-12-21T19:24:06Z</time>
      </trkpt>
      <trkpt lat="62.634020245569" lon="17.980515849629">
        <ele>80.4</ele>
        <time>2017-12-21T19:24:07Z</time>
      </trkpt>
      <trkpt lat="62.634037009369" lon="17.980468240437">
        <ele>80.6</ele>
        <time>2017-12-21T19:24:08Z</time>
      </trkpt>
      <trkpt lat="62.634058550852" lon="17.980408309852">
        <ele>80.6</ele>
        <time>2017-12-21T19:24:09Z</time>
      </trkpt>
      <trkpt lat="62.634066094562" lon="17.980365562162">
        <ele>80.6</ele>
        <time>2017-12-21T19:24:10Z</time>
      </trkpt>
      <trkpt lat="62.634087971321" lon="17.980312253278">
        <ele>80.8</ele>
        <time>2017-12-21T19:24:11Z</time>
      </trkpt>
      <trkpt lat="62.634102723465" lon="17.980261542783">
        <ele>80.8</ele>
        <time>2017-12-21T19:24:12Z</time>
      </trkpt>
      <trkpt lat="62.63412661188" lon="17.980193314117">
        <ele>80.8</ele>
        <time>2017-12-21T19:24:13Z</time>
      </trkpt>
      <trkpt lat="62.63416516862" lon="17.980160205612">
        <ele>80.8</ele>
        <time>2017-12-21T19:24:14Z</time>
      </trkpt>
      <trkpt lat="62.634186793922" lon="17.980111339135">
        <ele>80.8</ele>
        <time>2017-12-21T19:24:15Z</time>
      </trkpt>
      <trkpt lat="62.634211185251" lon="17.980058197889">
        <ele>80.8</ele>
        <time>2017-12-21T19:24:16Z</time>
      </trkpt>
      <trkpt lat="62.634231553268" lon="17.980014444371">
        <ele>80.8</ele>
        <time>2017-12-21T19:24:17Z</time>
      </trkpt>
      <trkpt lat="62.634262733936" lon="17.979963733876">
        <ele>80.8</ele>
        <time>2017-12-21T19:24:18Z</time>
      </trkpt>
      <trkpt lat="62.634280419745" lon="17.979912939562">
        <ele>80.8</ele>
        <time>2017-12-21T19:24:19Z</time>
      </trkpt>
      <trkpt lat="62.634303721427" lon="17.979842615421">
        <ele>80.8</ele>
        <time>2017-12-21T19:24:20Z</time>
      </trkpt>
      <trkpt lat="62.634320317589" lon="17.979787965433">
        <ele>80.8</ele>
        <time>2017-12-21T19:24:21Z</time>
      </trkpt>
      <trkpt lat="62.634337081389" lon="17.97971780893">
        <ele>80.8</ele>
        <time>2017-12-21T19:24:22Z</time>
      </trkpt>
      <trkpt lat="62.634348313135" lon="17.979644299667">
        <ele>80.6</ele>
        <time>2017-12-21T19:24:23Z</time>
      </trkpt>
      <trkpt lat="62.634353845189" lon="17.979585877824">
        <ele>80.4</ele>
        <time>2017-12-21T19:24:24Z</time>
      </trkpt>
      <trkpt lat="62.634373710292" lon="17.979512955294">
        <ele>80.4</ele>
        <time>2017-12-21T19:24:25Z</time>
      </trkpt>
      <trkpt lat="62.634369770799" lon="17.979452437976">
        <ele>80.4</ele>
        <time>2017-12-21T19:24:26Z</time>
      </trkpt>
      <trkpt lat="62.634390557911" lon="17.979382449111">
        <ele>80.4</ele>
        <time>2017-12-21T19:24:27Z</time>
      </trkpt>
      <trkpt lat="62.634403549856" lon="17.979324614001">
        <ele>80.4</ele>
        <time>2017-12-21T19:24:28Z</time>
      </trkpt>
      <trkpt lat="62.634417379991" lon="17.979270466927">
        <ele>80.4</ele>
        <time>2017-12-21T19:24:29Z</time>
      </trkpt>
      <trkpt lat="62.634431796859" lon="17.979210368704">
        <ele>80.4</ele>
        <time>2017-12-21T19:24:30Z</time>
      </trkpt>
      <trkpt lat="62.634440262578" lon="17.979159406752">
        <ele>80.6</ele>
        <time>2017-12-21T19:24:31Z</time>
      </trkpt>
      <trkpt lat="62.634461301147" lon="17.979079359607">
        <ele>80.4</ele>
        <time>2017-12-21T19:24:32Z</time>
      </trkpt>
      <trkpt lat="62.634476053291" lon="17.979018842289">
        <ele>80.4</ele>
        <time>2017-12-21T19:24:33Z</time>
      </trkpt>
      <trkpt lat="62.634498516783" lon="17.978905938096">
        <ele>80.6</ele>
        <time>2017-12-21T19:24:35Z</time>
      </trkpt>
      <trkpt lat="62.634516621687" lon="17.97885950237">
        <ele>80.4</ele>
        <time>2017-12-21T19:24:36Z</time>
      </trkpt>
      <trkpt lat="62.634545874518" lon="17.978818011965">
        <ele>80.6</ele>
        <time>2017-12-21T19:24:37Z</time>
      </trkpt>
      <trkpt lat="62.634573199512" lon="17.978792530989">
        <ele>80.6</ele>
        <time>2017-12-21T19:24:38Z</time>
      </trkpt>
      <trkpt lat="62.634602368524" lon="17.97877735975">
        <ele>80.6</ele>
        <time>2017-12-21T19:24:39Z</time>
      </trkpt>
      <trkpt lat="62.634621730713" lon="17.978762188511">
        <ele>80.6</ele>
        <time>2017-12-21T19:24:40Z</time>
      </trkpt>
      <trkpt lat="62.634649390983" lon="17.978767720565">
        <ele>80.6</ele>
        <time>2017-12-21T19:24:41Z</time>
      </trkpt>
      <trkpt lat="62.634677973262" lon="17.978774509904">
        <ele>80.8</ele>
        <time>2017-12-21T19:24:42Z</time>
      </trkpt>
      <trkpt lat="62.634713261061" lon="17.978794877921">
        <ele>80.8</ele>
        <time>2017-12-21T19:24:43Z</time>
      </trkpt>
      <trkpt lat="62.634746956299" lon="17.978814323929">
        <ele>80.8</ele>
        <time>2017-12-21T19:24:44Z</time>
      </trkpt>
      <trkpt lat="62.634780316261" lon="17.97883016572">
        <ele>80.6</ele>
        <time>2017-12-21T19:24:45Z</time>
      </trkpt>
      <trkpt lat="62.634821890485" lon="17.978850449918">
        <ele>80.4</ele>
        <time>2017-12-21T19:24:46Z</time>
      </trkpt>
      <trkpt lat="62.634858854664" lon="17.978866710804">
        <ele>80.2</ele>
        <time>2017-12-21T19:24:47Z</time>
      </trkpt>
      <trkpt lat="62.634893388092" lon="17.978883474604">
        <ele>80.2</ele>
        <time>2017-12-21T19:24:48Z</time>
      </trkpt>
      <trkpt lat="62.6349295979" lon="17.978899400214">
        <ele>80</ele>
        <time>2017-12-21T19:24:49Z</time>
      </trkpt>
      <trkpt lat="62.634962538767" lon="17.978916834566">
        <ele>79.8</ele>
        <time>2017-12-21T19:24:50Z</time>
      </trkpt>
      <trkpt lat="62.634985924268" lon="17.978928904502">
        <ele>79.8</ele>
        <time>2017-12-21T19:24:51Z</time>
      </trkpt>
      <trkpt lat="62.635017943126" lon="17.978946003578">
        <ele>79.6</ele>
        <time>2017-12-21T19:24:52Z</time>
      </trkpt>
      <trkpt lat="62.635041244808" lon="17.978955810401">
        <ele>79.6</ele>
        <time>2017-12-21T19:24:53Z</time>
      </trkpt>
      <trkpt lat="62.635065300861" lon="17.978967545061">
        <ele>79.6</ele>
        <time>2017-12-21T19:24:54Z</time>
      </trkpt>
      <trkpt lat="62.635093799321" lon="17.978979279721">
        <ele>79.4</ele>
        <time>2017-12-21T19:24:55Z</time>
      </trkpt>
      <trkpt lat="62.635125315265" lon="17.978989505639">
        <ele>79.4</ele>
        <time>2017-12-21T19:24:56Z</time>
      </trkpt>
      <trkpt lat="62.635160854521" lon="17.979000234471">
        <ele>79.4</ele>
        <time>2017-12-21T19:24:57Z</time>
      </trkpt>
      <trkpt lat="62.635192538103" lon="17.97900283286">
        <ele>79.4</ele>
        <time>2017-12-21T19:24:58Z</time>
      </trkpt>
      <trkpt lat="62.635228328816" lon="17.979010963303">
        <ele>79.2</ele>
        <time>2017-12-21T19:24:59Z</time>
      </trkpt>
      <trkpt lat="62.635262946063" lon="17.979024122886">
        <ele>79.2</ele>
        <time>2017-12-21T19:25:00Z</time>
      </trkpt>
      <trkpt lat="62.635299658785" lon="17.97902630218">
        <ele>79</ele>
        <time>2017-12-21T19:25:01Z</time>
      </trkpt>
      <trkpt lat="62.635338550801" lon="17.979026553637">
        <ele>78.8</ele>
        <time>2017-12-21T19:25:02Z</time>
      </trkpt>
      <trkpt lat="62.635376604627" lon="17.979032001872">
        <ele>78.6</ele>
        <time>2017-12-21T19:25:03Z</time>
      </trkpt>
      <trkpt lat="62.635416167195" lon="17.979026469818">
        <ele>78.4</ele>
        <time>2017-12-21T19:25:04Z</time>
      </trkpt>
      <trkpt lat="62.635454640116" lon="17.979002497584">
        <ele>78.2</ele>
        <time>2017-12-21T19:25:05Z</time>
      </trkpt>
      <trkpt lat="62.635488251535" lon="17.979004090145">
        <ele>78</ele>
        <time>2017-12-21T19:25:06Z</time>
      </trkpt>
      <trkpt lat="62.63552722737" lon="17.979010628027">
        <ele>77.8</ele>
        <time>2017-12-21T19:25:07Z</time>
      </trkpt>
      <trkpt lat="62.635570477974" lon="17.979006856172">
        <ele>77.6</ele>
        <time>2017-12-21T19:25:08Z</time>
      </trkpt>
      <trkpt lat="62.635609453809" lon="17.97900115648">
        <ele>77.4</ele>
        <time>2017-12-21T19:25:09Z</time>
      </trkpt>
      <trkpt lat="62.635645495979" lon="17.979003251955">
        <ele>77.2</ele>
        <time>2017-12-21T19:25:10Z</time>
      </trkpt>
      <trkpt lat="62.635682460158" lon="17.978999396281">
        <ele>76.8</ele>
        <time>2017-12-21T19:25:11Z</time>
      </trkpt>
      <trkpt lat="62.635727638599" lon="17.978997133168">
        <ele>76.6</ele>
        <time>2017-12-21T19:25:12Z</time>
      </trkpt>
      <trkpt lat="62.635772900859" lon="17.978998138996">
        <ele>76.4</ele>
        <time>2017-12-21T19:25:13Z</time>
      </trkpt>
      <trkpt lat="62.63581137378" lon="17.978999899195">
        <ele>76.2</ele>
        <time>2017-12-21T19:25:14Z</time>
      </trkpt>
      <trkpt lat="62.635848673235" lon="17.979008197276">
        <ele>76.2</ele>
        <time>2017-12-21T19:25:15Z</time>
      </trkpt>
      <trkpt lat="62.63587759079" lon="17.979021608316">
        <ele>76.2</ele>
        <time>2017-12-21T19:25:16Z</time>
      </trkpt>
      <trkpt lat="62.635906256888" lon="17.979036444279">
        <ele>76.2</ele>
        <time>2017-12-21T19:25:17Z</time>
      </trkpt>
      <trkpt lat="62.635927127819" lon="17.979049017129">
        <ele>76.2</ele>
        <time>2017-12-21T19:25:18Z</time>
      </trkpt>
      <trkpt lat="62.635943304886" lon="17.979053794812">
        <ele>76.2</ele>
        <time>2017-12-21T19:25:19Z</time>
      </trkpt>
      <trkpt lat="62.635957637935" lon="17.979057399029">
        <ele>76.2</ele>
        <time>2017-12-21T19:25:20Z</time>
      </trkpt>
      <trkpt lat="62.635965181645" lon="17.979059326866">
        <ele>76.2</ele>
        <time>2017-12-21T19:25:21Z</time>
      </trkpt>
      <trkpt lat="62.635982951273" lon="17.979066367662">
        <ele>76.2</ele>
        <time>2017-12-21T19:25:22Z</time>
      </trkpt>
      <trkpt lat="62.635996110856" lon="17.979070307155">
        <ele>76.4</ele>
        <time>2017-12-21T19:25:23Z</time>
      </trkpt>
      <trkpt lat="62.636008096973" lon="17.979076258304">
        <ele>76.6</ele>
        <time>2017-12-21T19:25:24Z</time>
      </trkpt>
      <trkpt lat="62.636012707018" lon="17.979082544729">
        <ele>76.8</ele>
        <time>2017-12-21T19:25:25Z</time>
      </trkpt>
      <trkpt lat="62.636012371742" lon="17.979080700711">
        <ele>76.8</ele>
        <time>2017-12-21T19:25:26Z</time>
      </trkpt>
      <trkpt lat="62.636008851344" lon="17.979085143118">
        <ele>77</ele>
        <time>2017-12-21T19:25:27Z</time>
      </trkpt>
      <trkpt lat="62.636049587378" lon="17.979565928902">
        <ele>76.4</ele>
        <time>2017-12-21T19:26:44Z</time>
      </trkpt>
      <trkpt lat="62.636046234618" lon="17.979684868063">
        <ele>76.4</ele>
        <time>2017-12-21T19:26:45Z</time>
      </trkpt>
      <trkpt lat="62.636039529098" lon="17.97983012639">
        <ele>76.4</ele>
        <time>2017-12-21T19:26:46Z</time>
      </trkpt>
      <trkpt lat="62.636042211306" lon="17.980000698055">
        <ele>76.2</ele>
        <time>2017-12-21T19:26:47Z</time>
      </trkpt>
      <trkpt lat="62.636050928482" lon="17.98014947678">
        <ele>75.8</ele>
        <time>2017-12-21T19:26:48Z</time>
      </trkpt>
      <trkpt lat="62.636066267359" lon="17.980319042617">
        <ele>75.2</ele>
        <time>2017-12-21T19:26:49Z</time>
      </trkpt>
      <trkpt lat="62.636085964824" lon="17.98046966536">
        <ele>74.4</ele>
        <time>2017-12-21T19:26:50Z</time>
      </trkpt>
      <trkpt lat="62.636106165203" lon="17.98061048128">
        <ele>73.6</ele>
        <time>2017-12-21T19:26:51Z</time>
      </trkpt>
      <trkpt lat="62.636131478541" lon="17.980760349652">
        <ele>72.6</ele>
        <time>2017-12-21T19:26:52Z</time>
      </trkpt>
      <trkpt lat="62.636159390268" lon="17.980908960739">
        <ele>71.4</ele>
        <time>2017-12-21T19:26:53Z</time>
      </trkpt>
      <trkpt lat="62.636180596475" lon="17.981045166614">
        <ele>70.2</ele>
        <time>2017-12-21T19:26:54Z</time>
      </trkpt>
      <trkpt lat="62.636194594248" lon="17.981191095493">
        <ele>69.6</ele>
        <time>2017-12-21T19:26:55Z</time>
      </trkpt>
      <trkpt lat="62.636201299768" lon="17.981324283884">
        <ele>69.2</ele>
        <time>2017-12-21T19:26:56Z</time>
      </trkpt>
      <trkpt lat="62.636211777143" lon="17.98147800793">
        <ele>69</ele>
        <time>2017-12-21T19:26:57Z</time>
      </trkpt>
      <trkpt lat="62.636224182355" lon="17.981600802765">
        <ele>68.8</ele>
        <time>2017-12-21T19:26:58Z</time>
      </trkpt>
      <trkpt lat="62.636239437413" lon="17.98173281769">
        <ele>68.6</ele>
        <time>2017-12-21T19:26:59Z</time>
      </trkpt>
      <trkpt lat="62.636250669159" lon="17.981834825413">
        <ele>68.4</ele>
        <time>2017-12-21T19:27:00Z</time>
      </trkpt>
      <trkpt lat="62.636260308344" lon="17.981965583053">
        <ele>68.2</ele>
        <time>2017-12-21T19:27:01Z</time>
      </trkpt>
      <trkpt lat="62.63626399638" lon="17.982067004043">
        <ele>68.2</ele>
        <time>2017-12-21T19:27:02Z</time>
      </trkpt>
      <trkpt lat="62.636263493466" lon="17.982162557703">
        <ele>68</ele>
        <time>2017-12-21T19:27:03Z</time>
      </trkpt>
      <trkpt lat="62.636265421303" lon="17.982257021716">
        <ele>68</ele>
        <time>2017-12-21T19:27:04Z</time>
      </trkpt>
      <trkpt lat="62.636263409647" lon="17.982359364715">
        <ele>68</ele>
        <time>2017-12-21T19:27:05Z</time>
      </trkpt>
      <trkpt lat="62.63626483457" lon="17.982430862322">
        <ele>68</ele>
        <time>2017-12-21T19:27:06Z</time>
      </trkpt>
      <trkpt lat="62.636259973068" lon="17.982518620815">
        <ele>68</ele>
        <time>2017-12-21T19:27:07Z</time>
      </trkpt>
      <trkpt lat="62.636264499294" lon="17.982616856683">
        <ele>68.4</ele>
        <time>2017-12-21T19:27:08Z</time>
      </trkpt>
      <trkpt lat="62.636263493466" lon="17.982706040099">
        <ele>68.6</ele>
        <time>2017-12-21T19:27:09Z</time>
      </trkpt>
      <trkpt lat="62.636260308344" lon="17.98281240641">
        <ele>69</ele>
        <time>2017-12-21T19:27:10Z</time>
      </trkpt>
      <trkpt lat="62.636259553973" lon="17.982889352252">
        <ele>69.4</ele>
        <time>2017-12-21T19:27:11Z</time>
      </trkpt>
      <trkpt lat="62.636260978896" lon="17.982963699705">
        <ele>69.6</ele>
        <time>2017-12-21T19:27:12Z</time>
      </trkpt>
      <trkpt lat="62.636258548145" lon="17.983046009963">
        <ele>69.8</ele>
        <time>2017-12-21T19:27:13Z</time>
      </trkpt>
      <trkpt lat="62.636277239782" lon="17.983126308565">
        <ele>69.8</ele>
        <time>2017-12-21T19:27:14Z</time>
      </trkpt>
      <trkpt lat="62.636280089628" lon="17.98321054666">
        <ele>69.8</ele>
        <time>2017-12-21T19:27:15Z</time>
      </trkpt>
      <trkpt lat="62.636275982497" lon="17.983295958221">
        <ele>69.8</ele>
        <time>2017-12-21T19:27:16Z</time>
      </trkpt>
      <trkpt lat="62.63628159837" lon="17.983359995937">
        <ele>69.8</ele>
        <time>2017-12-21T19:27:17Z</time>
      </trkpt>
      <trkpt lat="62.636280927818" lon="17.983435265399">
        <ele>69.8</ele>
        <time>2017-12-21T19:27:18Z</time>
      </trkpt>
      <trkpt lat="62.636274138479" lon="17.983487903731">
        <ele>69.8</ele>
        <time>2017-12-21T19:27:19Z</time>
      </trkpt>
      <trkpt lat="62.636264415475" lon="17.983554875112">
        <ele>70</ele>
        <time>2017-12-21T19:27:20Z</time>
      </trkpt>
      <trkpt lat="62.636259973068" lon="17.983612626403">
        <ele>70.2</ele>
        <time>2017-12-21T19:27:21Z</time>
      </trkpt>
      <trkpt lat="62.636246981123" lon="17.983675658291">
        <ele>70.4</ele>
        <time>2017-12-21T19:27:22Z</time>
      </trkpt>
      <trkpt lat="62.636244885648" lon="17.983742042939">
        <ele>70.4</ele>
        <time>2017-12-21T19:27:23Z</time>
      </trkpt>
      <trkpt lat="62.636232815712" lon="17.983804404275">
        <ele>70.8</ele>
        <time>2017-12-21T19:27:24Z</time>
      </trkpt>
      <trkpt lat="62.636223260346" lon="17.983876488615">
        <ele>70.8</ele>
        <time>2017-12-21T19:27:25Z</time>
      </trkpt>
      <trkpt lat="62.636217644473" lon="17.98393222825">
        <ele>70.8</ele>
        <time>2017-12-21T19:27:26Z</time>
      </trkpt>
      <trkpt lat="62.636203479062" lon="17.983998026165">
        <ele>71</ele>
        <time>2017-12-21T19:27:27Z</time>
      </trkpt>
      <trkpt lat="62.636209346392" lon="17.984072960351">
        <ele>71.2</ele>
        <time>2017-12-21T19:27:28Z</time>
      </trkpt>
      <trkpt lat="62.636197695551" lon="17.984133645307">
        <ele>71.2</ele>
        <time>2017-12-21T19:27:29Z</time>
      </trkpt>
      <trkpt lat="62.636197444094" lon="17.984198018299">
        <ele>71.2</ele>
        <time>2017-12-21T19:27:30Z</time>
      </trkpt>
      <trkpt lat="62.63618939747" lon="17.984251243364">
        <ele>71.2</ele>
        <time>2017-12-21T19:27:31Z</time>
      </trkpt>
      <trkpt lat="62.636183278683" lon="17.984327770111">
        <ele>71.2</ele>
        <time>2017-12-21T19:27:32Z</time>
      </trkpt>
      <trkpt lat="62.636188726918" lon="17.984375463122">
        <ele>71.4</ele>
        <time>2017-12-21T19:27:33Z</time>
      </trkpt>
      <trkpt lat="62.636195851533" lon="17.984450648765">
        <ele>71.4</ele>
        <time>2017-12-21T19:27:34Z</time>
      </trkpt>
      <trkpt lat="62.636197695551" lon="17.984504963477">
        <ele>71.4</ele>
        <time>2017-12-21T19:27:35Z</time>
      </trkpt>
      <trkpt lat="62.636191325307" lon="17.984559362008">
        <ele>71.4</ele>
        <time>2017-12-21T19:27:36Z</time>
      </trkpt>
      <trkpt lat="62.636184871244" lon="17.984630524339">
        <ele>71.6</ele>
        <time>2017-12-21T19:27:37Z</time>
      </trkpt>
      <trkpt lat="62.636189062194" lon="17.984682743576">
        <ele>71.8</ele>
        <time>2017-12-21T19:27:38Z</time>
      </trkpt>
      <trkpt lat="62.636173220403" lon="17.984748960586">
        <ele>72</ele>
        <time>2017-12-21T19:27:39Z</time>
      </trkpt>
      <trkpt lat="62.63618353014" lon="17.984799838719">
        <ele>72.2</ele>
        <time>2017-12-21T19:27:40Z</time>
      </trkpt>
      <trkpt lat="62.63616928091" lon="17.984857757648">
        <ele>72.4</ele>
        <time>2017-12-21T19:27:41Z</time>
      </trkpt>
      <trkpt lat="62.636168023625" lon="17.98492632159">
        <ele>72.4</ele>
        <time>2017-12-21T19:27:42Z</time>
      </trkpt>
      <trkpt lat="62.636163162123" lon="17.984981139216">
        <ele>72.6</ele>
        <time>2017-12-21T19:27:43Z</time>
      </trkpt>
      <trkpt lat="62.636151595101" lon="17.98505037371">
        <ele>72.6</ele>
        <time>2017-12-21T19:27:44Z</time>
      </trkpt>
      <trkpt lat="62.636159809363" lon="17.985103682594">
        <ele>72.8</ele>
        <time>2017-12-21T19:27:45Z</time>
      </trkpt>
      <trkpt lat="62.636144051391" lon="17.985166630663">
        <ele>73</ele>
        <time>2017-12-21T19:27:46Z</time>
      </trkpt>
      <trkpt lat="62.636130640351" lon="17.985225220144">
        <ele>73</ele>
        <time>2017-12-21T19:27:47Z</time>
      </trkpt>
      <trkpt lat="62.636124102469" lon="17.985260088848">
        <ele>73</ele>
        <time>2017-12-21T19:27:48Z</time>
      </trkpt>
      <trkpt lat="62.636112703085" lon="17.985342482925">
        <ele>73.2</ele>
        <time>2017-12-21T19:27:49Z</time>
      </trkpt>
      <trkpt lat="62.636124353926" lon="17.98538984066">
        <ele>73.2</ele>
        <time>2017-12-21T19:27:50Z</time>
      </trkpt>
      <trkpt lat="62.636110104696" lon="17.985459075154">
        <ele>73.2</ele>
        <time>2017-12-21T19:27:51Z</time>
      </trkpt>
      <trkpt lat="62.636093927629" lon="17.985505259423">
        <ele>73.2</ele>
        <time>2017-12-21T19:27:52Z</time>
      </trkpt>
      <trkpt lat="62.636080013675" lon="17.985578098134">
        <ele>73.2</ele>
        <time>2017-12-21T19:27:53Z</time>
      </trkpt>
      <trkpt lat="62.636055538527" lon="17.985630485009">
        <ele>73.4</ele>
        <time>2017-12-21T19:27:54Z</time>
      </trkpt>
      <trkpt lat="62.636046569894" lon="17.985679686762">
        <ele>73.4</ele>
        <time>2017-12-21T19:27:55Z</time>
      </trkpt>
      <trkpt lat="62.636029386999" lon="17.985723188823">
        <ele>73.6</ele>
        <time>2017-12-21T19:27:56Z</time>
      </trkpt>
      <trkpt lat="62.636017484701" lon="17.985757135518">
        <ele>73.8</ele>
        <time>2017-12-21T19:27:57Z</time>
      </trkpt>
      <trkpt lat="62.636003570747" lon="17.985797452457">
        <ele>74</ele>
        <time>2017-12-21T19:27:58Z</time>
      </trkpt>
      <trkpt lat="62.635980771979" lon="17.985840032509">
        <ele>74</ele>
        <time>2017-12-21T19:27:59Z</time>
      </trkpt>
      <trkpt lat="62.63595889522" lon="17.985862663639">
        <ele>74.2</ele>
        <time>2017-12-21T19:28:00Z</time>
      </trkpt>
      <trkpt lat="62.635941377049" lon="17.985888228434">
        <ele>74.2</ele>
        <time>2017-12-21T19:28:01Z</time>
      </trkpt>
      <trkpt lat="62.635914554969" lon="17.985924689699">
        <ele>74.4</ele>
        <time>2017-12-21T19:28:02Z</time>
      </trkpt>
      <trkpt lat="62.635894941323" lon="17.985944387164">
        <ele>74.4</ele>
        <time>2017-12-21T19:28:03Z</time>
      </trkpt>
      <trkpt lat="62.635871052908" lon="17.98598076461">
        <ele>74.6</ele>
        <time>2017-12-21T19:28:04Z</time>
      </trkpt>
      <trkpt lat="62.635855546393" lon="17.985994427107">
        <ele>74.8</ele>
        <time>2017-12-21T19:28:05Z</time>
      </trkpt>
      <trkpt lat="62.635838614955" lon="17.986015214219">
        <ele>74.8</ele>
        <time>2017-12-21T19:28:06Z</time>
      </trkpt>
      <trkpt lat="62.63579712455" lon="17.986032983847">
        <ele>74.8</ele>
        <time>2017-12-21T19:28:07Z</time>
      </trkpt>
      <trkpt lat="62.635769380461" lon="17.986048071267">
        <ele>74.8</ele>
        <time>2017-12-21T19:28:08Z</time>
      </trkpt>
      <trkpt lat="62.635751694652" lon="17.986076653546">
        <ele>75</ele>
        <time>2017-12-21T19:28:09Z</time>
      </trkpt>
      <trkpt lat="62.635730404626" lon="17.986112444259">
        <ele>74.8</ele>
        <time>2017-12-21T19:28:10Z</time>
      </trkpt>
      <trkpt lat="62.635717747957" lon="17.986147983515">
        <ele>74.8</ele>
        <time>2017-12-21T19:28:11Z</time>
      </trkpt>
      <trkpt lat="62.63569905632" lon="17.986169022084">
        <ele>75</ele>
        <time>2017-12-21T19:28:12Z</time>
      </trkpt>
      <trkpt lat="62.635684136538" lon="17.98619869401">
        <ele>75</ele>
        <time>2017-12-21T19:28:13Z</time>
      </trkpt>
      <trkpt lat="62.635674832629" lon="17.986237753664">
        <ele>75</ele>
        <time>2017-12-21T19:28:14Z</time>
      </trkpt>
      <trkpt lat="62.635662762693" lon="17.986283099743">
        <ele>75.2</ele>
        <time>2017-12-21T19:28:15Z</time>
      </trkpt>
      <trkpt lat="62.635650106024" lon="17.986314196592">
        <ele>75.2</ele>
        <time>2017-12-21T19:28:16Z</time>
      </trkpt>
      <trkpt lat="62.63562613379" lon="17.986360716137">
        <ele>75.6</ele>
        <time>2017-12-21T19:28:17Z</time>
      </trkpt>
      <trkpt lat="62.635601742461" lon="17.986405559302">
        <ele>75.8</ele>
        <time>2017-12-21T19:28:18Z</time>
      </trkpt>
      <trkpt lat="62.635583889014" lon="17.986444451318">
        <ele>76</ele>
        <time>2017-12-21T19:28:19Z</time>
      </trkpt>
      <trkpt lat="62.635554971459" lon="17.986487785741">
        <ele>76</ele>
        <time>2017-12-21T19:28:20Z</time>
      </trkpt>
      <trkpt lat="62.635540889867" lon="17.986524582282">
        <ele>76.2</ele>
        <time>2017-12-21T19:28:21Z</time>
      </trkpt>
      <trkpt lat="62.635519013108" lon="17.986582501211">
        <ele>76.2</ele>
        <time>2017-12-21T19:28:22Z</time>
      </trkpt>
      <trkpt lat="62.635509709199" lon="17.986627512014">
        <ele>76.2</ele>
        <time>2017-12-21T19:28:23Z</time>
      </trkpt>
      <trkpt lat="62.635496717254" lon="17.986670343523">
        <ele>76.2</ele>
        <time>2017-12-21T19:28:24Z</time>
      </trkpt>
      <trkpt lat="62.63549789072" lon="17.986711833928">
        <ele>76.4</ele>
        <time>2017-12-21T19:28:25Z</time>
      </trkpt>
      <trkpt lat="62.635480204911" lon="17.986749803935">
        <ele>76.4</ele>
        <time>2017-12-21T19:28:26Z</time>
      </trkpt>
      <trkpt lat="62.635470649545" lon="17.986815937126">
        <ele>76.4</ele>
        <time>2017-12-21T19:28:27Z</time>
      </trkpt>
      <trkpt lat="62.635452796098" lon="17.986857176074">
        <ele>76.6</ele>
        <time>2017-12-21T19:28:28Z</time>
      </trkpt>
      <trkpt lat="62.635440726162" lon="17.986918783039">
        <ele>76.6</ele>
        <time>2017-12-21T19:28:29Z</time>
      </trkpt>
      <trkpt lat="62.635430919339" lon="17.986950969535">
        <ele>76.8</ele>
        <time>2017-12-21T19:28:30Z</time>
      </trkpt>
      <trkpt lat="62.635416753928" lon="17.98699748908">
        <ele>76.8</ele>
        <time>2017-12-21T19:28:31Z</time>
      </trkpt>
      <trkpt lat="62.63540233706" lon="17.987047026109">
        <ele>76.8</ele>
        <time>2017-12-21T19:28:32Z</time>
      </trkpt>
      <trkpt lat="62.635384064518" lon="17.987075692207">
        <ele>77</ele>
        <time>2017-12-21T19:28:33Z</time>
      </trkpt>
      <trkpt lat="62.635366211071" lon="17.98711651206">
        <ele>77</ele>
        <time>2017-12-21T19:28:34Z</time>
      </trkpt>
      <trkpt lat="62.635349447271" lon="17.987157248094">
        <ele>77.2</ele>
        <time>2017-12-21T19:28:35Z</time>
      </trkpt>
      <trkpt lat="62.635331845281" lon="17.987196643024">
        <ele>77.2</ele>
        <time>2017-12-21T19:28:36Z</time>
      </trkpt>
      <trkpt lat="62.635315668214" lon="17.987232685194">
        <ele>77.4</ele>
        <time>2017-12-21T19:28:37Z</time>
      </trkpt>
      <trkpt lat="62.635291025428" lon="17.987276438712">
        <ele>77.4</ele>
        <time>2017-12-21T19:28:38Z</time>
      </trkpt>
      <trkpt lat="62.635276357103" lon="17.987307870837">
        <ele>77.6</ele>
        <time>2017-12-21T19:28:39Z</time>
      </trkpt>
      <trkpt lat="62.6352481101" lon="17.987345254111">
        <ele>77.6</ele>
        <time>2017-12-21T19:28:40Z</time>
      </trkpt>
      <trkpt lat="62.635236878354" lon="17.987369226345">
        <ele>77.6</ele>
        <time>2017-12-21T19:28:41Z</time>
      </trkpt>
      <trkpt lat="62.635217851441" lon="17.9873981439">
        <ele>77.8</ele>
        <time>2017-12-21T19:28:42Z</time>
      </trkpt>
      <trkpt lat="62.635208212256" lon="17.987429827482">
        <ele>77.8</ele>
        <time>2017-12-21T19:28:43Z</time>
      </trkpt>
      <trkpt lat="62.635194046845" lon="17.987454386449">
        <ele>78</ele>
        <time>2017-12-21T19:28:44Z</time>
      </trkpt>
      <trkpt lat="62.635185078212" lon="17.987481795262">
        <ele>78</ele>
        <time>2017-12-21T19:28:45Z</time>
      </trkpt>
      <trkpt lat="62.635166470394" lon="17.987515239043">
        <ele>78.2</ele>
        <time>2017-12-21T19:28:46Z</time>
      </trkpt>
      <trkpt lat="62.635147862576" lon="17.987550945937">
        <ele>78.2</ele>
        <time>2017-12-21T19:28:47Z</time>
      </trkpt>
      <trkpt lat="62.63513746902" lon="17.987589754134">
        <ele>78.4</ele>
        <time>2017-12-21T19:28:48Z</time>
      </trkpt>
      <trkpt lat="62.635115005528" lon="17.9876244552">
        <ele>78.6</ele>
        <time>2017-12-21T19:28:49Z</time>
      </trkpt>
      <trkpt lat="62.63510897056" lon="17.987672483487">
        <ele>78.6</ele>
        <time>2017-12-21T19:28:50Z</time>
      </trkpt>
      <trkpt lat="62.635090027466" lon="17.987695449893">
        <ele>78.8</ele>
        <time>2017-12-21T19:28:51Z</time>
      </trkpt>
      <trkpt lat="62.635068150707" lon="17.987731324425">
        <ele>78.8</ele>
        <time>2017-12-21T19:28:52Z</time>
      </trkpt>
      <trkpt lat="62.635053566201" lon="17.987765187301">
        <ele>79</ele>
        <time>2017-12-21T19:28:53Z</time>
      </trkpt>
      <trkpt lat="62.635037975867" lon="17.987807851172">
        <ele>79.2</ele>
        <time>2017-12-21T19:28:54Z</time>
      </trkpt>
      <trkpt lat="62.635019870963" lon="17.987852191423">
        <ele>79.2</ele>
        <time>2017-12-21T19:28:55Z</time>
      </trkpt>
      <trkpt lat="62.634999000032" lon="17.987873146173">
        <ele>79.4</ele>
        <time>2017-12-21T19:28:56Z</time>
      </trkpt>
      <trkpt lat="62.634981900956" lon="17.987923940487">
        <ele>79.4</ele>
        <time>2017-12-21T19:28:57Z</time>
      </trkpt>
      <trkpt lat="62.634960443292" lon="17.987942464486">
        <ele>79.6</ele>
        <time>2017-12-21T19:28:58Z</time>
      </trkpt>
      <trkpt lat="62.634938231257" lon="17.987967777824">
        <ele>79.8</ele>
        <time>2017-12-21T19:28:59Z</time>
      </trkpt>
      <trkpt lat="62.634925239312" lon="17.987978003742">
        <ele>79.8</ele>
        <time>2017-12-21T19:29:00Z</time>
      </trkpt>
      <trkpt lat="62.634901350897" lon="17.988001305424">
        <ele>80</ele>
        <time>2017-12-21T19:29:01Z</time>
      </trkpt>
      <trkpt lat="62.634875031731" lon="17.988019829423">
        <ele>80.2</ele>
        <time>2017-12-21T19:29:02Z</time>
      </trkpt>
      <trkpt lat="62.63485751356" lon="17.988031396445">
        <ele>80.4</ele>
        <time>2017-12-21T19:29:03Z</time>
      </trkpt>
      <trkpt lat="62.634827841634" lon="17.988052015919">
        <ele>80.8</ele>
        <time>2017-12-21T19:29:04Z</time>
      </trkpt>
      <trkpt lat="62.634800851916" lon="17.98809300341">
        <ele>81</ele>
        <time>2017-12-21T19:29:05Z</time>
      </trkpt>
      <trkpt lat="62.634780651537" lon="17.988104402794">
        <ele>81</ele>
        <time>2017-12-21T19:29:06Z</time>
      </trkpt>
      <trkpt lat="62.634753997095" lon="17.988112030323">
        <ele>81.2</ele>
        <time>2017-12-21T19:29:07Z</time>
      </trkpt>
      <trkpt lat="62.634729605766" lon="17.988128710304">
        <ele>81.2</ele>
        <time>2017-12-21T19:29:08Z</time>
      </trkpt>
      <trkpt lat="62.634702616048" lon="17.988141702249">
        <ele>81.2</ele>
        <time>2017-12-21T19:29:09Z</time>
      </trkpt>
      <trkpt lat="62.634672189751" lon="17.988150754701">
        <ele>81.2</ele>
        <time>2017-12-21T19:29:10Z</time>
      </trkpt>
      <trkpt lat="62.634643439834" lon="17.988145474104">
        <ele>81.4</ele>
        <time>2017-12-21T19:29:11Z</time>
      </trkpt>
      <trkpt lat="62.634628520052" lon="17.988150251787">
        <ele>81.4</ele>
        <time>2017-12-21T19:29:12Z</time>
      </trkpt>
      <trkpt lat="62.634594740995" lon="17.98815670585">
        <ele>81.4</ele>
        <time>2017-12-21T19:29:13Z</time>
      </trkpt>
      <trkpt lat="62.634579402118" lon="17.988142624258">
        <ele>81.6</ele>
        <time>2017-12-21T19:29:14Z</time>
      </trkpt>
      <trkpt lat="62.634553837323" lon="17.988158885144">
        <ele>81.6</ele>
        <time>2017-12-21T19:29:15Z</time>
      </trkpt>
      <trkpt lat="62.63452642851" lon="17.988165255388">
        <ele>81.8</ele>
        <time>2017-12-21T19:29:16Z</time>
      </trkpt>
      <trkpt lat="62.634497762412" lon="17.98819107164">
        <ele>81.8</ele>
        <time>2017-12-21T19:29:17Z</time>
      </trkpt>
      <trkpt lat="62.634477897309" lon="17.988185958681">
        <ele>82</ele>
        <time>2017-12-21T19:29:18Z</time>
      </trkpt>
      <trkpt lat="62.634447303374" lon="17.988215295331">
        <ele>82</ele>
        <time>2017-12-21T19:29:19Z</time>
      </trkpt>
      <trkpt lat="62.634419643104" lon="17.988227616724">
        <ele>82</ele>
        <time>2017-12-21T19:29:20Z</time>
      </trkpt>
      <trkpt lat="62.634399778001" lon="17.988227616724">
        <ele>82</ele>
        <time>2017-12-21T19:29:21Z</time>
      </trkpt>
      <trkpt lat="62.634371447179" lon="17.988237339728">
        <ele>82</ele>
        <time>2017-12-21T19:29:22Z</time>
      </trkpt>
      <trkpt lat="62.634340015054" lon="17.988237088271">
        <ele>82.2</ele>
        <time>2017-12-21T19:29:23Z</time>
      </trkpt>
      <trkpt lat="62.634321155779" lon="17.988241111583">
        <ele>82.2</ele>
        <time>2017-12-21T19:29:24Z</time>
      </trkpt>
      <trkpt lat="62.634296177717" lon="17.988244799619">
        <ele>82.4</ele>
        <time>2017-12-21T19:29:25Z</time>
      </trkpt>
      <trkpt lat="62.634270110008" lon="17.988253432976">
        <ele>82.6</ele>
        <time>2017-12-21T19:29:26Z</time>
      </trkpt>
      <trkpt lat="62.634242365919" lon="17.988255109356">
        <ele>82.8</ele>
        <time>2017-12-21T19:29:27Z</time>
      </trkpt>
      <trkpt lat="62.634210682337" lon="17.988241195402">
        <ele>82.8</ele>
        <time>2017-12-21T19:29:28Z</time>
      </trkpt>
      <trkpt lat="62.634181680963" lon="17.988232645864">
        <ele>82.8</ele>
        <time>2017-12-21T19:29:29Z</time>
      </trkpt>
      <trkpt lat="62.634153685417" lon="17.988211272019">
        <ele>82.8</ele>
        <time>2017-12-21T19:29:30Z</time>
      </trkpt>
      <trkpt lat="62.634128707355" lon="17.988218480453">
        <ele>82.6</ele>
        <time>2017-12-21T19:29:31Z</time>
      </trkpt>
      <trkpt lat="62.634095179755" lon="17.988186713052">
        <ele>82.6</ele>
        <time>2017-12-21T19:29:32Z</time>
      </trkpt>
      <trkpt lat="62.634065088734" lon="17.988177995876">
        <ele>82.6</ele>
        <time>2017-12-21T19:29:33Z</time>
      </trkpt>
      <trkpt lat="62.63403608736" lon="17.988156789669">
        <ele>82.8</ele>
        <time>2017-12-21T19:29:34Z</time>
      </trkpt>
      <trkpt lat="62.634007840357" lon="17.988143127172">
        <ele>83</ele>
        <time>2017-12-21T19:29:35Z</time>
      </trkpt>
      <trkpt lat="62.633985376865" lon="17.98813910386">
        <ele>83.4</ele>
        <time>2017-12-21T19:29:36Z</time>
      </trkpt>
      <trkpt lat="62.633956878405" lon="17.98811395816">
        <ele>83.6</ele>
        <time>2017-12-21T19:29:37Z</time>
      </trkpt>
      <trkpt lat="62.63393550456" lon="17.988096775265">
        <ele>83.6</ele>
        <time>2017-12-21T19:29:38Z</time>
      </trkpt>
      <trkpt lat="62.633905832634" lon="17.988068863538">
        <ele>83.6</ele>
        <time>2017-12-21T19:29:39Z</time>
      </trkpt>
      <trkpt lat="62.633876747441" lon="17.988045142761">
        <ele>83.6</ele>
        <time>2017-12-21T19:29:40Z</time>
      </trkpt>
      <trkpt lat="62.633847243153" lon="17.988044136933">
        <ele>84</ele>
        <time>2017-12-21T19:29:41Z</time>
      </trkpt>
      <trkpt lat="62.633818828512" lon="17.988024020373">
        <ele>84</ele>
        <time>2017-12-21T19:29:42Z</time>
      </trkpt>
      <trkpt lat="62.63379049769" lon="17.988001724519">
        <ele>84</ele>
        <time>2017-12-21T19:29:43Z</time>
      </trkpt>
      <trkpt lat="62.6337645138" lon="17.987976830276">
        <ele>84.2</ele>
        <time>2017-12-21T19:29:44Z</time>
      </trkpt>
      <trkpt lat="62.633735847702" lon="17.987932490025">
        <ele>84.2</ele>
        <time>2017-12-21T19:29:45Z</time>
      </trkpt>
      <trkpt lat="62.633712126925" lon="17.987907344325">
        <ele>84.4</ele>
        <time>2017-12-21T19:29:46Z</time>
      </trkpt>
      <trkpt lat="62.633687316501" lon="17.987883372091">
        <ele>84.4</ele>
        <time>2017-12-21T19:29:47Z</time>
      </trkpt>
      <trkpt lat="62.633659907688" lon="17.987860238047">
        <ele>84.4</ele>
        <time>2017-12-21T19:29:48Z</time>
      </trkpt>
      <trkpt lat="62.633640210223" lon="17.987845904998">
        <ele>84.4</ele>
        <time>2017-12-21T19:29:49Z</time>
      </trkpt>
      <trkpt lat="62.63362034512" lon="17.987817993271">
        <ele>84.6</ele>
        <time>2017-12-21T19:29:50Z</time>
      </trkpt>
      <trkpt lat="62.633610370659" lon="17.987789913906">
        <ele>84.6</ele>
        <time>2017-12-21T19:29:51Z</time>
      </trkpt>
      <trkpt lat="62.633588242443" lon="17.987785220042">
        <ele>84.8</ele>
        <time>2017-12-21T19:29:52Z</time>
      </trkpt>
      <trkpt lat="62.633560749811" lon="17.987748423501">
        <ele>85</ele>
        <time>2017-12-21T19:29:53Z</time>
      </trkpt>
      <trkpt lat="62.633536358482" lon="17.987722188154">
        <ele>85.2</ele>
        <time>2017-12-21T19:29:54Z</time>
      </trkpt>
      <trkpt lat="62.633514062628" lon="17.98769570135">
        <ele>85.2</ele>
        <time>2017-12-21T19:29:55Z</time>
      </trkpt>
      <trkpt lat="62.633488162557" lon="17.987663598673">
        <ele>85.4</ele>
        <time>2017-12-21T19:29:56Z</time>
      </trkpt>
      <trkpt lat="62.63346779454" lon="17.987640213172">
        <ele>85.6</ele>
        <time>2017-12-21T19:29:57Z</time>
      </trkpt>
      <trkpt lat="62.63344348703" lon="17.98760433864">
        <ele>85.4</ele>
        <time>2017-12-21T19:29:58Z</time>
      </trkpt>
      <trkpt lat="62.633427477601" lon="17.987589586496">
        <ele>85.6</ele>
        <time>2017-12-21T19:29:59Z</time>
      </trkpt>
      <trkpt lat="62.63340744486" lon="17.98755237086">
        <ele>85.4</ele>
        <time>2017-12-21T19:30:00Z</time>
      </trkpt>
      <trkpt lat="62.633390764879" lon="17.987516915423">
        <ele>85.6</ele>
        <time>2017-12-21T19:30:01Z</time>
      </trkpt>
      <trkpt lat="62.63337475545" lon="17.987484980384">
        <ele>85.6</ele>
        <time>2017-12-21T19:30:02Z</time>
      </trkpt>
      <trkpt lat="62.633356818184" lon="17.987431755319">
        <ele>85.6</ele>
        <time>2017-12-21T19:30:03Z</time>
      </trkpt>
      <trkpt lat="62.633342568954" lon="17.987386912154">
        <ele>85.8</ele>
        <time>2017-12-21T19:30:04Z</time>
      </trkpt>
      <trkpt lat="62.633318764358" lon="17.98734617612">
        <ele>86</ele>
        <time>2017-12-21T19:30:05Z</time>
      </trkpt>
      <trkpt lat="62.633293283382" lon="17.98727073902">
        <ele>86.2</ele>
        <time>2017-12-21T19:30:06Z</time>
      </trkpt>
      <trkpt lat="62.633274005012" lon="17.987221034353">
        <ele>86.4</ele>
        <time>2017-12-21T19:30:07Z</time>
      </trkpt>
      <trkpt lat="62.633257325031" lon="17.987109052169">
        <ele>86.6</ele>
        <time>2017-12-21T19:30:08Z</time>
      </trkpt>
      <trkpt lat="62.633232346969" lon="17.986999919831">
        <ele>86.6</ele>
        <time>2017-12-21T19:30:09Z</time>
      </trkpt>
      <trkpt lat="62.633216840454" lon="17.986883579059">
        <ele>86.6</ele>
        <time>2017-12-21T19:30:10Z</time>
      </trkpt>
      <trkpt lat="62.633204854337" lon="17.98677201597">
        <ele>85.8</ele>
        <time>2017-12-21T19:30:11Z</time>
      </trkpt>
      <trkpt lat="62.633193790229" lon="17.986654334094">
        <ele>85</ele>
        <time>2017-12-21T19:30:12Z</time>
      </trkpt>
      <trkpt lat="62.633189934555" lon="17.986533886191">
        <ele>83.8</ele>
        <time>2017-12-21T19:30:13Z</time>
      </trkpt>
      <trkpt lat="62.633188425813" lon="17.986436153237">
        <ele>83</ele>
        <time>2017-12-21T19:30:14Z</time>
      </trkpt>
      <trkpt lat="62.633180546827" lon="17.986309418909">
        <ele>82.2</ele>
        <time>2017-12-21T19:30:15Z</time>
      </trkpt>
      <trkpt lat="62.633177864619" lon="17.986187965178">
        <ele>82</ele>
        <time>2017-12-21T19:30:16Z</time>
      </trkpt>
      <trkpt lat="62.633178954266" lon="17.986047149258">
        <ele>81.8</ele>
        <time>2017-12-21T19:30:17Z</time>
      </trkpt>
      <trkpt lat="62.633181217379" lon="17.985931814314">
        <ele>81.6</ele>
        <time>2017-12-21T19:30:18Z</time>
      </trkpt>
      <trkpt lat="62.633185911243" lon="17.985800721398">
        <ele>81.2</ele>
        <time>2017-12-21T19:30:19Z</time>
      </trkpt>
      <trkpt lat="62.633186917071" lon="17.985669544663">
        <ele>81</ele>
        <time>2017-12-21T19:30:20Z</time>
      </trkpt>
      <trkpt lat="62.633192700582" lon="17.98555580228">
        <ele>80.8</ele>
        <time>2017-12-21T19:30:21Z</time>
      </trkpt>
      <trkpt lat="62.633198903188" lon="17.985423535898">
        <ele>80.6</ele>
        <time>2017-12-21T19:30:22Z</time>
      </trkpt>
      <trkpt lat="62.63321382297" lon="17.985270985318">
        <ele>80.4</ele>
        <time>2017-12-21T19:30:23Z</time>
      </trkpt>
      <trkpt lat="62.633235112996" lon="17.985125391715">
        <ele>80.2</ele>
        <time>2017-12-21T19:30:24Z</time>
      </trkpt>
      <trkpt lat="62.633264449646" lon="17.984965381244">
        <ele>80</ele>
        <time>2017-12-21T19:30:25Z</time>
      </trkpt>
      <trkpt lat="62.63329261283" lon="17.984831187025">
        <ele>79.6</ele>
        <time>2017-12-21T19:30:26Z</time>
      </trkpt>
      <trkpt lat="62.633323961136" lon="17.984689281458">
        <ele>79.2</ele>
        <time>2017-12-21T19:30:27Z</time>
      </trkpt>
      <trkpt lat="62.6333538007" lon="17.984563301501">
        <ele>78.8</ele>
        <time>2017-12-21T19:30:28Z</time>
      </trkpt>
      <trkpt lat="62.633381209513" lon="17.984442266865">
        <ele>78.2</ele>
        <time>2017-12-21T19:30:29Z</time>
      </trkpt>
      <trkpt lat="62.633395458743" lon="17.984338163667">
        <ele>77.8</ele>
        <time>2017-12-21T19:30:30Z</time>
      </trkpt>
      <trkpt lat="62.633408785964" lon="17.984226349121">
        <ele>77.4</ele>
        <time>2017-12-21T19:30:31Z</time>
      </trkpt>
      <trkpt lat="62.633423705746" lon="17.984115624222">
        <ele>77.2</ele>
        <time>2017-12-21T19:30:32Z</time>
      </trkpt>
      <trkpt lat="62.633437032967" lon="17.984043958977">
        <ele>77.2</ele>
        <time>2017-12-21T19:30:33Z</time>
      </trkpt>
      <trkpt lat="62.63344851617" lon="17.983967264592">
        <ele>77.2</ele>
        <time>2017-12-21T19:30:34Z</time>
      </trkpt>
      <trkpt lat="62.633453377672" lon="17.983879925194">
        <ele>77.2</ele>
        <time>2017-12-21T19:30:35Z</time>
      </trkpt>
      <trkpt lat="62.633465699065" lon="17.983812283261">
        <ele>77.4</ele>
        <time>2017-12-21T19:30:36Z</time>
      </trkpt>
      <trkpt lat="62.633477601363" lon="17.983719998542">
        <ele>77.8</ele>
        <time>2017-12-21T19:30:37Z</time>
      </trkpt>
      <trkpt lat="62.633494281344" lon="17.983620337751">
        <ele>78.2</ele>
        <time>2017-12-21T19:30:38Z</time>
      </trkpt>
      <trkpt lat="62.633507440927" lon="17.983527885394">
        <ele>78.6</ele>
        <time>2017-12-21T19:30:39Z</time>
      </trkpt>
      <trkpt lat="62.633519678501" lon="17.983448927896">
        <ele>79</ele>
        <time>2017-12-21T19:30:40Z</time>
      </trkpt>
      <trkpt lat="62.633534933559" lon="17.983364857439">
        <ele>79.2</ele>
        <time>2017-12-21T19:30:41Z</time>
      </trkpt>
      <trkpt lat="62.633543566916" lon="17.983277350403">
        <ele>79</ele>
        <time>2017-12-21T19:30:42Z</time>
      </trkpt>
      <trkpt lat="62.633548763694" lon="17.98319629743">
        <ele>79</ele>
        <time>2017-12-21T19:30:43Z</time>
      </trkpt>
      <trkpt lat="62.633568964073" lon="17.983109209489">
        <ele>79</ele>
        <time>2017-12-21T19:30:44Z</time>
      </trkpt>
      <trkpt lat="62.633569550806" lon="17.983031425457">
        <ele>79.2</ele>
        <time>2017-12-21T19:30:45Z</time>
      </trkpt>
      <trkpt lat="62.633571311005" lon="17.982960430764">
        <ele>79.2</ele>
        <time>2017-12-21T19:30:46Z</time>
      </trkpt>
      <trkpt lat="62.63360358132" lon="17.982875438298">
        <ele>79.2</ele>
        <time>2017-12-21T19:30:47Z</time>
      </trkpt>
      <trkpt lat="62.633610622116" lon="17.982822716147">
        <ele>79.2</ele>
        <time>2017-12-21T19:30:48Z</time>
      </trkpt>
      <trkpt lat="62.633617746731" lon="17.982722300985">
        <ele>79.2</ele>
        <time>2017-12-21T19:30:49Z</time>
      </trkpt>
      <trkpt lat="62.633628978477" lon="17.982625657678">
        <ele>79.2</ele>
        <time>2017-12-21T19:30:50Z</time>
      </trkpt>
      <trkpt lat="62.633615735075" lon="17.982560362677">
        <ele>79.4</ele>
        <time>2017-12-21T19:30:51Z</time>
      </trkpt>
      <trkpt lat="62.633628559382" lon="17.982480064075">
        <ele>79.4</ele>
        <time>2017-12-21T19:30:52Z</time>
      </trkpt>
      <trkpt lat="62.633640210223" lon="17.982390880659">
        <ele>79.2</ele>
        <time>2017-12-21T19:30:53Z</time>
      </trkpt>
      <trkpt lat="62.633640713137" lon="17.982321981441">
        <ele>79.4</ele>
        <time>2017-12-21T19:30:54Z</time>
      </trkpt>
      <trkpt lat="62.633631576866" lon="17.982239419726">
        <ele>79.4</ele>
        <time>2017-12-21T19:30:55Z</time>
      </trkpt>
      <trkpt lat="62.633635935454" lon="17.982167251567">
        <ele>79.6</ele>
        <time>2017-12-21T19:30:56Z</time>
      </trkpt>
      <trkpt lat="62.633648592123" lon="17.98208569568">
        <ele>79.4</ele>
        <time>2017-12-21T19:30:57Z</time>
      </trkpt>
      <trkpt lat="62.633660075326" lon="17.98199936211">
        <ele>79.6</ele>
        <time>2017-12-21T19:30:58Z</time>
      </trkpt>
      <trkpt lat="62.633664517733" lon="17.981946723778">
        <ele>79.4</ele>
        <time>2017-12-21T19:30:59Z</time>
      </trkpt>
      <trkpt lat="62.633679186058" lon="17.981864581158">
        <ele>79.6</ele>
        <time>2017-12-21T19:31:00Z</time>
      </trkpt>
      <trkpt lat="62.633690333985" lon="17.981781181253">
        <ele>79.4</ele>
        <time>2017-12-21T19:31:01Z</time>
      </trkpt>
      <trkpt lat="62.633691172175" lon="17.981709432189">
        <ele>79.4</ele>
        <time>2017-12-21T19:31:02Z</time>
      </trkpt>
      <trkpt lat="62.633698715885" lon="17.981619829678">
        <ele>79.4</ele>
        <time>2017-12-21T19:31:03Z</time>
      </trkpt>
      <trkpt lat="62.633705086129" lon="17.981550679003">
        <ele>79.4</ele>
        <time>2017-12-21T19:31:04Z</time>
      </trkpt>
      <trkpt lat="62.633717994255" lon="17.981471470048">
        <ele>79.4</ele>
        <time>2017-12-21T19:31:05Z</time>
      </trkpt>
      <trkpt lat="62.633722017567" lon="17.98140592359">
        <ele>79.4</ele>
        <time>2017-12-21T19:31:06Z</time>
      </trkpt>
      <trkpt lat="62.633725454146" lon="17.981339287485">
        <ele>79.6</ele>
        <time>2017-12-21T19:31:07Z</time>
      </trkpt>
      <trkpt lat="62.633753030597" lon="17.981261671091">
        <ele>79.6</ele>
        <time>2017-12-21T19:31:08Z</time>
      </trkpt>
      <trkpt lat="62.633771722234" lon="17.981179360833">
        <ele>79.6</ele>
        <time>2017-12-21T19:31:09Z</time>
      </trkpt>
      <trkpt lat="62.63378798312" lon="17.98112177718">
        <ele>79.6</ele>
        <time>2017-12-21T19:31:10Z</time>
      </trkpt>
      <trkpt lat="62.633806507119" lon="17.981052375048">
        <ele>79.8</ele>
        <time>2017-12-21T19:31:11Z</time>
      </trkpt>
      <trkpt lat="62.633828300059" lon="17.981003843847">
        <ele>79.8</ele>
        <time>2017-12-21T19:31:12Z</time>
      </trkpt>
      <trkpt lat="62.633851015008" lon="17.980938632665">
        <ele>79.6</ele>
        <time>2017-12-21T19:31:13Z</time>
      </trkpt>
      <trkpt lat="62.633863923134" lon="17.980913235508">
        <ele>79.8</ele>
        <time>2017-12-21T19:31:14Z</time>
      </trkpt>
      <trkpt lat="62.633891415766" lon="17.98085020362">
        <ele>79.8</ele>
        <time>2017-12-21T19:31:15Z</time>
      </trkpt>
      <trkpt lat="62.633910777955" lon="17.980795805089">
        <ele>79.8</ele>
        <time>2017-12-21T19:31:16Z</time>
      </trkpt>
      <trkpt lat="62.633937432397" lon="17.980734868676">
        <ele>80.2</ele>
        <time>2017-12-21T19:31:17Z</time>
      </trkpt>
      <trkpt lat="62.63395394474" lon="17.980665047449">
        <ele>80.2</ele>
        <time>2017-12-21T19:31:18Z</time>
      </trkpt>
      <trkpt lat="62.633973809843" lon="17.980612073841">
        <ele>80.4</ele>
        <time>2017-12-21T19:31:19Z</time>
      </trkpt>
      <trkpt lat="62.634002392122" lon="17.980537055836">
        <ele>80.4</ele>
        <time>2017-12-21T19:31:20Z</time>
      </trkpt>
      <trkpt lat="62.63400926528" lon="17.980486932074">
        <ele>80.4</ele>
        <time>2017-12-21T19:31:21Z</time>
      </trkpt>
      <trkpt lat="62.634043547251" lon="17.980417194666">
        <ele>80.6</ele>
        <time>2017-12-21T19:31:22Z</time>
      </trkpt>
      <trkpt lat="62.634058467033" lon="17.980371932406">
        <ele>80.4</ele>
        <time>2017-12-21T19:31:23Z</time>
      </trkpt>
      <trkpt lat="62.634082020172" lon="17.980326921603">
        <ele>80.6</ele>
        <time>2017-12-21T19:31:24Z</time>
      </trkpt>
      <trkpt lat="62.634110015718" lon="17.980258860575">
        <ele>80.6</ele>
        <time>2017-12-21T19:31:25Z</time>
      </trkpt>
      <trkpt lat="62.634134323228" lon="17.980217118713">
        <ele>80.6</ele>
        <time>2017-12-21T19:31:26Z</time>
      </trkpt>
      <trkpt lat="62.634164917163" lon="17.980152661902">
        <ele>80.6</ele>
        <time>2017-12-21T19:31:27Z</time>
      </trkpt>
      <trkpt lat="62.634193080347" lon="17.980097509">
        <ele>80.6</ele>
        <time>2017-12-21T19:31:28Z</time>
      </trkpt>
      <trkpt lat="62.634218226047" lon="17.98002123371">
        <ele>80.6</ele>
        <time>2017-12-21T19:31:29Z</time>
      </trkpt>
      <trkpt lat="62.634238510245" lon="17.979967421912">
        <ele>80.8</ele>
        <time>2017-12-21T19:31:30Z</time>
      </trkpt>
      <trkpt lat="62.634265835239" lon="17.979874382822">
        <ele>80.8</ele>
        <time>2017-12-21T19:31:31Z</time>
      </trkpt>
      <trkpt lat="62.634283018134" lon="17.979806154156">
        <ele>81</ele>
        <time>2017-12-21T19:31:32Z</time>
      </trkpt>
      <trkpt lat="62.634303386151" lon="17.979724262993">
        <ele>81</ele>
        <time>2017-12-21T19:31:33Z</time>
      </trkpt>
      <trkpt lat="62.634322915978" lon="17.979636169224">
        <ele>80.8</ele>
        <time>2017-12-21T19:31:34Z</time>
      </trkpt>
      <trkpt lat="62.634339093045" lon="17.979572718241">
        <ele>80.8</ele>
        <time>2017-12-21T19:31:35Z</time>
      </trkpt>
      <trkpt lat="62.634360634528" lon="17.979497616417">
        <ele>80.6</ele>
        <time>2017-12-21T19:31:36Z</time>
      </trkpt>
      <trkpt lat="62.634360299252" lon="17.979432489054">
        <ele>80.4</ele>
        <time>2017-12-21T19:31:37Z</time>
      </trkpt>
      <trkpt lat="62.634384690581" lon="17.979352609547">
        <ele>80.2</ele>
        <time>2017-12-21T19:31:38Z</time>
      </trkpt>
      <trkpt lat="62.63440070001" lon="17.979278848827">
        <ele>80.4</ele>
        <time>2017-12-21T19:31:39Z</time>
      </trkpt>
      <trkpt lat="62.634412183213" lon="17.979210284885">
        <ele>80.2</ele>
        <time>2017-12-21T19:31:40Z</time>
      </trkpt>
      <trkpt lat="62.634430455755" lon="17.979146498626">
        <ele>80.2</ele>
        <time>2017-12-21T19:31:41Z</time>
      </trkpt>
      <trkpt lat="62.634446213727" lon="17.979072067354">
        <ele>80.2</ele>
        <time>2017-12-21T19:31:42Z</time>
      </trkpt>
      <trkpt lat="62.634461301147" lon="17.979004928335">
        <ele>80</ele>
        <time>2017-12-21T19:31:43Z</time>
      </trkpt>
      <trkpt lat="62.634496588946" lon="17.978904596992">
        <ele>80</ele>
        <time>2017-12-21T19:31:45Z</time>
      </trkpt>
      <trkpt lat="62.634516705506" lon="17.978864615329">
        <ele>80</ele>
        <time>2017-12-21T19:31:46Z</time>
      </trkpt>
      <trkpt lat="62.634544114319" lon="17.978830836272">
        <ele>80</ele>
        <time>2017-12-21T19:31:47Z</time>
      </trkpt>
      <trkpt lat="62.634572780417" lon="17.978818347241">
        <ele>80</ele>
        <time>2017-12-21T19:31:48Z</time>
      </trkpt>
      <trkpt lat="62.634595327728" lon="17.978803846554">
        <ele>80.2</ele>
        <time>2017-12-21T19:31:49Z</time>
      </trkpt>
      <trkpt lat="62.634613516451" lon="17.978790016419">
        <ele>80.2</ele>
        <time>2017-12-21T19:31:50Z</time>
      </trkpt>
      <trkpt lat="62.634634387382" lon="17.978794794102">
        <ele>80.4</ele>
        <time>2017-12-21T19:31:51Z</time>
      </trkpt>
      <trkpt lat="62.634660790367" lon="17.978807199314">
        <ele>80.4</ele>
        <time>2017-12-21T19:31:52Z</time>
      </trkpt>
      <trkpt lat="62.634693563596" lon="17.978821448544">
        <ele>80.4</ele>
        <time>2017-12-21T19:31:53Z</time>
      </trkpt>
      <trkpt lat="62.634721391504" lon="17.978838799077">
        <ele>80.4</ele>
        <time>2017-12-21T19:31:54Z</time>
      </trkpt>
      <trkpt lat="62.634757182217" lon="17.978859753827">
        <ele>80.2</ele>
        <time>2017-12-21T19:31:55Z</time>
      </trkpt>
      <trkpt lat="62.634788195247" lon="17.978878948378">
        <ele>80.2</ele>
        <time>2017-12-21T19:31:56Z</time>
      </trkpt>
      <trkpt lat="62.634819627372" lon="17.9788905154">
        <ele>79.8</ele>
        <time>2017-12-21T19:31:57Z</time>
      </trkpt>
      <trkpt lat="62.634862710338" lon="17.978910967236">
        <ele>79.6</ele>
        <time>2017-12-21T19:31:58Z</time>
      </trkpt>
      <trkpt lat="62.634897579042" lon="17.978926054656">
        <ele>79.4</ele>
        <time>2017-12-21T19:31:59Z</time>
      </trkpt>
      <trkpt lat="62.63492456876" lon="17.978931083796">
        <ele>79.2</ele>
        <time>2017-12-21T19:32:00Z</time>
      </trkpt>
      <trkpt lat="62.634958180179" lon="17.978953295831">
        <ele>79</ele>
        <time>2017-12-21T19:32:01Z</time>
      </trkpt>
      <trkpt lat="62.634981733318" lon="17.978960252808">
        <ele>79</ele>
        <time>2017-12-21T19:32:02Z</time>
      </trkpt>
      <trkpt lat="62.635010315597" lon="17.978978441531">
        <ele>78.8</ele>
        <time>2017-12-21T19:32:03Z</time>
      </trkpt>
      <trkpt lat="62.635035880392" lon="17.978987242526">
        <ele>78.8</ele>
        <time>2017-12-21T19:32:04Z</time>
      </trkpt>
      <trkpt lat="62.635064881766" lon="17.978998222815">
        <ele>79</ele>
        <time>2017-12-21T19:32:05Z</time>
      </trkpt>
      <trkpt lat="62.635091452389" lon="17.979010628027">
        <ele>79</ele>
        <time>2017-12-21T19:32:06Z</time>
      </trkpt>
      <trkpt lat="62.635120369944" lon="17.979016914452">
        <ele>79</ele>
        <time>2017-12-21T19:32:07Z</time>
      </trkpt>
      <trkpt lat="62.635160435426" lon="17.979041808695">
        <ele>79</ele>
        <time>2017-12-21T19:32:08Z</time>
      </trkpt>
      <trkpt lat="62.635194968854" lon="17.97905312426">
        <ele>79</ele>
        <time>2017-12-21T19:32:09Z</time>
      </trkpt>
      <trkpt lat="62.635232268309" lon="17.979063769273">
        <ele>78.8</ele>
        <time>2017-12-21T19:32:10Z</time>
      </trkpt>
      <trkpt lat="62.635265628271" lon="17.979076090666">
        <ele>78.8</ele>
        <time>2017-12-21T19:32:11Z</time>
      </trkpt>
      <trkpt lat="62.635299742604" lon="17.979086316584">
        <ele>78.8</ele>
        <time>2017-12-21T19:32:12Z</time>
      </trkpt>
      <trkpt lat="62.635337209697" lon="17.97908413729">
        <ele>78.6</ele>
        <time>2017-12-21T19:32:13Z</time>
      </trkpt>
      <trkpt lat="62.635375263523" lon="17.979082125634">
        <ele>78.4</ele>
        <time>2017-12-21T19:32:14Z</time>
      </trkpt>
      <trkpt lat="62.635415915738" lon="17.979084221109">
        <ele>78.4</ele>
        <time>2017-12-21T19:32:15Z</time>
      </trkpt>
      <trkpt lat="62.635452963736" lon="17.97907156444">
        <ele>78.2</ele>
        <time>2017-12-21T19:32:16Z</time>
      </trkpt>
      <trkpt lat="62.635495879064" lon="17.979054884459">
        <ele>78</ele>
        <time>2017-12-21T19:32:17Z</time>
      </trkpt>
      <trkpt lat="62.635532759424" lon="17.979062679626">
        <ele>77.8</ele>
        <time>2017-12-21T19:32:18Z</time>
      </trkpt>
      <trkpt lat="62.635578692236" lon="17.979050442052">
        <ele>77.8</ele>
        <time>2017-12-21T19:32:19Z</time>
      </trkpt>
      <trkpt lat="62.635623451582" lon="17.97904893331">
        <ele>77.6</ele>
        <time>2017-12-21T19:32:20Z</time>
      </trkpt>
      <trkpt lat="62.635660918675" lon="17.979049352405">
        <ele>77.4</ele>
        <time>2017-12-21T19:32:21Z</time>
      </trkpt>
      <trkpt lat="62.635705594202" lon="17.979047340749">
        <ele>77.2</ele>
        <time>2017-12-21T19:32:22Z</time>
      </trkpt>
      <trkpt lat="62.635740462906" lon="17.979056644658">
        <ele>77</ele>
        <time>2017-12-21T19:32:23Z</time>
      </trkpt>
      <trkpt lat="62.635775583067" lon="17.979059410685">
        <ele>77</ele>
        <time>2017-12-21T19:32:24Z</time>
      </trkpt>
      <trkpt lat="62.63581137378" lon="17.979066786757">
        <ele>76.8</ele>
        <time>2017-12-21T19:32:25Z</time>
      </trkpt>
      <trkpt lat="62.635840626611" lon="17.979069301327">
        <ele>76.6</ele>
        <time>2017-12-21T19:32:26Z</time>
      </trkpt>
      <trkpt lat="62.63587088527" lon="17.979074414286">
        <ele>76.6</ele>
        <time>2017-12-21T19:32:27Z</time>
      </trkpt>
      <trkpt lat="62.635891420925" lon="17.979073157001">
        <ele>76.4</ele>
        <time>2017-12-21T19:32:28Z</time>
      </trkpt>
      <trkpt lat="62.635911621304" lon="17.979079611064">
        <ele>76.2</ele>
        <time>2017-12-21T19:32:29Z</time>
      </trkpt>
      <trkpt lat="62.635930648217" lon="17.97908749005">
        <ele>76.4</ele>
        <time>2017-12-21T19:32:30Z</time>
      </trkpt>
      <trkpt lat="62.635949088397" lon="17.979090926629">
        <ele>76.2</ele>
        <time>2017-12-21T19:32:31Z</time>
      </trkpt>
      <trkpt lat="62.635964930188" lon="17.979091178086">
        <ele>76.4</ele>
        <time>2017-12-21T19:32:32Z</time>
      </trkpt>
      <trkpt lat="62.635980101427" lon="17.979094698484">
        <ele>76.4</ele>
        <time>2017-12-21T19:32:33Z</time>
      </trkpt>
      <trkpt lat="62.635995440304" lon="17.979100984909">
        <ele>76.4</ele>
        <time>2017-12-21T19:32:34Z</time>
      </trkpt>
      <trkpt lat="62.636011030638" lon="17.97912101765">
        <ele>76.6</ele>
        <time>2017-12-21T19:32:35Z</time>
      </trkpt>
      <trkpt lat="62.636014970131" lon="17.979146079531">
        <ele>76.6</ele>
        <time>2017-12-21T19:32:36Z</time>
      </trkpt>
      <trkpt lat="62.636014634855" lon="17.979179942407">
        <ele>76.6</ele>
        <time>2017-12-21T19:32:37Z</time>
      </trkpt>
      <trkpt lat="62.636013880484" lon="17.979206177754">
        <ele>76.8</ele>
        <time>2017-12-21T19:32:38Z</time>
      </trkpt>
      <trkpt lat="62.636009102801" lon="17.979223947382">
        <ele>76.8</ele>
        <time>2017-12-21T19:32:39Z</time>
      </trkpt>
      <trkpt lat="62.636006001498" lon="17.979236520232">
        <ele>76.6</ele>
        <time>2017-12-21T19:32:40Z</time>
      </trkpt>
      <trkpt lat="62.636004576575" lon="17.979245153589">
        <ele>76.6</ele>
        <time>2017-12-21T19:32:41Z</time>
      </trkpt>
      <trkpt lat="62.636004660394" lon="17.979249595996">
        <ele>76.8</ele>
        <time>2017-12-21T19:32:42Z</time>
      </trkpt>
      <trkpt lat="62.635977922133" lon="17.97971277979">
        <ele>76.8</ele>
        <time>2017-12-21T19:32:54Z</time>
      </trkpt>
      <trkpt lat="62.635979095599" lon="17.979853008977">
        <ele>76.8</ele>
        <time>2017-12-21T19:32:55Z</time>
      </trkpt>
      <trkpt lat="62.63598655549" lon="17.979983096065">
        <ele>76.4</ele>
        <time>2017-12-21T19:32:56Z</time>
      </trkpt>
      <trkpt lat="62.636001810548" lon="17.980183423475">
        <ele>75.6</ele>
        <time>2017-12-21T19:32:57Z</time>
      </trkpt>
      <trkpt lat="62.636022849117" lon="17.980347708715">
        <ele>74.4</ele>
        <time>2017-12-21T19:32:58Z</time>
      </trkpt>
      <trkpt lat="62.636050174111" lon="17.980503612055">
        <ele>73.2</ele>
        <time>2017-12-21T19:32:59Z</time>
      </trkpt>
      <trkpt lat="62.636072134689" lon="17.980633028591">
        <ele>72.2</ele>
        <time>2017-12-21T19:33:00Z</time>
      </trkpt>
      <trkpt lat="62.636107338669" lon="17.980798068202">
        <ele>71</ele>
        <time>2017-12-21T19:33:01Z</time>
      </trkpt>
      <trkpt lat="62.636136675319" lon="17.980945002909">
        <ele>70.2</ele>
        <time>2017-12-21T19:33:02Z</time>
      </trkpt>
      <trkpt lat="62.636163832675" lon="17.981060337853">
        <ele>69.8</ele>
        <time>2017-12-21T19:33:03Z</time>
      </trkpt>
      <trkpt lat="62.636184703606" lon="17.981208529845">
        <ele>69.4</ele>
        <time>2017-12-21T19:33:04Z</time>
      </trkpt>
      <trkpt lat="62.636198366103" lon="17.981327469006">
        <ele>69.2</ele>
        <time>2017-12-21T19:33:05Z</time>
      </trkpt>
      <trkpt lat="62.636204065795" lon="17.981445821434">
        <ele>69</ele>
        <time>2017-12-21T19:33:06Z</time>
      </trkpt>
      <trkpt lat="62.63621370498" lon="17.981622344248">
        <ele>68.8</ele>
        <time>2017-12-21T19:33:07Z</time>
      </trkpt>
      <trkpt lat="62.636228540943" lon="17.981781265072">
        <ele>68.6</ele>
        <time>2017-12-21T19:33:08Z</time>
      </trkpt>
      <trkpt lat="62.636241700526" lon="17.981931636358">
        <ele>68.4</ele>
        <time>2017-12-21T19:33:09Z</time>
      </trkpt>
      <trkpt lat="62.63624807077" lon="17.982064489473">
        <ele>68.4</ele>
        <time>2017-12-21T19:33:10Z</time>
      </trkpt>
      <trkpt lat="62.636251842625" lon="17.9821846021">
        <ele>68.2</ele>
        <time>2017-12-21T19:33:11Z</time>
      </trkpt>
      <trkpt lat="62.636254357195" lon="17.982307564573">
        <ele>68.2</ele>
        <time>2017-12-21T19:33:12Z</time>
      </trkpt>
      <trkpt lat="62.636253016091" lon="17.982425414087">
        <ele>68.4</ele>
        <time>2017-12-21T19:33:13Z</time>
      </trkpt>
      <trkpt lat="62.636253267548" lon="17.982502611386">
        <ele>68.4</ele>
        <time>2017-12-21T19:33:14Z</time>
      </trkpt>
      <trkpt lat="62.636249579512" lon="17.982615096484">
        <ele>68.4</ele>
        <time>2017-12-21T19:33:15Z</time>
      </trkpt>
      <trkpt lat="62.636264750751" lon="17.982701849149">
        <ele>68.6</ele>
        <time>2017-12-21T19:33:16Z</time>
      </trkpt>
      <trkpt lat="62.63626399638" lon="17.982802683406">
        <ele>68.8</ele>
        <time>2017-12-21T19:33:17Z</time>
      </trkpt>
      <trkpt lat="62.636262487638" lon="17.982902260378">
        <ele>69</ele>
        <time>2017-12-21T19:33:18Z</time>
      </trkpt>
      <trkpt lat="62.636269779891" lon="17.98300519011">
        <ele>69.2</ele>
        <time>2017-12-21T19:33:19Z</time>
      </trkpt>
      <trkpt lat="62.636274641393" lon="17.983094205888">
        <ele>69.4</ele>
        <time>2017-12-21T19:33:20Z</time>
      </trkpt>
      <trkpt lat="62.636280257266" lon="17.983167463694">
        <ele>69.8</ele>
        <time>2017-12-21T19:33:21Z</time>
      </trkpt>
      <trkpt lat="62.636288387709" lon="17.983234267437">
        <ele>70.2</ele>
        <time>2017-12-21T19:33:22Z</time>
      </trkpt>
      <trkpt lat="62.636281263094" lon="17.983327809441">
        <ele>70.2</ele>
        <time>2017-12-21T19:33:23Z</time>
      </trkpt>
      <trkpt lat="62.636282520379" lon="17.983411293165">
        <ele>70</ele>
        <time>2017-12-21T19:33:24Z</time>
      </trkpt>
      <trkpt lat="62.636274725212" lon="17.983479186555">
        <ele>70</ele>
        <time>2017-12-21T19:33:25Z</time>
      </trkpt>
      <trkpt lat="62.636260559801" lon="17.983551019438">
        <ele>70</ele>
        <time>2017-12-21T19:33:26Z</time>
      </trkpt>
      <trkpt lat="62.636244131277" lon="17.983616062982">
        <ele>70.2</ele>
        <time>2017-12-21T19:33:27Z</time>
      </trkpt>
      <trkpt lat="62.636235078825" lon="17.983674317187">
        <ele>70.2</ele>
        <time>2017-12-21T19:33:28Z</time>
      </trkpt>
      <trkpt lat="62.636236252291" lon="17.983749670468">
        <ele>70.2</ele>
        <time>2017-12-21T19:33:29Z</time>
      </trkpt>
      <trkpt lat="62.636232815712" lon="17.98381571984">
        <ele>70.4</ele>
        <time>2017-12-21T19:33:30Z</time>
      </trkpt>
      <trkpt lat="62.63622208688" lon="17.983885624886">
        <ele>70.6</ele>
        <time>2017-12-21T19:33:31Z</time>
      </trkpt>
      <trkpt lat="62.636210436039" lon="17.983962067814">
        <ele>70.6</ele>
        <time>2017-12-21T19:33:32Z</time>
      </trkpt>
      <trkpt lat="62.636205239261" lon="17.984018645639">
        <ele>70.6</ele>
        <time>2017-12-21T19:33:33Z</time>
      </trkpt>
      <trkpt lat="62.636197024999" lon="17.984083018631">
        <ele>70.8</ele>
        <time>2017-12-21T19:33:34Z</time>
      </trkpt>
      <trkpt lat="62.63619861756" lon="17.984135489325">
        <ele>70.8</ele>
        <time>2017-12-21T19:33:35Z</time>
      </trkpt>
      <trkpt lat="62.636189732746" lon="17.984195587548">
        <ele>70.8</ele>
        <time>2017-12-21T19:33:36Z</time>
      </trkpt>
      <trkpt lat="62.636191325307" lon="17.984275802331">
        <ele>71</ele>
        <time>2017-12-21T19:33:37Z</time>
      </trkpt>
      <trkpt lat="62.636186463805" lon="17.984342606074">
        <ele>71</ele>
        <time>2017-12-21T19:33:38Z</time>
      </trkpt>
      <trkpt lat="62.636181099389" lon="17.984406476152">
        <ele>71</ele>
        <time>2017-12-21T19:33:39Z</time>
      </trkpt>
      <trkpt lat="62.636173555679" lon="17.984467496384">
        <ele>71</ele>
        <time>2017-12-21T19:33:40Z</time>
      </trkpt>
      <trkpt lat="62.636160647553" lon="17.984532959023">
        <ele>71.2</ele>
        <time>2017-12-21T19:33:41Z</time>
      </trkpt>
      <trkpt lat="62.636162659209" lon="17.984588614839">
        <ele>71.2</ele>
        <time>2017-12-21T19:33:42Z</time>
      </trkpt>
      <trkpt lat="62.636152684748" lon="17.98466732088">
        <ele>71.4</ele>
        <time>2017-12-21T19:33:43Z</time>
      </trkpt>
      <trkpt lat="62.636149499626" lon="17.984729095483">
        <ele>71.4</ele>
        <time>2017-12-21T19:33:44Z</time>
      </trkpt>
      <trkpt lat="62.636143967572" lon="17.98479053481">
        <ele>71.6</ele>
        <time>2017-12-21T19:33:45Z</time>
      </trkpt>
      <trkpt lat="62.636143129382" lon="17.984840574753">
        <ele>71.6</ele>
        <time>2017-12-21T19:33:46Z</time>
      </trkpt>
      <trkpt lat="62.636139608984" lon="17.984889692687">
        <ele>72</ele>
        <time>2017-12-21T19:33:47Z</time>
      </trkpt>
      <trkpt lat="62.636133825473" lon="17.984945097046">
        <ele>72</ele>
        <time>2017-12-21T19:33:48Z</time>
      </trkpt>
      <trkpt lat="62.636131897636" lon="17.984987174184">
        <ele>72.4</ele>
        <time>2017-12-21T19:33:49Z</time>
      </trkpt>
      <trkpt lat="62.636123012822" lon="17.985061102542">
        <ele>72.6</ele>
        <time>2017-12-21T19:33:50Z</time>
      </trkpt>
      <trkpt lat="62.636119660062" lon="17.985126062267">
        <ele>72.6</ele>
        <time>2017-12-21T19:33:51Z</time>
      </trkpt>
      <trkpt lat="62.636112870723" lon="17.985185070843">
        <ele>72.8</ele>
        <time>2017-12-21T19:33:52Z</time>
      </trkpt>
      <trkpt lat="62.636115301474" lon="17.985243408867">
        <ele>72.8</ele>
        <time>2017-12-21T19:33:53Z</time>
      </trkpt>
      <trkpt lat="62.636108847411" lon="17.98529512519">
        <ele>73</ele>
        <time>2017-12-21T19:33:54Z</time>
      </trkpt>
      <trkpt lat="62.636105494651" lon="17.985361174562">
        <ele>73</ele>
        <time>2017-12-21T19:33:55Z</time>
      </trkpt>
      <trkpt lat="62.636098956769" lon="17.985401072406">
        <ele>73</ele>
        <time>2017-12-21T19:33:56Z</time>
      </trkpt>
      <trkpt lat="62.636085964824" lon="17.985459075154">
        <ele>73.2</ele>
        <time>2017-12-21T19:33:57Z</time>
      </trkpt>
      <trkpt lat="62.636070290671" lon="17.985511964943">
        <ele>73.4</ele>
        <time>2017-12-21T19:33:58Z</time>
      </trkpt>
      <trkpt lat="62.636061741133" lon="17.985573739546">
        <ele>73.4</ele>
        <time>2017-12-21T19:33:59Z</time>
      </trkpt>
      <trkpt lat="62.636039277641" lon="17.985624366222">
        <ele>73.6</ele>
        <time>2017-12-21T19:34:00Z</time>
      </trkpt>
      <trkpt lat="62.636005163308" lon="17.985685554092">
        <ele>73.6</ele>
        <time>2017-12-21T19:34:01Z</time>
      </trkpt>
      <trkpt lat="62.635996194675" lon="17.985730397257">
        <ele>73.6</ele>
        <time>2017-12-21T19:34:02Z</time>
      </trkpt>
      <trkpt lat="62.635991919906" lon="17.985753363663">
        <ele>73.8</ele>
        <time>2017-12-21T19:34:03Z</time>
      </trkpt>
      <trkpt lat="62.635979179418" lon="17.985783538503">
        <ele>73.8</ele>
        <time>2017-12-21T19:34:04Z</time>
      </trkpt>
      <trkpt lat="62.635970713699" lon="17.985812120782">
        <ele>73.8</ele>
        <time>2017-12-21T19:34:05Z</time>
      </trkpt>
      <trkpt lat="62.635951183872" lon="17.98584497783">
        <ele>74</ele>
        <time>2017-12-21T19:34:06Z</time>
      </trkpt>
      <trkpt lat="62.635934084796" lon="17.985894179583">
        <ele>74.2</ele>
        <time>2017-12-21T19:34:07Z</time>
      </trkpt>
      <trkpt lat="62.63590944201" lon="17.985914966695">
        <ele>74.4</ele>
        <time>2017-12-21T19:34:08Z</time>
      </trkpt>
      <trkpt lat="62.635888403441" lon="17.985943716612">
        <ele>74.4</ele>
        <time>2017-12-21T19:34:09Z</time>
      </trkpt>
      <trkpt lat="62.635881614102" lon="17.985975651651">
        <ele>74.6</ele>
        <time>2017-12-21T19:34:10Z</time>
      </trkpt>
      <trkpt lat="62.635871974917" lon="17.985993086003">
        <ele>74.6</ele>
        <time>2017-12-21T19:34:11Z</time>
      </trkpt>
      <trkpt lat="62.635858731515" lon="17.986007754328">
        <ele>74.8</ele>
        <time>2017-12-21T19:34:12Z</time>
      </trkpt>
      <trkpt lat="62.635835262195" lon="17.986029798725">
        <ele>75</ele>
        <time>2017-12-21T19:34:13Z</time>
      </trkpt>
      <trkpt lat="62.635819588042" lon="17.986042539213">
        <ele>75</ele>
        <time>2017-12-21T19:34:14Z</time>
      </trkpt>
      <trkpt lat="62.635813133979" lon="17.986103643264">
        <ele>75.2</ele>
        <time>2017-12-21T19:34:15Z</time>
      </trkpt>
      <trkpt lat="62.635795615808" lon="17.986136500312">
        <ele>75.2</ele>
        <time>2017-12-21T19:34:16Z</time>
      </trkpt>
      <trkpt lat="62.635763680769" lon="17.986173632129">
        <ele>75.2</ele>
        <time>2017-12-21T19:34:17Z</time>
      </trkpt>
      <trkpt lat="62.635747587521" lon="17.986213697611">
        <ele>75.2</ele>
        <time>2017-12-21T19:34:18Z</time>
      </trkpt>
      <trkpt lat="62.635737696879" lon="17.986244459184">
        <ele>75.2</ele>
        <time>2017-12-21T19:34:19Z</time>
      </trkpt>
      <trkpt lat="62.635723531468" lon="17.986282764467">
        <ele>75.2</ele>
        <time>2017-12-21T19:34:20Z</time>
      </trkpt>
      <trkpt lat="62.635708024953" lon="17.986320315379">
        <ele>75.2</ele>
        <time>2017-12-21T19:34:21Z</time>
      </trkpt>
      <trkpt lat="62.635693272809" lon="17.986369098037">
        <ele>75.4</ele>
        <time>2017-12-21T19:34:22Z</time>
      </trkpt>
      <trkpt lat="62.635672066602" lon="17.986404553474">
        <ele>75.6</ele>
        <time>2017-12-21T19:34:23Z</time>
      </trkpt>
      <trkpt lat="62.635670138765" lon="17.986465154611">
        <ele>75.8</ele>
        <time>2017-12-21T19:34:24Z</time>
      </trkpt>
      <trkpt lat="62.635642310857" lon="17.986506812654">
        <ele>75.8</ele>
        <time>2017-12-21T19:34:25Z</time>
      </trkpt>
      <trkpt lat="62.635623703039" lon="17.98655408657">
        <ele>76</ele>
        <time>2017-12-21T19:34:26Z</time>
      </trkpt>
      <trkpt lat="62.635608699438" lon="17.986600773753">
        <ele>76.2</ele>
        <time>2017-12-21T19:34:27Z</time>
      </trkpt>
      <trkpt lat="62.635584894842" lon="17.986659027958">
        <ele>76.2</ele>
        <time>2017-12-21T19:34:28Z</time>
      </trkpt>
      <trkpt lat="62.635574082191" lon="17.986706972426">
        <ele>76.4</ele>
        <time>2017-12-21T19:34:29Z</time>
      </trkpt>
      <trkpt lat="62.635564275368" lon="17.986728262452">
        <ele>76.4</ele>
        <time>2017-12-21T19:34:30Z</time>
      </trkpt>
      <trkpt lat="62.635537620926" lon="17.986788360675">
        <ele>76.4</ele>
        <time>2017-12-21T19:34:31Z</time>
      </trkpt>
      <trkpt lat="62.63551716909" lon="17.986827755605">
        <ele>76.6</ele>
        <time>2017-12-21T19:34:32Z</time>
      </trkpt>
      <trkpt lat="62.635499902376" lon="17.986878214643">
        <ele>76.6</ele>
        <time>2017-12-21T19:34:33Z</time>
      </trkpt>
      <trkpt lat="62.635486910431" lon="17.986933367545">
        <ele>76.8</ele>
        <time>2017-12-21T19:34:34Z</time>
      </trkpt>
      <trkpt lat="62.635464614577" lon="17.986997237623">
        <ele>77</ele>
        <time>2017-12-21T19:34:35Z</time>
      </trkpt>
      <trkpt lat="62.635445755302" lon="17.987046690833">
        <ele>77.2</ele>
        <time>2017-12-21T19:34:36Z</time>
      </trkpt>
      <trkpt lat="62.635428656226" lon="17.987096730776">
        <ele>77.4</ele>
        <time>2017-12-21T19:34:37Z</time>
      </trkpt>
      <trkpt lat="62.635407282381" lon="17.987142998864">
        <ele>77.6</ele>
        <time>2017-12-21T19:34:38Z</time>
      </trkpt>
      <trkpt lat="62.635392781694" lon="17.987181471785">
        <ele>77.8</ele>
        <time>2017-12-21T19:34:39Z</time>
      </trkpt>
      <trkpt lat="62.635364869967" lon="17.987228326606">
        <ele>77.8</ele>
        <time>2017-12-21T19:34:40Z</time>
      </trkpt>
      <trkpt lat="62.635350117823" lon="17.987251125374">
        <ele>78</ele>
        <time>2017-12-21T19:34:41Z</time>
      </trkpt>
      <trkpt lat="62.635332264376" lon="17.987288508648">
        <ele>78.2</ele>
        <time>2017-12-21T19:34:42Z</time>
      </trkpt>
      <trkpt lat="62.635313069825" lon="17.987347265767">
        <ele>78.2</ele>
        <time>2017-12-21T19:34:43Z</time>
      </trkpt>
      <trkpt lat="62.635291947437" lon="17.98739395295">
        <ele>78.2</ele>
        <time>2017-12-21T19:34:44Z</time>
      </trkpt>
      <trkpt lat="62.635268813393" lon="17.987451285146">
        <ele>78.4</ele>
        <time>2017-12-21T19:34:45Z</time>
      </trkpt>
      <trkpt lat="62.635249702661" lon="17.987503001469">
        <ele>78.4</ele>
        <time>2017-12-21T19:34:46Z</time>
      </trkpt>
      <trkpt lat="62.635227322988" lon="17.987549185738">
        <ele>78.6</ele>
        <time>2017-12-21T19:34:47Z</time>
      </trkpt>
      <trkpt lat="62.635201674374" lon="17.98758673665">
        <ele>78.6</ele>
        <time>2017-12-21T19:34:48Z</time>
      </trkpt>
      <trkpt lat="62.635187341325" lon="17.98763367529">
        <ele>78.8</ele>
        <time>2017-12-21T19:34:49Z</time>
      </trkpt>
      <trkpt lat="62.635161860349" lon="17.987672986401">
        <ele>79.2</ele>
        <time>2017-12-21T19:34:50Z</time>
      </trkpt>
      <trkpt lat="62.6351391454" lon="17.987707352191">
        <ele>79.4</ele>
        <time>2017-12-21T19:34:51Z</time>
      </trkpt>
      <trkpt lat="62.635125482903" lon="17.987732497891">
        <ele>79.4</ele>
        <time>2017-12-21T19:34:52Z</time>
      </trkpt>
      <trkpt lat="62.635099163737" lon="17.987771222269">
        <ele>79.6</ele>
        <time>2017-12-21T19:34:53Z</time>
      </trkpt>
      <trkpt lat="62.635084411593" lon="17.987804749869">
        <ele>79.8</ele>
        <time>2017-12-21T19:34:54Z</time>
      </trkpt>
      <trkpt lat="62.635069659449" lon="17.987838361288">
        <ele>80</ele>
        <time>2017-12-21T19:34:55Z</time>
      </trkpt>
      <trkpt lat="62.63504191536" lon="17.987860657142">
        <ele>80</ele>
        <time>2017-12-21T19:34:56Z</time>
      </trkpt>
      <trkpt lat="62.635018865135" lon="17.987914636578">
        <ele>80</ele>
        <time>2017-12-21T19:34:57Z</time>
      </trkpt>
      <trkpt lat="62.63499581491" lon="17.987948750911">
        <ele>80.2</ele>
        <time>2017-12-21T19:34:58Z</time>
      </trkpt>
      <trkpt lat="62.63497402197" lon="17.987982949063">
        <ele>80.2</ele>
        <time>2017-12-21T19:34:59Z</time>
      </trkpt>
      <trkpt lat="62.634954492143" lon="17.988006753659">
        <ele>80.4</ele>
        <time>2017-12-21T19:35:00Z</time>
      </trkpt>
      <trkpt lat="62.634934710859" lon="17.988031396445">
        <ele>80.4</ele>
        <time>2017-12-21T19:35:01Z</time>
      </trkpt>
      <trkpt lat="62.634910487168" lon="17.988057715611">
        <ele>80.4</ele>
        <time>2017-12-21T19:35:02Z</time>
      </trkpt>
      <trkpt lat="62.634884754735" lon="17.988084118596">
        <ele>80.4</ele>
        <time>2017-12-21T19:35:03Z</time>
      </trkpt>
      <trkpt lat="62.634857597379" lon="17.988103313147">
        <ele>80.6</ele>
        <time>2017-12-21T19:35:04Z</time>
      </trkpt>
      <trkpt lat="62.634825494702" lon="17.988118232929">
        <ele>80.8</ele>
        <time>2017-12-21T19:35:05Z</time>
      </trkpt>
      <trkpt lat="62.634805461961" lon="17.988124184078">
        <ele>80.8</ele>
        <time>2017-12-21T19:35:06Z</time>
      </trkpt>
      <trkpt lat="62.634765815574" lon="17.988133823263">
        <ele>80.8</ele>
        <time>2017-12-21T19:35:07Z</time>
      </trkpt>
      <trkpt lat="62.634741675702" lon="17.988146899027">
        <ele>81</ele>
        <time>2017-12-21T19:35:08Z</time>
      </trkpt>
      <trkpt lat="62.634713680156" lon="17.988149916511">
        <ele>81</ele>
        <time>2017-12-21T19:35:09Z</time>
      </trkpt>
      <trkpt lat="62.634683924411" lon="17.988162070266">
        <ele>81.2</ele>
        <time>2017-12-21T19:35:10Z</time>
      </trkpt>
      <trkpt lat="62.634659113987" lon="17.988155197108">
        <ele>81.4</ele>
        <time>2017-12-21T19:35:11Z</time>
      </trkpt>
      <trkpt lat="62.634634471201" lon="17.988158214592">
        <ele>81.6</ele>
        <time>2017-12-21T19:35:12Z</time>
      </trkpt>
      <trkpt lat="62.63460940932" lon="17.988172966736">
        <ele>81.6</ele>
        <time>2017-12-21T19:35:13Z</time>
      </trkpt>
      <trkpt lat="62.634581246136" lon="17.988181683912">
        <ele>81.8</ele>
        <time>2017-12-21T19:35:14Z</time>
      </trkpt>
      <trkpt lat="62.634554256418" lon="17.988217726082">
        <ele>81.8</ele>
        <time>2017-12-21T19:35:15Z</time>
      </trkpt>
      <trkpt lat="62.634529529813" lon="17.98820112992">
        <ele>82</ele>
        <time>2017-12-21T19:35:16Z</time>
      </trkpt>
      <trkpt lat="62.634498013869" lon="17.988211942571">
        <ele>82.2</ele>
        <time>2017-12-21T19:35:17Z</time>
      </trkpt>
      <trkpt lat="62.634478316404" lon="17.988212948399">
        <ele>82.2</ele>
        <time>2017-12-21T19:35:18Z</time>
      </trkpt>
      <trkpt lat="62.63444177132" lon="17.988218983367">
        <ele>82.2</ele>
        <time>2017-12-21T19:35:19Z</time>
      </trkpt>
      <trkpt lat="62.634422241493" lon="17.988228371095">
        <ele>82.4</ele>
        <time>2017-12-21T19:35:20Z</time>
      </trkpt>
      <trkpt lat="62.634398688354" lon="17.988227616724">
        <ele>82.6</ele>
        <time>2017-12-21T19:35:21Z</time>
      </trkpt>
      <trkpt lat="62.634369351704" lon="17.988225940344">
        <ele>82.8</ele>
        <time>2017-12-21T19:35:22Z</time>
      </trkpt>
      <trkpt lat="62.634345211832" lon="17.988231723855">
        <ele>82.8</ele>
        <time>2017-12-21T19:35:23Z</time>
      </trkpt>
      <trkpt lat="62.634310091671" lon="17.98822292286">
        <ele>82.8</ele>
        <time>2017-12-21T19:35:24Z</time>
      </trkpt>
      <trkpt lat="62.63428167703" lon="17.988214708598">
        <ele>83</ele>
        <time>2017-12-21T19:35:25Z</time>
      </trkpt>
      <trkpt lat="62.634250077267" lon="17.988195849323">
        <ele>83</ele>
        <time>2017-12-21T19:35:26Z</time>
      </trkpt>
      <trkpt lat="62.634232559096" lon="17.988195597866">
        <ele>83.2</ele>
        <time>2017-12-21T19:35:27Z</time>
      </trkpt>
      <trkpt lat="62.634199702048" lon="17.988187048328">
        <ele>83.2</ele>
        <time>2017-12-21T19:35:28Z</time>
      </trkpt>
      <trkpt lat="62.634170449217" lon="17.988187635061">
        <ele>83.2</ele>
        <time>2017-12-21T19:35:29Z</time>
      </trkpt>
      <trkpt lat="62.634134490866" lon="17.988156454393">
        <ele>83.2</ele>
        <time>2017-12-21T19:35:30Z</time>
      </trkpt>
      <trkpt lat="62.634103394017" lon="17.988148910683">
        <ele>83.2</ele>
        <time>2017-12-21T19:35:31Z</time>
      </trkpt>
      <trkpt lat="62.634072213349" lon="17.988129380856">
        <ele>83.4</ele>
        <time>2017-12-21T19:35:32Z</time>
      </trkpt>
      <trkpt lat="62.634034997713" lon="17.988122172422">
        <ele>83.6</ele>
        <time>2017-12-21T19:35:33Z</time>
      </trkpt>
      <trkpt lat="62.634003984683" lon="17.988105157165">
        <ele>83.8</ele>
        <time>2017-12-21T19:35:34Z</time>
      </trkpt>
      <trkpt lat="62.633968361608" lon="17.988084286234">
        <ele>83.8</ele>
        <time>2017-12-21T19:35:35Z</time>
      </trkpt>
      <trkpt lat="62.633944137917" lon="17.988070959013">
        <ele>84</ele>
        <time>2017-12-21T19:35:36Z</time>
      </trkpt>
      <trkpt lat="62.633908179566" lon="17.988040448897">
        <ele>84.2</ele>
        <time>2017-12-21T19:35:37Z</time>
      </trkpt>
      <trkpt lat="62.633869455188" lon="17.988027876047">
        <ele>84.4</ele>
        <time>2017-12-21T19:35:38Z</time>
      </trkpt>
      <trkpt lat="62.63384498004" lon="17.987995857189">
        <ele>84.4</ele>
        <time>2017-12-21T19:35:39Z</time>
      </trkpt>
      <trkpt lat="62.633815475752" lon="17.987976075905">
        <ele>84.6</ele>
        <time>2017-12-21T19:35:40Z</time>
      </trkpt>
      <trkpt lat="62.633789827138" lon="17.987960820847">
        <ele>84.4</ele>
        <time>2017-12-21T19:35:41Z</time>
      </trkpt>
      <trkpt lat="62.633756634814" lon="17.98792787998">
        <ele>84.6</ele>
        <time>2017-12-21T19:35:42Z</time>
      </trkpt>
      <trkpt lat="62.633734925693" lon="17.987899716796">
        <ele>84.6</ele>
        <time>2017-12-21T19:35:43Z</time>
      </trkpt>
      <trkpt lat="62.63370835507" lon="17.987873984363">
        <ele>84.8</ele>
        <time>2017-12-21T19:35:44Z</time>
      </trkpt>
      <trkpt lat="62.633680024248" lon="17.987857052925">
        <ele>84.6</ele>
        <time>2017-12-21T19:35:45Z</time>
      </trkpt>
      <trkpt lat="62.63365471091" lon="17.98782478261">
        <ele>84.6</ele>
        <time>2017-12-21T19:35:46Z</time>
      </trkpt>
      <trkpt lat="62.633628307925" lon="17.98779628415">
        <ele>84.6</ele>
        <time>2017-12-21T19:35:47Z</time>
      </trkpt>
      <trkpt lat="62.633607520813" lon="17.987785639137">
        <ele>84.8</ele>
        <time>2017-12-21T19:35:48Z</time>
      </trkpt>
      <trkpt lat="62.633578603258" lon="17.987762840369">
        <ele>84.8</ele>
        <time>2017-12-21T19:35:49Z</time>
      </trkpt>
      <trkpt lat="62.633553457558" lon="17.987723696896">
        <ele>85</ele>
        <time>2017-12-21T19:35:50Z</time>
      </trkpt>
      <trkpt lat="62.633519846139" lon="17.98770408325">
        <ele>85</ele>
        <time>2017-12-21T19:35:51Z</time>
      </trkpt>
      <trkpt lat="62.63348958748" lon="17.987670471831">
        <ele>85.2</ele>
        <time>2017-12-21T19:35:52Z</time>
      </trkpt>
      <trkpt lat="62.63345773626" lon="17.987633507652">
        <ele>85.6</ele>
        <time>2017-12-21T19:35:53Z</time>
      </trkpt>
      <trkpt lat="62.633432758198" lon="17.987600399147">
        <ele>85.8</ele>
        <time>2017-12-21T19:35:54Z</time>
      </trkpt>
      <trkpt lat="62.633408115412" lon="17.987569469936">
        <ele>86</ele>
        <time>2017-12-21T19:35:55Z</time>
      </trkpt>
      <trkpt lat="62.633391016336" lon="17.987529236816">
        <ele>86.4</ele>
        <time>2017-12-21T19:35:56Z</time>
      </trkpt>
      <trkpt lat="62.633372324699" lon="17.987469641507">
        <ele>86.6</ele>
        <time>2017-12-21T19:35:57Z</time>
      </trkpt>
      <trkpt lat="62.633357404917" lon="17.987418511917">
        <ele>86.8</ele>
        <time>2017-12-21T19:35:58Z</time>
      </trkpt>
      <trkpt lat="62.633341060212" lon="17.987380961005">
        <ele>87.2</ele>
        <time>2017-12-21T19:35:59Z</time>
      </trkpt>
      <trkpt lat="62.633313651399" lon="17.987318432031">
        <ele>87.4</ele>
        <time>2017-12-21T19:36:00Z</time>
      </trkpt>
      <trkpt lat="62.633293283382" lon="17.98725062246">
        <ele>87.6</ele>
        <time>2017-12-21T19:36:01Z</time>
      </trkpt>
      <trkpt lat="62.633268053863" lon="17.98720033106">
        <ele>87.6</ele>
        <time>2017-12-21T19:36:02Z</time>
      </trkpt>
      <trkpt lat="62.633243494896" lon="17.987087762143">
        <ele>87.6</ele>
        <time>2017-12-21T19:36:03Z</time>
      </trkpt>
      <trkpt lat="62.633223965069" lon="17.986964212937">
        <ele>87.6</ele>
        <time>2017-12-21T19:36:04Z</time>
      </trkpt>
      <trkpt lat="62.633208207097" lon="17.9868449385">
        <ele>87</ele>
        <time>2017-12-21T19:36:05Z</time>
      </trkpt>
      <trkpt lat="62.633198484093" lon="17.986740332388">
        <ele>86.2</ele>
        <time>2017-12-21T19:36:06Z</time>
      </trkpt>
      <trkpt lat="62.633185408329" lon="17.986600689934">
        <ele>85.6</ele>
        <time>2017-12-21T19:36:07Z</time>
      </trkpt>
      <trkpt lat="62.633173757488" lon="17.986494658899">
        <ele>85</ele>
        <time>2017-12-21T19:36:08Z</time>
      </trkpt>
      <trkpt lat="62.633162777199" lon="17.98639818323">
        <ele>84.4</ele>
        <time>2017-12-21T19:36:09Z</time>
      </trkpt>
      <trkpt lat="62.633160933181" lon="17.986252589627">
        <ele>83.8</ele>
        <time>2017-12-21T19:36:10Z</time>
      </trkpt>
      <trkpt lat="62.633162525742" lon="17.986116132295">
        <ele>83</ele>
        <time>2017-12-21T19:36:11Z</time>
      </trkpt>
      <trkpt lat="62.633163363932" lon="17.985975316375">
        <ele>82.8</ele>
        <time>2017-12-21T19:36:12Z</time>
      </trkpt>
      <trkpt lat="62.633165962321" lon="17.985837098844">
        <ele>82.6</ele>
        <time>2017-12-21T19:36:13Z</time>
      </trkpt>
      <trkpt lat="62.6331693989" lon="17.985723691737">
        <ele>82.2</ele>
        <time>2017-12-21T19:36:14Z</time>
      </trkpt>
      <trkpt lat="62.633173086936" lon="17.985584887473">
        <ele>81.8</ele>
        <time>2017-12-21T19:36:15Z</time>
      </trkpt>
      <trkpt lat="62.633179038085" lon="17.985450106521">
        <ele>81.6</ele>
        <time>2017-12-21T19:36:16Z</time>
      </trkpt>
      <trkpt lat="62.633189599279" lon="17.985292442982">
        <ele>81.2</ele>
        <time>2017-12-21T19:36:17Z</time>
      </trkpt>
      <trkpt lat="62.633202423586" lon="17.98513167814">
        <ele>81</ele>
        <time>2017-12-21T19:36:18Z</time>
      </trkpt>
      <trkpt lat="62.633229329485" lon="17.984974014601">
        <ele>80.6</ele>
        <time>2017-12-21T19:36:19Z</time>
      </trkpt>
      <trkpt lat="62.633262605628" lon="17.984835713251">
        <ele>80</ele>
        <time>2017-12-21T19:36:20Z</time>
      </trkpt>
      <trkpt lat="62.633292780468" lon="17.984697663358">
        <ele>79.2</ele>
        <time>2017-12-21T19:36:21Z</time>
      </trkpt>
      <trkpt lat="62.633321614204" lon="17.984534383946">
        <ele>78.6</ele>
        <time>2017-12-21T19:36:22Z</time>
      </trkpt>
      <trkpt lat="62.633345754076" lon="17.98443262768">
        <ele>78.2</ele>
        <time>2017-12-21T19:36:23Z</time>
      </trkpt>
      <trkpt lat="62.633362350238" lon="17.984336990201">
        <ele>78</ele>
        <time>2017-12-21T19:36:24Z</time>
      </trkpt>
      <trkpt lat="62.633373330527" lon="17.984212518986">
        <ele>77.8</ele>
        <time>2017-12-21T19:36:25Z</time>
      </trkpt>
      <trkpt lat="62.633385903377" lon="17.984125682502">
        <ele>77.8</ele>
        <time>2017-12-21T19:36:26Z</time>
      </trkpt>
      <trkpt lat="62.633397554218" lon="17.983981430003">
        <ele>77.8</ele>
        <time>2017-12-21T19:36:27Z</time>
      </trkpt>
      <trkpt lat="62.633415072389" lon="17.983879506099">
        <ele>78</ele>
        <time>2017-12-21T19:36:28Z</time>
      </trkpt>
      <trkpt lat="62.633424292479" lon="17.983830639622">
        <ele>78</ele>
        <time>2017-12-21T19:36:29Z</time>
      </trkpt>
      <trkpt lat="62.633429656895" lon="17.983756711264">
        <ele>78.2</ele>
        <time>2017-12-21T19:36:30Z</time>
      </trkpt>
      <trkpt lat="62.633435356587" lon="17.983678172861">
        <ele>78.4</ele>
        <time>2017-12-21T19:36:31Z</time>
      </trkpt>
      <trkpt lat="62.633451198378" lon="17.983571219817">
        <ele>78.6</ele>
        <time>2017-12-21T19:36:32Z</time>
      </trkpt>
      <trkpt lat="62.633467543083" lon="17.983476336709">
        <ele>79</ele>
        <time>2017-12-21T19:36:33Z</time>
      </trkpt>
      <trkpt lat="62.633482462865" lon="17.983389835501">
        <ele>79.4</ele>
        <time>2017-12-21T19:36:34Z</time>
      </trkpt>
      <trkpt lat="62.63349796938" lon="17.983301490275">
        <ele>79.6</ele>
        <time>2017-12-21T19:36:35Z</time>
      </trkpt>
      <trkpt lat="62.63351473318" lon="17.983224879709">
        <ele>80</ele>
        <time>2017-12-21T19:36:36Z</time>
      </trkpt>
      <trkpt lat="62.633535604111" lon="17.98313343318">
        <ele>80.2</ele>
        <time>2017-12-21T19:36:37Z</time>
      </trkpt>
      <trkpt lat="62.633542309631" lon="17.983055900605">
        <ele>80.2</ele>
        <time>2017-12-21T19:36:38Z</time>
      </trkpt>
      <trkpt lat="62.633552870825" lon="17.982976188736">
        <ele>80.2</ele>
        <time>2017-12-21T19:36:39Z</time>
      </trkpt>
      <trkpt lat="62.633576675421" lon="17.982886670044">
        <ele>80.2</ele>
        <time>2017-12-21T19:36:40Z</time>
      </trkpt>
      <trkpt lat="62.633590505556" lon="17.982809724202">
        <ele>80.2</ele>
        <time>2017-12-21T19:36:41Z</time>
      </trkpt>
      <trkpt lat="62.633596289067" lon="17.982733448912">
        <ele>80.2</ele>
        <time>2017-12-21T19:36:42Z</time>
      </trkpt>
      <trkpt lat="62.633615064523" lon="17.982627082601">
        <ele>80</ele>
        <time>2017-12-21T19:36:43Z</time>
      </trkpt>
      <trkpt lat="62.633608191365" lon="17.98255927303">
        <ele>80.2</ele>
        <time>2017-12-21T19:36:44Z</time>
      </trkpt>
      <trkpt lat="62.633613974876" lon="17.982470257252">
        <ele>80.2</ele>
        <time>2017-12-21T19:36:45Z</time>
      </trkpt>
      <trkpt lat="62.633615567437" lon="17.982385013329">
        <ele>80.4</ele>
        <time>2017-12-21T19:36:46Z</time>
      </trkpt>
      <trkpt lat="62.633607604632" lon="17.982313012808">
        <ele>80.2</ele>
        <time>2017-12-21T19:36:47Z</time>
      </trkpt>
      <trkpt lat="62.633615232161" lon="17.982233384758">
        <ele>80.2</ele>
        <time>2017-12-21T19:36:48Z</time>
      </trkpt>
      <trkpt lat="62.633620764215" lon="17.982154511079">
        <ele>80.4</ele>
        <time>2017-12-21T19:36:49Z</time>
      </trkpt>
      <trkpt lat="62.633624452251" lon="17.982094999589">
        <ele>80.4</ele>
        <time>2017-12-21T19:36:50Z</time>
      </trkpt>
      <trkpt lat="62.633628559382" lon="17.982044205275">
        <ele>80.4</ele>
        <time>2017-12-21T19:36:51Z</time>
      </trkpt>
      <trkpt lat="62.633628307925" lon="17.981965499234">
        <ele>80.6</ele>
        <time>2017-12-21T19:36:52Z</time>
      </trkpt>
      <trkpt lat="62.633633337065" lon="17.981881847872">
        <ele>80.6</ele>
        <time>2017-12-21T19:36:53Z</time>
      </trkpt>
      <trkpt lat="62.633633420884" lon="17.981815966138">
        <ele>80.6</ele>
        <time>2017-12-21T19:36:54Z</time>
      </trkpt>
      <trkpt lat="62.633635600178" lon="17.98174119959">
        <ele>80.6</ele>
        <time>2017-12-21T19:36:55Z</time>
      </trkpt>
      <trkpt lat="62.633647502476" lon="17.981641538799">
        <ele>80.8</ele>
        <time>2017-12-21T19:36:56Z</time>
      </trkpt>
      <trkpt lat="62.63365722548" lon="17.981551181917">
        <ele>81</ele>
        <time>2017-12-21T19:36:57Z</time>
      </trkpt>
      <trkpt lat="62.633662506077" lon="17.981482617975">
        <ele>80.8</ele>
        <time>2017-12-21T19:36:58Z</time>
      </trkpt>
      <trkpt lat="62.633681868266" lon="17.981393602197">
        <ele>81</ele>
        <time>2017-12-21T19:36:59Z</time>
      </trkpt>
      <trkpt lat="62.63368488575" lon="17.981323864789">
        <ele>81</ele>
        <time>2017-12-21T19:37:00Z</time>
      </trkpt>
      <trkpt lat="62.633702403921" lon="17.981239375237">
        <ele>80.8</ele>
        <time>2017-12-21T19:37:01Z</time>
      </trkpt>
      <trkpt lat="62.633727130526" lon="17.981191430769">
        <ele>80.8</ele>
        <time>2017-12-21T19:37:02Z</time>
      </trkpt>
      <trkpt lat="62.633747582362" lon="17.981134098573">
        <ele>80.6</ele>
        <time>2017-12-21T19:37:03Z</time>
      </trkpt>
      <trkpt lat="62.633760490488" lon="17.981070312314">
        <ele>80.8</ele>
        <time>2017-12-21T19:37:04Z</time>
      </trkpt>
      <trkpt lat="62.633793766631" lon="17.981011052281">
        <ele>80.8</ele>
        <time>2017-12-21T19:37:05Z</time>
      </trkpt>
      <trkpt lat="62.633807093852" lon="17.980950032049">
        <ele>81</ele>
        <time>2017-12-21T19:37:06Z</time>
      </trkpt>
      <trkpt lat="62.633838106882" lon="17.980893118948">
        <ele>81</ele>
        <time>2017-12-21T19:37:07Z</time>
      </trkpt>
      <trkpt lat="62.633863001125" lon="17.980825560834">
        <ele>81</ele>
        <time>2017-12-21T19:37:08Z</time>
      </trkpt>
      <trkpt lat="62.633881608943" lon="17.980783818972">
        <ele>81.4</ele>
        <time>2017-12-21T19:37:09Z</time>
      </trkpt>
      <trkpt lat="62.633905245901" lon="17.980714919754">
        <ele>81.8</ele>
        <time>2017-12-21T19:37:10Z</time>
      </trkpt>
      <trkpt lat="62.63392041714" lon="17.980672758797">
        <ele>81.8</ele>
        <time>2017-12-21T19:37:11Z</time>
      </trkpt>
      <trkpt lat="62.633941455709" lon="17.980603272846">
        <ele>81.8</ele>
        <time>2017-12-21T19:37:12Z</time>
      </trkpt>
      <trkpt lat="62.633950424342" lon="17.980537810207">
        <ele>81.8</ele>
        <time>2017-12-21T19:37:13Z</time>
      </trkpt>
      <trkpt lat="62.633979341897" lon="17.980483579314">
        <ele>81.6</ele>
        <time>2017-12-21T19:37:14Z</time>
      </trkpt>
      <trkpt lat="62.634003314131" lon="17.980423229634">
        <ele>81.6</ele>
        <time>2017-12-21T19:37:15Z</time>
      </trkpt>
      <trkpt lat="62.634024436519" lon="17.980371680949">
        <ele>81.6</ele>
        <time>2017-12-21T19:37:16Z</time>
      </trkpt>
      <trkpt lat="62.634055701006" lon="17.98030873288">
        <ele>81.4</ele>
        <time>2017-12-21T19:37:17Z</time>
      </trkpt>
      <trkpt lat="62.634076488118" lon="17.980265482276">
        <ele>81.6</ele>
        <time>2017-12-21T19:37:18Z</time>
      </trkpt>
      <trkpt lat="62.634107249691" lon="17.980195493411">
        <ele>81.8</ele>
        <time>2017-12-21T19:37:19Z</time>
      </trkpt>
      <trkpt lat="62.634130886649" lon="17.980134892274">
        <ele>82</ele>
        <time>2017-12-21T19:37:20Z</time>
      </trkpt>
      <trkpt lat="62.63416265405" lon="17.980071022196">
        <ele>82.2</ele>
        <time>2017-12-21T19:37:21Z</time>
      </trkpt>
      <trkpt lat="62.634186458646" lon="17.980019892606">
        <ele>82.2</ele>
        <time>2017-12-21T19:37:22Z</time>
      </trkpt>
      <trkpt lat="62.634218980418" lon="17.979946048067">
        <ele>82</ele>
        <time>2017-12-21T19:37:23Z</time>
      </trkpt>
      <trkpt lat="62.634232559096" lon="17.979880669247">
        <ele>82.2</ele>
        <time>2017-12-21T19:37:24Z</time>
      </trkpt>
      <trkpt lat="62.634261141375" lon="17.979797604618">
        <ele>82</ele>
        <time>2017-12-21T19:37:25Z</time>
      </trkpt>
      <trkpt lat="62.634271283474" lon="17.979730465599">
        <ele>82</ele>
        <time>2017-12-21T19:37:26Z</time>
      </trkpt>
      <trkpt lat="62.634297267364" lon="17.979655699051">
        <ele>81.8</ele>
        <time>2017-12-21T19:37:27Z</time>
      </trkpt>
      <trkpt lat="62.634324089444" lon="17.979580932503">
        <ele>81.6</ele>
        <time>2017-12-21T19:37:28Z</time>
      </trkpt>
      <trkpt lat="62.634339595959" lon="17.979514296398">
        <ele>81.8</ele>
        <time>2017-12-21T19:37:29Z</time>
      </trkpt>
      <trkpt lat="62.634357617044" lon="17.979427711371">
        <ele>81.8</ele>
        <time>2017-12-21T19:37:30Z</time>
      </trkpt>
      <trkpt lat="62.634367591505" lon="17.979367194053">
        <ele>81.6</ele>
        <time>2017-12-21T19:37:31Z</time>
      </trkpt>
      <trkpt lat="62.634389635902" lon="17.979285051433">
        <ele>81.8</ele>
        <time>2017-12-21T19:37:32Z</time>
      </trkpt>
      <trkpt lat="62.634399358906" lon="17.979209446695">
        <ele>81.6</ele>
        <time>2017-12-21T19:37:33Z</time>
      </trkpt>
      <trkpt lat="62.634421738579" lon="17.979149599929">
        <ele>81.6</ele>
        <time>2017-12-21T19:37:34Z</time>
      </trkpt>
      <trkpt lat="62.634435233438" lon="17.979081706539">
        <ele>81.4</ele>
        <time>2017-12-21T19:37:35Z</time>
      </trkpt>
      <trkpt lat="62.634448393021" lon="17.979028900569">
        <ele>81.2</ele>
        <time>2017-12-21T19:37:36Z</time>
      </trkpt>
      <trkpt lat="62.634463228984" lon="17.978961174817">
        <ele>81.2</ele>
        <time>2017-12-21T19:37:37Z</time>
      </trkpt>
      <trkpt lat="62.634495331661" lon="17.978856820162">
        <ele>81.4</ele>
        <time>2017-12-21T19:37:39Z</time>
      </trkpt>
      <trkpt lat="62.634515951135" lon="17.978823711657">
        <ele>81.6</ele>
        <time>2017-12-21T19:37:40Z</time>
      </trkpt>
      <trkpt lat="62.634540929197" lon="17.97879915269">
        <ele>81.8</ele>
        <time>2017-12-21T19:37:41Z</time>
      </trkpt>
      <trkpt lat="62.634567248363" lon="17.978785322555">
        <ele>82</ele>
        <time>2017-12-21T19:37:42Z</time>
      </trkpt>
      <trkpt lat="62.634592142606" lon="17.978761685597">
        <ele>82</ele>
        <time>2017-12-21T19:37:43Z</time>
      </trkpt>
      <trkpt lat="62.634614019365" lon="17.978762439968">
        <ele>82</ele>
        <time>2017-12-21T19:37:44Z</time>
      </trkpt>
      <trkpt lat="62.634645032395" lon="17.978779287587">
        <ele>82</ele>
        <time>2017-12-21T19:37:45Z</time>
      </trkpt>
      <trkpt lat="62.634671183923" lon="17.978788759134">
        <ele>82</ele>
        <time>2017-12-21T19:37:46Z</time>
      </trkpt>
      <trkpt lat="62.634704292428" lon="17.978800577613">
        <ele>82</ele>
        <time>2017-12-21T19:37:47Z</time>
      </trkpt>
      <trkpt lat="62.634736311286" lon="17.978825890951">
        <ele>81.8</ele>
        <time>2017-12-21T19:37:48Z</time>
      </trkpt>
      <trkpt lat="62.634769671248" lon="17.978841229828">
        <ele>81.8</ele>
        <time>2017-12-21T19:37:49Z</time>
      </trkpt>
      <trkpt lat="62.634815101146" lon="17.978863358044">
        <ele>81.4</ele>
        <time>2017-12-21T19:37:50Z</time>
      </trkpt>
      <trkpt lat="62.634846449452" lon="17.978878194007">
        <ele>81.4</ele>
        <time>2017-12-21T19:37:51Z</time>
      </trkpt>
      <trkpt lat="62.634885760563" lon="17.978899232576">
        <ele>81.2</ele>
        <time>2017-12-21T19:37:52Z</time>
      </trkpt>
      <trkpt lat="62.634916438317" lon="17.978914403815">
        <ele>81</ele>
        <time>2017-12-21T19:37:53Z</time>
      </trkpt>
      <trkpt lat="62.634947116071" lon="17.978924462095">
        <ele>80.8</ele>
        <time>2017-12-21T19:37:54Z</time>
      </trkpt>
      <trkpt lat="62.634983158241" lon="17.978931921986">
        <ele>80.6</ele>
        <time>2017-12-21T19:37:55Z</time>
      </trkpt>
      <trkpt lat="62.635004364448" lon="17.978941980266">
        <ele>80.6</ele>
        <time>2017-12-21T19:37:56Z</time>
      </trkpt>
      <trkpt lat="62.635031605623" lon="17.978955642763">
        <ele>80.6</ele>
        <time>2017-12-21T19:37:57Z</time>
      </trkpt>
      <trkpt lat="62.635057673332" lon="17.978964192301">
        <ele>80.6</ele>
        <time>2017-12-21T19:37:58Z</time>
      </trkpt>
      <trkpt lat="62.635083489584" lon="17.978973747667">
        <ele>80.6</ele>
        <time>2017-12-21T19:37:59Z</time>
      </trkpt>
      <trkpt lat="62.635111317492" lon="17.97899528915">
        <ele>80.6</ele>
        <time>2017-12-21T19:38:00Z</time>
      </trkpt>
      <trkpt lat="62.635148784585" lon="17.97900367105">
        <ele>80.6</ele>
        <time>2017-12-21T19:38:01Z</time>
      </trkpt>
      <trkpt lat="62.635186335497" lon="17.979015573348">
        <ele>80.6</ele>
        <time>2017-12-21T19:38:02Z</time>
      </trkpt>
      <trkpt lat="62.635222377667" lon="17.979020351031">
        <ele>80.2</ele>
        <time>2017-12-21T19:38:03Z</time>
      </trkpt>
      <trkpt lat="62.635260347674" lon="17.979027391827">
        <ele>80</ele>
        <time>2017-12-21T19:38:04Z</time>
      </trkpt>
      <trkpt lat="62.635289097591" lon="17.979028481474">
        <ele>79.8</ele>
        <time>2017-12-21T19:38:05Z</time>
      </trkpt>
      <trkpt lat="62.635324050114" lon="17.979030828406">
        <ele>79.6</ele>
        <time>2017-12-21T19:38:06Z</time>
      </trkpt>
      <trkpt lat="62.635361768664" lon="17.979031918053">
        <ele>79.4</ele>
        <time>2017-12-21T19:38:07Z</time>
      </trkpt>
      <trkpt lat="62.635413317349" lon="17.979025715447">
        <ele>79.2</ele>
        <time>2017-12-21T19:38:08Z</time>
      </trkpt>
      <trkpt lat="62.635453718107" lon="17.979029235845">
        <ele>79.2</ele>
        <time>2017-12-21T19:38:09Z</time>
      </trkpt>
      <trkpt lat="62.635491017562" lon="17.979019093746">
        <ele>79.2</ele>
        <time>2017-12-21T19:38:10Z</time>
      </trkpt>
      <trkpt lat="62.635526808275" lon="17.979014064606">
        <ele>79.2</ele>
        <time>2017-12-21T19:38:11Z</time>
      </trkpt>
      <trkpt lat="62.635569807422" lon="17.979003168136">
        <ele>79.2</ele>
        <time>2017-12-21T19:38:12Z</time>
      </trkpt>
      <trkpt lat="62.63561523732" lon="17.978995205331">
        <ele>79</ele>
        <time>2017-12-21T19:38:13Z</time>
      </trkpt>
      <trkpt lat="62.635661086313" lon="17.978997719901">
        <ele>79</ele>
        <time>2017-12-21T19:38:14Z</time>
      </trkpt>
      <trkpt lat="62.63570660003" lon="17.979001743213">
        <ele>79</ele>
        <time>2017-12-21T19:38:15Z</time>
      </trkpt>
      <trkpt lat="62.6357510241" lon="17.978998306634">
        <ele>78.8</ele>
        <time>2017-12-21T19:38:16Z</time>
      </trkpt>
      <trkpt lat="62.635791508677" lon="17.978997384625">
        <ele>78.6</ele>
        <time>2017-12-21T19:38:17Z</time>
      </trkpt>
      <trkpt lat="62.635828472856" lon="17.979012639683">
        <ele>78.2</ele>
        <time>2017-12-21T19:38:18Z</time>
      </trkpt>
      <trkpt lat="62.635864850302" lon="17.979028397655">
        <ele>77.8</ele>
        <time>2017-12-21T19:38:19Z</time>
      </trkpt>
      <trkpt lat="62.635898210264" lon="17.97903636046">
        <ele>77.4</ele>
        <time>2017-12-21T19:38:20Z</time>
      </trkpt>
      <trkpt lat="62.635914974064" lon="17.979039880858">
        <ele>77</ele>
        <time>2017-12-21T19:38:21Z</time>
      </trkpt>
      <trkpt lat="62.63594296961" lon="17.97905731521">
        <ele>76.8</ele>
        <time>2017-12-21T19:38:22Z</time>
      </trkpt>
      <trkpt lat="62.63596140979" lon="17.979060584151">
        <ele>76.8</ele>
        <time>2017-12-21T19:38:23Z</time>
      </trkpt>
      <trkpt lat="62.635973228269" lon="17.979062092893">
        <ele>77</ele>
        <time>2017-12-21T19:38:24Z</time>
      </trkpt>
      <trkpt lat="62.635999379797" lon="17.979070642431">
        <ele>77.2</ele>
        <time>2017-12-21T19:38:25Z</time>
      </trkpt>
      <trkpt lat="62.636009857172" lon="17.979091597181">
        <ele>77.2</ele>
        <time>2017-12-21T19:38:26Z</time>
      </trkpt>
      <trkpt lat="62.63601673033" lon="17.979129148093">
        <ele>77.4</ele>
        <time>2017-12-21T19:38:27Z</time>
      </trkpt>
      <trkpt lat="62.636016562692" lon="17.979160664037">
        <ele>77.4</ele>
        <time>2017-12-21T19:38:28Z</time>
      </trkpt>
      <trkpt lat="62.636012623199" lon="17.979196706207">
        <ele>77.4</ele>
        <time>2017-12-21T19:38:29Z</time>
      </trkpt>
      <trkpt lat="62.636006839688" lon="17.97921657131">
        <ele>77.2</ele>
        <time>2017-12-21T19:38:30Z</time>
      </trkpt>
      <trkpt lat="62.636002564919" lon="17.97924339339">
        <ele>77.4</ele>
        <time>2017-12-21T19:38:31Z</time>
      </trkpt>
      <trkpt lat="62.635997284322" lon="17.979278262094">
        <ele>77</ele>
        <time>2017-12-21T19:38:33Z</time>
      </trkpt>
      <trkpt lat="62.635998038693" lon="17.979296031722">
        <ele>77</ele>
        <time>2017-12-21T19:38:34Z</time>
      </trkpt>
      <trkpt lat="62.635992758096" lon="17.979343221819">
        <ele>77</ele>
        <time>2017-12-21T19:38:35Z</time>
      </trkpt>
      <trkpt lat="62.635990243526" lon="17.979386220966">
        <ele>77</ele>
        <time>2017-12-21T19:38:36Z</time>
      </trkpt>
      <trkpt lat="62.635985884938" lon="17.979476242572">
        <ele>76.8</ele>
        <time>2017-12-21T19:38:37Z</time>
      </trkpt>
      <trkpt lat="62.635984627653" lon="17.979575987182">
        <ele>76.8</ele>
        <time>2017-12-21T19:38:38Z</time>
      </trkpt>
      <trkpt lat="62.635978005952" lon="17.979703308243">
        <ele>76.6</ele>
        <time>2017-12-21T19:38:39Z</time>
      </trkpt>
      <trkpt lat="62.635980604341" lon="17.979823504689">
        <ele>76.4</ele>
        <time>2017-12-21T19:38:40Z</time>
      </trkpt>
      <trkpt lat="62.635987645137" lon="17.9799885443">
        <ele>75.6</ele>
        <time>2017-12-21T19:38:41Z</time>
      </trkpt>
      <trkpt lat="62.63600164291" lon="17.980160037974">
        <ele>74.4</ele>
        <time>2017-12-21T19:38:42Z</time>
      </trkpt>
      <trkpt lat="62.636025447506" lon="17.980331028734">
        <ele>73.2</ele>
        <time>2017-12-21T19:38:43Z</time>
      </trkpt>
      <trkpt lat="62.63604774336" lon="17.980479639821">
        <ele>72</ele>
        <time>2017-12-21T19:38:44Z</time>
      </trkpt>
      <trkpt lat="62.636075655087" lon="17.980640572301">
        <ele>70.8</ele>
        <time>2017-12-21T19:38:45Z</time>
      </trkpt>
      <trkpt lat="62.636099962597" lon="17.980794296347">
        <ele>70.2</ele>
        <time>2017-12-21T19:38:46Z</time>
      </trkpt>
      <trkpt lat="62.636128041962" lon="17.98095749194">
        <ele>69.8</ele>
        <time>2017-12-21T19:38:47Z</time>
      </trkpt>
      <trkpt lat="62.636147068875" lon="17.981104845742">
        <ele>69.4</ele>
        <time>2017-12-21T19:38:48Z</time>
      </trkpt>
      <trkpt lat="62.636161821019" lon="17.981267119326">
        <ele>69.2</ele>
        <time>2017-12-21T19:38:49Z</time>
      </trkpt>
      <trkpt lat="62.63617431005" lon="17.981406258866">
        <ele>69</ele>
        <time>2017-12-21T19:38:50Z</time>
      </trkpt>
      <trkpt lat="62.636187972547" lon="17.981545733682">
        <ele>68.8</ele>
        <time>2017-12-21T19:38:51Z</time>
      </trkpt>
      <trkpt lat="62.636204820166" lon="17.981737679192">
        <ele>68.6</ele>
        <time>2017-12-21T19:38:52Z</time>
      </trkpt>
      <trkpt lat="62.636219907586" lon="17.981829125721">
        <ele>68.6</ele>
        <time>2017-12-21T19:38:53Z</time>
      </trkpt>
      <trkpt lat="62.636237425757" lon="17.981968181442">
        <ele>68.4</ele>
        <time>2017-12-21T19:38:54Z</time>
      </trkpt>
      <trkpt lat="62.63624639439" lon="17.982087204422">
        <ele>68.4</ele>
        <time>2017-12-21T19:38:55Z</time>
      </trkpt>
      <trkpt lat="62.636248573684" lon="17.982225002858">
        <ele>68.4</ele>
        <time>2017-12-21T19:38:56Z</time>
      </trkpt>
      <trkpt lat="62.636247064942" lon="17.982348384426">
        <ele>68.2</ele>
        <time>2017-12-21T19:38:57Z</time>
      </trkpt>
      <trkpt lat="62.636243712182" lon="17.982454331642">
        <ele>68.2</ele>
        <time>2017-12-21T19:38:58Z</time>
      </trkpt>
      <trkpt lat="62.636240359422" lon="17.982561703781">
        <ele>68.2</ele>
        <time>2017-12-21T19:38:59Z</time>
      </trkpt>
      <trkpt lat="62.636239437413" lon="17.982662705676">
        <ele>68.2</ele>
        <time>2017-12-21T19:39:00Z</time>
      </trkpt>
      <trkpt lat="62.636240778517" lon="17.982754655119">
        <ele>68</ele>
        <time>2017-12-21T19:39:01Z</time>
      </trkpt>
      <trkpt lat="62.636240694698" lon="17.982840821051">
        <ele>68.4</ele>
        <time>2017-12-21T19:39:02Z</time>
      </trkpt>
      <trkpt lat="62.636235749377" lon="17.982946684448">
        <ele>68.8</ele>
        <time>2017-12-21T19:39:03Z</time>
      </trkpt>
      <trkpt lat="62.636235162644" lon="17.983037460425">
        <ele>69.2</ele>
        <time>2017-12-21T19:39:04Z</time>
      </trkpt>
      <trkpt lat="62.636233989178" lon="17.98311247843">
        <ele>69.2</ele>
        <time>2017-12-21T19:39:05Z</time>
      </trkpt>
      <trkpt lat="62.636245472381" lon="17.983213815601">
        <ele>69.6</ele>
        <time>2017-12-21T19:39:06Z</time>
      </trkpt>
      <trkpt lat="62.636248238408" lon="17.983301154999">
        <ele>69.8</ele>
        <time>2017-12-21T19:39:07Z</time>
      </trkpt>
      <trkpt lat="62.636248573684" lon="17.983378017022">
        <ele>69.8</ele>
        <time>2017-12-21T19:39:08Z</time>
      </trkpt>
      <trkpt lat="62.63625645267" lon="17.983459153814">
        <ele>69.8</ele>
        <time>2017-12-21T19:39:09Z</time>
      </trkpt>
      <trkpt lat="62.636253519005" lon="17.983538781864">
        <ele>69.8</ele>
        <time>2017-12-21T19:39:10Z</time>
      </trkpt>
      <trkpt lat="62.636245304743" lon="17.983620589208">
        <ele>70</ele>
        <time>2017-12-21T19:39:11Z</time>
      </trkpt>
      <trkpt lat="62.636230636418" lon="17.983701474543">
        <ele>70</ele>
        <time>2017-12-21T19:39:12Z</time>
      </trkpt>
      <trkpt lat="62.636217979749" lon="17.983768278286">
        <ele>70</ele>
        <time>2017-12-21T19:39:13Z</time>
      </trkpt>
      <trkpt lat="62.636211358048" lon="17.983845643223">
        <ele>70</ele>
        <time>2017-12-21T19:39:14Z</time>
      </trkpt>
      <trkpt lat="62.636200210121" lon="17.983910351491">
        <ele>70.2</ele>
        <time>2017-12-21T19:39:15Z</time>
      </trkpt>
      <trkpt lat="62.636189648927" lon="17.983985118039">
        <ele>70.2</ele>
        <time>2017-12-21T19:39:16Z</time>
      </trkpt>
      <trkpt lat="62.63618269195" lon="17.984043791339">
        <ele>70.4</ele>
        <time>2017-12-21T19:39:17Z</time>
      </trkpt>
      <trkpt lat="62.636177914267" lon="17.984118641706">
        <ele>70.6</ele>
        <time>2017-12-21T19:39:18Z</time>
      </trkpt>
      <trkpt lat="62.636178668638" lon="17.984188546752">
        <ele>70.8</ele>
        <time>2017-12-21T19:39:19Z</time>
      </trkpt>
      <trkpt lat="62.636178417181" lon="17.984243364378">
        <ele>70.8</ele>
        <time>2017-12-21T19:39:20Z</time>
      </trkpt>
      <trkpt lat="62.63617933919" lon="17.984322321876">
        <ele>71</ele>
        <time>2017-12-21T19:39:21Z</time>
      </trkpt>
      <trkpt lat="62.63617766281" lon="17.984391472551">
        <ele>71.2</ele>
        <time>2017-12-21T19:39:22Z</time>
      </trkpt>
      <trkpt lat="62.636176070249" lon="17.984454336801">
        <ele>71.4</ele>
        <time>2017-12-21T19:39:23Z</time>
      </trkpt>
      <trkpt lat="62.636167688349" lon="17.984527594607">
        <ele>71.6</ele>
        <time>2017-12-21T19:39:24Z</time>
      </trkpt>
      <trkpt lat="62.636163078304" lon="17.984588950115">
        <ele>71.6</ele>
        <time>2017-12-21T19:39:25Z</time>
      </trkpt>
      <trkpt lat="62.636159893182" lon="17.98465474803">
        <ele>71.6</ele>
        <time>2017-12-21T19:39:26Z</time>
      </trkpt>
      <trkpt lat="62.636159893182" lon="17.984726748551">
        <ele>71.8</ele>
        <time>2017-12-21T19:39:27Z</time>
      </trkpt>
      <trkpt lat="62.636161821019" lon="17.984791205362">
        <ele>71.8</ele>
        <time>2017-12-21T19:39:28Z</time>
      </trkpt>
      <trkpt lat="62.636158300621" lon="17.984853985793">
        <ele>71.8</ele>
        <time>2017-12-21T19:39:29Z</time>
      </trkpt>
      <trkpt lat="62.636155618413" lon="17.984912659093">
        <ele>72</ele>
        <time>2017-12-21T19:39:30Z</time>
      </trkpt>
      <trkpt lat="62.636154444947" lon="17.984970242746">
        <ele>72.4</ele>
        <time>2017-12-21T19:39:31Z</time>
      </trkpt>
      <trkpt lat="62.636151595101" lon="17.985026820571">
        <ele>72.4</ele>
        <time>2017-12-21T19:39:32Z</time>
      </trkpt>
      <trkpt lat="62.636146985056" lon="17.985093456676">
        <ele>72.6</ele>
        <time>2017-12-21T19:39:33Z</time>
      </trkpt>
      <trkpt lat="62.636143716115" lon="17.985150285958">
        <ele>72.8</ele>
        <time>2017-12-21T19:39:34Z</time>
      </trkpt>
      <trkpt lat="62.636142542649" lon="17.985200158263">
        <ele>72.8</ele>
        <time>2017-12-21T19:39:35Z</time>
      </trkpt>
      <trkpt lat="62.636139525165" lon="17.985279031942">
        <ele>73</ele>
        <time>2017-12-21T19:39:36Z</time>
      </trkpt>
      <trkpt lat="62.636131310903" lon="17.985336280319">
        <ele>73</ele>
        <time>2017-12-21T19:39:37Z</time>
      </trkpt>
      <trkpt lat="62.636128796333" lon="17.985400318035">
        <ele>73</ele>
        <time>2017-12-21T19:39:38Z</time>
      </trkpt>
      <trkpt lat="62.63612653322" lon="17.985457817869">
        <ele>73</ele>
        <time>2017-12-21T19:39:39Z</time>
      </trkpt>
      <trkpt lat="62.63612401865" lon="17.98551640735">
        <ele>73</ele>
        <time>2017-12-21T19:39:40Z</time>
      </trkpt>
      <trkpt lat="62.636116223483" lon="17.985574326279">
        <ele>73</ele>
        <time>2017-12-21T19:39:41Z</time>
      </trkpt>
      <trkpt lat="62.636100381692" lon="17.985629646819">
        <ele>73.2</ele>
        <time>2017-12-21T19:39:42Z</time>
      </trkpt>
      <trkpt lat="62.636084539901" lon="17.985679938219">
        <ele>73.2</ele>
        <time>2017-12-21T19:39:43Z</time>
      </trkpt>
      <trkpt lat="62.636074984535" lon="17.985726960678">
        <ele>73.4</ele>
        <time>2017-12-21T19:39:44Z</time>
      </trkpt>
      <trkpt lat="62.636064842436" lon="17.985764846866">
        <ele>73.4</ele>
        <time>2017-12-21T19:39:45Z</time>
      </trkpt>
      <trkpt lat="62.63604858155" lon="17.985809270936">
        <ele>73.4</ele>
        <time>2017-12-21T19:39:46Z</time>
      </trkpt>
      <trkpt lat="62.636031901569" lon="17.985843720545">
        <ele>73.6</ele>
        <time>2017-12-21T19:39:47Z</time>
      </trkpt>
      <trkpt lat="62.636008432249" lon="17.98587766724">
        <ele>74.2</ele>
        <time>2017-12-21T19:39:48Z</time>
      </trkpt>
      <trkpt lat="62.635991165535" lon="17.985904908415">
        <ele>74.4</ele>
        <time>2017-12-21T19:39:49Z</time>
      </trkpt>
      <trkpt lat="62.635968702043" lon="17.985935167074">
        <ele>74.6</ele>
        <time>2017-12-21T19:39:50Z</time>
      </trkpt>
      <trkpt lat="62.635931654045" lon="17.985977160393">
        <ele>74.6</ele>
        <time>2017-12-21T19:39:51Z</time>
      </trkpt>
      <trkpt lat="62.635902485033" lon="17.986004736844">
        <ele>74.8</ele>
        <time>2017-12-21T19:39:52Z</time>
      </trkpt>
      <trkpt lat="62.635882536111" lon="17.986040527557">
        <ele>75</ele>
        <time>2017-12-21T19:39:53Z</time>
      </trkpt>
      <trkpt lat="62.635859066791" lon="17.986063074868">
        <ele>74.6</ele>
        <time>2017-12-21T19:39:54Z</time>
      </trkpt>
      <trkpt lat="62.635841883896" lon="17.986084113437">
        <ele>74.6</ele>
        <time>2017-12-21T19:39:55Z</time>
      </trkpt>
      <trkpt lat="62.635820342413" lon="17.986103894721">
        <ele>74.8</ele>
        <time>2017-12-21T19:39:56Z</time>
      </trkpt>
      <trkpt lat="62.635801986052" lon="17.986132393181">
        <ele>74.8</ele>
        <time>2017-12-21T19:39:57Z</time>
      </trkpt>
      <trkpt lat="62.635780947483" lon="17.986160724003">
        <ele>74.8</ele>
        <time>2017-12-21T19:39:58Z</time>
      </trkpt>
      <trkpt lat="62.635757897258" lon="17.986194754517">
        <ele>75</ele>
        <time>2017-12-21T19:39:59Z</time>
      </trkpt>
      <trkpt lat="62.635736355775" lon="17.986231718696">
        <ele>75</ele>
        <time>2017-12-21T19:40:00Z</time>
      </trkpt>
      <trkpt lat="62.635715484844" lon="17.986262312631">
        <ele>75</ele>
        <time>2017-12-21T19:40:01Z</time>
      </trkpt>
      <trkpt lat="62.635696290293" lon="17.986293996213">
        <ele>75.2</ele>
        <time>2017-12-21T19:40:02Z</time>
      </trkpt>
      <trkpt lat="62.635672904792" lon="17.986330960392">
        <ele>75.2</ele>
        <time>2017-12-21T19:40:03Z</time>
      </trkpt>
      <trkpt lat="62.63565547044" lon="17.986366834924">
        <ele>75.4</ele>
        <time>2017-12-21T19:40:04Z</time>
      </trkpt>
      <trkpt lat="62.635642394676" lon="17.986398769963">
        <ele>75.4</ele>
        <time>2017-12-21T19:40:05Z</time>
      </trkpt>
      <trkpt lat="62.635614231492" lon="17.986452414123">
        <ele>75.8</ele>
        <time>2017-12-21T19:40:06Z</time>
      </trkpt>
      <trkpt lat="62.635591684181" lon="17.986497592564">
        <ele>76</ele>
        <time>2017-12-21T19:40:07Z</time>
      </trkpt>
      <trkpt lat="62.635573579277" lon="17.986545201756">
        <ele>76.2</ele>
        <time>2017-12-21T19:40:08Z</time>
      </trkpt>
      <trkpt lat="62.635555055278" lon="17.98658929055">
        <ele>76.2</ele>
        <time>2017-12-21T19:40:09Z</time>
      </trkpt>
      <trkpt lat="62.635543572075" lon="17.986635642457">
        <ele>76.4</ele>
        <time>2017-12-21T19:40:10Z</time>
      </trkpt>
      <trkpt lat="62.635529490483" lon="17.986676713767">
        <ele>76.4</ele>
        <time>2017-12-21T19:40:11Z</time>
      </trkpt>
      <trkpt lat="62.635513229597" lon="17.986721137837">
        <ele>76.6</ele>
        <time>2017-12-21T19:40:12Z</time>
      </trkpt>
      <trkpt lat="62.635503171317" lon="17.986765142812">
        <ele>76.6</ele>
        <time>2017-12-21T19:40:13Z</time>
      </trkpt>
      <trkpt lat="62.635492777761" lon="17.98680889633">
        <ele>76.6</ele>
        <time>2017-12-21T19:40:14Z</time>
      </trkpt>
      <trkpt lat="62.6354744214" lon="17.986847704527">
        <ele>76.8</ele>
        <time>2017-12-21T19:40:15Z</time>
      </trkpt>
      <trkpt lat="62.635457154686" lon="17.986896990099">
        <ele>76.8</ele>
        <time>2017-12-21T19:40:16Z</time>
      </trkpt>
      <trkpt lat="62.635438965963" lon="17.986944766929">
        <ele>77</ele>
        <time>2017-12-21T19:40:17Z</time>
      </trkpt>
      <trkpt lat="62.635422118344" lon="17.987000758021">
        <ele>77</ele>
        <time>2017-12-21T19:40:18Z</time>
      </trkpt>
      <trkpt lat="62.63540904258" lon="17.987040655865">
        <ele>77.2</ele>
        <time>2017-12-21T19:40:19Z</time>
      </trkpt>
      <trkpt lat="62.635396218273" lon="17.987072507085">
        <ele>77.4</ele>
        <time>2017-12-21T19:40:20Z</time>
      </trkpt>
      <trkpt lat="62.63538389688" lon="17.987113410757">
        <ele>77.6</ele>
        <time>2017-12-21T19:40:21Z</time>
      </trkpt>
      <trkpt lat="62.635367468356" lon="17.987153727696">
        <ele>77.8</ele>
        <time>2017-12-21T19:40:22Z</time>
      </trkpt>
      <trkpt lat="62.635353386764" lon="17.987198151766">
        <ele>77.8</ele>
        <time>2017-12-21T19:40:23Z</time>
      </trkpt>
      <trkpt lat="62.635337461154" lon="17.987245006587">
        <ele>77.8</ele>
        <time>2017-12-21T19:40:24Z</time>
      </trkpt>
      <trkpt lat="62.635320864992" lon="17.987278785644">
        <ele>78.2</ele>
        <time>2017-12-21T19:40:25Z</time>
      </trkpt>
      <trkpt lat="62.635300580794" lon="17.987309882493">
        <ele>78.2</ele>
        <time>2017-12-21T19:40:26Z</time>
      </trkpt>
      <trkpt lat="62.635284487546" lon="17.987353803649">
        <ele>78.4</ele>
        <time>2017-12-21T19:40:27Z</time>
      </trkpt>
      <trkpt lat="62.63526738847" lon="17.987394707321">
        <ele>78.6</ele>
        <time>2017-12-21T19:40:28Z</time>
      </trkpt>
      <trkpt lat="62.635248529195" lon="17.987436616821">
        <ele>78.8</ele>
        <time>2017-12-21T19:40:29Z</time>
      </trkpt>
      <trkpt lat="62.635231011024" lon="17.987481711443">
        <ele>78.8</ele>
        <time>2017-12-21T19:40:30Z</time>
      </trkpt>
      <trkpt lat="62.635213576672" lon="17.987520100545">
        <ele>79</ele>
        <time>2017-12-21T19:40:31Z</time>
      </trkpt>
      <trkpt lat="62.635196058501" lon="17.987565362805">
        <ele>79</ele>
        <time>2017-12-21T19:40:32Z</time>
      </trkpt>
      <trkpt lat="62.635182396004" lon="17.98759763312">
        <ele>79</ele>
        <time>2017-12-21T19:40:33Z</time>
      </trkpt>
      <trkpt lat="62.635163872005" lon="17.987630406349">
        <ele>79.2</ele>
        <time>2017-12-21T19:40:34Z</time>
      </trkpt>
      <trkpt lat="62.635147108205" lon="17.987660329732">
        <ele>79.2</ele>
        <time>2017-12-21T19:40:35Z</time>
      </trkpt>
      <trkpt lat="62.635129003301" lon="17.987684301966">
        <ele>79.2</ele>
        <time>2017-12-21T19:40:36Z</time>
      </trkpt>
      <trkpt lat="62.635108802922" lon="17.987721098507">
        <ele>79.4</ele>
        <time>2017-12-21T19:40:37Z</time>
      </trkpt>
      <trkpt lat="62.635093799321" lon="17.987754039374">
        <ele>79.4</ele>
        <time>2017-12-21T19:40:38Z</time>
      </trkpt>
      <trkpt lat="62.635072174019" lon="17.987787818431">
        <ele>79.6</ele>
        <time>2017-12-21T19:40:39Z</time>
      </trkpt>
      <trkpt lat="62.635056416047" lon="17.987824195877">
        <ele>79.8</ele>
        <time>2017-12-21T19:40:40Z</time>
      </trkpt>
      <trkpt lat="62.635035461297" lon="17.987854622174">
        <ele>79.8</ele>
        <time>2017-12-21T19:40:41Z</time>
      </trkpt>
      <trkpt lat="62.635014338909" lon="17.987885216109">
        <ele>80</ele>
        <time>2017-12-21T19:40:42Z</time>
      </trkpt>
      <trkpt lat="62.634996988376" lon="17.987913798388">
        <ele>80.2</ele>
        <time>2017-12-21T19:40:43Z</time>
      </trkpt>
      <trkpt lat="62.63497402197" lon="17.987941542477">
        <ele>80.2</ele>
        <time>2017-12-21T19:40:44Z</time>
      </trkpt>
      <trkpt lat="62.634950301193" lon="17.987969538023">
        <ele>80.4</ele>
        <time>2017-12-21T19:40:45Z</time>
      </trkpt>
      <trkpt lat="62.634924401122" lon="17.987999880501">
        <ele>80.4</ele>
        <time>2017-12-21T19:40:46Z</time>
      </trkpt>
      <trkpt lat="62.634903697829" lon="17.988021338165">
        <ele>80.6</ele>
        <time>2017-12-21T19:40:47Z</time>
      </trkpt>
      <trkpt lat="62.634880647604" lon="17.988047824969">
        <ele>80.8</ele>
        <time>2017-12-21T19:40:48Z</time>
      </trkpt>
      <trkpt lat="62.634855753361" lon="17.988079843827">
        <ele>81</ele>
        <time>2017-12-21T19:40:49Z</time>
      </trkpt>
      <trkpt lat="62.634831864946" lon="17.98809719436">
        <ele>81</ele>
        <time>2017-12-21T19:40:50Z</time>
      </trkpt>
      <trkpt lat="62.634805210504" lon="17.988124938449">
        <ele>81.4</ele>
        <time>2017-12-21T19:40:51Z</time>
      </trkpt>
      <trkpt lat="62.634779226614" lon="17.988140864059">
        <ele>81.4</ele>
        <time>2017-12-21T19:40:52Z</time>
      </trkpt>
      <trkpt lat="62.634757098398" lon="17.988144468276">
        <ele>81.6</ele>
        <time>2017-12-21T19:40:53Z</time>
      </trkpt>
      <trkpt lat="62.634727929386" lon="17.988149916511">
        <ele>81.6</ele>
        <time>2017-12-21T19:40:54Z</time>
      </trkpt>
      <trkpt lat="62.63470077203" lon="17.988160310067">
        <ele>81.6</ele>
        <time>2017-12-21T19:40:55Z</time>
      </trkpt>
      <trkpt lat="62.634675374873" lon="17.988166680311">
        <ele>81.8</ele>
        <time>2017-12-21T19:40:56Z</time>
      </trkpt>
      <trkpt lat="62.634651989372" lon="17.988167518501">
        <ele>81.8</ele>
        <time>2017-12-21T19:40:57Z</time>
      </trkpt>
      <trkpt lat="62.63463455502" lon="17.988166596492">
        <ele>81.8</ele>
        <time>2017-12-21T19:40:58Z</time>
      </trkpt>
      <trkpt lat="62.634612007709" lon="17.988168021415">
        <ele>82</ele>
        <time>2017-12-21T19:40:59Z</time>
      </trkpt>
      <trkpt lat="62.63458594" lon="17.988175313668">
        <ele>81.8</ele>
        <time>2017-12-21T19:41:00Z</time>
      </trkpt>
      <trkpt lat="62.634561129576" lon="17.988173721107">
        <ele>82</ele>
        <time>2017-12-21T19:41:01Z</time>
      </trkpt>
      <trkpt lat="62.634542270301" lon="17.98817179327">
        <ele>82</ele>
        <time>2017-12-21T19:41:02Z</time>
      </trkpt>
      <trkpt lat="62.634516621687" lon="17.988180845722">
        <ele>82.4</ele>
        <time>2017-12-21T19:41:03Z</time>
      </trkpt>
      <trkpt lat="62.634485860114" lon="17.988188976165">
        <ele>82.4</ele>
        <time>2017-12-21T19:41:04Z</time>
      </trkpt>
      <trkpt lat="62.634459121853" lon="17.988196436056">
        <ele>82.4</ele>
        <time>2017-12-21T19:41:05Z</time>
      </trkpt>
      <trkpt lat="62.634433640877" lon="17.988204566499">
        <ele>82.6</ele>
        <time>2017-12-21T19:41:06Z</time>
      </trkpt>
      <trkpt lat="62.634409501005" lon="17.988209930915">
        <ele>82.6</ele>
        <time>2017-12-21T19:41:07Z</time>
      </trkpt>
      <trkpt lat="62.634379493803" lon="17.988217977539">
        <ele>82.8</ele>
        <time>2017-12-21T19:41:08Z</time>
      </trkpt>
      <trkpt lat="62.634340937063" lon="17.988216133521">
        <ele>82.8</ele>
        <time>2017-12-21T19:41:09Z</time>
      </trkpt>
      <trkpt lat="62.634306235997" lon="17.988224347783">
        <ele>83</ele>
        <time>2017-12-21T19:41:10Z</time>
      </trkpt>
      <trkpt lat="62.634270026189" lon="17.988219402462">
        <ele>83.2</ele>
        <time>2017-12-21T19:41:11Z</time>
      </trkpt>
      <trkpt lat="62.634244880489" lon="17.988213367494">
        <ele>83.4</ele>
        <time>2017-12-21T19:41:12Z</time>
      </trkpt>
      <trkpt lat="62.634219399513" lon="17.988192412744">
        <ele>83.6</ele>
        <time>2017-12-21T19:41:13Z</time>
      </trkpt>
      <trkpt lat="62.634186039551" lon="17.988180426627">
        <ele>83.6</ele>
        <time>2017-12-21T19:41:14Z</time>
      </trkpt>
      <trkpt lat="62.634156451444" lon="17.988164668655">
        <ele>83.6</ele>
        <time>2017-12-21T19:41:15Z</time>
      </trkpt>
      <trkpt lat="62.634126276604" lon="17.988147234303">
        <ele>83.8</ele>
        <time>2017-12-21T19:41:16Z</time>
      </trkpt>
      <trkpt lat="62.634098448696" lon="17.988133068892">
        <ele>83.6</ele>
        <time>2017-12-21T19:41:17Z</time>
      </trkpt>
      <trkpt lat="62.63406710039" lon="17.98811228178">
        <ele>83.4</ele>
        <time>2017-12-21T19:41:18Z</time>
      </trkpt>
      <trkpt lat="62.634037344645" lon="17.988091075573">
        <ele>83.6</ele>
        <time>2017-12-21T19:41:19Z</time>
      </trkpt>
      <trkpt lat="62.634011612212" lon="17.988075149963">
        <ele>83.2</ele>
        <time>2017-12-21T19:41:20Z</time>
      </trkpt>
      <trkpt lat="62.633976156775" lon="17.988063331484">
        <ele>83.4</ele>
        <time>2017-12-21T19:41:21Z</time>
      </trkpt>
      <trkpt lat="62.633940449881" lon="17.988049752806">
        <ele>83.4</ele>
        <time>2017-12-21T19:41:22Z</time>
      </trkpt>
      <trkpt lat="62.633911364688" lon="17.988031144988">
        <ele>83.2</ele>
        <time>2017-12-21T19:41:23Z</time>
      </trkpt>
      <trkpt lat="62.633867443532" lon="17.988025193839">
        <ele>83.2</ele>
        <time>2017-12-21T19:41:24Z</time>
      </trkpt>
      <trkpt lat="62.633833496837" lon="17.988015638473">
        <ele>83.4</ele>
        <time>2017-12-21T19:41:25Z</time>
      </trkpt>
      <trkpt lat="62.633798963409" lon="17.987999629044">
        <ele>83.6</ele>
        <time>2017-12-21T19:41:26Z</time>
      </trkpt>
      <trkpt lat="62.6337728957" lon="17.987976159724">
        <ele>83.8</ele>
        <time>2017-12-21T19:41:27Z</time>
      </trkpt>
      <trkpt lat="62.633746744172" lon="17.987947493626">
        <ele>84</ele>
        <time>2017-12-21T19:41:28Z</time>
      </trkpt>
      <trkpt lat="62.633716653151" lon="17.987917989338">
        <ele>84.2</ele>
        <time>2017-12-21T19:41:29Z</time>
      </trkpt>
      <trkpt lat="62.633686394492" lon="17.98788848505">
        <ele>84.6</ele>
        <time>2017-12-21T19:41:30Z</time>
      </trkpt>
      <trkpt lat="62.633655800557" lon="17.987859818952">
        <ele>84.8</ele>
        <time>2017-12-21T19:41:31Z</time>
      </trkpt>
      <trkpt lat="62.633630068124" lon="17.987831320492">
        <ele>84.8</ele>
        <time>2017-12-21T19:41:32Z</time>
      </trkpt>
      <trkpt lat="62.633608191365" lon="17.987808857">
        <ele>84.8</ele>
        <time>2017-12-21T19:41:33Z</time>
      </trkpt>
      <trkpt lat="62.633583632398" lon="17.987788991897">
        <ele>85</ele>
        <time>2017-12-21T19:41:34Z</time>
      </trkpt>
      <trkpt lat="62.633561336544" lon="17.987769294432">
        <ele>85</ele>
        <time>2017-12-21T19:41:35Z</time>
      </trkpt>
      <trkpt lat="62.63353904069" lon="17.987746998578">
        <ele>85.2</ele>
        <time>2017-12-21T19:41:36Z</time>
      </trkpt>
      <trkpt lat="62.633512386248" lon="17.987719589765">
        <ele>85.2</ele>
        <time>2017-12-21T19:41:37Z</time>
      </trkpt>
      <trkpt lat="62.633482798141" lon="17.987686732717">
        <ele>85.6</ele>
        <time>2017-12-21T19:41:38Z</time>
      </trkpt>
      <trkpt lat="62.633456730432" lon="17.987657060791">
        <ele>85.6</ele>
        <time>2017-12-21T19:41:39Z</time>
      </trkpt>
      <trkpt lat="62.633433261112" lon="17.987620180431">
        <ele>85.8</ele>
        <time>2017-12-21T19:41:40Z</time>
      </trkpt>
      <trkpt lat="62.633409875611" lon="17.987587155745">
        <ele>85.8</ele>
        <time>2017-12-21T19:41:41Z</time>
      </trkpt>
      <trkpt lat="62.633388753223" lon="17.987552538498">
        <ele>86</ele>
        <time>2017-12-21T19:41:42Z</time>
      </trkpt>
      <trkpt lat="62.633372408518" lon="17.987519178536">
        <ele>86</ele>
        <time>2017-12-21T19:41:43Z</time>
      </trkpt>
      <trkpt lat="62.633357404917" lon="17.987490596257">
        <ele>86.2</ele>
        <time>2017-12-21T19:41:44Z</time>
      </trkpt>
      <trkpt lat="62.633343993877" lon="17.987455643734">
        <ele>86.4</ele>
        <time>2017-12-21T19:41:45Z</time>
      </trkpt>
      <trkpt lat="62.633328235905" lon="17.987413315139">
        <ele>86.6</ele>
        <time>2017-12-21T19:41:46Z</time>
      </trkpt>
      <trkpt lat="62.633310131001" lon="17.987372914381">
        <ele>86.8</ele>
        <time>2017-12-21T19:41:47Z</time>
      </trkpt>
      <trkpt lat="62.633286074948" lon="17.987321114239">
        <ele>86.8</ele>
        <time>2017-12-21T19:41:48Z</time>
      </trkpt>
      <trkpt lat="62.63326495256" lon="17.987254226677">
        <ele>87.2</ele>
        <time>2017-12-21T19:41:49Z</time>
      </trkpt>
      <trkpt lat="62.633242740525" lon="17.987191697703">
        <ele>87.2</ele>
        <time>2017-12-21T19:41:50Z</time>
      </trkpt>
      <trkpt lat="62.63321801392" lon="17.987082397727">
        <ele>87</ele>
        <time>2017-12-21T19:41:51Z</time>
      </trkpt>
      <trkpt lat="62.633198232636" lon="17.986967733335">
        <ele>87</ele>
        <time>2017-12-21T19:41:52Z</time>
      </trkpt>
      <trkpt lat="62.633181217379" lon="17.986862624309">
        <ele>86.2</ele>
        <time>2017-12-21T19:41:53Z</time>
      </trkpt>
      <trkpt lat="62.633166800511" lon="17.986734213601">
        <ele>85.4</ele>
        <time>2017-12-21T19:41:54Z</time>
      </trkpt>
      <trkpt lat="62.633157831878" lon="17.98662449453">
        <ele>85</ele>
        <time>2017-12-21T19:41:55Z</time>
      </trkpt>
      <trkpt lat="62.633150539625" lon="17.986504884817">
        <ele>84.2</ele>
        <time>2017-12-21T19:41:56Z</time>
      </trkpt>
      <trkpt lat="62.633148360331" lon="17.986389633692">
        <ele>83.4</ele>
        <time>2017-12-21T19:41:57Z</time>
      </trkpt>
      <trkpt lat="62.633145761942" lon="17.986269269608">
        <ele>83</ele>
        <time>2017-12-21T19:41:58Z</time>
      </trkpt>
      <trkpt lat="62.633143163553" lon="17.986153850845">
        <ele>83</ele>
        <time>2017-12-21T19:41:59Z</time>
      </trkpt>
      <trkpt lat="62.633141990087" lon="17.98603608515">
        <ele>82.8</ele>
        <time>2017-12-21T19:42:00Z</time>
      </trkpt>
      <trkpt lat="62.633143247372" lon="17.98590448932">
        <ele>82.6</ele>
        <time>2017-12-21T19:42:01Z</time>
      </trkpt>
      <trkpt lat="62.633145510485" lon="17.985778174087">
        <ele>82.4</ele>
        <time>2017-12-21T19:42:02Z</time>
      </trkpt>
      <trkpt lat="62.633149785254" lon="17.985662839143">
        <ele>82</ele>
        <time>2017-12-21T19:42:03Z</time>
      </trkpt>
      <trkpt lat="62.633154060023" lon="17.985542139783">
        <ele>81.8</ele>
        <time>2017-12-21T19:42:04Z</time>
      </trkpt>
      <trkpt lat="62.633160011172" lon="17.985422446251">
        <ele>81.6</ele>
        <time>2017-12-21T19:42:05Z</time>
      </trkpt>
      <trkpt lat="62.633172500203" lon="17.985252628957">
        <ele>81.4</ele>
        <time>2017-12-21T19:42:06Z</time>
      </trkpt>
      <trkpt lat="62.633189264003" lon="17.985078285437">
        <ele>81.2</ele>
        <time>2017-12-21T19:42:07Z</time>
      </trkpt>
      <trkpt lat="62.63321382297" lon="17.984921963002">
        <ele>80.8</ele>
        <time>2017-12-21T19:42:08Z</time>
      </trkpt>
      <trkpt lat="62.633239974498" lon="17.98477628558">
        <ele>80.6</ele>
        <time>2017-12-21T19:42:09Z</time>
      </trkpt>
      <trkpt lat="62.633265706931" lon="17.984642845732">
        <ele>79.8</ele>
        <time>2017-12-21T19:42:10Z</time>
      </trkpt>
      <trkpt lat="62.633291104088" lon="17.984527594607">
        <ele>79.2</ele>
        <time>2017-12-21T19:42:11Z</time>
      </trkpt>
      <trkpt lat="62.633319183453" lon="17.984401279374">
        <ele>78.6</ele>
        <time>2017-12-21T19:42:12Z</time>
      </trkpt>
      <trkpt lat="62.633337539814" lon="17.984286698801">
        <ele>78</ele>
        <time>2017-12-21T19:42:13Z</time>
      </trkpt>
      <trkpt lat="62.633352878691" lon="17.984172537323">
        <ele>78</ele>
        <time>2017-12-21T19:42:14Z</time>
      </trkpt>
      <trkpt lat="62.633371067414" lon="17.984079330595">
        <ele>77.8</ele>
        <time>2017-12-21T19:42:15Z</time>
      </trkpt>
      <trkpt lat="62.633393950001" lon="17.983974221569">
        <ele>77.8</ele>
        <time>2017-12-21T19:42:16Z</time>
      </trkpt>
      <trkpt lat="62.633405433204" lon="17.983874309321">
        <ele>78</ele>
        <time>2017-12-21T19:42:17Z</time>
      </trkpt>
      <trkpt lat="62.633418257511" lon="17.983764674069">
        <ele>78.6</ele>
        <time>2017-12-21T19:42:18Z</time>
      </trkpt>
      <trkpt lat="62.633425717402" lon="17.983675071558">
        <ele>78.8</ele>
        <time>2017-12-21T19:42:19Z</time>
      </trkpt>
      <trkpt lat="62.6334376197" lon="17.983593683309">
        <ele>79.2</ele>
        <time>2017-12-21T19:42:20Z</time>
      </trkpt>
      <trkpt lat="62.63345941264" lon="17.983498464925">
        <ele>79.6</ele>
        <time>2017-12-21T19:42:21Z</time>
      </trkpt>
      <trkpt lat="62.633476846992" lon="17.983422021997">
        <ele>80</ele>
        <time>2017-12-21T19:42:22Z</time>
      </trkpt>
      <trkpt lat="62.633492437326" lon="17.983355721168">
        <ele>80</ele>
        <time>2017-12-21T19:42:23Z</time>
      </trkpt>
      <trkpt lat="62.633510206954" lon="17.98326921996">
        <ele>80</ele>
        <time>2017-12-21T19:42:24Z</time>
      </trkpt>
      <trkpt lat="62.633523701813" lon="17.983186825883">
        <ele>80</ele>
        <time>2017-12-21T19:42:25Z</time>
      </trkpt>
      <trkpt lat="62.633536861396" lon="17.983099151209">
        <ele>80.2</ele>
        <time>2017-12-21T19:42:26Z</time>
      </trkpt>
      <trkpt lat="62.633544656563" lon="17.983024719937">
        <ele>80.4</ele>
        <time>2017-12-21T19:42:27Z</time>
      </trkpt>
      <trkpt lat="62.633558570517" lon="17.98294986957">
        <ele>80.2</ele>
        <time>2017-12-21T19:42:28Z</time>
      </trkpt>
      <trkpt lat="62.633570724272" lon="17.982872420814">
        <ele>80.2</ele>
        <time>2017-12-21T19:42:29Z</time>
      </trkpt>
      <trkpt lat="62.633583045665" lon="17.982802096673">
        <ele>80.2</ele>
        <time>2017-12-21T19:42:30Z</time>
      </trkpt>
      <trkpt lat="62.633603413682" lon="17.982710314868">
        <ele>80.2</ele>
        <time>2017-12-21T19:42:31Z</time>
      </trkpt>
      <trkpt lat="62.633606514985" lon="17.982650803378">
        <ele>80</ele>
        <time>2017-12-21T19:42:32Z</time>
      </trkpt>
      <trkpt lat="62.633606263528" lon="17.982586765662">
        <ele>80</ele>
        <time>2017-12-21T19:42:33Z</time>
      </trkpt>
      <trkpt lat="62.63361699236" lon="17.982494145667">
        <ele>80</ele>
        <time>2017-12-21T19:42:34Z</time>
      </trkpt>
      <trkpt lat="62.6336304034" lon="17.982401944767">
        <ele>80</ele>
        <time>2017-12-21T19:42:35Z</time>
      </trkpt>
      <trkpt lat="62.633623027328" lon="17.982332458816">
        <ele>80.2</ele>
        <time>2017-12-21T19:42:36Z</time>
      </trkpt>
      <trkpt lat="62.633625038984" lon="17.982254423327">
        <ele>80.6</ele>
        <time>2017-12-21T19:42:37Z</time>
      </trkpt>
      <trkpt lat="62.633629146115" lon="17.982181333159">
        <ele>80.6</ele>
        <time>2017-12-21T19:42:38Z</time>
      </trkpt>
      <trkpt lat="62.633638952938" lon="17.982099190539">
        <ele>80.6</ele>
        <time>2017-12-21T19:42:39Z</time>
      </trkpt>
      <trkpt lat="62.63364213806" lon="17.982028195846">
        <ele>80.4</ele>
        <time>2017-12-21T19:42:40Z</time>
      </trkpt>
      <trkpt lat="62.63364800539" lon="17.981952507289">
        <ele>80.4</ele>
        <time>2017-12-21T19:42:41Z</time>
      </trkpt>
      <trkpt lat="62.633656722566" lon="17.981870197031">
        <ele>80.4</ele>
        <time>2017-12-21T19:42:42Z</time>
      </trkpt>
      <trkpt lat="62.633658315127" lon="17.981811942826">
        <ele>80.2</ele>
        <time>2017-12-21T19:42:43Z</time>
      </trkpt>
      <trkpt lat="62.633662506077" lon="17.981734577889">
        <ele>80.4</ele>
        <time>2017-12-21T19:42:44Z</time>
      </trkpt>
      <trkpt lat="62.633668624864" lon="17.981653692554">
        <ele>80.6</ele>
        <time>2017-12-21T19:42:45Z</time>
      </trkpt>
      <trkpt lat="62.633672648176" lon="17.981572639581">
        <ele>80.8</ele>
        <time>2017-12-21T19:42:46Z</time>
      </trkpt>
      <trkpt lat="62.633680359524" lon="17.981506925485">
        <ele>80.8</ele>
        <time>2017-12-21T19:42:47Z</time>
      </trkpt>
      <trkpt lat="62.633683041732" lon="17.981427045978">
        <ele>80.6</ele>
        <time>2017-12-21T19:42:48Z</time>
      </trkpt>
      <trkpt lat="62.633693351469" lon="17.98135730857">
        <ele>80.8</ele>
        <time>2017-12-21T19:42:49Z</time>
      </trkpt>
      <trkpt lat="62.633709528536" lon="17.98129779708">
        <ele>80.8</ele>
        <time>2017-12-21T19:42:50Z</time>
      </trkpt>
      <trkpt lat="62.633728136354" lon="17.981211966424">
        <ele>80.8</ele>
        <time>2017-12-21T19:42:51Z</time>
      </trkpt>
      <trkpt lat="62.633752360045" lon="17.981145581776">
        <ele>80.8</ele>
        <time>2017-12-21T19:42:52Z</time>
      </trkpt>
      <trkpt lat="62.633774739718" lon="17.981086154105">
        <ele>80.8</ele>
        <time>2017-12-21T19:42:53Z</time>
      </trkpt>
      <trkpt lat="62.633788569853" lon="17.98102873809">
        <ele>80.6</ele>
        <time>2017-12-21T19:42:54Z</time>
      </trkpt>
      <trkpt lat="62.633803154359" lon="17.980976435034">
        <ele>80.6</ele>
        <time>2017-12-21T19:42:55Z</time>
      </trkpt>
      <trkpt lat="62.633818409417" lon="17.980918516105">
        <ele>80.6</ele>
        <time>2017-12-21T19:42:56Z</time>
      </trkpt>
      <trkpt lat="62.633836262864" lon="17.980864033755">
        <ele>80.8</ele>
        <time>2017-12-21T19:42:57Z</time>
      </trkpt>
      <trkpt lat="62.633857971985" lon="17.980805192817">
        <ele>80.8</ele>
        <time>2017-12-21T19:42:58Z</time>
      </trkpt>
      <trkpt lat="62.633875825432" lon="17.980749872277">
        <ele>81</ele>
        <time>2017-12-21T19:42:59Z</time>
      </trkpt>
      <trkpt lat="62.633895858173" lon="17.980693294452">
        <ele>81</ele>
        <time>2017-12-21T19:43:00Z</time>
      </trkpt>
      <trkpt lat="62.633918489303" lon="17.980625149605">
        <ele>81.2</ele>
        <time>2017-12-21T19:43:01Z</time>
      </trkpt>
      <trkpt lat="62.633940366062" lon="17.980573349463">
        <ele>81.2</ele>
        <time>2017-12-21T19:43:02Z</time>
      </trkpt>
      <trkpt lat="62.63396148845" lon="17.980520459674">
        <ele>81.2</ele>
        <time>2017-12-21T19:43:03Z</time>
      </trkpt>
      <trkpt lat="62.633973390748" lon="17.980461367279">
        <ele>81.2</ele>
        <time>2017-12-21T19:43:04Z</time>
      </trkpt>
      <trkpt lat="62.633981018277" lon="17.980406549653">
        <ele>81.2</ele>
        <time>2017-12-21T19:43:05Z</time>
      </trkpt>
      <trkpt lat="62.634014797334" lon="17.980349552733">
        <ele>81.2</ele>
        <time>2017-12-21T19:43:06Z</time>
      </trkpt>
      <trkpt lat="62.634036506455" lon="17.980310073984">
        <ele>81.2</ele>
        <time>2017-12-21T19:43:07Z</time>
      </trkpt>
      <trkpt lat="62.634063579992" lon="17.980264644086">
        <ele>81.4</ele>
        <time>2017-12-21T19:43:08Z</time>
      </trkpt>
      <trkpt lat="62.634091324081" lon="17.980212760125">
        <ele>81.6</ele>
        <time>2017-12-21T19:43:09Z</time>
      </trkpt>
      <trkpt lat="62.634122840025" lon="17.980161295259">
        <ele>81.6</ele>
        <time>2017-12-21T19:43:10Z</time>
      </trkpt>
      <trkpt lat="62.634149662105" lon="17.980106226176">
        <ele>81.6</ele>
        <time>2017-12-21T19:43:11Z</time>
      </trkpt>
      <trkpt lat="62.634168353742" lon="17.980052917292">
        <ele>81.8</ele>
        <time>2017-12-21T19:43:12Z</time>
      </trkpt>
      <trkpt lat="62.63419031432" lon="17.979990136861">
        <ele>81.8</ele>
        <time>2017-12-21T19:43:13Z</time>
      </trkpt>
      <trkpt lat="62.634217639314" lon="17.979916292322">
        <ele>81.8</ele>
        <time>2017-12-21T19:43:14Z</time>
      </trkpt>
      <trkpt lat="62.634239348435" lon="17.979852673701">
        <ele>81.8</ele>
        <time>2017-12-21T19:43:15Z</time>
      </trkpt>
      <trkpt lat="62.634260806099" lon="17.97977312947">
        <ele>81.8</ele>
        <time>2017-12-21T19:43:16Z</time>
      </trkpt>
      <trkpt lat="62.634268936542" lon="17.979712528333">
        <ele>81.8</ele>
        <time>2017-12-21T19:43:17Z</time>
      </trkpt>
      <trkpt lat="62.634283101953" lon="17.979637845604">
        <ele>81.6</ele>
        <time>2017-12-21T19:43:18Z</time>
      </trkpt>
      <trkpt lat="62.634297183545" lon="17.979574143164">
        <ele>81.6</ele>
        <time>2017-12-21T19:43:19Z</time>
      </trkpt>
      <trkpt lat="62.634309421119" lon="17.979512536199">
        <ele>81.4</ele>
        <time>2017-12-21T19:43:20Z</time>
      </trkpt>
      <trkpt lat="62.634330627326" lon="17.979432908149">
        <ele>81.6</ele>
        <time>2017-12-21T19:43:21Z</time>
      </trkpt>
      <trkpt lat="62.634341942891" lon="17.979372893745">
        <ele>81.4</ele>
        <time>2017-12-21T19:43:22Z</time>
      </trkpt>
      <trkpt lat="62.634352336447" lon="17.979311538237">
        <ele>81.4</ele>
        <time>2017-12-21T19:43:23Z</time>
      </trkpt>
      <trkpt lat="62.634371028084" lon="17.97923501149">
        <ele>81.4</ele>
        <time>2017-12-21T19:43:24Z</time>
      </trkpt>
      <trkpt lat="62.634381756916" lon="17.979179020398">
        <ele>81.4</ele>
        <time>2017-12-21T19:43:25Z</time>
      </trkpt>
      <trkpt lat="62.63439650906" lon="17.979110372637">
        <ele>81.4</ele>
        <time>2017-12-21T19:43:26Z</time>
      </trkpt>
      <trkpt lat="62.63441494924" lon="17.979046502559">
        <ele>81.6</ele>
        <time>2017-12-21T19:43:27Z</time>
      </trkpt>
      <trkpt lat="62.634431461583" lon="17.978989002725">
        <ele>81.4</ele>
        <time>2017-12-21T19:43:28Z</time>
      </trkpt>
      <trkpt lat="62.634466414106" lon="17.978879283654">
        <ele>81.4</ele>
        <time>2017-12-21T19:43:30Z</time>
      </trkpt>
      <trkpt lat="62.634494074376" lon="17.978833350842">
        <ele>81.4</ele>
        <time>2017-12-21T19:43:31Z</time>
      </trkpt>
      <trkpt lat="62.634522656655" lon="17.978810468255">
        <ele>81.2</ele>
        <time>2017-12-21T19:43:32Z</time>
      </trkpt>
      <trkpt lat="62.634551406572" lon="17.978792866265">
        <ele>81.4</ele>
        <time>2017-12-21T19:43:33Z</time>
      </trkpt>
      <trkpt lat="62.634578061014" lon="17.978780544872">
        <ele>81.2</ele>
        <time>2017-12-21T19:43:34Z</time>
      </trkpt>
      <trkpt lat="62.634598345212" lon="17.978771157144">
        <ele>81.4</ele>
        <time>2017-12-21T19:43:35Z</time>
      </trkpt>
      <trkpt lat="62.634632208088" lon="17.978790519333">
        <ele>81.4</ele>
        <time>2017-12-21T19:43:36Z</time>
      </trkpt>
      <trkpt lat="62.634662718204" lon="17.978805103839">
        <ele>81.2</ele>
        <time>2017-12-21T19:43:37Z</time>
      </trkpt>
      <trkpt lat="62.634695826709" lon="17.978822119096">
        <ele>81</ele>
        <time>2017-12-21T19:43:38Z</time>
      </trkpt>
      <trkpt lat="62.634729605766" lon="17.978844163493">
        <ele>81</ele>
        <time>2017-12-21T19:43:39Z</time>
      </trkpt>
      <trkpt lat="62.634764223013" lon="17.978861346388">
        <ele>80.8</ele>
        <time>2017-12-21T19:43:40Z</time>
      </trkpt>
      <trkpt lat="62.634801187192" lon="17.978876098532">
        <ele>80.6</ele>
        <time>2017-12-21T19:43:41Z</time>
      </trkpt>
      <trkpt lat="62.634838067552" lon="17.978889928667">
        <ele>80.4</ele>
        <time>2017-12-21T19:43:42Z</time>
      </trkpt>
      <trkpt lat="62.63487343917" lon="17.978907363019">
        <ele>80.4</ele>
        <time>2017-12-21T19:43:43Z</time>
      </trkpt>
      <trkpt lat="62.634906044761" lon="17.978922701896">
        <ele>80.4</ele>
        <time>2017-12-21T19:43:44Z</time>
      </trkpt>
      <trkpt lat="62.634940578189" lon="17.978944830112">
        <ele>80.4</ele>
        <time>2017-12-21T19:43:45Z</time>
      </trkpt>
      <trkpt lat="62.634982152413" lon="17.978978357712">
        <ele>80.4</ele>
        <time>2017-12-21T19:43:46Z</time>
      </trkpt>
      <trkpt lat="62.635003777715" lon="17.978968131794">
        <ele>80.4</ele>
        <time>2017-12-21T19:43:47Z</time>
      </trkpt>
      <trkpt lat="62.635038059686" lon="17.978983973585">
        <ele>80.2</ele>
        <time>2017-12-21T19:43:48Z</time>
      </trkpt>
      <trkpt lat="62.635066390508" lon="17.978992187847">
        <ele>80.2</ele>
        <time>2017-12-21T19:43:49Z</time>
      </trkpt>
      <trkpt lat="62.635098996099" lon="17.979003168136">
        <ele>80.2</ele>
        <time>2017-12-21T19:43:50Z</time>
      </trkpt>
      <trkpt lat="62.635138558667" lon="17.979013477873">
        <ele>80.2</ele>
        <time>2017-12-21T19:43:51Z</time>
      </trkpt>
      <trkpt lat="62.635174936113" lon="17.979021608316">
        <ele>79.8</ele>
        <time>2017-12-21T19:43:52Z</time>
      </trkpt>
      <trkpt lat="62.63521039155" lon="17.979028397655">
        <ele>79.6</ele>
        <time>2017-12-21T19:43:53Z</time>
      </trkpt>
      <trkpt lat="62.635249702661" lon="17.979034851718">
        <ele>79.2</ele>
        <time>2017-12-21T19:43:54Z</time>
      </trkpt>
      <trkpt lat="62.635285577193" lon="17.979038372116">
        <ele>79</ele>
        <time>2017-12-21T19:43:55Z</time>
      </trkpt>
      <trkpt lat="62.635325139761" lon="17.979040216134">
        <ele>78.6</ele>
        <time>2017-12-21T19:43:56Z</time>
      </trkpt>
      <trkpt lat="62.635367468356" lon="17.979044071808">
        <ele>78.4</ele>
        <time>2017-12-21T19:43:57Z</time>
      </trkpt>
      <trkpt lat="62.635406611829" lon="17.97904390417">
        <ele>78.4</ele>
        <time>2017-12-21T19:43:58Z</time>
      </trkpt>
      <trkpt lat="62.635449191881" lon="17.979036695736">
        <ele>78.2</ele>
        <time>2017-12-21T19:43:59Z</time>
      </trkpt>
      <trkpt lat="62.635492274847" lon="17.979035438451">
        <ele>78.2</ele>
        <time>2017-12-21T19:44:00Z</time>
      </trkpt>
      <trkpt lat="62.635536782736" lon="17.97903803684">
        <ele>78.2</ele>
        <time>2017-12-21T19:44:01Z</time>
      </trkpt>
      <trkpt lat="62.635583218462" lon="17.97903552227">
        <ele>78</ele>
        <time>2017-12-21T19:44:02Z</time>
      </trkpt>
      <trkpt lat="62.635630492378" lon="17.979031163682">
        <ele>77.8</ele>
        <time>2017-12-21T19:44:03Z</time>
      </trkpt>
      <trkpt lat="62.635679107398" lon="17.979027391827">
        <ele>77.8</ele>
        <time>2017-12-21T19:44:04Z</time>
      </trkpt>
      <trkpt lat="62.635717747957" lon="17.979026385999">
        <ele>77.4</ele>
        <time>2017-12-21T19:44:05Z</time>
      </trkpt>
      <trkpt lat="62.635769548099" lon="17.979028397655">
        <ele>77.2</ele>
        <time>2017-12-21T19:44:06Z</time>
      </trkpt>
      <trkpt lat="62.635810870866" lon="17.979030325492">
        <ele>77</ele>
        <time>2017-12-21T19:44:07Z</time>
      </trkpt>
      <trkpt lat="62.635851774538" lon="17.979038623573">
        <ele>77</ele>
        <time>2017-12-21T19:44:08Z</time>
      </trkpt>
      <trkpt lat="62.63588848726" lon="17.979054297726">
        <ele>76.8</ele>
        <time>2017-12-21T19:44:09Z</time>
      </trkpt>
      <trkpt lat="62.635914638788" lon="17.979065445653">
        <ele>76.8</ele>
        <time>2017-12-21T19:44:10Z</time>
      </trkpt>
      <trkpt lat="62.635942215239" lon="17.979071983535">
        <ele>76.6</ele>
        <time>2017-12-21T19:44:11Z</time>
      </trkpt>
      <trkpt lat="62.635966606568" lon="17.979073492277">
        <ele>76.8</ele>
        <time>2017-12-21T19:44:12Z</time>
      </trkpt>
      <trkpt lat="62.635985884938" lon="17.979077515589">
        <ele>77</ele>
        <time>2017-12-21T19:44:13Z</time>
      </trkpt>
      <trkpt lat="62.636006169136" lon="17.979086987136">
        <ele>77.2</ele>
        <time>2017-12-21T19:44:14Z</time>
      </trkpt>
      <trkpt lat="62.636015556864" lon="17.97910676842">
        <ele>77.4</ele>
        <time>2017-12-21T19:44:15Z</time>
      </trkpt>
      <trkpt lat="62.636017819977" lon="17.979135602156">
        <ele>77.6</ele>
        <time>2017-12-21T19:44:16Z</time>
      </trkpt>
      <trkpt lat="62.636018155253" lon="17.97916292715">
        <ele>77.6</ele>
        <time>2017-12-21T19:44:17Z</time>
      </trkpt>
      <trkpt lat="62.636013880484" lon="17.979195113646">
        <ele>77.8</ele>
        <time>2017-12-21T19:44:18Z</time>
      </trkpt>
      <trkpt lat="62.636005163308" lon="17.979240962639">
        <ele>77.8</ele>
        <time>2017-12-21T19:44:20Z</time>
      </trkpt>
      <trkpt lat="62.636002564919" lon="17.979266275977">
        <ele>77.8</ele>
        <time>2017-12-21T19:44:21Z</time>
      </trkpt>
      <trkpt lat="62.635996529951" lon="17.979302821061">
        <ele>77.8</ele>
        <time>2017-12-21T19:44:22Z</time>
      </trkpt>
      <trkpt lat="62.635988818603" lon="17.979343724733">
        <ele>77.8</ele>
        <time>2017-12-21T19:44:23Z</time>
      </trkpt>
      <trkpt lat="62.635990830259" lon="17.979424861525">
        <ele>77.4</ele>
        <time>2017-12-21T19:44:24Z</time>
      </trkpt>
      <trkpt lat="62.635992590458" lon="17.979497951693">
        <ele>77.2</ele>
        <time>2017-12-21T19:44:25Z</time>
      </trkpt>
      <trkpt lat="62.635992590458" lon="17.97960130052">
        <ele>77.2</ele>
        <time>2017-12-21T19:44:26Z</time>
      </trkpt>
      <trkpt lat="62.63599158463" lon="17.97973457273">
        <ele>77</ele>
        <time>2017-12-21T19:44:27Z</time>
      </trkpt>
      <trkpt lat="62.635993763924" lon="17.979893074459">
        <ele>76.8</ele>
        <time>2017-12-21T19:44:28Z</time>
      </trkpt>
      <trkpt lat="62.636005666222" lon="17.98005224674">
        <ele>76.2</ele>
        <time>2017-12-21T19:44:29Z</time>
      </trkpt>
      <trkpt lat="62.636021675651" lon="17.980181328">
        <ele>75.4</ele>
        <time>2017-12-21T19:44:30Z</time>
      </trkpt>
      <trkpt lat="62.636045061152" lon="17.98036656799">
        <ele>74.8</ele>
        <time>2017-12-21T19:44:31Z</time>
      </trkpt>
      <trkpt lat="62.636073308155" lon="17.980517777466">
        <ele>73.4</ele>
        <time>2017-12-21T19:44:32Z</time>
      </trkpt>
      <trkpt lat="62.636100884606" lon="17.980649708572">
        <ele>72</ele>
        <time>2017-12-21T19:44:33Z</time>
      </trkpt>
      <trkpt lat="62.636134160749" lon="17.980774012149">
        <ele>71</ele>
        <time>2017-12-21T19:44:34Z</time>
      </trkpt>
      <trkpt lat="62.636160396096" lon="17.980883228306">
        <ele>70.6</ele>
        <time>2017-12-21T19:44:35Z</time>
      </trkpt>
      <trkpt lat="62.636186128529" lon="17.981076934015">
        <ele>70.2</ele>
        <time>2017-12-21T19:44:36Z</time>
      </trkpt>
      <trkpt lat="62.636202389415" lon="17.981237363581">
        <ele>69.8</ele>
        <time>2017-12-21T19:44:37Z</time>
      </trkpt>
      <trkpt lat="62.636212531514" lon="17.981388740695">
        <ele>69.6</ele>
        <time>2017-12-21T19:44:38Z</time>
      </trkpt>
      <trkpt lat="62.636224769088" lon="17.981531735909">
        <ele>69.4</ele>
        <time>2017-12-21T19:44:39Z</time>
      </trkpt>
      <trkpt lat="62.636241449069" lon="17.981731057491">
        <ele>69.4</ele>
        <time>2017-12-21T19:44:41Z</time>
      </trkpt>
      <trkpt lat="62.636247400218" lon="17.981805404944">
        <ele>69.2</ele>
        <time>2017-12-21T19:44:42Z</time>
      </trkpt>
      <trkpt lat="62.636254943928" lon="17.981975976609">
        <ele>69</ele>
        <time>2017-12-21T19:44:43Z</time>
      </trkpt>
      <trkpt lat="62.636257123222" lon="17.98210748862">
        <ele>68.8</ele>
        <time>2017-12-21T19:44:44Z</time>
      </trkpt>
      <trkpt lat="62.636262487638" lon="17.982263643417">
        <ele>68.8</ele>
        <time>2017-12-21T19:44:45Z</time>
      </trkpt>
      <trkpt lat="62.636255446842" lon="17.982369590633">
        <ele>68.6</ele>
        <time>2017-12-21T19:44:46Z</time>
      </trkpt>
      <trkpt lat="62.636250836797" lon="17.982508478716">
        <ele>68.6</ele>
        <time>2017-12-21T19:44:47Z</time>
      </trkpt>
      <trkpt lat="62.636245975295" lon="17.982601601625">
        <ele>68.6</ele>
        <time>2017-12-21T19:44:48Z</time>
      </trkpt>
      <trkpt lat="62.636246897304" lon="17.98267159049">
        <ele>68.6</ele>
        <time>2017-12-21T19:44:49Z</time>
      </trkpt>
      <trkpt lat="62.636246562028" lon="17.982753397834">
        <ele>69</ele>
        <time>2017-12-21T19:44:50Z</time>
      </trkpt>
      <trkpt lat="62.63625309991" lon="17.982876276488">
        <ele>69.2</ele>
        <time>2017-12-21T19:44:51Z</time>
      </trkpt>
      <trkpt lat="62.636265337484" lon="17.982969483216">
        <ele>69.4</ele>
        <time>2017-12-21T19:44:52Z</time>
      </trkpt>
      <trkpt lat="62.636268522606" lon="17.983076352441">
        <ele>70</ele>
        <time>2017-12-21T19:44:53Z</time>
      </trkpt>
      <trkpt lat="62.636278161791" lon="17.983183976037">
        <ele>70.2</ele>
        <time>2017-12-21T19:44:54Z</time>
      </trkpt>
      <trkpt lat="62.636288555347" lon="17.98326083806">
        <ele>70.8</ele>
        <time>2017-12-21T19:44:55Z</time>
      </trkpt>
      <trkpt lat="62.636284448216" lon="17.983350272933">
        <ele>71</ele>
        <time>2017-12-21T19:44:56Z</time>
      </trkpt>
      <trkpt lat="62.636276317773" lon="17.983435768313">
        <ele>70.8</ele>
        <time>2017-12-21T19:44:57Z</time>
      </trkpt>
      <trkpt lat="62.636276653049" lon="17.983494273975">
        <ele>71</ele>
        <time>2017-12-21T19:44:58Z</time>
      </trkpt>
      <trkpt lat="62.636271204814" lon="17.983554120741">
        <ele>71</ele>
        <time>2017-12-21T19:44:59Z</time>
      </trkpt>
      <trkpt lat="62.636258212869" lon="17.983621343579">
        <ele>71.2</ele>
        <time>2017-12-21T19:45:00Z</time>
      </trkpt>
      <trkpt lat="62.636262068543" lon="17.98368244763">
        <ele>71.4</ele>
        <time>2017-12-21T19:45:01Z</time>
      </trkpt>
      <trkpt lat="62.636247567856" lon="17.98375369378">
        <ele>71.6</ele>
        <time>2017-12-21T19:45:02Z</time>
      </trkpt>
      <trkpt lat="62.636235917015" lon="17.98379895604">
        <ele>71.8</ele>
        <time>2017-12-21T19:45:03Z</time>
      </trkpt>
      <trkpt lat="62.636237341938" lon="17.983863329032">
        <ele>72</ele>
        <time>2017-12-21T19:45:04Z</time>
      </trkpt>
      <trkpt lat="62.636225355821" lon="17.983927282929">
        <ele>72.2</ele>
        <time>2017-12-21T19:45:05Z</time>
      </trkpt>
      <trkpt lat="62.636214291713" lon="17.983964247108">
        <ele>72</ele>
        <time>2017-12-21T19:45:06Z</time>
      </trkpt>
      <trkpt lat="62.636204233433" lon="17.98400850354">
        <ele>72.2</ele>
        <time>2017-12-21T19:45:07Z</time>
      </trkpt>
      <trkpt lat="62.636198952836" lon="17.984053598162">
        <ele>72.2</ele>
        <time>2017-12-21T19:45:08Z</time>
      </trkpt>
      <trkpt lat="62.636197863189" lon="17.984111349453">
        <ele>72.2</ele>
        <time>2017-12-21T19:45:09Z</time>
      </trkpt>
      <trkpt lat="62.636212950609" lon="17.984187624743">
        <ele>72.2</ele>
        <time>2017-12-21T19:45:10Z</time>
      </trkpt>
      <trkpt lat="62.636212782971" lon="17.984251075726">
        <ele>72.2</ele>
        <time>2017-12-21T19:45:11Z</time>
      </trkpt>
      <trkpt lat="62.636212531514" lon="17.984311593044">
        <ele>72.4</ele>
        <time>2017-12-21T19:45:12Z</time>
      </trkpt>
      <trkpt lat="62.636207334736" lon="17.984391891646">
        <ele>72.4</ele>
        <time>2017-12-21T19:45:13Z</time>
      </trkpt>
      <trkpt lat="62.636205574537" lon="17.984439584657">
        <ele>72.6</ele>
        <time>2017-12-21T19:45:14Z</time>
      </trkpt>
      <trkpt lat="62.636201467406" lon="17.9845063884">
        <ele>72.6</ele>
        <time>2017-12-21T19:45:15Z</time>
      </trkpt>
      <trkpt lat="62.636185960891" lon="17.984569085012">
        <ele>72.8</ele>
        <time>2017-12-21T19:45:16Z</time>
      </trkpt>
      <trkpt lat="62.636194594248" lon="17.984617616213">
        <ele>72.8</ele>
        <time>2017-12-21T19:45:17Z</time>
      </trkpt>
      <trkpt lat="62.63618772109" lon="17.984681486291">
        <ele>73</ele>
        <time>2017-12-21T19:45:18Z</time>
      </trkpt>
      <trkpt lat="62.636187888728" lon="17.984732532062">
        <ele>73</ele>
        <time>2017-12-21T19:45:19Z</time>
      </trkpt>
      <trkpt lat="62.636186463805" lon="17.984797324149">
        <ele>73</ele>
        <time>2017-12-21T19:45:20Z</time>
      </trkpt>
      <trkpt lat="62.636175232059" lon="17.98484920811">
        <ele>73.2</ele>
        <time>2017-12-21T19:45:21Z</time>
      </trkpt>
      <trkpt lat="62.636171544023" lon="17.984900589157">
        <ele>73.4</ele>
        <time>2017-12-21T19:45:22Z</time>
      </trkpt>
      <trkpt lat="62.636165509055" lon="17.984957418439">
        <ele>73.4</ele>
        <time>2017-12-21T19:45:23Z</time>
      </trkpt>
      <trkpt lat="62.636151343644" lon="17.985013241893">
        <ele>73.4</ele>
        <time>2017-12-21T19:45:24Z</time>
      </trkpt>
      <trkpt lat="62.636157127155" lon="17.985046937131">
        <ele>73.6</ele>
        <time>2017-12-21T19:45:25Z</time>
      </trkpt>
      <trkpt lat="62.636149499626" lon="17.985119524385">
        <ele>73.6</ele>
        <time>2017-12-21T19:45:26Z</time>
      </trkpt>
      <trkpt lat="62.636128293419" lon="17.985190267621">
        <ele>73.6</ele>
        <time>2017-12-21T19:45:27Z</time>
      </trkpt>
      <trkpt lat="62.636122509908" lon="17.985237457718">
        <ele>73.6</ele>
        <time>2017-12-21T19:45:28Z</time>
      </trkpt>
      <trkpt lat="62.636117061673" lon="17.98530518347">
        <ele>73.8</ele>
        <time>2017-12-21T19:45:29Z</time>
      </trkpt>
      <trkpt lat="62.636120498252" lon="17.985349439902">
        <ele>74</ele>
        <time>2017-12-21T19:45:30Z</time>
      </trkpt>
      <trkpt lat="62.636122845184" lon="17.985411130686">
        <ele>74</ele>
        <time>2017-12-21T19:45:31Z</time>
      </trkpt>
      <trkpt lat="62.6361114458" lon="17.985462344095">
        <ele>74.2</ele>
        <time>2017-12-21T19:45:32Z</time>
      </trkpt>
      <trkpt lat="62.636109182687" lon="17.985509366554">
        <ele>74.2</ele>
        <time>2017-12-21T19:45:33Z</time>
      </trkpt>
      <trkpt lat="62.636084372263" lon="17.985588826966">
        <ele>74.2</ele>
        <time>2017-12-21T19:45:34Z</time>
      </trkpt>
      <trkpt lat="62.636055538527" lon="17.985643476954">
        <ele>74.2</ele>
        <time>2017-12-21T19:45:35Z</time>
      </trkpt>
      <trkpt lat="62.636046821351" lon="17.985681614599">
        <ele>74.2</ele>
        <time>2017-12-21T19:45:36Z</time>
      </trkpt>
      <trkpt lat="62.636030476646" lon="17.985728637058">
        <ele>74.2</ele>
        <time>2017-12-21T19:45:37Z</time>
      </trkpt>
      <trkpt lat="62.636017400882" lon="17.985762332296">
        <ele>74.2</ele>
        <time>2017-12-21T19:45:38Z</time>
      </trkpt>
      <trkpt lat="62.636013545208" lon="17.985818071931">
        <ele>74.2</ele>
        <time>2017-12-21T19:45:39Z</time>
      </trkpt>
      <trkpt lat="62.63600080472" lon="17.985843049993">
        <ele>74.4</ele>
        <time>2017-12-21T19:45:40Z</time>
      </trkpt>
      <trkpt lat="62.635983538006" lon="17.985868111874">
        <ele>74.6</ele>
        <time>2017-12-21T19:45:41Z</time>
      </trkpt>
      <trkpt lat="62.635961912704" lon="17.985905076053">
        <ele>74.8</ele>
        <time>2017-12-21T19:45:42Z</time>
      </trkpt>
      <trkpt lat="62.635940287402" lon="17.985928210097">
        <ele>75.2</ele>
        <time>2017-12-21T19:45:43Z</time>
      </trkpt>
      <trkpt lat="62.635920841394" lon="17.985948745752">
        <ele>75.2</ele>
        <time>2017-12-21T19:45:44Z</time>
      </trkpt>
      <trkpt lat="62.635906005431" lon="17.985972298891">
        <ele>75.4</ele>
        <time>2017-12-21T19:45:45Z</time>
      </trkpt>
      <trkpt lat="62.635880021541" lon="17.986002389912">
        <ele>75.6</ele>
        <time>2017-12-21T19:45:46Z</time>
      </trkpt>
      <trkpt lat="62.635858899153" lon="17.986053770959">
        <ele>75.8</ele>
        <time>2017-12-21T19:45:47Z</time>
      </trkpt>
      <trkpt lat="62.635827718485" lon="17.98608972931">
        <ele>75.8</ele>
        <time>2017-12-21T19:45:48Z</time>
      </trkpt>
      <trkpt lat="62.635793268876" lon="17.986123508367">
        <ele>75.8</ele>
        <time>2017-12-21T19:45:49Z</time>
      </trkpt>
      <trkpt lat="62.635769631918" lon="17.986162400383">
        <ele>76</ele>
        <time>2017-12-21T19:45:50Z</time>
      </trkpt>
      <trkpt lat="62.635753371032" lon="17.986198358734">
        <ele>76.2</ele>
        <time>2017-12-21T19:45:51Z</time>
      </trkpt>
      <trkpt lat="62.635731913368" lon="17.986233562714">
        <ele>76.2</ele>
        <time>2017-12-21T19:45:52Z</time>
      </trkpt>
      <trkpt lat="62.635717328862" lon="17.986270023979">
        <ele>76.2</ele>
        <time>2017-12-21T19:45:53Z</time>
      </trkpt>
      <trkpt lat="62.635705510383" lon="17.986310089461">
        <ele>76.4</ele>
        <time>2017-12-21T19:45:54Z</time>
      </trkpt>
      <trkpt lat="62.63568564528" lon="17.98636130287">
        <ele>76.6</ele>
        <time>2017-12-21T19:45:55Z</time>
      </trkpt>
      <trkpt lat="62.635665025806" lon="17.986415198487">
        <ele>76.8</ele>
        <time>2017-12-21T19:45:56Z</time>
      </trkpt>
      <trkpt lat="62.635650273662" lon="17.986458868186">
        <ele>77</ele>
        <time>2017-12-21T19:45:57Z</time>
      </trkpt>
      <trkpt lat="62.635625463238" lon="17.986514775459">
        <ele>77</ele>
        <time>2017-12-21T19:45:58Z</time>
      </trkpt>
      <trkpt lat="62.635618087166" lon="17.986553080742">
        <ele>77.2</ele>
        <time>2017-12-21T19:45:59Z</time>
      </trkpt>
      <trkpt lat="62.635604089393" lon="17.986608736558">
        <ele>77.2</ele>
        <time>2017-12-21T19:46:00Z</time>
      </trkpt>
      <trkpt lat="62.635586906498" lon="17.986646119832">
        <ele>77.4</ele>
        <time>2017-12-21T19:46:01Z</time>
      </trkpt>
      <trkpt lat="62.635572741087" lon="17.986694148119">
        <ele>77.4</ele>
        <time>2017-12-21T19:46:02Z</time>
      </trkpt>
      <trkpt lat="62.635552875984" lon="17.986718790905">
        <ele>77.4</ele>
        <time>2017-12-21T19:46:03Z</time>
      </trkpt>
      <trkpt lat="62.635538459116" lon="17.98675106122">
        <ele>77.6</ele>
        <time>2017-12-21T19:46:04Z</time>
      </trkpt>
      <trkpt lat="62.635527059732" lon="17.986791378159">
        <ele>77.8</ele>
        <time>2017-12-21T19:46:05Z</time>
      </trkpt>
      <trkpt lat="62.635515325072" lon="17.986817781144">
        <ele>77.8</ele>
        <time>2017-12-21T19:46:06Z</time>
      </trkpt>
      <trkpt lat="62.635495795245" lon="17.986866899078">
        <ele>78</ele>
        <time>2017-12-21T19:46:07Z</time>
      </trkpt>
      <trkpt lat="62.635478947626" lon="17.986926662025">
        <ele>78.2</ele>
        <time>2017-12-21T19:46:08Z</time>
      </trkpt>
      <trkpt lat="62.635462854378" lon="17.986975612321">
        <ele>78.4</ele>
        <time>2017-12-21T19:46:09Z</time>
      </trkpt>
      <trkpt lat="62.635448688967" lon="17.987026406635">
        <ele>78.4</ele>
        <time>2017-12-21T19:46:10Z</time>
      </trkpt>
      <trkpt lat="62.635437121945" lon="17.987065801565">
        <ele>78.6</ele>
        <time>2017-12-21T19:46:11Z</time>
      </trkpt>
      <trkpt lat="62.635422872715" lon="17.987109722721">
        <ele>78.6</ele>
        <time>2017-12-21T19:46:12Z</time>
      </trkpt>
      <trkpt lat="62.635408874942" lon="17.987151129307">
        <ele>78.6</ele>
        <time>2017-12-21T19:46:13Z</time>
      </trkpt>
      <trkpt lat="62.63539646973" lon="17.98720452201">
        <ele>78.6</ele>
        <time>2017-12-21T19:46:14Z</time>
      </trkpt>
      <trkpt lat="62.635381885224" lon="17.987257663256">
        <ele>78.8</ele>
        <time>2017-12-21T19:46:15Z</time>
      </trkpt>
      <trkpt lat="62.635366127252" lon="17.987277695997">
        <ele>79</ele>
        <time>2017-12-21T19:46:16Z</time>
      </trkpt>
      <trkpt lat="62.635361852483" lon="17.987292364322">
        <ele>79.2</ele>
        <time>2017-12-21T19:46:17Z</time>
      </trkpt>
      <trkpt lat="62.63533863462" lon="17.987338464772">
        <ele>79.2</ele>
        <time>2017-12-21T19:46:18Z</time>
      </trkpt>
      <trkpt lat="62.63531600349" lon="17.987376183322">
        <ele>79.2</ele>
        <time>2017-12-21T19:46:19Z</time>
      </trkpt>
      <trkpt lat="62.635298736776" lon="17.987411135845">
        <ele>79.4</ele>
        <time>2017-12-21T19:46:20Z</time>
      </trkpt>
      <trkpt lat="62.635278871673" lon="17.987451285146">
        <ele>79.4</ele>
        <time>2017-12-21T19:46:21Z</time>
      </trkpt>
      <trkpt lat="62.635261437321" lon="17.98750124127">
        <ele>79.4</ele>
        <time>2017-12-21T19:46:22Z</time>
      </trkpt>
      <trkpt lat="62.635238806191" lon="17.987530242644">
        <ele>79.4</ele>
        <time>2017-12-21T19:46:23Z</time>
      </trkpt>
      <trkpt lat="62.635220198373" lon="17.987573660886">
        <ele>79.6</ele>
        <time>2017-12-21T19:46:24Z</time>
      </trkpt>
      <trkpt lat="62.635197231967" lon="17.987628143236">
        <ele>79.6</ele>
        <time>2017-12-21T19:46:25Z</time>
      </trkpt>
      <trkpt lat="62.635179629977" lon="17.987655635868">
        <ele>79.8</ele>
        <time>2017-12-21T19:46:26Z</time>
      </trkpt>
      <trkpt lat="62.635158759046" lon="17.987701820137">
        <ele>80</ele>
        <time>2017-12-21T19:46:27Z</time>
      </trkpt>
      <trkpt lat="62.63514501273" lon="17.987740209239">
        <ele>80</ele>
        <time>2017-12-21T19:46:28Z</time>
      </trkpt>
      <trkpt lat="62.635124728532" lon="17.987763846197">
        <ele>80.2</ele>
        <time>2017-12-21T19:46:29Z</time>
      </trkpt>
      <trkpt lat="62.635107629456" lon="17.987790668277">
        <ele>80.4</ele>
        <time>2017-12-21T19:46:30Z</time>
      </trkpt>
      <trkpt lat="62.635088267267" lon="17.987820256384">
        <ele>80.6</ele>
        <time>2017-12-21T19:46:31Z</time>
      </trkpt>
      <trkpt lat="62.635073682761" lon="17.987850431224">
        <ele>80.6</ele>
        <time>2017-12-21T19:46:32Z</time>
      </trkpt>
      <trkpt lat="62.635053147106" lon="17.987876247476">
        <ele>80.8</ele>
        <time>2017-12-21T19:46:33Z</time>
      </trkpt>
      <trkpt lat="62.635034790745" lon="17.987913966026">
        <ele>80.8</ele>
        <time>2017-12-21T19:46:34Z</time>
      </trkpt>
      <trkpt lat="62.635018613678" lon="17.987942296848">
        <ele>80.8</ele>
        <time>2017-12-21T19:46:35Z</time>
      </trkpt>
      <trkpt lat="62.634996150186" lon="17.987962161951">
        <ele>81</ele>
        <time>2017-12-21T19:46:36Z</time>
      </trkpt>
      <trkpt lat="62.634973435237" lon="17.987996276284">
        <ele>81</ele>
        <time>2017-12-21T19:46:37Z</time>
      </trkpt>
      <trkpt lat="62.634944266225" lon="17.988025529115">
        <ele>81.2</ele>
        <time>2017-12-21T19:46:38Z</time>
      </trkpt>
      <trkpt lat="62.63491786324" lon="17.988055536317">
        <ele>81.2</ele>
        <time>2017-12-21T19:46:39Z</time>
      </trkpt>
      <trkpt lat="62.634887185486" lon="17.988097361998">
        <ele>81.2</ele>
        <time>2017-12-21T19:46:40Z</time>
      </trkpt>
      <trkpt lat="62.634865392546" lon="17.988123345888">
        <ele>81.4</ele>
        <time>2017-12-21T19:46:41Z</time>
      </trkpt>
      <trkpt lat="62.6348457789" lon="17.988148743045">
        <ele>81.4</ele>
        <time>2017-12-21T19:46:42Z</time>
      </trkpt>
      <trkpt lat="62.634824405055" lon="17.988168189053">
        <ele>81.6</ele>
        <time>2017-12-21T19:46:43Z</time>
      </trkpt>
      <trkpt lat="62.634801271011" lon="17.988162656999">
        <ele>81.8</ele>
        <time>2017-12-21T19:46:44Z</time>
      </trkpt>
      <trkpt lat="62.634781154451" lon="17.988172715279">
        <ele>82</ele>
        <time>2017-12-21T19:46:45Z</time>
      </trkpt>
      <trkpt lat="62.634756763122" lon="17.988170871261">
        <ele>82</ele>
        <time>2017-12-21T19:46:46Z</time>
      </trkpt>
      <trkpt lat="62.63472507954" lon="17.988167853777">
        <ele>82.2</ele>
        <time>2017-12-21T19:46:47Z</time>
      </trkpt>
      <trkpt lat="62.634706723179" lon="17.988170535985">
        <ele>82.4</ele>
        <time>2017-12-21T19:46:48Z</time>
      </trkpt>
      <trkpt lat="62.634676129244" lon="17.988178163514">
        <ele>82.6</ele>
        <time>2017-12-21T19:46:49Z</time>
      </trkpt>
      <trkpt lat="62.634645619128" lon="17.988198531531">
        <ele>82.8</ele>
        <time>2017-12-21T19:46:50Z</time>
      </trkpt>
      <trkpt lat="62.634619551419" lon="17.988203225395">
        <ele>82.8</ele>
        <time>2017-12-21T19:46:51Z</time>
      </trkpt>
      <trkpt lat="62.634592226425" lon="17.988212613123">
        <ele>83</ele>
        <time>2017-12-21T19:46:52Z</time>
      </trkpt>
      <trkpt lat="62.634567583639" lon="17.988215127693">
        <ele>83.2</ele>
        <time>2017-12-21T19:46:53Z</time>
      </trkpt>
      <trkpt lat="62.634542857034" lon="17.988235747167">
        <ele>83.2</ele>
        <time>2017-12-21T19:46:54Z</time>
      </trkpt>
      <trkpt lat="62.634516873144" lon="17.988234489882">
        <ele>83.2</ele>
        <time>2017-12-21T19:46:55Z</time>
      </trkpt>
      <trkpt lat="62.634499187335" lon="17.988245973085">
        <ele>83.4</ele>
        <time>2017-12-21T19:46:56Z</time>
      </trkpt>
      <trkpt lat="62.634473706359" lon="17.988262150152">
        <ele>83.4</ele>
        <time>2017-12-21T19:46:57Z</time>
      </trkpt>
      <trkpt lat="62.634447471012" lon="17.988269526224">
        <ele>83.6</ele>
        <time>2017-12-21T19:46:58Z</time>
      </trkpt>
      <trkpt lat="62.63441662562" lon="17.988275142097">
        <ele>83.8</ele>
        <time>2017-12-21T19:46:59Z</time>
      </trkpt>
      <trkpt lat="62.634398353078" lon="17.988277908124">
        <ele>83.6</ele>
        <time>2017-12-21T19:47:00Z</time>
      </trkpt>
      <trkpt lat="62.634366837134" lon="17.988274220088">
        <ele>83.8</ele>
        <time>2017-12-21T19:47:01Z</time>
      </trkpt>
      <trkpt lat="62.634333896267" lon="17.988287128214">
        <ele>83.8</ele>
        <time>2017-12-21T19:47:02Z</time>
      </trkpt>
      <trkpt lat="62.634297183545" lon="17.988262569247">
        <ele>84</ele>
        <time>2017-12-21T19:47:03Z</time>
      </trkpt>
      <trkpt lat="62.634272037845" lon="17.988255863727">
        <ele>83.8</ele>
        <time>2017-12-21T19:47:04Z</time>
      </trkpt>
      <trkpt lat="62.634237420598" lon="17.988240189574">
        <ele>84</ele>
        <time>2017-12-21T19:47:05Z</time>
      </trkpt>
      <trkpt lat="62.634206826663" lon="17.988248320017">
        <ele>84</ele>
        <time>2017-12-21T19:47:06Z</time>
      </trkpt>
      <trkpt lat="62.634160223299" lon="17.988240189574">
        <ele>84</ele>
        <time>2017-12-21T19:47:07Z</time>
      </trkpt>
      <trkpt lat="62.634135915789" lon="17.98823130476">
        <ele>84</ele>
        <time>2017-12-21T19:47:08Z</time>
      </trkpt>
      <trkpt lat="62.634109093709" lon="17.988221497937">
        <ele>84</ele>
        <time>2017-12-21T19:47:09Z</time>
      </trkpt>
      <trkpt lat="62.63407967324" lon="17.988224180145">
        <ele>84</ele>
        <time>2017-12-21T19:47:10Z</time>
      </trkpt>
      <trkpt lat="62.634056874472" lon="17.988202051929">
        <ele>84</ele>
        <time>2017-12-21T19:47:11Z</time>
      </trkpt>
      <trkpt lat="62.634031477315" lon="17.988190149631">
        <ele>84</ele>
        <time>2017-12-21T19:47:12Z</time>
      </trkpt>
      <trkpt lat="62.633994010222" lon="17.988199537359">
        <ele>84.2</ele>
        <time>2017-12-21T19:47:13Z</time>
      </trkpt>
      <trkpt lat="62.633964925029" lon="17.988187132147">
        <ele>84.2</ele>
        <time>2017-12-21T19:47:14Z</time>
      </trkpt>
      <trkpt lat="62.633935420741" lon="17.988171625632">
        <ele>84.2</ele>
        <time>2017-12-21T19:47:15Z</time>
      </trkpt>
      <trkpt lat="62.633911699964" lon="17.988161986447">
        <ele>84.2</ele>
        <time>2017-12-21T19:47:16Z</time>
      </trkpt>
      <trkpt lat="62.633885632255" lon="17.988136756928">
        <ele>84.4</ele>
        <time>2017-12-21T19:47:17Z</time>
      </trkpt>
      <trkpt lat="62.633855457415" lon="17.988131643969">
        <ele>84.4</ele>
        <time>2017-12-21T19:47:18Z</time>
      </trkpt>
      <trkpt lat="62.633826204584" lon="17.988101972043">
        <ele>84.4</ele>
        <time>2017-12-21T19:47:19Z</time>
      </trkpt>
      <trkpt lat="62.633797370848" lon="17.988081939302">
        <ele>84.6</ele>
        <time>2017-12-21T19:47:20Z</time>
      </trkpt>
      <trkpt lat="62.633777254288" lon="17.988074395592">
        <ele>84.6</ele>
        <time>2017-12-21T19:47:21Z</time>
      </trkpt>
      <trkpt lat="62.633745654525" lon="17.9880435502">
        <ele>84.8</ele>
        <time>2017-12-21T19:47:22Z</time>
      </trkpt>
      <trkpt lat="62.633708857984" lon="17.988031647902">
        <ele>85</ele>
        <time>2017-12-21T19:47:23Z</time>
      </trkpt>
      <trkpt lat="62.633679940429" lon="17.987990408954">
        <ele>85.2</ele>
        <time>2017-12-21T19:47:24Z</time>
      </trkpt>
      <trkpt lat="62.633650855236" lon="17.987975908267">
        <ele>85.4</ele>
        <time>2017-12-21T19:47:25Z</time>
      </trkpt>
      <trkpt lat="62.633619758387" lon="17.987945146694">
        <ele>85.6</ele>
        <time>2017-12-21T19:47:26Z</time>
      </trkpt>
      <trkpt lat="62.633595031782" lon="17.987911619094">
        <ele>85.8</ele>
        <time>2017-12-21T19:47:27Z</time>
      </trkpt>
      <trkpt lat="62.633569466987" lon="17.987896196398">
        <ele>86</ele>
        <time>2017-12-21T19:47:28Z</time>
      </trkpt>
      <trkpt lat="62.633546416762" lon="17.98787507401">
        <ele>86.2</ele>
        <time>2017-12-21T19:47:29Z</time>
      </trkpt>
      <trkpt lat="62.633522528347" lon="17.987844144799">
        <ele>86.2</ele>
        <time>2017-12-21T19:47:30Z</time>
      </trkpt>
      <trkpt lat="62.633501405959" lon="17.987827380999">
        <ele>86.4</ele>
        <time>2017-12-21T19:47:31Z</time>
      </trkpt>
      <trkpt lat="62.633474583879" lon="17.987783376024">
        <ele>86.6</ele>
        <time>2017-12-21T19:47:32Z</time>
      </trkpt>
      <trkpt lat="62.63344683979" lon="17.987751692442">
        <ele>86.6</ele>
        <time>2017-12-21T19:47:33Z</time>
      </trkpt>
      <trkpt lat="62.633425130669" lon="17.987720930869">
        <ele>86.8</ele>
        <time>2017-12-21T19:47:34Z</time>
      </trkpt>
      <trkpt lat="62.633394285277" lon="17.987686816536">
        <ele>87.2</ele>
        <time>2017-12-21T19:47:35Z</time>
      </trkpt>
      <trkpt lat="62.633378443486" lon="17.987657815162">
        <ele>87.2</ele>
        <time>2017-12-21T19:47:36Z</time>
      </trkpt>
      <trkpt lat="62.633353130148" lon="17.987619845155">
        <ele>87.4</ele>
        <time>2017-12-21T19:47:37Z</time>
      </trkpt>
      <trkpt lat="62.633338461823" lon="17.987583970623">
        <ele>87.4</ele>
        <time>2017-12-21T19:47:38Z</time>
      </trkpt>
      <trkpt lat="62.633320776014" lon="17.987537031983">
        <ele>87.4</ele>
        <time>2017-12-21T19:47:39Z</time>
      </trkpt>
      <trkpt lat="62.633304598947" lon="17.987491266809">
        <ele>87.4</ele>
        <time>2017-12-21T19:47:40Z</time>
      </trkpt>
      <trkpt lat="62.633290265898" lon="17.987436952097">
        <ele>87.8</ele>
        <time>2017-12-21T19:47:41Z</time>
      </trkpt>
      <trkpt lat="62.633270400795" lon="17.987390013457">
        <ele>87.8</ele>
        <time>2017-12-21T19:47:42Z</time>
      </trkpt>
      <trkpt lat="62.633242908163" lon="17.987314743995">
        <ele>88</ele>
        <time>2017-12-21T19:47:43Z</time>
      </trkpt>
      <trkpt lat="62.63321633754" lon="17.987260848378">
        <ele>88</ele>
        <time>2017-12-21T19:47:44Z</time>
      </trkpt>
      <trkpt lat="62.633197981179" lon="17.987158253922">
        <ele>88</ele>
        <time>2017-12-21T19:47:45Z</time>
      </trkpt>
      <trkpt lat="62.633179708637" lon="17.987043757168">
        <ele>87.8</ele>
        <time>2017-12-21T19:47:46Z</time>
      </trkpt>
      <trkpt lat="62.633170991461" lon="17.986911406967">
        <ele>87</ele>
        <time>2017-12-21T19:47:47Z</time>
      </trkpt>
      <trkpt lat="62.633157328964" lon="17.986794144186">
        <ele>86.2</ele>
        <time>2017-12-21T19:47:48Z</time>
      </trkpt>
      <trkpt lat="62.633150791082" lon="17.986662296899">
        <ele>85.4</ele>
        <time>2017-12-21T19:47:49Z</time>
      </trkpt>
      <trkpt lat="62.633147270684" lon="17.986550649991">
        <ele>84.6</ele>
        <time>2017-12-21T19:47:50Z</time>
      </trkpt>
      <trkpt lat="62.633146432494" lon="17.986441433834">
        <ele>84.2</ele>
        <time>2017-12-21T19:47:51Z</time>
      </trkpt>
      <trkpt lat="62.633144085562" lon="17.986303048665">
        <ele>84</ele>
        <time>2017-12-21T19:47:52Z</time>
      </trkpt>
      <trkpt lat="62.633136290395" lon="17.986179750916">
        <ele>84</ele>
        <time>2017-12-21T19:47:53Z</time>
      </trkpt>
      <trkpt lat="62.633134278739" lon="17.986063326325">
        <ele>83.6</ele>
        <time>2017-12-21T19:47:54Z</time>
      </trkpt>
      <trkpt lat="62.633136206576" lon="17.985924102966">
        <ele>83.2</ele>
        <time>2017-12-21T19:47:55Z</time>
      </trkpt>
      <trkpt lat="62.633138218232" lon="17.985826286193">
        <ele>82.8</ele>
        <time>2017-12-21T19:47:56Z</time>
      </trkpt>
      <trkpt lat="62.633143498829" lon="17.985696534381">
        <ele>82.4</ele>
        <time>2017-12-21T19:47:57Z</time>
      </trkpt>
      <trkpt lat="62.633140565164" lon="17.985585390387">
        <ele>81.8</ele>
        <time>2017-12-21T19:47:58Z</time>
      </trkpt>
      <trkpt lat="62.633145594304" lon="17.98545605767">
        <ele>81.6</ele>
        <time>2017-12-21T19:47:59Z</time>
      </trkpt>
      <trkpt lat="62.633154814394" lon="17.985305602565">
        <ele>81.4</ele>
        <time>2017-12-21T19:48:00Z</time>
      </trkpt>
      <trkpt lat="62.63317275166" lon="17.985146262646">
        <ele>81.2</ele>
        <time>2017-12-21T19:48:01Z</time>
      </trkpt>
      <trkpt lat="62.633193874048" lon="17.984999579396">
        <ele>80.8</ele>
        <time>2017-12-21T19:48:02Z</time>
      </trkpt>
      <trkpt lat="62.633223545974" lon="17.984847783187">
        <ele>80.4</ele>
        <time>2017-12-21T19:48:03Z</time>
      </trkpt>
      <trkpt lat="62.633251457701" lon="17.984707805457">
        <ele>80</ele>
        <time>2017-12-21T19:48:04Z</time>
      </trkpt>
      <trkpt lat="62.633278782695" lon="17.984582160776">
        <ele>79.4</ele>
        <time>2017-12-21T19:48:05Z</time>
      </trkpt>
      <trkpt lat="62.633299234531" lon="17.984475878284">
        <ele>78.8</ele>
        <time>2017-12-21T19:48:06Z</time>
      </trkpt>
      <trkpt lat="62.633320608376" lon="17.984351490888">
        <ele>78.4</ele>
        <time>2017-12-21T19:48:07Z</time>
      </trkpt>
      <trkpt lat="62.63333284595" lon="17.984227522587">
        <ele>78.2</ele>
        <time>2017-12-21T19:48:08Z</time>
      </trkpt>
      <trkpt lat="62.6333454188" lon="17.984113193471">
        <ele>78.2</ele>
        <time>2017-12-21T19:48:09Z</time>
      </trkpt>
      <trkpt lat="62.63336050622" lon="17.983996517423">
        <ele>78.2</ele>
        <time>2017-12-21T19:48:10Z</time>
      </trkpt>
      <trkpt lat="62.633375509821" lon="17.983904484161">
        <ele>78.2</ele>
        <time>2017-12-21T19:48:11Z</time>
      </trkpt>
      <trkpt lat="62.63339235744" lon="17.983802895533">
        <ele>78.4</ele>
        <time>2017-12-21T19:48:12Z</time>
      </trkpt>
      <trkpt lat="62.633409037421" lon="17.983687644408">
        <ele>78.6</ele>
        <time>2017-12-21T19:48:13Z</time>
      </trkpt>
      <trkpt lat="62.633421526452" lon="17.983612961679">
        <ele>79</ele>
        <time>2017-12-21T19:48:14Z</time>
      </trkpt>
      <trkpt lat="62.633442984116" lon="17.983516569829">
        <ele>79.4</ele>
        <time>2017-12-21T19:48:15Z</time>
      </trkpt>
      <trkpt lat="62.633460502287" lon="17.983433169924">
        <ele>79.8</ele>
        <time>2017-12-21T19:48:16Z</time>
      </trkpt>
      <trkpt lat="62.633478271915" lon="17.983341891033">
        <ele>80.2</ele>
        <time>2017-12-21T19:48:17Z</time>
      </trkpt>
      <trkpt lat="62.633492856421" lon="17.983259832232">
        <ele>80.4</ele>
        <time>2017-12-21T19:48:18Z</time>
      </trkpt>
      <trkpt lat="62.633506854194" lon="17.983184227494">
        <ele>80.4</ele>
        <time>2017-12-21T19:48:19Z</time>
      </trkpt>
      <trkpt lat="62.633522779804" lon="17.983105856729">
        <ele>80.4</ele>
        <time>2017-12-21T19:48:20Z</time>
      </trkpt>
      <trkpt lat="62.633536609939" lon="17.983019690797">
        <ele>80.4</ele>
        <time>2017-12-21T19:48:21Z</time>
      </trkpt>
      <trkpt lat="62.63354826078" lon="17.982934111598">
        <ele>80.4</ele>
        <time>2017-12-21T19:48:22Z</time>
      </trkpt>
      <trkpt lat="62.633567120055" lon="17.98285012496">
        <ele>80.2</ele>
        <time>2017-12-21T19:48:23Z</time>
      </trkpt>
      <trkpt lat="62.633582961846" lon="17.982790194375">
        <ele>80.4</ele>
        <time>2017-12-21T19:48:24Z</time>
      </trkpt>
      <trkpt lat="62.633600899112" lon="17.982708303212">
        <ele>80.4</ele>
        <time>2017-12-21T19:48:25Z</time>
      </trkpt>
      <trkpt lat="62.633622775871" lon="17.982623226927">
        <ele>80.4</ele>
        <time>2017-12-21T19:48:26Z</time>
      </trkpt>
      <trkpt lat="62.633633085608" lon="17.982539575565">
        <ele>80.6</ele>
        <time>2017-12-21T19:48:27Z</time>
      </trkpt>
      <trkpt lat="62.633642305698" lon="17.982464054646">
        <ele>80.4</ele>
        <time>2017-12-21T19:48:28Z</time>
      </trkpt>
      <trkpt lat="62.633650017046" lon="17.982380319465">
        <ele>80.4</ele>
        <time>2017-12-21T19:48:29Z</time>
      </trkpt>
      <trkpt lat="62.633655130005" lon="17.982309576229">
        <ele>80.4</ele>
        <time>2017-12-21T19:48:30Z</time>
      </trkpt>
      <trkpt lat="62.633667619036" lon="17.982212849103">
        <ele>80.4</ele>
        <time>2017-12-21T19:48:31Z</time>
      </trkpt>
      <trkpt lat="62.633675414203" lon="17.982121905488">
        <ele>80.4</ele>
        <time>2017-12-21T19:48:32Z</time>
      </trkpt>
      <trkpt lat="62.633672731995" lon="17.982071697907">
        <ele>80.4</ele>
        <time>2017-12-21T19:48:33Z</time>
      </trkpt>
      <trkpt lat="62.633679437515" lon="17.981996512264">
        <ele>80.6</ele>
        <time>2017-12-21T19:48:34Z</time>
      </trkpt>
      <trkpt lat="62.633680946257" lon="17.981929876159">
        <ele>80.6</ele>
        <time>2017-12-21T19:48:35Z</time>
      </trkpt>
      <trkpt lat="62.633682287361" lon="17.98187028085">
        <ele>80.8</ele>
        <time>2017-12-21T19:48:36Z</time>
      </trkpt>
      <trkpt lat="62.633662422258" lon="17.981795430483">
        <ele>80.6</ele>
        <time>2017-12-21T19:48:37Z</time>
      </trkpt>
      <trkpt lat="62.633654878548" lon="17.981736086631">
        <ele>80.8</ele>
        <time>2017-12-21T19:48:38Z</time>
      </trkpt>
      <trkpt lat="62.633664266276" lon="17.981656626219">
        <ele>81</ele>
        <time>2017-12-21T19:48:39Z</time>
      </trkpt>
      <trkpt lat="62.633660913516" lon="17.981582614042">
        <ele>81</ele>
        <time>2017-12-21T19:48:40Z</time>
      </trkpt>
      <trkpt lat="62.633668792502" lon="17.981500555241">
        <ele>81</ele>
        <time>2017-12-21T19:48:41Z</time>
      </trkpt>
      <trkpt lat="62.633676587669" lon="17.981406845599">
        <ele>81</ele>
        <time>2017-12-21T19:48:42Z</time>
      </trkpt>
      <trkpt lat="62.633687484139" lon="17.981335347992">
        <ele>81</ele>
        <time>2017-12-21T19:48:43Z</time>
      </trkpt>
      <trkpt lat="62.633709025622" lon="17.981287235886">
        <ele>81</ele>
        <time>2017-12-21T19:48:44Z</time>
      </trkpt>
      <trkpt lat="62.633722269024" lon="17.981214564813">
        <ele>80.8</ele>
        <time>2017-12-21T19:48:45Z</time>
      </trkpt>
      <trkpt lat="62.633735763883" lon="17.981171565666">
        <ele>80.8</ele>
        <time>2017-12-21T19:48:46Z</time>
      </trkpt>
      <trkpt lat="62.633758395013" lon="17.981117670049">
        <ele>80.8</ele>
        <time>2017-12-21T19:48:47Z</time>
      </trkpt>
      <trkpt lat="62.633773482433" lon="17.981059164387">
        <ele>80.8</ele>
        <time>2017-12-21T19:48:48Z</time>
      </trkpt>
      <trkpt lat="62.633796616477" lon="17.980990851902">
        <ele>80.8</ele>
        <time>2017-12-21T19:48:49Z</time>
      </trkpt>
      <trkpt lat="62.633806255662" lon="17.980934274077">
        <ele>81</ele>
        <time>2017-12-21T19:48:50Z</time>
      </trkpt>
      <trkpt lat="62.633832323371" lon="17.980886832523">
        <ele>81</ele>
        <time>2017-12-21T19:48:51Z</time>
      </trkpt>
      <trkpt lat="62.633853948673" lon="17.980835367657">
        <ele>81.2</ele>
        <time>2017-12-21T19:48:52Z</time>
      </trkpt>
      <trkpt lat="62.633872975586" lon="17.980790356854">
        <ele>81.2</ele>
        <time>2017-12-21T19:48:53Z</time>
      </trkpt>
      <trkpt lat="62.633892505413" lon="17.980744172585">
        <ele>81.4</ele>
        <time>2017-12-21T19:48:54Z</time>
      </trkpt>
      <trkpt lat="62.633913543982" lon="17.980683739086">
        <ele>81.8</ele>
        <time>2017-12-21T19:48:55Z</time>
      </trkpt>
      <trkpt lat="62.633934582551" lon="17.980629843469">
        <ele>81.8</ele>
        <time>2017-12-21T19:48:56Z</time>
      </trkpt>
      <trkpt lat="62.6339572975" lon="17.980575612576">
        <ele>81.8</ele>
        <time>2017-12-21T19:48:57Z</time>
      </trkpt>
      <trkpt lat="62.633964170658" lon="17.980524399167">
        <ele>82</ele>
        <time>2017-12-21T19:48:58Z</time>
      </trkpt>
      <trkpt lat="62.63398328139" lon="17.980468156618">
        <ele>82</ele>
        <time>2017-12-21T19:48:59Z</time>
      </trkpt>
      <trkpt lat="62.634004403778" lon="17.980406884929">
        <ele>82.2</ele>
        <time>2017-12-21T19:49:00Z</time>
      </trkpt>
      <trkpt lat="62.63402854365" lon="17.980355755339">
        <ele>82</ele>
        <time>2017-12-21T19:49:01Z</time>
      </trkpt>
      <trkpt lat="62.634056287739" lon="17.980301692084">
        <ele>82</ele>
        <time>2017-12-21T19:49:02Z</time>
      </trkpt>
      <trkpt lat="62.634085289113" lon="17.980257184195">
        <ele>82</ele>
        <time>2017-12-21T19:49:03Z</time>
      </trkpt>
      <trkpt lat="62.634119990179" lon="17.98019725361">
        <ele>82.2</ele>
        <time>2017-12-21T19:49:04Z</time>
      </trkpt>
      <trkpt lat="62.634148656277" lon="17.980131790971">
        <ele>82.4</ele>
        <time>2017-12-21T19:49:05Z</time>
      </trkpt>
      <trkpt lat="62.634169443389" lon="17.980084517055">
        <ele>82.4</ele>
        <time>2017-12-21T19:49:06Z</time>
      </trkpt>
      <trkpt lat="62.634201378428" lon="17.979999692227">
        <ele>82.4</ele>
        <time>2017-12-21T19:49:07Z</time>
      </trkpt>
      <trkpt lat="62.634228954879" lon="17.979942611488">
        <ele>82.4</ele>
        <time>2017-12-21T19:49:08Z</time>
      </trkpt>
      <trkpt lat="62.634251837466" lon="17.979872287347">
        <ele>82.2</ele>
        <time>2017-12-21T19:49:09Z</time>
      </trkpt>
      <trkpt lat="62.634275893519" lon="17.979794000401">
        <ele>82</ele>
        <time>2017-12-21T19:49:10Z</time>
      </trkpt>
      <trkpt lat="62.634289053102" lon="17.979727112839">
        <ele>82</ele>
        <time>2017-12-21T19:49:11Z</time>
      </trkpt>
      <trkpt lat="62.634306655092" lon="17.979651927196">
        <ele>81.8</ele>
        <time>2017-12-21T19:49:12Z</time>
      </trkpt>
      <trkpt lat="62.634328867127" lon="17.979579675218">
        <ele>81.6</ele>
        <time>2017-12-21T19:49:13Z</time>
      </trkpt>
      <trkpt lat="62.634346050022" lon="17.97951748152">
        <ele>81.8</ele>
        <time>2017-12-21T19:49:14Z</time>
      </trkpt>
      <trkpt lat="62.634378739432" lon="17.979447157379">
        <ele>81.6</ele>
        <time>2017-12-21T19:49:15Z</time>
      </trkpt>
      <trkpt lat="62.634384858219" lon="17.979375324496">
        <ele>81.6</ele>
        <time>2017-12-21T19:49:16Z</time>
      </trkpt>
      <trkpt lat="62.634403466037" lon="17.979304413622">
        <ele>81.6</ele>
        <time>2017-12-21T19:49:17Z</time>
      </trkpt>
      <trkpt lat="62.634416960896" lon="17.979246075598">
        <ele>81.8</ele>
        <time>2017-12-21T19:49:18Z</time>
      </trkpt>
      <trkpt lat="62.634423247321" lon="17.979180193864">
        <ele>81.8</ele>
        <time>2017-12-21T19:49:19Z</time>
      </trkpt>
      <trkpt lat="62.634450488496" lon="17.979094782303">
        <ele>81.8</ele>
        <time>2017-12-21T19:49:20Z</time>
      </trkpt>
      <trkpt lat="62.634462390794" lon="17.979028732931">
        <ele>81.8</ele>
        <time>2017-12-21T19:49:21Z</time>
      </trkpt>
      <trkpt lat="62.634481920621" lon="17.978956229496">
        <ele>81.8</ele>
        <time>2017-12-21T19:49:22Z</time>
      </trkpt>
      <trkpt lat="62.634511592547" lon="17.978841565104">
        <ele>82</ele>
        <time>2017-12-21T19:49:24Z</time>
      </trkpt>
      <trkpt lat="62.634535061867" lon="17.978799487966">
        <ele>81.8</ele>
        <time>2017-12-21T19:49:25Z</time>
      </trkpt>
      <trkpt lat="62.634563225051" lon="17.978773420257">
        <ele>81.8</ele>
        <time>2017-12-21T19:49:26Z</time>
      </trkpt>
      <trkpt lat="62.634587448742" lon="17.978755147715">
        <ele>81.8</ele>
        <time>2017-12-21T19:49:27Z</time>
      </trkpt>
      <trkpt lat="62.634612007709" lon="17.978743329236">
        <ele>81.8</ele>
        <time>2017-12-21T19:49:28Z</time>
      </trkpt>
      <trkpt lat="62.634634052106" lon="17.978740060295">
        <ele>81.8</ele>
        <time>2017-12-21T19:49:29Z</time>
      </trkpt>
      <trkpt lat="62.63465886253" lon="17.978750705308">
        <ele>81.8</ele>
        <time>2017-12-21T19:49:30Z</time>
      </trkpt>
      <trkpt lat="62.634687947723" lon="17.978766295642">
        <ele>81.8</ele>
        <time>2017-12-21T19:49:31Z</time>
      </trkpt>
      <trkpt lat="62.634719128391" lon="17.97878574165">
        <ele>81.6</ele>
        <time>2017-12-21T19:49:32Z</time>
      </trkpt>
      <trkpt lat="62.634751733982" lon="17.978806361124">
        <ele>81.4</ele>
        <time>2017-12-21T19:49:33Z</time>
      </trkpt>
      <trkpt lat="62.634780064804" lon="17.978825807132">
        <ele>81.2</ele>
        <time>2017-12-21T19:49:34Z</time>
      </trkpt>
      <trkpt lat="62.634822141942" lon="17.978845169321">
        <ele>81.2</ele>
        <time>2017-12-21T19:49:35Z</time>
      </trkpt>
      <trkpt lat="62.634850472764" lon="17.978855562877">
        <ele>81.2</ele>
        <time>2017-12-21T19:49:36Z</time>
      </trkpt>
      <trkpt lat="62.634886431115" lon="17.978874254514">
        <ele>81</ele>
        <time>2017-12-21T19:49:37Z</time>
      </trkpt>
      <trkpt lat="62.63492875971" lon="17.978900322223">
        <ele>80.8</ele>
        <time>2017-12-21T19:49:38Z</time>
      </trkpt>
      <trkpt lat="62.63495306722" lon="17.978905938096">
        <ele>80.6</ele>
        <time>2017-12-21T19:49:39Z</time>
      </trkpt>
      <trkpt lat="62.634986091906" lon="17.978924294457">
        <ele>80.6</ele>
        <time>2017-12-21T19:49:40Z</time>
      </trkpt>
      <trkpt lat="62.63501257871" lon="17.978938627506">
        <ele>80.6</ele>
        <time>2017-12-21T19:49:41Z</time>
      </trkpt>
      <trkpt lat="62.635038227324" lon="17.978950697442">
        <ele>80.4</ele>
        <time>2017-12-21T19:49:42Z</time>
      </trkpt>
      <trkpt lat="62.635069240354" lon="17.978960336627">
        <ele>80.4</ele>
        <time>2017-12-21T19:49:43Z</time>
      </trkpt>
      <trkpt lat="62.635104360515" lon="17.978973831486">
        <ele>80.4</ele>
        <time>2017-12-21T19:49:44Z</time>
      </trkpt>
      <trkpt lat="62.635135708821" lon="17.978984225042">
        <ele>80.4</ele>
        <time>2017-12-21T19:49:45Z</time>
      </trkpt>
      <trkpt lat="62.635177450683" lon="17.978992104028">
        <ele>80.4</ele>
        <time>2017-12-21T19:49:46Z</time>
      </trkpt>
      <trkpt lat="62.635209972455" lon="17.979001324118">
        <ele>80.4</ele>
        <time>2017-12-21T19:49:47Z</time>
      </trkpt>
      <trkpt lat="62.635247439548" lon="17.97900953838">
        <ele>80.2</ele>
        <time>2017-12-21T19:49:48Z</time>
      </trkpt>
      <trkpt lat="62.635285744831" lon="17.979014148425">
        <ele>80.2</ele>
        <time>2017-12-21T19:49:49Z</time>
      </trkpt>
      <trkpt lat="62.635323128105" lon="17.979016662995">
        <ele>80</ele>
        <time>2017-12-21T19:49:50Z</time>
      </trkpt>
      <trkpt lat="62.635357745352" lon="17.979016495357">
        <ele>79.8</ele>
        <time>2017-12-21T19:49:51Z</time>
      </trkpt>
      <trkpt lat="62.635401247413" lon="17.979036947193">
        <ele>79.6</ele>
        <time>2017-12-21T19:49:52Z</time>
      </trkpt>
      <trkpt lat="62.635451287356" lon="17.979028732931">
        <ele>79.6</ele>
        <time>2017-12-21T19:49:53Z</time>
      </trkpt>
      <trkpt lat="62.635535357813" lon="17.979020351031">
        <ele>79.4</ele>
        <time>2017-12-21T19:49:55Z</time>
      </trkpt>
      <trkpt lat="62.635582296453" lon="17.979012304407">
        <ele>79.4</ele>
        <time>2017-12-21T19:49:56Z</time>
      </trkpt>
      <trkpt lat="62.635627893989" lon="17.979007442905">
        <ele>79.2</ele>
        <time>2017-12-21T19:49:57Z</time>
      </trkpt>
      <trkpt lat="62.635670641679" lon="17.979003000498">
        <ele>79</ele>
        <time>2017-12-21T19:49:58Z</time>
      </trkpt>
      <trkpt lat="62.635715317206" lon="17.979001575575">
        <ele>78.6</ele>
        <time>2017-12-21T19:49:59Z</time>
      </trkpt>
      <trkpt lat="62.635759825095" lon="17.978999312462">
        <ele>78.4</ele>
        <time>2017-12-21T19:50:00Z</time>
      </trkpt>
      <trkpt lat="62.635804500622" lon="17.979001827032">
        <ele>78</ele>
        <time>2017-12-21T19:50:01Z</time>
      </trkpt>
      <trkpt lat="62.635843895552" lon="17.979006017982">
        <ele>77.8</ele>
        <time>2017-12-21T19:50:02Z</time>
      </trkpt>
      <trkpt lat="62.635880356817" lon="17.97901792028">
        <ele>77.6</ele>
        <time>2017-12-21T19:50:03Z</time>
      </trkpt>
      <trkpt lat="62.635912710951" lon="17.979033426795">
        <ele>77.6</ele>
        <time>2017-12-21T19:50:04Z</time>
      </trkpt>
      <trkpt lat="62.63594296961" lon="17.979049939138">
        <ele>77.6</ele>
        <time>2017-12-21T19:50:05Z</time>
      </trkpt>
      <trkpt lat="62.635963253808" lon="17.97905563883">
        <ele>77.6</ele>
        <time>2017-12-21T19:50:06Z</time>
      </trkpt>
      <trkpt lat="62.635983286549" lon="17.979063433997">
        <ele>77.6</ele>
        <time>2017-12-21T19:50:07Z</time>
      </trkpt>
      <trkpt lat="62.636003403109" lon="17.979070139517">
        <ele>77.6</ele>
        <time>2017-12-21T19:50:08Z</time>
      </trkpt>
      <trkpt lat="62.636022681479" lon="17.979076090666">
        <ele>77.8</ele>
        <time>2017-12-21T19:50:09Z</time>
      </trkpt>
      <trkpt lat="62.636035421967" lon="17.979089669344">
        <ele>77.8</ele>
        <time>2017-12-21T19:50:10Z</time>
      </trkpt>
      <trkpt lat="62.636041708392" lon="17.979120766193">
        <ele>77.8</ele>
        <time>2017-12-21T19:50:11Z</time>
      </trkpt>
      <trkpt lat="62.636042378944" lon="17.9791587362">
        <ele>78</ele>
        <time>2017-12-21T19:50:12Z</time>
      </trkpt>
      <trkpt lat="62.636033242673" lon="17.97920483665">
        <ele>78</ele>
        <time>2017-12-21T19:50:13Z</time>
      </trkpt>
      <trkpt lat="62.636016059778" lon="17.979282117768">
        <ele>78.2</ele>
        <time>2017-12-21T19:50:15Z</time>
      </trkpt>
      <trkpt lat="62.63601253938" lon="17.979321680336">
        <ele>78</ele>
        <time>2017-12-21T19:50:16Z</time>
      </trkpt>
      <trkpt lat="62.636010695362" lon="17.979359482705">
        <ele>78</ele>
        <time>2017-12-21T19:50:17Z</time>
      </trkpt>
      <trkpt lat="62.636012036466" lon="17.979416982539">
        <ele>78</ele>
        <time>2017-12-21T19:50:18Z</time>
      </trkpt>
      <trkpt lat="62.636013209932" lon="17.979489485974">
        <ele>77.8</ele>
        <time>2017-12-21T19:50:19Z</time>
      </trkpt>
      <trkpt lat="62.636012707018" lon="17.979581770693">
        <ele>77.8</ele>
        <time>2017-12-21T19:50:20Z</time>
      </trkpt>
      <trkpt lat="62.636010276267" lon="17.979725855554">
        <ele>77.6</ele>
        <time>2017-12-21T19:50:21Z</time>
      </trkpt>
      <trkpt lat="62.636008683706" lon="17.979884357283">
        <ele>77.2</ele>
        <time>2017-12-21T19:50:22Z</time>
      </trkpt>
      <trkpt lat="62.636017065606" lon="17.980035566759">
        <ele>76</ele>
        <time>2017-12-21T19:50:23Z</time>
      </trkpt>
      <trkpt lat="62.636034919053" lon="17.980198175619">
        <ele>75.2</ele>
        <time>2017-12-21T19:50:24Z</time>
      </trkpt>
      <trkpt lat="62.636054365061" lon="17.980355503882">
        <ele>75</ele>
        <time>2017-12-21T19:50:25Z</time>
      </trkpt>
      <trkpt lat="62.636083198797" lon="17.980528841574">
        <ele>73.8</ele>
        <time>2017-12-21T19:50:26Z</time>
      </trkpt>
      <trkpt lat="62.636110691429" lon="17.980668232571">
        <ele>72.6</ele>
        <time>2017-12-21T19:50:27Z</time>
      </trkpt>
      <trkpt lat="62.636136759138" lon="17.980809467586">
        <ele>72</ele>
        <time>2017-12-21T19:50:28Z</time>
      </trkpt>
      <trkpt lat="62.636158049164" lon="17.980949780592">
        <ele>71.6</ele>
        <time>2017-12-21T19:50:29Z</time>
      </trkpt>
      <trkpt lat="62.636178668638" lon="17.981095206557">
        <ele>71.4</ele>
        <time>2017-12-21T19:50:30Z</time>
      </trkpt>
      <trkpt lat="62.636193672239" lon="17.981241470712">
        <ele>71.2</ele>
        <time>2017-12-21T19:50:31Z</time>
      </trkpt>
      <trkpt lat="62.636207083279" lon="17.981369127049">
        <ele>71</ele>
        <time>2017-12-21T19:50:32Z</time>
      </trkpt>
      <trkpt lat="62.636220494319" lon="17.981499884689">
        <ele>70.6</ele>
        <time>2017-12-21T19:50:33Z</time>
      </trkpt>
      <trkpt lat="62.63623633611" lon="17.981640952066">
        <ele>70.6</ele>
        <time>2017-12-21T19:50:34Z</time>
      </trkpt>
      <trkpt lat="62.636249495693" lon="17.981762657254">
        <ele>70.4</ele>
        <time>2017-12-21T19:50:35Z</time>
      </trkpt>
      <trkpt lat="62.636267600597" lon="17.981917638585">
        <ele>70.2</ele>
        <time>2017-12-21T19:50:36Z</time>
      </trkpt>
      <trkpt lat="62.636277658877" lon="17.982046384569">
        <ele>70.2</ele>
        <time>2017-12-21T19:50:37Z</time>
      </trkpt>
      <trkpt lat="62.636281849827" lon="17.982164653178">
        <ele>70</ele>
        <time>2017-12-21T19:50:38Z</time>
      </trkpt>
      <trkpt lat="62.63628578932" lon="17.982262386132">
        <ele>70.2</ele>
        <time>2017-12-21T19:50:39Z</time>
      </trkpt>
      <trkpt lat="62.636292159564" lon="17.982365483502">
        <ele>70.2</ele>
        <time>2017-12-21T19:50:40Z</time>
      </trkpt>
      <trkpt lat="62.636295260867" lon="17.982471346899">
        <ele>70.2</ele>
        <time>2017-12-21T19:50:41Z</time>
      </trkpt>
      <trkpt lat="62.636293668306" lon="17.982578383762">
        <ele>70.6</ele>
        <time>2017-12-21T19:50:42Z</time>
      </trkpt>
      <trkpt lat="62.636306660251" lon="17.982703693167">
        <ele>70.6</ele>
        <time>2017-12-21T19:50:44Z</time>
      </trkpt>
      <trkpt lat="62.636305822061" lon="17.982777872982">
        <ele>71</ele>
        <time>2017-12-21T19:50:45Z</time>
      </trkpt>
      <trkpt lat="62.636302469301" lon="17.982899410532">
        <ele>71.4</ele>
        <time>2017-12-21T19:50:46Z</time>
      </trkpt>
      <trkpt lat="62.636297272523" lon="17.982998819866">
        <ele>71.6</ele>
        <time>2017-12-21T19:50:47Z</time>
      </trkpt>
      <trkpt lat="62.636302385482" lon="17.983071239482">
        <ele>71.8</ele>
        <time>2017-12-21T19:50:48Z</time>
      </trkpt>
      <trkpt lat="62.636309342459" lon="17.98316360802">
        <ele>71.8</ele>
        <time>2017-12-21T19:50:49Z</time>
      </trkpt>
      <trkpt lat="62.636304145681" lon="17.983265951019">
        <ele>71.6</ele>
        <time>2017-12-21T19:50:50Z</time>
      </trkpt>
      <trkpt lat="62.636303726586" lon="17.983341052843">
        <ele>71.6</ele>
        <time>2017-12-21T19:50:51Z</time>
      </trkpt>
      <trkpt lat="62.636310683563" lon="17.983425207119">
        <ele>71.6</ele>
        <time>2017-12-21T19:50:52Z</time>
      </trkpt>
      <trkpt lat="62.636309845373" lon="17.983502739694">
        <ele>71.4</ele>
        <time>2017-12-21T19:50:53Z</time>
      </trkpt>
      <trkpt lat="62.636309342459" lon="17.98356007189">
        <ele>71.4</ele>
        <time>2017-12-21T19:50:54Z</time>
      </trkpt>
      <trkpt lat="62.636301295835" lon="17.983626624176">
        <ele>71.6</ele>
        <time>2017-12-21T19:50:55Z</time>
      </trkpt>
      <trkpt lat="62.636291908107" lon="17.98368580039">
        <ele>71.6</ele>
        <time>2017-12-21T19:50:56Z</time>
      </trkpt>
      <trkpt lat="62.636279167619" lon="17.983756459807">
        <ele>71.8</ele>
        <time>2017-12-21T19:50:57Z</time>
      </trkpt>
      <trkpt lat="62.636269947529" lon="17.983823095912">
        <ele>72</ele>
        <time>2017-12-21T19:50:58Z</time>
      </trkpt>
      <trkpt lat="62.636269193158" lon="17.983885792524">
        <ele>72</ele>
        <time>2017-12-21T19:50:59Z</time>
      </trkpt>
      <trkpt lat="62.636258548145" lon="17.983958547416">
        <ele>72.6</ele>
        <time>2017-12-21T19:51:00Z</time>
      </trkpt>
      <trkpt lat="62.636257793774" lon="17.984037169638">
        <ele>72.6</ele>
        <time>2017-12-21T19:51:01Z</time>
      </trkpt>
      <trkpt lat="62.636244131277" lon="17.984105565942">
        <ele>72.8</ele>
        <time>2017-12-21T19:51:02Z</time>
      </trkpt>
      <trkpt lat="62.636244298915" lon="17.984164993613">
        <ele>73</ele>
        <time>2017-12-21T19:51:03Z</time>
      </trkpt>
      <trkpt lat="62.636236671386" lon="17.984222409628">
        <ele>73.2</ele>
        <time>2017-12-21T19:51:04Z</time>
      </trkpt>
      <trkpt lat="62.636223344165" lon="17.984298098185">
        <ele>73.2</ele>
        <time>2017-12-21T19:51:05Z</time>
      </trkpt>
      <trkpt lat="62.636222589794" lon="17.984344030997">
        <ele>73.4</ele>
        <time>2017-12-21T19:51:06Z</time>
      </trkpt>
      <trkpt lat="62.636215129903" lon="17.984433130594">
        <ele>73.4</ele>
        <time>2017-12-21T19:51:07Z</time>
      </trkpt>
      <trkpt lat="62.636218566482" lon="17.984511752816">
        <ele>73.8</ele>
        <time>2017-12-21T19:51:08Z</time>
      </trkpt>
      <trkpt lat="62.636211022772" lon="17.984576209627">
        <ele>73.8</ele>
        <time>2017-12-21T19:51:09Z</time>
      </trkpt>
      <trkpt lat="62.636210100763" lon="17.984646114673">
        <ele>74</ele>
        <time>2017-12-21T19:51:10Z</time>
      </trkpt>
      <trkpt lat="62.636212615333" lon="17.984705123249">
        <ele>74</ele>
        <time>2017-12-21T19:51:11Z</time>
      </trkpt>
      <trkpt lat="62.636207418555" lon="17.984774022467">
        <ele>74</ele>
        <time>2017-12-21T19:51:12Z</time>
      </trkpt>
      <trkpt lat="62.636204987804" lon="17.984820458193">
        <ele>74.2</ele>
        <time>2017-12-21T19:51:13Z</time>
      </trkpt>
      <trkpt lat="62.636196019171" lon="17.984882987167">
        <ele>74.2</ele>
        <time>2017-12-21T19:51:14Z</time>
      </trkpt>
      <trkpt lat="62.636185793253" lon="17.984961357932">
        <ele>74.4</ele>
        <time>2017-12-21T19:51:15Z</time>
      </trkpt>
      <trkpt lat="62.636178249543" lon="17.98501600792">
        <ele>74.4</ele>
        <time>2017-12-21T19:51:16Z</time>
      </trkpt>
      <trkpt lat="62.636174477688" lon="17.985090271554">
        <ele>74.4</ele>
        <time>2017-12-21T19:51:17Z</time>
      </trkpt>
      <trkpt lat="62.636170538195" lon="17.985137126375">
        <ele>74.4</ele>
        <time>2017-12-21T19:51:18Z</time>
      </trkpt>
      <trkpt lat="62.636166179607" lon="17.985187501594">
        <ele>74.6</ele>
        <time>2017-12-21T19:51:19Z</time>
      </trkpt>
      <trkpt lat="62.636162659209" lon="17.985253299509">
        <ele>74.6</ele>
        <time>2017-12-21T19:51:20Z</time>
      </trkpt>
      <trkpt lat="62.636154528766" lon="17.985308703868">
        <ele>74.6</ele>
        <time>2017-12-21T19:51:21Z</time>
      </trkpt>
      <trkpt lat="62.636137262052" lon="17.985381794036">
        <ele>74.8</ele>
        <time>2017-12-21T19:51:22Z</time>
      </trkpt>
      <trkpt lat="62.636127706686" lon="17.985441892259">
        <ele>74.8</ele>
        <time>2017-12-21T19:51:23Z</time>
      </trkpt>
      <trkpt lat="62.636118318958" lon="17.985505007966">
        <ele>75</ele>
        <time>2017-12-21T19:51:24Z</time>
      </trkpt>
      <trkpt lat="62.636097783303" lon="17.985578936324">
        <ele>75</ele>
        <time>2017-12-21T19:51:25Z</time>
      </trkpt>
      <trkpt lat="62.636093508534" lon="17.985643476954">
        <ele>75.2</ele>
        <time>2017-12-21T19:51:26Z</time>
      </trkpt>
      <trkpt lat="62.636081019503" lon="17.98571170562">
        <ele>75.2</ele>
        <time>2017-12-21T19:51:27Z</time>
      </trkpt>
      <trkpt lat="62.636062914599" lon="17.985776581526">
        <ele>75.4</ele>
        <time>2017-12-21T19:51:28Z</time>
      </trkpt>
      <trkpt lat="62.636052185767" lon="17.985812204601">
        <ele>75.4</ele>
        <time>2017-12-21T19:51:29Z</time>
      </trkpt>
      <trkpt lat="62.636025363687" lon="17.985854114101">
        <ele>75.6</ele>
        <time>2017-12-21T19:51:30Z</time>
      </trkpt>
      <trkpt lat="62.636003906023" lon="17.985890072452">
        <ele>75.8</ele>
        <time>2017-12-21T19:51:31Z</time>
      </trkpt>
      <trkpt lat="62.635987561318" lon="17.985915972523">
        <ele>75.8</ele>
        <time>2017-12-21T19:51:32Z</time>
      </trkpt>
      <trkpt lat="62.63596476255" lon="17.98594891339">
        <ele>75.8</ele>
        <time>2017-12-21T19:51:33Z</time>
      </trkpt>
      <trkpt lat="62.635941712325" lon="17.985976238384">
        <ele>75.8</ele>
        <time>2017-12-21T19:51:34Z</time>
      </trkpt>
      <trkpt lat="62.635915057883" lon="17.98600758669">
        <ele>76</ele>
        <time>2017-12-21T19:51:35Z</time>
      </trkpt>
      <trkpt lat="62.635898629359" lon="17.986042539213">
        <ele>76</ele>
        <time>2017-12-21T19:51:36Z</time>
      </trkpt>
      <trkpt lat="62.635869879442" lon="17.986072211139">
        <ele>76.2</ele>
        <time>2017-12-21T19:51:37Z</time>
      </trkpt>
      <trkpt lat="62.635845152837" lon="17.986098530305">
        <ele>76.4</ele>
        <time>2017-12-21T19:51:38Z</time>
      </trkpt>
      <trkpt lat="62.63582729939" lon="17.98614337347">
        <ele>76.4</ele>
        <time>2017-12-21T19:51:39Z</time>
      </trkpt>
      <trkpt lat="62.635800309672" lon="17.986182349305">
        <ele>76.6</ele>
        <time>2017-12-21T19:51:40Z</time>
      </trkpt>
      <trkpt lat="62.635774241963" lon="17.986216966552">
        <ele>76.8</ele>
        <time>2017-12-21T19:51:41Z</time>
      </trkpt>
      <trkpt lat="62.635752197566" lon="17.986255858568">
        <ele>77</ele>
        <time>2017-12-21T19:51:42Z</time>
      </trkpt>
      <trkpt lat="62.635727219504" lon="17.986298690077">
        <ele>77</ele>
        <time>2017-12-21T19:51:43Z</time>
      </trkpt>
      <trkpt lat="62.635704839831" lon="17.986328362003">
        <ele>77.2</ele>
        <time>2017-12-21T19:51:44Z</time>
      </trkpt>
      <trkpt lat="62.635688243669" lon="17.986377479937">
        <ele>77.4</ele>
        <time>2017-12-21T19:51:45Z</time>
      </trkpt>
      <trkpt lat="62.635670390222" lon="17.986415701401">
        <ele>77.6</ele>
        <time>2017-12-21T19:51:46Z</time>
      </trkpt>
      <trkpt lat="62.635642562314" lon="17.986459287281">
        <ele>77.6</ele>
        <time>2017-12-21T19:51:47Z</time>
      </trkpt>
      <trkpt lat="62.635619595908" lon="17.986501029143">
        <ele>78</ele>
        <time>2017-12-21T19:51:48Z</time>
      </trkpt>
      <trkpt lat="62.635596294226" lon="17.986549476525">
        <ele>78.2</ele>
        <time>2017-12-21T19:51:49Z</time>
      </trkpt>
      <trkpt lat="62.635575758571" lon="17.986602450133">
        <ele>78</ele>
        <time>2017-12-21T19:51:50Z</time>
      </trkpt>
      <trkpt lat="62.63556159316" lon="17.986642180339">
        <ele>78.2</ele>
        <time>2017-12-21T19:51:51Z</time>
      </trkpt>
      <trkpt lat="62.635548936491" lon="17.986674702111">
        <ele>78.2</ele>
        <time>2017-12-21T19:51:52Z</time>
      </trkpt>
      <trkpt lat="62.635535860727" lon="17.986713594127">
        <ele>78.4</ele>
        <time>2017-12-21T19:51:53Z</time>
      </trkpt>
      <trkpt lat="62.635520857126" lon="17.98675692855">
        <ele>78.4</ele>
        <time>2017-12-21T19:51:54Z</time>
      </trkpt>
      <trkpt lat="62.635511972312" lon="17.986800682068">
        <ele>78.4</ele>
        <time>2017-12-21T19:51:55Z</time>
      </trkpt>
      <trkpt lat="62.635492945399" lon="17.986840999007">
        <ele>78.6</ele>
        <time>2017-12-21T19:51:56Z</time>
      </trkpt>
      <trkpt lat="62.635472158287" lon="17.986881232127">
        <ele>78.6</ele>
        <time>2017-12-21T19:51:57Z</time>
      </trkpt>
      <trkpt lat="62.635460255989" lon="17.986923141627">
        <ele>78.8</ele>
        <time>2017-12-21T19:51:58Z</time>
      </trkpt>
      <trkpt lat="62.635447096406" lon="17.98696982881">
        <ele>79</ele>
        <time>2017-12-21T19:51:59Z</time>
      </trkpt>
      <trkpt lat="62.635427901855" lon="17.987034201802">
        <ele>79</ele>
        <time>2017-12-21T19:52:00Z</time>
      </trkpt>
      <trkpt lat="62.635410216046" lon="17.987082062451">
        <ele>79.2</ele>
        <time>2017-12-21T19:52:01Z</time>
      </trkpt>
      <trkpt lat="62.635382723414" lon="17.987141406303">
        <ele>79.2</ele>
        <time>2017-12-21T19:52:02Z</time>
      </trkpt>
      <trkpt lat="62.635358583542" lon="17.987191278608">
        <ele>79.4</ele>
        <time>2017-12-21T19:52:03Z</time>
      </trkpt>
      <trkpt lat="62.635339388991" lon="17.987239977447">
        <ele>79.6</ele>
        <time>2017-12-21T19:52:04Z</time>
      </trkpt>
      <trkpt lat="62.635321787001" lon="17.987275097608">
        <ele>79.8</ele>
        <time>2017-12-21T19:52:05Z</time>
      </trkpt>
      <trkpt lat="62.635301921898" lon="17.98732103042">
        <ele>79.8</ele>
        <time>2017-12-21T19:52:06Z</time>
      </trkpt>
      <trkpt lat="62.635285912469" lon="17.987376937693">
        <ele>80</ele>
        <time>2017-12-21T19:52:07Z</time>
      </trkpt>
      <trkpt lat="62.63526655028" lon="17.987422954324">
        <ele>79.8</ele>
        <time>2017-12-21T19:52:08Z</time>
      </trkpt>
      <trkpt lat="62.635253055421" lon="17.987463271263">
        <ele>80</ele>
        <time>2017-12-21T19:52:09Z</time>
      </trkpt>
      <trkpt lat="62.635231011024" lon="17.9875154905">
        <ele>80</ele>
        <time>2017-12-21T19:52:10Z</time>
      </trkpt>
      <trkpt lat="62.635222042391" lon="17.987565530443">
        <ele>80</ele>
        <time>2017-12-21T19:52:11Z</time>
      </trkpt>
      <trkpt lat="62.635200752365" lon="17.987595034731">
        <ele>80.2</ele>
        <time>2017-12-21T19:52:12Z</time>
      </trkpt>
      <trkpt lat="62.635188850067" lon="17.987627472684">
        <ele>80.2</ele>
        <time>2017-12-21T19:52:13Z</time>
      </trkpt>
      <trkpt lat="62.635171164258" lon="17.987654294764">
        <ele>80.4</ele>
        <time>2017-12-21T19:52:14Z</time>
      </trkpt>
      <trkpt lat="62.635151550612" lon="17.987699557024">
        <ele>80.6</ele>
        <time>2017-12-21T19:52:15Z</time>
      </trkpt>
      <trkpt lat="62.63512908712" lon="17.987741634162">
        <ele>80.6</ele>
        <time>2017-12-21T19:52:16Z</time>
      </trkpt>
      <trkpt lat="62.635108886741" lon="17.987784800947">
        <ele>80.8</ele>
        <time>2017-12-21T19:52:17Z</time>
      </trkpt>
      <trkpt lat="62.635086590887" lon="17.987815981615">
        <ele>81</ele>
        <time>2017-12-21T19:52:18Z</time>
      </trkpt>
      <trkpt lat="62.635058846798" lon="17.987863590807">
        <ele>81.4</ele>
        <time>2017-12-21T19:52:19Z</time>
      </trkpt>
      <trkpt lat="62.635034036374" lon="17.987892508362">
        <ele>81.6</ele>
        <time>2017-12-21T19:52:20Z</time>
      </trkpt>
      <trkpt lat="62.635014171271" lon="17.987921006822">
        <ele>81.8</ele>
        <time>2017-12-21T19:52:21Z</time>
      </trkpt>
      <trkpt lat="62.634985588992" lon="17.987952438947">
        <ele>81.8</ele>
        <time>2017-12-21T19:52:22Z</time>
      </trkpt>
      <trkpt lat="62.63496564007" lon="17.987985044538">
        <ele>82</ele>
        <time>2017-12-21T19:52:23Z</time>
      </trkpt>
      <trkpt lat="62.634941500198" lon="17.988014716464">
        <ele>82</ele>
        <time>2017-12-21T19:52:24Z</time>
      </trkpt>
      <trkpt lat="62.634914678118" lon="17.988047489693">
        <ele>82.2</ele>
        <time>2017-12-21T19:52:25Z</time>
      </trkpt>
      <trkpt lat="62.634887772219" lon="17.98807372504">
        <ele>82.2</ele>
        <time>2017-12-21T19:52:26Z</time>
      </trkpt>
      <trkpt lat="62.634861872148" lon="17.988096020894">
        <ele>82.2</ele>
        <time>2017-12-21T19:52:27Z</time>
      </trkpt>
      <trkpt lat="62.634834128059" lon="17.988119071119">
        <ele>82.4</ele>
        <time>2017-12-21T19:52:28Z</time>
      </trkpt>
      <trkpt lat="62.634808814721" lon="17.988130554322">
        <ele>82.6</ele>
        <time>2017-12-21T19:52:29Z</time>
      </trkpt>
      <trkpt lat="62.634782998469" lon="17.988137511299">
        <ele>82.8</ele>
        <time>2017-12-21T19:52:30Z</time>
      </trkpt>
      <trkpt lat="62.634749638507" lon="17.988143127172">
        <ele>82.8</ele>
        <time>2017-12-21T19:52:31Z</time>
      </trkpt>
      <trkpt lat="62.634726253006" lon="17.988152347262">
        <ele>82.8</ele>
        <time>2017-12-21T19:52:32Z</time>
      </trkpt>
      <trkpt lat="62.63470077203" lon="17.988157711678">
        <ele>83</ele>
        <time>2017-12-21T19:52:33Z</time>
      </trkpt>
      <trkpt lat="62.634674117588" lon="17.9881608968">
        <ele>83</ele>
        <time>2017-12-21T19:52:34Z</time>
      </trkpt>
      <trkpt lat="62.63464880425" lon="17.988156957307">
        <ele>83.2</ele>
        <time>2017-12-21T19:52:35Z</time>
      </trkpt>
      <trkpt lat="62.634624915835" lon="17.988160393886">
        <ele>83.2</ele>
        <time>2017-12-21T19:52:36Z</time>
      </trkpt>
      <trkpt lat="62.634587197285" lon="17.988173385831">
        <ele>83.2</ele>
        <time>2017-12-21T19:52:37Z</time>
      </trkpt>
      <trkpt lat="62.634562554499" lon="17.988157124945">
        <ele>83.4</ele>
        <time>2017-12-21T19:52:38Z</time>
      </trkpt>
      <trkpt lat="62.634538749903" lon="17.988150335606">
        <ele>83.4</ele>
        <time>2017-12-21T19:52:39Z</time>
      </trkpt>
      <trkpt lat="62.634506144312" lon="17.988152598719">
        <ele>83.6</ele>
        <time>2017-12-21T19:52:40Z</time>
      </trkpt>
      <trkpt lat="62.634479406051" lon="17.988150503244">
        <ele>83.6</ele>
        <time>2017-12-21T19:52:41Z</time>
      </trkpt>
      <trkpt lat="62.634455601455" lon="17.988153520728">
        <ele>83.8</ele>
        <time>2017-12-21T19:52:42Z</time>
      </trkpt>
      <trkpt lat="62.634426264805" lon="17.988162070266">
        <ele>83.8</ele>
        <time>2017-12-21T19:52:43Z</time>
      </trkpt>
      <trkpt lat="62.63439902363" lon="17.988175481306">
        <ele>84</ele>
        <time>2017-12-21T19:52:44Z</time>
      </trkpt>
      <trkpt lat="62.634367340048" lon="17.988168105234">
        <ele>84.2</ele>
        <time>2017-12-21T19:52:45Z</time>
      </trkpt>
      <trkpt lat="62.634334483" lon="17.988165255388">
        <ele>84.2</ele>
        <time>2017-12-21T19:52:46Z</time>
      </trkpt>
      <trkpt lat="62.634300871581" lon="17.988150754701">
        <ele>84.4</ele>
        <time>2017-12-21T19:52:47Z</time>
      </trkpt>
      <trkpt lat="62.634266673429" lon="17.988159304239">
        <ele>84.4</ele>
        <time>2017-12-21T19:52:48Z</time>
      </trkpt>
      <trkpt lat="62.63422970925" lon="17.988145893199">
        <ele>84.6</ele>
        <time>2017-12-21T19:52:49Z</time>
      </trkpt>
      <trkpt lat="62.634196936021" lon="17.988143043353">
        <ele>84.6</ele>
        <time>2017-12-21T19:52:50Z</time>
      </trkpt>
      <trkpt lat="62.634167180276" lon="17.988120412223">
        <ele>84.6</ele>
        <time>2017-12-21T19:52:51Z</time>
      </trkpt>
      <trkpt lat="62.63412745007" lon="17.988121166594">
        <ele>84.8</ele>
        <time>2017-12-21T19:52:52Z</time>
      </trkpt>
      <trkpt lat="62.63409476066" lon="17.988101888224">
        <ele>84.6</ele>
        <time>2017-12-21T19:52:53Z</time>
      </trkpt>
      <trkpt lat="62.634060311051" lon="17.988094344514">
        <ele>84.6</ele>
        <time>2017-12-21T19:52:54Z</time>
      </trkpt>
      <trkpt lat="62.634027621641" lon="17.988067103339">
        <ele>84.4</ele>
        <time>2017-12-21T19:52:55Z</time>
      </trkpt>
      <trkpt lat="62.633996943887" lon="17.988048160245">
        <ele>84.2</ele>
        <time>2017-12-21T19:52:56Z</time>
      </trkpt>
      <trkpt lat="62.633959309156" lon="17.988057045059">
        <ele>84.2</ele>
        <time>2017-12-21T19:52:57Z</time>
      </trkpt>
      <trkpt lat="62.633922261158" lon="17.988039191612">
        <ele>84.4</ele>
        <time>2017-12-21T19:52:58Z</time>
      </trkpt>
      <trkpt lat="62.633888985015" lon="17.988035922671">
        <ele>84.4</ele>
        <time>2017-12-21T19:52:59Z</time>
      </trkpt>
      <trkpt lat="62.633859564546" lon="17.988009771143">
        <ele>84.6</ele>
        <time>2017-12-21T19:53:00Z</time>
      </trkpt>
      <trkpt lat="62.633824779661" lon="17.988001724519">
        <ele>84.8</ele>
        <time>2017-12-21T19:53:01Z</time>
      </trkpt>
      <trkpt lat="62.633791168242" lon="17.987978506656">
        <ele>85.2</ele>
        <time>2017-12-21T19:53:02Z</time>
      </trkpt>
      <trkpt lat="62.633757724461" lon="17.987948918549">
        <ele>85.6</ele>
        <time>2017-12-21T19:53:03Z</time>
      </trkpt>
      <trkpt lat="62.633722520481" lon="17.987936429518">
        <ele>85.8</ele>
        <time>2017-12-21T19:53:04Z</time>
      </trkpt>
      <trkpt lat="62.633692848555" lon="17.987892927457">
        <ele>86</ele>
        <time>2017-12-21T19:53:05Z</time>
      </trkpt>
      <trkpt lat="62.63366896014" lon="17.987869877232">
        <ele>86.2</ele>
        <time>2017-12-21T19:53:06Z</time>
      </trkpt>
      <trkpt lat="62.633640377861" lon="17.98782813537">
        <ele>86.2</ele>
        <time>2017-12-21T19:53:07Z</time>
      </trkpt>
      <trkpt lat="62.633613304324" lon="17.987803576403">
        <ele>86.2</ele>
        <time>2017-12-21T19:53:08Z</time>
      </trkpt>
      <trkpt lat="62.633593606859" lon="17.987784717128">
        <ele>86.4</ele>
        <time>2017-12-21T19:53:09Z</time>
      </trkpt>
      <trkpt lat="62.633571394824" lon="17.987754290831">
        <ele>86.6</ele>
        <time>2017-12-21T19:53:10Z</time>
      </trkpt>
      <trkpt lat="62.633550188617" lon="17.987738532859">
        <ele>86.6</ele>
        <time>2017-12-21T19:53:11Z</time>
      </trkpt>
      <trkpt lat="62.633531999894" lon="17.987718667756">
        <ele>86.8</ele>
        <time>2017-12-21T19:53:12Z</time>
      </trkpt>
      <trkpt lat="62.633500735407" lon="17.987693857332">
        <ele>87</ele>
        <time>2017-12-21T19:53:13Z</time>
      </trkpt>
      <trkpt lat="62.633481457037" lon="17.987662844302">
        <ele>87.2</ele>
        <time>2017-12-21T19:53:14Z</time>
      </trkpt>
      <trkpt lat="62.633452455663" lon="17.987628813788">
        <ele>87.2</ele>
        <time>2017-12-21T19:53:15Z</time>
      </trkpt>
      <trkpt lat="62.633423454289" lon="17.987610457427">
        <ele>87.2</ele>
        <time>2017-12-21T19:53:16Z</time>
      </trkpt>
      <trkpt lat="62.633396213114" lon="17.987579276759">
        <ele>87.2</ele>
        <time>2017-12-21T19:53:17Z</time>
      </trkpt>
      <trkpt lat="62.633376348011" lon="17.987541558209">
        <ele>87.2</ele>
        <time>2017-12-21T19:53:18Z</time>
      </trkpt>
      <trkpt lat="62.63335966803" lon="17.987511802464">
        <ele>87.4</ele>
        <time>2017-12-21T19:53:19Z</time>
      </trkpt>
      <trkpt lat="62.633341563126" lon="17.987481376167">
        <ele>87.4</ele>
        <time>2017-12-21T19:53:20Z</time>
      </trkpt>
      <trkpt lat="62.633325050783" lon="17.98744256797">
        <ele>87.6</ele>
        <time>2017-12-21T19:53:21Z</time>
      </trkpt>
      <trkpt lat="62.633308370802" lon="17.98738640924">
        <ele>87.8</ele>
        <time>2017-12-21T19:53:22Z</time>
      </trkpt>
      <trkpt lat="62.633282889826" lon="17.987340644066">
        <ele>88</ele>
        <time>2017-12-21T19:53:23Z</time>
      </trkpt>
      <trkpt lat="62.633260091058" lon="17.987272080124">
        <ele>88.2</ele>
        <time>2017-12-21T19:53:24Z</time>
      </trkpt>
      <trkpt lat="62.633229329485" lon="17.987175017722">
        <ele>88.4</ele>
        <time>2017-12-21T19:53:25Z</time>
      </trkpt>
      <trkpt lat="62.633212733323" lon="17.987107459608">
        <ele>88.4</ele>
        <time>2017-12-21T19:53:26Z</time>
      </trkpt>
      <trkpt lat="62.633188258175" lon="17.98696144691">
        <ele>88.2</ele>
        <time>2017-12-21T19:53:27Z</time>
      </trkpt>
      <trkpt lat="62.633171326737" lon="17.986831276003">
        <ele>87.8</ele>
        <time>2017-12-21T19:53:28Z</time>
      </trkpt>
      <trkpt lat="62.633161184638" lon="17.986711498652">
        <ele>87</ele>
        <time>2017-12-21T19:53:29Z</time>
      </trkpt>
      <trkpt lat="62.63315431148" lon="17.98658929055">
        <ele>86.2</ele>
        <time>2017-12-21T19:53:30Z</time>
      </trkpt>
      <trkpt lat="62.63314928234" lon="17.986468926466">
        <ele>85.6</ele>
        <time>2017-12-21T19:53:31Z</time>
      </trkpt>
      <trkpt lat="62.633138050594" lon="17.986394411375">
        <ele>84.8</ele>
        <time>2017-12-21T19:53:32Z</time>
      </trkpt>
      <trkpt lat="62.633117934034" lon="17.986263821373">
        <ele>84.4</ele>
        <time>2017-12-21T19:53:33Z</time>
      </trkpt>
      <trkpt lat="62.633110390324" lon="17.98613834433">
        <ele>84.8</ele>
        <time>2017-12-21T19:53:34Z</time>
      </trkpt>
      <trkpt lat="62.633106031736" lon="17.986031726562">
        <ele>84.8</ele>
        <time>2017-12-21T19:53:35Z</time>
      </trkpt>
      <trkpt lat="62.633105864098" lon="17.985938519834">
        <ele>84.8</ele>
        <time>2017-12-21T19:53:36Z</time>
      </trkpt>
      <trkpt lat="62.633103014252" lon="17.985789322014">
        <ele>84.6</ele>
        <time>2017-12-21T19:53:37Z</time>
      </trkpt>
      <trkpt lat="62.633103098071" lon="17.98565973784">
        <ele>84.8</ele>
        <time>2017-12-21T19:53:38Z</time>
      </trkpt>
      <trkpt lat="62.633106869926" lon="17.985525040707">
        <ele>85</ele>
        <time>2017-12-21T19:53:39Z</time>
      </trkpt>
      <trkpt lat="62.633116341473" lon="17.985387074633">
        <ele>84.6</ele>
        <time>2017-12-21T19:53:40Z</time>
      </trkpt>
      <trkpt lat="62.633133189092" lon="17.985255311165">
        <ele>84</ele>
        <time>2017-12-21T19:53:41Z</time>
      </trkpt>
      <trkpt lat="62.633163615389" lon="17.985070657908">
        <ele>83</ele>
        <time>2017-12-21T19:53:42Z</time>
      </trkpt>
      <trkpt lat="62.633196388618" lon="17.984911904722">
        <ele>82.2</ele>
        <time>2017-12-21T19:53:43Z</time>
      </trkpt>
      <trkpt lat="62.633229413304" lon="17.984794641941">
        <ele>81</ele>
        <time>2017-12-21T19:53:44Z</time>
      </trkpt>
      <trkpt lat="62.63326243799" lon="17.984660866817">
        <ele>80.2</ele>
        <time>2017-12-21T19:53:45Z</time>
      </trkpt>
      <trkpt lat="62.633293786296" lon="17.984538323439">
        <ele>79.6</ele>
        <time>2017-12-21T19:53:46Z</time>
      </trkpt>
      <trkpt lat="62.633317339435" lon="17.984416199156">
        <ele>79.4</ele>
        <time>2017-12-21T19:53:47Z</time>
      </trkpt>
      <trkpt lat="62.633333348864" lon="17.984308994655">
        <ele>79.4</ele>
        <time>2017-12-21T19:53:48Z</time>
      </trkpt>
      <trkpt lat="62.633351956682" lon="17.984195839005">
        <ele>79.4</ele>
        <time>2017-12-21T19:53:49Z</time>
      </trkpt>
      <trkpt lat="62.633370313043" lon="17.984083605364">
        <ele>79.4</ele>
        <time>2017-12-21T19:53:50Z</time>
      </trkpt>
      <trkpt lat="62.633384143178" lon="17.98396575585">
        <ele>79.4</ele>
        <time>2017-12-21T19:53:51Z</time>
      </trkpt>
      <trkpt lat="62.633401661349" lon="17.983841284635">
        <ele>79.6</ele>
        <time>2017-12-21T19:53:52Z</time>
      </trkpt>
      <trkpt lat="62.633419850072" lon="17.983725279139">
        <ele>79.8</ele>
        <time>2017-12-21T19:53:53Z</time>
      </trkpt>
      <trkpt lat="62.633431668551" lon="17.983621762674">
        <ele>80.2</ele>
        <time>2017-12-21T19:53:54Z</time>
      </trkpt>
      <trkpt lat="62.633443570849" lon="17.983516234553">
        <ele>80.4</ele>
        <time>2017-12-21T19:53:55Z</time>
      </trkpt>
      <trkpt lat="62.633458490631" lon="17.983417411952">
        <ele>80.6</ele>
        <time>2017-12-21T19:53:56Z</time>
      </trkpt>
      <trkpt lat="62.633474332422" lon="17.983302831379">
        <ele>80.8</ele>
        <time>2017-12-21T19:53:57Z</time>
      </trkpt>
      <trkpt lat="62.633496628276" lon="17.983198141448">
        <ele>80.8</ele>
        <time>2017-12-21T19:53:58Z</time>
      </trkpt>
      <trkpt lat="62.633516912474" lon="17.983108790394">
        <ele>80.6</ele>
        <time>2017-12-21T19:53:59Z</time>
      </trkpt>
      <trkpt lat="62.63353736431" lon="17.983018265874">
        <ele>80.8</ele>
        <time>2017-12-21T19:54:00Z</time>
      </trkpt>
      <trkpt lat="62.6335549663" lon="17.982935704159">
        <ele>80.8</ele>
        <time>2017-12-21T19:54:01Z</time>
      </trkpt>
      <trkpt lat="62.633567455331" lon="17.982845431096">
        <ele>80.8</ele>
        <time>2017-12-21T19:54:02Z</time>
      </trkpt>
      <trkpt lat="62.633584219131" lon="17.982751972911">
        <ele>81</ele>
        <time>2017-12-21T19:54:03Z</time>
      </trkpt>
      <trkpt lat="62.633604000415" lon="17.982651557749">
        <ele>81</ele>
        <time>2017-12-21T19:54:04Z</time>
      </trkpt>
      <trkpt lat="62.633602324035" lon="17.98258022778">
        <ele>81</ele>
        <time>2017-12-21T19:54:05Z</time>
      </trkpt>
      <trkpt lat="62.633606431166" lon="17.982505461232">
        <ele>81.2</ele>
        <time>2017-12-21T19:54:06Z</time>
      </trkpt>
      <trkpt lat="62.633613891057" lon="17.982387276442">
        <ele>81.2</ele>
        <time>2017-12-21T19:54:07Z</time>
      </trkpt>
      <trkpt lat="62.633608107546" lon="17.98231452155">
        <ele>81.2</ele>
        <time>2017-12-21T19:54:08Z</time>
      </trkpt>
      <trkpt lat="62.633616657084" lon="17.982233049482">
        <ele>81</ele>
        <time>2017-12-21T19:54:09Z</time>
      </trkpt>
      <trkpt lat="62.633625458079" lon="17.982162306246">
        <ele>81.2</ele>
        <time>2017-12-21T19:54:10Z</time>
      </trkpt>
      <trkpt lat="62.633632498875" lon="17.982104722593">
        <ele>81.2</ele>
        <time>2017-12-21T19:54:11Z</time>
      </trkpt>
      <trkpt lat="62.633630319581" lon="17.982036913022">
        <ele>81</ele>
        <time>2017-12-21T19:54:12Z</time>
      </trkpt>
      <trkpt lat="62.633635181083" lon="17.981938593335">
        <ele>81</ele>
        <time>2017-12-21T19:54:13Z</time>
      </trkpt>
      <trkpt lat="62.633637444196" lon="17.981859300561">
        <ele>81.2</ele>
        <time>2017-12-21T19:54:14Z</time>
      </trkpt>
      <trkpt lat="62.633649346494" lon="17.981760226503">
        <ele>81.2</ele>
        <time>2017-12-21T19:54:15Z</time>
      </trkpt>
      <trkpt lat="62.633664182457" lon="17.981679508806">
        <ele>81.4</ele>
        <time>2017-12-21T19:54:16Z</time>
      </trkpt>
      <trkpt lat="62.63367398928" lon="17.981585212431">
        <ele>81.4</ele>
        <time>2017-12-21T19:54:17Z</time>
      </trkpt>
      <trkpt lat="62.633677928773" lon="17.981496531929">
        <ele>81.6</ele>
        <time>2017-12-21T19:54:18Z</time>
      </trkpt>
      <trkpt lat="62.633681700628" lon="17.981424279951">
        <ele>81.4</ele>
        <time>2017-12-21T19:54:19Z</time>
      </trkpt>
      <trkpt lat="62.633689328157" lon="17.981347082652">
        <ele>81.6</ele>
        <time>2017-12-21T19:54:20Z</time>
      </trkpt>
      <trkpt lat="62.633694524935" lon="17.981283464031">
        <ele>81.6</ele>
        <time>2017-12-21T19:54:21Z</time>
      </trkpt>
      <trkpt lat="62.633704247939" lon="17.98120308161">
        <ele>81.6</ele>
        <time>2017-12-21T19:54:22Z</time>
      </trkpt>
      <trkpt lat="62.633719083902" lon="17.981139127713">
        <ele>81.6</ele>
        <time>2017-12-21T19:54:23Z</time>
      </trkpt>
      <trkpt lat="62.633733081675" lon="17.981080538232">
        <ele>81.8</ele>
        <time>2017-12-21T19:54:24Z</time>
      </trkpt>
      <trkpt lat="62.63375445552" lon="17.981006861331">
        <ele>82</ele>
        <time>2017-12-21T19:54:25Z</time>
      </trkpt>
      <trkpt lat="62.633774069166" lon="17.980950032049">
        <ele>82.2</ele>
        <time>2017-12-21T19:54:26Z</time>
      </trkpt>
      <trkpt lat="62.633797119391" lon="17.98088289303">
        <ele>82.2</ele>
        <time>2017-12-21T19:54:27Z</time>
      </trkpt>
      <trkpt lat="62.633822265091" lon="17.980818855314">
        <ele>82.4</ele>
        <time>2017-12-21T19:54:28Z</time>
      </trkpt>
      <trkpt lat="62.633851015008" lon="17.980746603336">
        <ele>82.8</ele>
        <time>2017-12-21T19:54:29Z</time>
      </trkpt>
      <trkpt lat="62.633880770753" lon="17.980678542308">
        <ele>82.8</ele>
        <time>2017-12-21T19:54:30Z</time>
      </trkpt>
      <trkpt lat="62.633905497358" lon="17.980606122692">
        <ele>82.8</ele>
        <time>2017-12-21T19:54:31Z</time>
      </trkpt>
      <trkpt lat="62.633917567294" lon="17.980537139655">
        <ele>82.8</ele>
        <time>2017-12-21T19:54:32Z</time>
      </trkpt>
      <trkpt lat="62.633933660542" lon="17.980456086682">
        <ele>82.8</ele>
        <time>2017-12-21T19:54:33Z</time>
      </trkpt>
      <trkpt lat="62.633958722423" lon="17.980379559935">
        <ele>82.8</ele>
        <time>2017-12-21T19:54:34Z</time>
      </trkpt>
      <trkpt lat="62.633983951942" lon="17.980315019305">
        <ele>82.8</ele>
        <time>2017-12-21T19:54:35Z</time>
      </trkpt>
      <trkpt lat="62.634009181461" lon="17.980270930511">
        <ele>82.6</ele>
        <time>2017-12-21T19:54:36Z</time>
      </trkpt>
      <trkpt lat="62.634045894183" lon="17.980211167564">
        <ele>82.4</ele>
        <time>2017-12-21T19:54:37Z</time>
      </trkpt>
      <trkpt lat="62.634074141186" lon="17.980152745721">
        <ele>82.4</ele>
        <time>2017-12-21T19:54:38Z</time>
      </trkpt>
      <trkpt lat="62.634104148388" lon="17.980110836221">
        <ele>82.2</ele>
        <time>2017-12-21T19:54:39Z</time>
      </trkpt>
      <trkpt lat="62.634131557201" lon="17.980056689147">
        <ele>82</ele>
        <time>2017-12-21T19:54:40Z</time>
      </trkpt>
      <trkpt lat="62.634154942702" lon="17.980001787702">
        <ele>81.8</ele>
        <time>2017-12-21T19:54:41Z</time>
      </trkpt>
      <trkpt lat="62.634171790321" lon="17.979946048067">
        <ele>82</ele>
        <time>2017-12-21T19:54:42Z</time>
      </trkpt>
      <trkpt lat="62.63419366708" lon="17.979883016179">
        <ele>82</ele>
        <time>2017-12-21T19:54:43Z</time>
      </trkpt>
      <trkpt lat="62.634209425052" lon="17.979835239349">
        <ele>82.2</ele>
        <time>2017-12-21T19:54:44Z</time>
      </trkpt>
      <trkpt lat="62.634231804725" lon="17.979763238828">
        <ele>82</ele>
        <time>2017-12-21T19:54:45Z</time>
      </trkpt>
      <trkpt lat="62.634231134173" lon="17.979707331555">
        <ele>82.2</ele>
        <time>2017-12-21T19:54:46Z</time>
      </trkpt>
      <trkpt lat="62.634242952652" lon="17.979639270527">
        <ele>82.4</ele>
        <time>2017-12-21T19:54:47Z</time>
      </trkpt>
      <trkpt lat="62.634260973737" lon="17.979571041861">
        <ele>82.2</ele>
        <time>2017-12-21T19:54:48Z</time>
      </trkpt>
      <trkpt lat="62.63428000065" lon="17.979494431295">
        <ele>82.2</ele>
        <time>2017-12-21T19:54:49Z</time>
      </trkpt>
      <trkpt lat="62.634301709771" lon="17.979424945344">
        <ele>82.2</ele>
        <time>2017-12-21T19:54:50Z</time>
      </trkpt>
      <trkpt lat="62.634311181318" lon="17.979364428026">
        <ele>82.2</ele>
        <time>2017-12-21T19:54:51Z</time>
      </trkpt>
      <trkpt lat="62.634328028937" lon="17.979294187704">
        <ele>82.2</ele>
        <time>2017-12-21T19:54:52Z</time>
      </trkpt>
      <trkpt lat="62.63434705585" lon="17.979223193011">
        <ele>82.2</ele>
        <time>2017-12-21T19:54:53Z</time>
      </trkpt>
      <trkpt lat="62.6343596287" lon="17.979158484743">
        <ele>82.4</ele>
        <time>2017-12-21T19:54:54Z</time>
      </trkpt>
      <trkpt lat="62.634378152699" lon="17.979082293272">
        <ele>82.2</ele>
        <time>2017-12-21T19:54:55Z</time>
      </trkpt>
      <trkpt lat="62.634396341422" lon="17.979012304407">
        <ele>82.2</ele>
        <time>2017-12-21T19:54:56Z</time>
      </trkpt>
      <trkpt lat="62.634434646705" lon="17.978874925066">
        <ele>82.2</ele>
        <time>2017-12-21T19:54:58Z</time>
      </trkpt>
      <trkpt lat="62.634445040261" lon="17.978802086355">
        <ele>82.4</ele>
        <time>2017-12-21T19:54:59Z</time>
      </trkpt>
      <trkpt lat="62.634465156821" lon="17.978724889056">
        <ele>82.2</ele>
        <time>2017-12-21T19:55:00Z</time>
      </trkpt>
      <trkpt lat="62.634480663336" lon="17.978649787232">
        <ele>82.4</ele>
        <time>2017-12-21T19:55:01Z</time>
      </trkpt>
      <trkpt lat="62.634497343317" lon="17.978579211634">
        <ele>82.2</ele>
        <time>2017-12-21T19:55:02Z</time>
      </trkpt>
      <trkpt lat="62.634506731045" lon="17.978508636036">
        <ele>82.2</ele>
        <time>2017-12-21T19:55:03Z</time>
      </trkpt>
      <trkpt lat="62.634520142085" lon="17.978421129">
        <ele>82.2</ele>
        <time>2017-12-21T19:55:04Z</time>
      </trkpt>
      <trkpt lat="62.634534726591" lon="17.978328006091">
        <ele>82.2</ele>
        <time>2017-12-21T19:55:05Z</time>
      </trkpt>
      <trkpt lat="62.634548724364" lon="17.978253993914">
        <ele>82.2</ele>
        <time>2017-12-21T19:55:06Z</time>
      </trkpt>
      <trkpt lat="62.634563392689" lon="17.978137234047">
        <ele>82</ele>
        <time>2017-12-21T19:55:07Z</time>
      </trkpt>
      <trkpt lat="62.634574708254" lon="17.97805567816">
        <ele>81.8</ele>
        <time>2017-12-21T19:55:08Z</time>
      </trkpt>
      <trkpt lat="62.634598429031" lon="17.977939505026">
        <ele>81.4</ele>
        <time>2017-12-21T19:55:09Z</time>
      </trkpt>
      <trkpt lat="62.634610750424" lon="17.97785032161">
        <ele>81.2</ele>
        <time>2017-12-21T19:55:10Z</time>
      </trkpt>
      <trkpt lat="62.63462701131" lon="17.977761641108">
        <ele>81.2</ele>
        <time>2017-12-21T19:55:11Z</time>
      </trkpt>
      <trkpt lat="62.634638243056" lon="17.977679582307">
        <ele>81</ele>
        <time>2017-12-21T19:55:12Z</time>
      </trkpt>
      <trkpt lat="62.634651654096" lon="17.977572210168">
        <ele>81</ele>
        <time>2017-12-21T19:55:13Z</time>
      </trkpt>
      <trkpt lat="62.634672525027" lon="17.977483278209">
        <ele>81.2</ele>
        <time>2017-12-21T19:55:14Z</time>
      </trkpt>
      <trkpt lat="62.634688869732" lon="17.977398285743">
        <ele>81.2</ele>
        <time>2017-12-21T19:55:15Z</time>
      </trkpt>
      <trkpt lat="62.634704711523" lon="17.977311449259">
        <ele>81.2</ele>
        <time>2017-12-21T19:55:16Z</time>
      </trkpt>
      <trkpt lat="62.634720720952" lon="17.977232743218">
        <ele>81.2</ele>
        <time>2017-12-21T19:55:17Z</time>
      </trkpt>
      <trkpt lat="62.634733629078" lon="17.977171806805">
        <ele>81.2</ele>
        <time>2017-12-21T19:55:18Z</time>
      </trkpt>
      <trkpt lat="62.634752320715" lon="17.977088490719">
        <ele>81</ele>
        <time>2017-12-21T19:55:19Z</time>
      </trkpt>
      <trkpt lat="62.6347619599" lon="17.977025458831">
        <ele>81</ele>
        <time>2017-12-21T19:55:20Z</time>
      </trkpt>
      <trkpt lat="62.634777717872" lon="17.976949686455">
        <ele>80.8</ele>
        <time>2017-12-21T19:55:21Z</time>
      </trkpt>
      <trkpt lat="62.634800768097" lon="17.976844158334">
        <ele>80.8</ele>
        <time>2017-12-21T19:55:22Z</time>
      </trkpt>
      <trkpt lat="62.634820130286" lon="17.976762937723">
        <ele>80.8</ele>
        <time>2017-12-21T19:55:23Z</time>
      </trkpt>
      <trkpt lat="62.634839827751" lon="17.976667048787">
        <ele>80.8</ele>
        <time>2017-12-21T19:55:24Z</time>
      </trkpt>
      <trkpt lat="62.634860279587" lon="17.976567136539">
        <ele>80.8</ele>
        <time>2017-12-21T19:55:25Z</time>
      </trkpt>
      <trkpt lat="62.634875702283" lon="17.976487759946">
        <ele>80.8</ele>
        <time>2017-12-21T19:55:26Z</time>
      </trkpt>
      <trkpt lat="62.634894561558" lon="17.976405533507">
        <ele>80.8</ele>
        <time>2017-12-21T19:55:27Z</time>
      </trkpt>
      <trkpt lat="62.634914845756" lon="17.976330515502">
        <ele>80.8</ele>
        <time>2017-12-21T19:55:28Z</time>
      </trkpt>
      <trkpt lat="62.63493546523" lon="17.976258514981">
        <ele>80.4</ele>
        <time>2017-12-21T19:55:29Z</time>
      </trkpt>
      <trkpt lat="62.634950217374" lon="17.976175450352">
        <ele>80</ele>
        <time>2017-12-21T19:55:30Z</time>
      </trkpt>
      <trkpt lat="62.634965891527" lon="17.976108059876">
        <ele>79.8</ele>
        <time>2017-12-21T19:55:31Z</time>
      </trkpt>
      <trkpt lat="62.634993132702" lon="17.97600127447">
        <ele>79.6</ele>
        <time>2017-12-21T19:55:32Z</time>
      </trkpt>
      <trkpt lat="62.635016853479" lon="17.975904379706">
        <ele>79.6</ele>
        <time>2017-12-21T19:55:33Z</time>
      </trkpt>
      <trkpt lat="62.635035628935" lon="17.975821315077">
        <ele>79.6</ele>
        <time>2017-12-21T19:55:34Z</time>
      </trkpt>
      <trkpt lat="62.635053733839" lon="17.975716206051">
        <ele>79.8</ele>
        <time>2017-12-21T19:55:35Z</time>
      </trkpt>
      <trkpt lat="62.635066390508" lon="17.975643954073">
        <ele>79.6</ele>
        <time>2017-12-21T19:55:36Z</time>
      </trkpt>
      <trkpt lat="62.635080304462" lon="17.975542281626">
        <ele>79.4</ele>
        <time>2017-12-21T19:55:37Z</time>
      </trkpt>
      <trkpt lat="62.63509220676" lon="17.975444464853">
        <ele>79.2</ele>
        <time>2017-12-21T19:55:38Z</time>
      </trkpt>
      <trkpt lat="62.635103187049" lon="17.975346228985">
        <ele>79.2</ele>
        <time>2017-12-21T19:55:39Z</time>
      </trkpt>
      <trkpt lat="62.635112239501" lon="17.975229133842">
        <ele>79.2</ele>
        <time>2017-12-21T19:55:40Z</time>
      </trkpt>
      <trkpt lat="62.635110982216" lon="17.975138274046">
        <ele>79</ele>
        <time>2017-12-21T19:55:41Z</time>
      </trkpt>
      <trkpt lat="62.635102432678" lon="17.975032997382">
        <ele>78.6</ele>
        <time>2017-12-21T19:55:42Z</time>
      </trkpt>
      <trkpt lat="62.635080807376" lon="17.97492839127">
        <ele>78.2</ele>
        <time>2017-12-21T19:55:43Z</time>
      </trkpt>
      <trkpt lat="62.635054572029" lon="17.974843398804">
        <ele>78</ele>
        <time>2017-12-21T19:55:44Z</time>
      </trkpt>
      <trkpt lat="62.635025654474" lon="17.974738708873">
        <ele>77.6</ele>
        <time>2017-12-21T19:55:45Z</time>
      </trkpt>
      <trkpt lat="62.635006040828" lon="17.974640137729">
        <ele>76.8</ele>
        <time>2017-12-21T19:55:46Z</time>
      </trkpt>
      <trkpt lat="62.634984583164" lon="17.974535363979">
        <ele>76.2</ele>
        <time>2017-12-21T19:55:47Z</time>
      </trkpt>
      <trkpt lat="62.634964718061" lon="17.974435284093">
        <ele>75.4</ele>
        <time>2017-12-21T19:55:48Z</time>
      </trkpt>
      <trkpt lat="62.634944014768" lon="17.974332354361">
        <ele>75</ele>
        <time>2017-12-21T19:55:49Z</time>
      </trkpt>
      <trkpt lat="62.634920293991" lon="17.974245685515">
        <ele>74.6</ele>
        <time>2017-12-21T19:55:50Z</time>
      </trkpt>
      <trkpt lat="62.634904787476" lon="17.97419078407">
        <ele>74.4</ele>
        <time>2017-12-21T19:55:51Z</time>
      </trkpt>
      <trkpt lat="62.634884587097" lon="17.974092967297">
        <ele>74.6</ele>
        <time>2017-12-21T19:55:52Z</time>
      </trkpt>
      <trkpt lat="62.634867488021" lon="17.974004370614">
        <ele>74.8</ele>
        <time>2017-12-21T19:55:53Z</time>
      </trkpt>
      <trkpt lat="62.634843767244" lon="17.973937483052">
        <ele>75</ele>
        <time>2017-12-21T19:55:54Z</time>
      </trkpt>
      <trkpt lat="62.63482314777" lon="17.973850981844">
        <ele>75.4</ele>
        <time>2017-12-21T19:55:55Z</time>
      </trkpt>
      <trkpt lat="62.634797834432" lon="17.973784010463">
        <ele>75.4</ele>
        <time>2017-12-21T19:55:56Z</time>
      </trkpt>
      <trkpt lat="62.634776795863" lon="17.973708321906">
        <ele>75.2</ele>
        <time>2017-12-21T19:55:57Z</time>
      </trkpt>
      <trkpt lat="62.634754248552" lon="17.973619809042">
        <ele>75.2</ele>
        <time>2017-12-21T19:55:58Z</time>
      </trkpt>
      <trkpt lat="62.634735892191" lon="17.973545629227">
        <ele>75</ele>
        <time>2017-12-21T19:55:59Z</time>
      </trkpt>
      <trkpt lat="62.634728516119" lon="17.973450075567">
        <ele>75.2</ele>
        <time>2017-12-21T19:56:00Z</time>
      </trkpt>
      <trkpt lat="62.634723235522" lon="17.973361897979">
        <ele>75.2</ele>
        <time>2017-12-21T19:56:01Z</time>
      </trkpt>
      <trkpt lat="62.63471837402" lon="17.973260896084">
        <ele>75.2</ele>
        <time>2017-12-21T19:56:02Z</time>
      </trkpt>
      <trkpt lat="62.634726504463" lon="17.973146315511">
        <ele>75.2</ele>
        <time>2017-12-21T19:56:03Z</time>
      </trkpt>
      <trkpt lat="62.634737233295" lon="17.973031986395">
        <ele>75.2</ele>
        <time>2017-12-21T19:56:04Z</time>
      </trkpt>
      <trkpt lat="62.63474435791" lon="17.972950765784">
        <ele>75.2</ele>
        <time>2017-12-21T19:56:05Z</time>
      </trkpt>
      <trkpt lat="62.634759361511" lon="17.97286309111">
        <ele>75.4</ele>
        <time>2017-12-21T19:56:06Z</time>
      </trkpt>
      <trkpt lat="62.634782998469" lon="17.972752533849">
        <ele>75.2</ele>
        <time>2017-12-21T19:56:07Z</time>
      </trkpt>
      <trkpt lat="62.634805964875" lon="17.972659746216">
        <ele>75</ele>
        <time>2017-12-21T19:56:08Z</time>
      </trkpt>
      <trkpt lat="62.63483069148" lon="17.972565198384">
        <ele>74.8</ele>
        <time>2017-12-21T19:56:09Z</time>
      </trkpt>
      <trkpt lat="62.634853490248" lon="17.97247752371">
        <ele>74.8</ele>
        <time>2017-12-21T19:56:10Z</time>
      </trkpt>
      <trkpt lat="62.634885006192" lon="17.97239035195">
        <ele>74.6</ele>
        <time>2017-12-21T19:56:11Z</time>
      </trkpt>
      <trkpt lat="62.634922724742" lon="17.972295804118">
        <ele>74.4</ele>
        <time>2017-12-21T19:56:12Z</time>
      </trkpt>
      <trkpt lat="62.634956839075" lon="17.972203267942">
        <ele>74</ele>
        <time>2017-12-21T19:56:13Z</time>
      </trkpt>
      <trkpt lat="62.634983074422" lon="17.97212129296">
        <ele>73.8</ele>
        <time>2017-12-21T19:56:14Z</time>
      </trkpt>
      <trkpt lat="62.635011656701" lon="17.972030852259">
        <ele>73.4</ele>
        <time>2017-12-21T19:56:15Z</time>
      </trkpt>
      <trkpt lat="62.635034623107" lon="17.97193437659">
        <ele>73</ele>
        <time>2017-12-21T19:56:16Z</time>
      </trkpt>
      <trkpt lat="62.63506287011" lon="17.9718161918">
        <ele>72.6</ele>
        <time>2017-12-21T19:56:17Z</time>
      </trkpt>
      <trkpt lat="62.635085668878" lon="17.97170471253">
        <ele>72.4</ele>
        <time>2017-12-21T19:56:18Z</time>
      </trkpt>
      <trkpt lat="62.635105031067" lon="17.971585354274">
        <ele>72</ele>
        <time>2017-12-21T19:56:19Z</time>
      </trkpt>
      <trkpt lat="62.635120286125" lon="17.971471276615">
        <ele>71.8</ele>
        <time>2017-12-21T19:56:20Z</time>
      </trkpt>
      <trkpt lat="62.635132188423" lon="17.971385529778">
        <ele>71.4</ele>
        <time>2017-12-21T19:56:21Z</time>
      </trkpt>
      <trkpt lat="62.63514585092" lon="17.97126801554">
        <ele>71</ele>
        <time>2017-12-21T19:56:22Z</time>
      </trkpt>
      <trkpt lat="62.635157417942" lon="17.971165169627">
        <ele>70.6</ele>
        <time>2017-12-21T19:56:23Z</time>
      </trkpt>
      <trkpt lat="62.635168146774" lon="17.971070454157">
        <ele>70.4</ele>
        <time>2017-12-21T19:56:24Z</time>
      </trkpt>
      <trkpt lat="62.635178288873" lon="17.970970793366">
        <ele>70.2</ele>
        <time>2017-12-21T19:56:25Z</time>
      </trkpt>
      <trkpt lat="62.635188347153" lon="17.9708858009">
        <ele>70</ele>
        <time>2017-12-21T19:56:26Z</time>
      </trkpt>
      <trkpt lat="62.635196309958" lon="17.970812543094">
        <ele>69.6</ele>
        <time>2017-12-21T19:56:27Z</time>
      </trkpt>
      <trkpt lat="62.635210559188" lon="17.970705087136">
        <ele>69.4</ele>
        <time>2017-12-21T19:56:28Z</time>
      </trkpt>
      <trkpt lat="62.63521961164" lon="17.970628057475">
        <ele>69</ele>
        <time>2017-12-21T19:56:29Z</time>
      </trkpt>
      <trkpt lat="62.635228412635" lon="17.970547591235">
        <ele>68.6</ele>
        <time>2017-12-21T19:56:30Z</time>
      </trkpt>
      <trkpt lat="62.63523721363" lon="17.970467879366">
        <ele>68.4</ele>
        <time>2017-12-21T19:56:31Z</time>
      </trkpt>
      <trkpt lat="62.635246014625" lon="17.970383892728">
        <ele>68</ele>
        <time>2017-12-21T19:56:32Z</time>
      </trkpt>
      <trkpt lat="62.635254312706" lon="17.970307952714">
        <ele>67.8</ele>
        <time>2017-12-21T19:56:33Z</time>
      </trkpt>
      <trkpt lat="62.635263784253" lon="17.970230587777">
        <ele>67.4</ele>
        <time>2017-12-21T19:56:34Z</time>
      </trkpt>
      <trkpt lat="62.635273507257" lon="17.970151714098">
        <ele>67.2</ele>
        <time>2017-12-21T19:56:35Z</time>
      </trkpt>
      <trkpt lat="62.635282811166" lon="17.970085664726">
        <ele>67.2</ele>
        <time>2017-12-21T19:56:36Z</time>
      </trkpt>
      <trkpt lat="62.635298569138" lon="17.969986087754">
        <ele>66.8</ele>
        <time>2017-12-21T19:56:37Z</time>
      </trkpt>
      <trkpt lat="62.635315249119" lon="17.96990176584">
        <ele>66.4</ele>
        <time>2017-12-21T19:56:38Z</time>
      </trkpt>
      <trkpt lat="62.635333270204" lon="17.969817779202">
        <ele>66</ele>
        <time>2017-12-21T19:56:39Z</time>
      </trkpt>
      <trkpt lat="62.635353302945" lon="17.969739576075">
        <ele>65.4</ele>
        <time>2017-12-21T19:56:40Z</time>
      </trkpt>
      <trkpt lat="62.635371994582" lon="17.969668916658">
        <ele>65.2</ele>
        <time>2017-12-21T19:56:41Z</time>
      </trkpt>
      <trkpt lat="62.635391775866" lon="17.969591384083">
        <ele>64.8</ele>
        <time>2017-12-21T19:56:42Z</time>
      </trkpt>
      <trkpt lat="62.635412479159" lon="17.969510666386">
        <ele>64.4</ele>
        <time>2017-12-21T19:56:43Z</time>
      </trkpt>
      <trkpt lat="62.635429829692" lon="17.969440426064">
        <ele>64.2</ele>
        <time>2017-12-21T19:56:44Z</time>
      </trkpt>
      <trkpt lat="62.635450449166" lon="17.969362977308">
        <ele>63.8</ele>
        <time>2017-12-21T19:56:45Z</time>
      </trkpt>
      <trkpt lat="62.635468302613" lon="17.969289216588">
        <ele>63.6</ele>
        <time>2017-12-21T19:56:46Z</time>
      </trkpt>
      <trkpt lat="62.635491017562" lon="17.96920522995">
        <ele>63.4</ele>
        <time>2017-12-21T19:56:47Z</time>
      </trkpt>
      <trkpt lat="62.635511637036" lon="17.969128032651">
        <ele>63.2</ele>
        <time>2017-12-21T19:56:48Z</time>
      </trkpt>
      <trkpt lat="62.635535022537" lon="17.96904262109">
        <ele>63</ele>
        <time>2017-12-21T19:56:49Z</time>
      </trkpt>
      <trkpt lat="62.635557653667" lon="17.968962657764">
        <ele>62.6</ele>
        <time>2017-12-21T19:56:50Z</time>
      </trkpt>
      <trkpt lat="62.635577015856" lon="17.968891830709">
        <ele>62.4</ele>
        <time>2017-12-21T19:56:51Z</time>
      </trkpt>
      <trkpt lat="62.635601239547" lon="17.968809520451">
        <ele>62</ele>
        <time>2017-12-21T19:56:52Z</time>
      </trkpt>
      <trkpt lat="62.63562278103" lon="17.968736095007">
        <ele>61.6</ele>
        <time>2017-12-21T19:56:53Z</time>
      </trkpt>
      <trkpt lat="62.635645747436" lon="17.968666609056">
        <ele>61</ele>
        <time>2017-12-21T19:56:54Z</time>
      </trkpt>
      <trkpt lat="62.635672988611" lon="17.968588489748">
        <ele>60.6</ele>
        <time>2017-12-21T19:56:55Z</time>
      </trkpt>
      <trkpt lat="62.635701654709" lon="17.968528475344">
        <ele>60.2</ele>
        <time>2017-12-21T19:56:56Z</time>
      </trkpt>
      <trkpt lat="62.635739708535" lon="17.968468544759">
        <ele>59.8</ele>
        <time>2017-12-21T19:56:57Z</time>
      </trkpt>
      <trkpt lat="62.635781450397" lon="17.968420935567">
        <ele>59.4</ele>
        <time>2017-12-21T19:56:58Z</time>
      </trkpt>
      <trkpt lat="62.635822018793" lon="17.968388329976">
        <ele>58.8</ele>
        <time>2017-12-21T19:56:59Z</time>
      </trkpt>
      <trkpt lat="62.63586753251" lon="17.968362681362">
        <ele>58.4</ele>
        <time>2017-12-21T19:57:00Z</time>
      </trkpt>
      <trkpt lat="62.635914554969" lon="17.968347510123">
        <ele>57.8</ele>
        <time>2017-12-21T19:57:01Z</time>
      </trkpt>
      <trkpt lat="62.635965936016" lon="17.968345330829">
        <ele>57.4</ele>
        <time>2017-12-21T19:57:02Z</time>
      </trkpt>
      <trkpt lat="62.636010863" lon="17.968350946702">
        <ele>57</ele>
        <time>2017-12-21T19:57:03Z</time>
      </trkpt>
      <trkpt lat="62.636054700337" lon="17.968364944475">
        <ele>56.6</ele>
        <time>2017-12-21T19:57:04Z</time>
      </trkpt>
      <trkpt lat="62.636094849638" lon="17.968388329976">
        <ele>56.4</ele>
        <time>2017-12-21T19:57:05Z</time>
      </trkpt>
      <trkpt lat="62.636121923175" lon="17.968405429052">
        <ele>56.4</ele>
        <time>2017-12-21T19:57:06Z</time>
      </trkpt>
      <trkpt lat="62.636157127155" lon="17.96842655144">
        <ele>56.4</ele>
        <time>2017-12-21T19:57:07Z</time>
      </trkpt>
      <trkpt lat="62.636186715262" lon="17.968442141774">
        <ele>56.6</ele>
        <time>2017-12-21T19:57:08Z</time>
      </trkpt>
      <trkpt lat="62.636217728292" lon="17.968464018533">
        <ele>56.6</ele>
        <time>2017-12-21T19:57:09Z</time>
      </trkpt>
      <trkpt lat="62.636245640019" lon="17.968480866152">
        <ele>56.8</ele>
        <time>2017-12-21T19:57:10Z</time>
      </trkpt>
      <trkpt lat="62.636269109339" lon="17.968499390151">
        <ele>57</ele>
        <time>2017-12-21T19:57:11Z</time>
      </trkpt>
      <trkpt lat="62.636290567003" lon="17.968517746512">
        <ele>57</ele>
        <time>2017-12-21T19:57:12Z</time>
      </trkpt>
    </trkseg>
  </trk>
</gpx>